﻿<?xml version="1.0" encoding="utf-8"?><gpx creator="Garmin Desktop App" version="1.1" xsi:schemaLocation="http://www.topografix.com/GPX/1/1 http://www.topografix.com/GPX/1/1/gpx.xsd http://www.garmin.com/xmlschemas/WaypointExtension/v1 http://www8.garmin.com/xmlschemas/WaypointExtensionv1.xsd http://www.garmin.com/xmlschemas/TrackPointExtension/v1 http://www.garmin.com/xmlschemas/TrackPointExtensionv1.xsd http://www.garmin.com/xmlschemas/GpxExtensions/v3 http://www8.garmin.com/xmlschemas/GpxExtensionsv3.xsd http://www.garmin.com/xmlschemas/ActivityExtension/v1 http://www8.garmin.com/xmlschemas/ActivityExtensionv1.xsd http://www.garmin.com/xmlschemas/AdventuresExtensions/v1 http://www8.garmin.com/xmlschemas/AdventuresExtensionv1.xsd http://www.garmin.com/xmlschemas/PressureExtension/v1 http://www.garmin.com/xmlschemas/PressureExtensionv1.xsd http://www.garmin.com/xmlschemas/TripExtensions/v1 http://www.garmin.com/xmlschemas/TripExtensionsv1.xsd http://www.garmin.com/xmlschemas/TripMetaDataExtensions/v1 http://www.garmin.com/xmlschemas/TripMetaDataExtensionsv1.xsd http://www.garmin.com/xmlschemas/ViaPointTransportationModeExtensions/v1 http://www.garmin.com/xmlschemas/ViaPointTransportationModeExtensionsv1.xsd http://www.garmin.com/xmlschemas/CreationTimeExtension/v1 http://www.garmin.com/xmlschemas/CreationTimeExtensionsv1.xsd http://www.garmin.com/xmlschemas/AccelerationExtension/v1 http://www.garmin.com/xmlschemas/AccelerationExtensionv1.xsd http://www.garmin.com/xmlschemas/PowerExtension/v1 http://www.garmin.com/xmlschemas/PowerExtensionv1.xsd http://www.garmin.com/xmlschemas/VideoExtension/v1 http://www.garmin.com/xmlschemas/VideoExtensionv1.xsd" xmlns="http://www.topografix.com/GPX/1/1" xmlns:xsi="http://www.w3.org/2001/XMLSchema-instance" xmlns:wptx1="http://www.garmin.com/xmlschemas/WaypointExtension/v1" xmlns:gpxtrx="http://www.garmin.com/xmlschemas/GpxExtensions/v3" xmlns:gpxtpx="http://www.garmin.com/xmlschemas/TrackPointExtension/v1" xmlns:gpxx="http://www.garmin.com/xmlschemas/GpxExtensions/v3" xmlns:trp="http://www.garmin.com/xmlschemas/TripExtensions/v1" xmlns:adv="http://www.garmin.com/xmlschemas/AdventuresExtensions/v1" xmlns:prs="http://www.garmin.com/xmlschemas/PressureExtension/v1" xmlns:tmd="http://www.garmin.com/xmlschemas/TripMetaDataExtensions/v1" xmlns:vptm="http://www.garmin.com/xmlschemas/ViaPointTransportationModeExtensions/v1" xmlns:ctx="http://www.garmin.com/xmlschemas/CreationTimeExtension/v1" xmlns:gpxacc="http://www.garmin.com/xmlschemas/AccelerationExtension/v1" xmlns:gpxpx="http://www.garmin.com/xmlschemas/PowerExtension/v1" xmlns:vidx1="http://www.garmin.com/xmlschemas/VideoExtension/v1">

  <metadata>
    <link href="http://www.garmin.com">
      <text>Garmin International</text>
    </link>
    <time>2025-05-01T16:17:14Z</time>
    <bounds maxlat="43.058462971821427" maxlon="-8.540174961090088" minlat="42.839712984859943" minlon="-9.297754000872374" />
  </metadata>

  <trk>
    <name>250501_G_Track</name>
    <extensions>
      <gpxx:TrackExtension>
        <gpxx:DisplayColor>DarkGray</gpxx:DisplayColor>
      </gpxx:TrackExtension>
    </extensions>
    <trkseg>
      <trkpt lat="42.905203979462385" lon="-9.262224035337567">
        <ele>3.5</ele>
        <time>2025-05-01T08:24:55Z</time>
      </trkpt>
      <trkpt lat="42.905196016654372" lon="-9.262192016467452">
        <ele>13.6</ele>
        <time>2025-05-01T08:25:31Z</time>
      </trkpt>
      <trkpt lat="42.905202973634005" lon="-9.262183969840407">
        <ele>13.119999999999999</ele>
        <time>2025-05-01T08:26:11Z</time>
      </trkpt>
      <trkpt lat="42.905202973634005" lon="-9.262190004810691">
        <ele>12.630000000000001</ele>
        <time>2025-05-01T08:26:37Z</time>
      </trkpt>
      <trkpt lat="42.905209008604288" lon="-9.262198973447084">
        <ele>13.6</ele>
        <time>2025-05-01T08:27:15Z</time>
      </trkpt>
      <trkpt lat="42.90521202608943" lon="-9.262198973447084">
        <ele>14.56</ele>
        <time>2025-05-01T08:27:56Z</time>
      </trkpt>
      <trkpt lat="42.90521495975554" lon="-9.262196039780974">
        <ele>15.039999999999999</ele>
        <time>2025-05-01T08:28:31Z</time>
      </trkpt>
      <trkpt lat="42.905225018039346" lon="-9.262159997597337">
        <ele>14.56</ele>
        <time>2025-05-01T08:29:10Z</time>
      </trkpt>
      <trkpt lat="42.905225018039346" lon="-9.262136025354266">
        <ele>14.08</ele>
        <time>2025-05-01T08:29:12Z</time>
      </trkpt>
      <trkpt lat="42.905238009989262" lon="-9.261990012601018">
        <ele>15.039999999999999</ele>
        <time>2025-05-01T08:29:15Z</time>
      </trkpt>
      <trkpt lat="42.905302969738841" lon="-9.261861015111208">
        <ele>15.52</ele>
        <time>2025-05-01T08:29:19Z</time>
      </trkpt>
      <trkpt lat="42.905302969738841" lon="-9.261861015111208">
        <ele>15.52</ele>
        <time>2025-05-01T08:29:20Z</time>
      </trkpt>
      <trkpt lat="42.905400032177567" lon="-9.26173897460103">
        <ele>16</ele>
        <time>2025-05-01T08:29:22Z</time>
      </trkpt>
      <trkpt lat="42.905432973057032" lon="-9.261697987094522">
        <ele>16</ele>
        <time>2025-05-01T08:29:23Z</time>
      </trkpt>
      <trkpt lat="42.905646041035652" lon="-9.261432029306889">
        <ele>16.48</ele>
        <time>2025-05-01T08:29:28Z</time>
      </trkpt>
      <trkpt lat="42.905646041035652" lon="-9.261432029306889">
        <ele>16</ele>
        <time>2025-05-01T08:29:29Z</time>
      </trkpt>
      <trkpt lat="42.905646041035652" lon="-9.261432029306889">
        <ele>16.48</ele>
        <time>2025-05-01T08:29:30Z</time>
      </trkpt>
      <trkpt lat="42.905597006902099" lon="-9.261492965742946">
        <ele>16</ele>
        <time>2025-05-01T08:29:31Z</time>
      </trkpt>
      <trkpt lat="42.905572028830647" lon="-9.26152397878468">
        <ele>16</ele>
        <time>2025-05-01T08:29:32Z</time>
      </trkpt>
      <trkpt lat="42.905544033274055" lon="-9.261559015139937">
        <ele>16</ele>
        <time>2025-05-01T08:29:33Z</time>
      </trkpt>
      <trkpt lat="42.905516037717462" lon="-9.261593967676163">
        <ele>16</ele>
        <time>2025-05-01T08:29:34Z</time>
      </trkpt>
      <trkpt lat="42.905486030504107" lon="-9.261632021516562">
        <ele>16</ele>
        <time>2025-05-01T08:29:35Z</time>
      </trkpt>
      <trkpt lat="42.905454011633992" lon="-9.26167200319469">
        <ele>16</ele>
        <time>2025-05-01T08:29:36Z</time>
      </trkpt>
      <trkpt lat="42.905416963621974" lon="-9.261717014014721">
        <ele>16</ele>
        <time>2025-05-01T08:29:37Z</time>
      </trkpt>
      <trkpt lat="42.905376981943846" lon="-9.261767975986004">
        <ele>16.48</ele>
        <time>2025-05-01T08:29:38Z</time>
      </trkpt>
      <trkpt lat="42.905334988608956" lon="-9.261820027604699">
        <ele>16.48</ele>
        <time>2025-05-01T08:29:39Z</time>
      </trkpt>
      <trkpt lat="42.905151005834341" lon="-9.262077016755939">
        <ele>16.960000000000001</ele>
        <time>2025-05-01T08:29:44Z</time>
      </trkpt>
      <trkpt lat="42.905109012499452" lon="-9.262118004262447">
        <ele>17.440000000000001</ele>
        <time>2025-05-01T08:29:45Z</time>
      </trkpt>
      <trkpt lat="42.905109012499452" lon="-9.262118004262447">
        <ele>17.440000000000001</ele>
        <time>2025-05-01T08:29:46Z</time>
      </trkpt>
      <trkpt lat="42.905032988637686" lon="-9.262130996212363">
        <ele>17.920000000000002</ele>
        <time>2025-05-01T08:29:47Z</time>
      </trkpt>
      <trkpt lat="42.904988983646035" lon="-9.262138037011027">
        <ele>17.920000000000002</ele>
        <time>2025-05-01T08:29:48Z</time>
      </trkpt>
      <trkpt lat="42.904981020838022" lon="-9.262139964848757">
        <ele>17.920000000000002</ele>
        <time>2025-05-01T08:29:49Z</time>
      </trkpt>
      <trkpt lat="42.904820004478097" lon="-9.262197967618704">
        <ele>16.960000000000001</ele>
        <time>2025-05-01T08:29:53Z</time>
      </trkpt>
      <trkpt lat="42.904754038900137" lon="-9.262262005358934">
        <ele>16.48</ele>
        <time>2025-05-01T08:29:56Z</time>
      </trkpt>
      <trkpt lat="42.904705004766583" lon="-9.262282960116863">
        <ele>16.48</ele>
        <time>2025-05-01T08:29:57Z</time>
      </trkpt>
      <trkpt lat="42.904576007276773" lon="-9.262340040877461">
        <ele>16.48</ele>
        <time>2025-05-01T08:29:59Z</time>
      </trkpt>
      <trkpt lat="42.904511969536543" lon="-9.262368036434054">
        <ele>16.48</ele>
        <time>2025-05-01T08:30:00Z</time>
      </trkpt>
      <trkpt lat="42.904455978423357" lon="-9.262392008677125">
        <ele>16.960000000000001</ele>
        <time>2025-05-01T08:30:01Z</time>
      </trkpt>
      <trkpt lat="42.904365034773946" lon="-9.262511031702161">
        <ele>16.960000000000001</ele>
        <time>2025-05-01T08:30:03Z</time>
      </trkpt>
      <trkpt lat="42.904262021183968" lon="-9.262643968686461">
        <ele>16.960000000000001</ele>
        <time>2025-05-01T08:30:05Z</time>
      </trkpt>
      <trkpt lat="42.903926996514201" lon="-9.262978993356228">
        <ele>16.960000000000001</ele>
        <time>2025-05-01T08:30:10Z</time>
      </trkpt>
      <trkpt lat="42.903892965987325" lon="-9.263059040531516">
        <ele>16.960000000000001</ele>
        <time>2025-05-01T08:30:11Z</time>
      </trkpt>
      <trkpt lat="42.903872011229396" lon="-9.263148978352547">
        <ele>16.960000000000001</ele>
        <time>2025-05-01T08:30:12Z</time>
      </trkpt>
      <trkpt lat="42.903853990137577" lon="-9.263225002214313">
        <ele>17.440000000000001</ele>
        <time>2025-05-01T08:30:13Z</time>
      </trkpt>
      <trkpt lat="42.9038389865309" lon="-9.263287028297782">
        <ele>18.399999999999999</ele>
        <time>2025-05-01T08:30:14Z</time>
      </trkpt>
      <trkpt lat="42.903829012066126" lon="-9.263331033289433">
        <ele>19.359999999999999</ele>
        <time>2025-05-01T08:30:15Z</time>
      </trkpt>
      <trkpt lat="42.903821971267462" lon="-9.263359028846026">
        <ele>20.809999999999999</ele>
        <time>2025-05-01T08:30:16Z</time>
      </trkpt>
      <trkpt lat="42.903801016509533" lon="-9.263448966667056">
        <ele>21.77</ele>
        <time>2025-05-01T08:30:17Z</time>
      </trkpt>
      <trkpt lat="42.903801016509533" lon="-9.263449972495437">
        <ele>22.73</ele>
        <time>2025-05-01T08:30:18Z</time>
      </trkpt>
      <trkpt lat="42.903817025944591" lon="-9.26349900662899">
        <ele>23.690000000000001</ele>
        <time>2025-05-01T08:30:19Z</time>
      </trkpt>
      <trkpt lat="42.903835969045758" lon="-9.26356203854084">
        <ele>24.649999999999999</ele>
        <time>2025-05-01T08:30:20Z</time>
      </trkpt>
      <trkpt lat="42.90385901927948" lon="-9.263634039089084">
        <ele>26.09</ele>
        <time>2025-05-01T08:30:21Z</time>
      </trkpt>
      <trkpt lat="42.90390201844275" lon="-9.263766976073384">
        <ele>28.02</ele>
        <time>2025-05-01T08:30:23Z</time>
      </trkpt>
      <trkpt lat="42.903933031484485" lon="-9.263864038512111">
        <ele>30.420000000000002</ele>
        <time>2025-05-01T08:30:25Z</time>
      </trkpt>
      <trkpt lat="42.903974018990993" lon="-9.26392799243331">
        <ele>31.379999999999999</ele>
        <time>2025-05-01T08:30:26Z</time>
      </trkpt>
      <trkpt lat="42.904549017548561" lon="-9.26414399407804">
        <ele>37.149999999999999</ele>
        <time>2025-05-01T08:30:34Z</time>
      </trkpt>
      <trkpt lat="42.90463300421834" lon="-9.264179030433297">
        <ele>37.630000000000003</ele>
        <time>2025-05-01T08:30:35Z</time>
      </trkpt>
      <trkpt lat="42.904936010017991" lon="-9.264351027086377">
        <ele>39.07</ele>
        <time>2025-05-01T08:30:39Z</time>
      </trkpt>
      <trkpt lat="42.904989989474416" lon="-9.264390002936125">
        <ele>40.509999999999998</ele>
        <time>2025-05-01T08:30:40Z</time>
      </trkpt>
      <trkpt lat="42.905027037486434" lon="-9.264415986835957">
        <ele>41.950000000000003</ele>
        <time>2025-05-01T08:30:41Z</time>
      </trkpt>
      <trkpt lat="42.905056038871408" lon="-9.264433002099395">
        <ele>43.399999999999999</ele>
        <time>2025-05-01T08:30:42Z</time>
      </trkpt>
      <trkpt lat="42.90508302859962" lon="-9.264449011534452">
        <ele>44.359999999999999</ele>
        <time>2025-05-01T08:30:43Z</time>
      </trkpt>
      <trkpt lat="42.905116975307465" lon="-9.264468960464001">
        <ele>45.799999999999997</ele>
        <time>2025-05-01T08:30:44Z</time>
      </trkpt>
      <trkpt lat="42.905224012210965" lon="-9.264531992375851">
        <ele>48.200000000000003</ele>
        <time>2025-05-01T08:30:46Z</time>
      </trkpt>
      <trkpt lat="42.905426016077399" lon="-9.264649003744125">
        <ele>50.609999999999999</ele>
        <time>2025-05-01T08:30:49Z</time>
      </trkpt>
      <trkpt lat="42.906106961891055" lon="-9.264934994280338">
        <ele>52.049999999999997</ele>
        <time>2025-05-01T08:30:58Z</time>
      </trkpt>
      <trkpt lat="42.906766030937433" lon="-9.265157030895352">
        <ele>54.450000000000003</ele>
        <time>2025-05-01T08:31:07Z</time>
      </trkpt>
      <trkpt lat="42.90716702118516" lon="-9.26526197232306">
        <ele>54.93</ele>
        <time>2025-05-01T08:31:12Z</time>
      </trkpt>
      <trkpt lat="42.907248996198177" lon="-9.265272030606866">
        <ele>54.93</ele>
        <time>2025-05-01T08:31:13Z</time>
      </trkpt>
      <trkpt lat="42.907333988696337" lon="-9.265251997858286">
        <ele>54.93</ele>
        <time>2025-05-01T08:31:14Z</time>
      </trkpt>
      <trkpt lat="42.907419987022877" lon="-9.265229031443596">
        <ele>54.450000000000003</ele>
        <time>2025-05-01T08:31:15Z</time>
      </trkpt>
      <trkpt lat="42.907505985349417" lon="-9.265205981209874">
        <ele>53.969999999999999</ele>
        <time>2025-05-01T08:31:16Z</time>
      </trkpt>
      <trkpt lat="42.90757698006928" lon="-9.265187038108707">
        <ele>53.969999999999999</ele>
        <time>2025-05-01T08:31:17Z</time>
      </trkpt>
      <trkpt lat="42.90766297839582" lon="-9.265123000368476">
        <ele>53.969999999999999</ele>
        <time>2025-05-01T08:31:18Z</time>
      </trkpt>
      <trkpt lat="42.907735984772444" lon="-9.265068015083671">
        <ele>53.969999999999999</ele>
        <time>2025-05-01T08:31:19Z</time>
      </trkpt>
      <trkpt lat="42.907793987542391" lon="-9.265000959858298">
        <ele>54.450000000000003</ele>
        <time>2025-05-01T08:31:20Z</time>
      </trkpt>
      <trkpt lat="42.907854001969099" lon="-9.264927031472325">
        <ele>54.93</ele>
        <time>2025-05-01T08:31:21Z</time>
      </trkpt>
      <trkpt lat="42.907909993082285" lon="-9.264856036752462">
        <ele>55.409999999999997</ele>
        <time>2025-05-01T08:31:22Z</time>
      </trkpt>
      <trkpt lat="42.907962966710329" lon="-9.264783030375838">
        <ele>55.890000000000001</ele>
        <time>2025-05-01T08:31:23Z</time>
      </trkpt>
      <trkpt lat="42.908018035814166" lon="-9.264707006514072">
        <ele>55.890000000000001</ele>
        <time>2025-05-01T08:31:24Z</time>
      </trkpt>
      <trkpt lat="42.908723959699273" lon="-9.263695981353521">
        <ele>56.859999999999999</ele>
        <time>2025-05-01T08:31:37Z</time>
      </trkpt>
      <trkpt lat="42.908834014087915" lon="-9.263547034934163">
        <ele>57.340000000000003</ele>
        <time>2025-05-01T08:31:39Z</time>
      </trkpt>
      <trkpt lat="42.908894028514624" lon="-9.263484003022313">
        <ele>57.340000000000003</ele>
        <time>2025-05-01T08:31:40Z</time>
      </trkpt>
      <trkpt lat="42.908955970779061" lon="-9.263446033000946">
        <ele>56.859999999999999</ele>
        <time>2025-05-01T08:31:41Z</time>
      </trkpt>
      <trkpt lat="42.90903601795435" lon="-9.263405967503786">
        <ele>58.299999999999997</ele>
        <time>2025-05-01T08:31:42Z</time>
      </trkpt>
      <trkpt lat="42.909089997410774" lon="-9.26339196972549">
        <ele>61.18</ele>
        <time>2025-05-01T08:31:43Z</time>
      </trkpt>
      <trkpt lat="42.909164009615779" lon="-9.26339004188776">
        <ele>64.069999999999993</ele>
        <time>2025-05-01T08:31:44Z</time>
      </trkpt>
      <trkpt lat="42.909249002113938" lon="-9.263400016352534">
        <ele>66.469999999999999</ele>
        <time>2025-05-01T08:31:45Z</time>
      </trkpt>
      <trkpt lat="42.909332988783717" lon="-9.263417031615973">
        <ele>68.870000000000005</ele>
        <time>2025-05-01T08:31:46Z</time>
      </trkpt>
      <trkpt lat="42.909414041787386" lon="-9.263441003859043">
        <ele>70.790000000000006</ele>
        <time>2025-05-01T08:31:47Z</time>
      </trkpt>
      <trkpt lat="42.909904969856143" lon="-9.263582993298769">
        <ele>80.409999999999997</ele>
        <time>2025-05-01T08:31:53Z</time>
      </trkpt>
      <trkpt lat="42.909973030909896" lon="-9.263599002733827">
        <ele>81.849999999999994</ele>
        <time>2025-05-01T08:31:54Z</time>
      </trkpt>
      <trkpt lat="42.910047965124249" lon="-9.263533959165216">
        <ele>83.290000000000006</ele>
        <time>2025-05-01T08:31:55Z</time>
      </trkpt>
      <trkpt lat="42.910100016742945" lon="-9.263461958616972">
        <ele>84.730000000000004</ele>
        <time>2025-05-01T08:31:56Z</time>
      </trkpt>
      <trkpt lat="42.910137986764312" lon="-9.263380989432335">
        <ele>85.209999999999994</ele>
        <time>2025-05-01T08:31:57Z</time>
      </trkpt>
      <trkpt lat="42.910173023119569" lon="-9.263299014419317">
        <ele>85.209999999999994</ele>
        <time>2025-05-01T08:31:58Z</time>
      </trkpt>
      <trkpt lat="42.91019800119102" lon="-9.263226008042693">
        <ele>85.209999999999994</ele>
        <time>2025-05-01T08:31:59Z</time>
      </trkpt>
      <trkpt lat="42.9102180339396" lon="-9.263165993615985">
        <ele>85.209999999999994</ele>
        <time>2025-05-01T08:32:00Z</time>
      </trkpt>
      <trkpt lat="42.910233959555626" lon="-9.263116037473083">
        <ele>85.209999999999994</ele>
        <time>2025-05-01T08:32:01Z</time>
      </trkpt>
      <trkpt lat="42.910248041152954" lon="-9.263073960319161">
        <ele>84.730000000000004</ele>
        <time>2025-05-01T08:32:02Z</time>
      </trkpt>
      <trkpt lat="42.910259021446109" lon="-9.263041019439697">
        <ele>84.25</ele>
        <time>2025-05-01T08:32:03Z</time>
      </trkpt>
      <trkpt lat="42.910259021446109" lon="-9.263041019439697">
        <ele>79.930000000000007</ele>
        <time>2025-05-01T08:32:08Z</time>
      </trkpt>
      <trkpt lat="42.910290034487844" lon="-9.263062980026007">
        <ele>79.450000000000003</ele>
        <time>2025-05-01T08:32:09Z</time>
      </trkpt>
      <trkpt lat="42.910345019772649" lon="-9.263102039694786">
        <ele>79.450000000000003</ele>
        <time>2025-05-01T08:32:10Z</time>
      </trkpt>
      <trkpt lat="42.910406962037086" lon="-9.263145960867405">
        <ele>79.450000000000003</ele>
        <time>2025-05-01T08:32:11Z</time>
      </trkpt>
      <trkpt lat="42.910470999777317" lon="-9.263194995000958">
        <ele>79.930000000000007</ele>
        <time>2025-05-01T08:32:12Z</time>
      </trkpt>
      <trkpt lat="42.910764031112194" lon="-9.263418037444353">
        <ele>79.930000000000007</ele>
        <time>2025-05-01T08:32:16Z</time>
      </trkpt>
      <trkpt lat="42.910936027765274" lon="-9.263533037155867">
        <ele>79.450000000000003</ele>
        <time>2025-05-01T08:32:18Z</time>
      </trkpt>
      <trkpt lat="42.911030994728208" lon="-9.26358500495553">
        <ele>79.450000000000003</ele>
        <time>2025-05-01T08:32:19Z</time>
      </trkpt>
      <trkpt lat="42.911133002489805" lon="-9.263632027432323">
        <ele>79.450000000000003</ele>
        <time>2025-05-01T08:32:20Z</time>
      </trkpt>
      <trkpt lat="42.912289034575224" lon="-9.264065036550164">
        <ele>68.870000000000005</ele>
        <time>2025-05-01T08:32:31Z</time>
      </trkpt>
      <trkpt lat="42.91288398206234" lon="-9.26425295881927">
        <ele>59.740000000000002</ele>
        <time>2025-05-01T08:32:38Z</time>
      </trkpt>
      <trkpt lat="42.912931004539132" lon="-9.264280032366514">
        <ele>58.780000000000001</ele>
        <time>2025-05-01T08:32:39Z</time>
      </trkpt>
      <trkpt lat="42.912989007309079" lon="-9.264312973245978">
        <ele>57.82</ele>
        <time>2025-05-01T08:32:40Z</time>
      </trkpt>
      <trkpt lat="42.913053967058659" lon="-9.264350021257997">
        <ele>56.369999999999997</ele>
        <time>2025-05-01T08:32:41Z</time>
      </trkpt>
      <trkpt lat="42.913100989535451" lon="-9.264392014592886">
        <ele>55.890000000000001</ele>
        <time>2025-05-01T08:32:42Z</time>
      </trkpt>
      <trkpt lat="42.913147006183863" lon="-9.264496034011245">
        <ele>55.409999999999997</ele>
        <time>2025-05-01T08:32:43Z</time>
      </trkpt>
      <trkpt lat="42.913195034489036" lon="-9.264603992924094">
        <ele>54.93</ele>
        <time>2025-05-01T08:32:44Z</time>
      </trkpt>
      <trkpt lat="42.91324901394546" lon="-9.264725027605891">
        <ele>54.450000000000003</ele>
        <time>2025-05-01T08:32:45Z</time>
      </trkpt>
      <trkpt lat="42.913594013080001" lon="-9.266199991106987">
        <ele>52.530000000000001</ele>
        <time>2025-05-01T08:32:55Z</time>
      </trkpt>
      <trkpt lat="42.913811020553112" lon="-9.267181009054184">
        <ele>47.719999999999999</ele>
        <time>2025-05-01T08:33:02Z</time>
      </trkpt>
      <trkpt lat="42.913882015272975" lon="-9.267309000715613">
        <ele>46.759999999999998</ele>
        <time>2025-05-01T08:33:03Z</time>
      </trkpt>
      <trkpt lat="42.913963990285993" lon="-9.267383012920618">
        <ele>45.32</ele>
        <time>2025-05-01T08:33:04Z</time>
      </trkpt>
      <trkpt lat="42.914069015532732" lon="-9.267434980720282">
        <ele>43.880000000000003</ele>
        <time>2025-05-01T08:33:05Z</time>
      </trkpt>
      <trkpt lat="42.91417496278882" lon="-9.267488038167357">
        <ele>42.920000000000002</ele>
        <time>2025-05-01T08:33:06Z</time>
      </trkpt>
      <trkpt lat="42.914297003298998" lon="-9.267526008188725">
        <ele>42.439999999999998</ele>
        <time>2025-05-01T08:33:07Z</time>
      </trkpt>
      <trkpt lat="42.914421977475286" lon="-9.267526008188725">
        <ele>41.469999999999999</ele>
        <time>2025-05-01T08:33:08Z</time>
      </trkpt>
      <trkpt lat="42.914544017985463" lon="-9.267526008188725">
        <ele>40.990000000000002</ele>
        <time>2025-05-01T08:33:09Z</time>
      </trkpt>
      <trkpt lat="42.915802979841828" lon="-9.26751796156168">
        <ele>40.509999999999998</ele>
        <time>2025-05-01T08:33:20Z</time>
      </trkpt>
      <trkpt lat="42.917309040203691" lon="-9.267503963783383">
        <ele>43.399999999999999</ele>
        <time>2025-05-01T08:33:33Z</time>
      </trkpt>
      <trkpt lat="42.918589040637016" lon="-9.267503963783383">
        <ele>39.07</ele>
        <time>2025-05-01T08:33:44Z</time>
      </trkpt>
      <trkpt lat="42.919057002291083" lon="-9.267440009862185">
        <ele>37.149999999999999</ele>
        <time>2025-05-01T08:33:48Z</time>
      </trkpt>
      <trkpt lat="42.919175019487739" lon="-9.267364991828799">
        <ele>36.189999999999998</ele>
        <time>2025-05-01T08:33:49Z</time>
      </trkpt>
      <trkpt lat="42.919280966743827" lon="-9.267298020422459">
        <ele>35.229999999999997</ele>
        <time>2025-05-01T08:33:50Z</time>
      </trkpt>
      <trkpt lat="42.919374005869031" lon="-9.267209004610777">
        <ele>34.259999999999998</ele>
        <time>2025-05-01T08:33:51Z</time>
      </trkpt>
      <trkpt lat="42.919467967003584" lon="-9.267114959657192">
        <ele>33.299999999999997</ele>
        <time>2025-05-01T08:33:52Z</time>
      </trkpt>
      <trkpt lat="42.919562011957169" lon="-9.267019992694259">
        <ele>32.82</ele>
        <time>2025-05-01T08:33:53Z</time>
      </trkpt>
      <trkpt lat="42.920463988557458" lon="-9.266039980575442">
        <ele>27.050000000000001</ele>
        <time>2025-05-01T08:34:03Z</time>
      </trkpt>
      <trkpt lat="42.921570986509323" lon="-9.264862993732095">
        <ele>21.77</ele>
        <time>2025-05-01T08:34:15Z</time>
      </trkpt>
      <trkpt lat="42.922677984461188" lon="-9.263661028817296">
        <ele>17.920000000000002</ele>
        <time>2025-05-01T08:34:27Z</time>
      </trkpt>
      <trkpt lat="42.924098968505859" lon="-9.262138037011027">
        <ele>17.440000000000001</ele>
        <time>2025-05-01T08:34:42Z</time>
      </trkpt>
      <trkpt lat="42.925465973094106" lon="-9.260646980255842">
        <ele>17.440000000000001</ele>
        <time>2025-05-01T08:34:56Z</time>
      </trkpt>
      <trkpt lat="42.926671039313078" lon="-9.259354993700981">
        <ele>16.960000000000001</ele>
        <time>2025-05-01T08:35:04Z</time>
      </trkpt>
      <trkpt lat="42.927950033918023" lon="-9.257730999961495">
        <ele>16</ele>
        <time>2025-05-01T08:35:13Z</time>
      </trkpt>
      <trkpt lat="42.928233006969094" lon="-9.257033038884401">
        <ele>16.960000000000001</ele>
        <time>2025-05-01T08:35:16Z</time>
      </trkpt>
      <trkpt lat="42.928291009739041" lon="-9.25677496008575">
        <ele>17.440000000000001</ele>
        <time>2025-05-01T08:35:17Z</time>
      </trkpt>
      <trkpt lat="42.928540958091617" lon="-9.254877967759967">
        <ele>20.32</ele>
        <time>2025-05-01T08:35:24Z</time>
      </trkpt>
      <trkpt lat="42.928479015827179" lon="-9.254344962537289">
        <ele>21.77</ele>
        <time>2025-05-01T08:35:26Z</time>
      </trkpt>
      <trkpt lat="42.928439034149051" lon="-9.254085039719939">
        <ele>22.25</ele>
        <time>2025-05-01T08:35:27Z</time>
      </trkpt>
      <trkpt lat="42.928120018914342" lon="-9.252700014039874">
        <ele>28.5</ele>
        <time>2025-05-01T08:35:33Z</time>
      </trkpt>
      <trkpt lat="42.928111972287297" lon="-9.252488035708666">
        <ele>29.940000000000001</ele>
        <time>2025-05-01T08:35:34Z</time>
      </trkpt>
      <trkpt lat="42.928123958408833" lon="-9.252267004922032">
        <ele>30.899999999999999</ele>
        <time>2025-05-01T08:35:35Z</time>
      </trkpt>
      <trkpt lat="42.928167041391134" lon="-9.251548005267978">
        <ele>34.259999999999998</ele>
        <time>2025-05-01T08:35:38Z</time>
      </trkpt>
      <trkpt lat="42.928154971450567" lon="-9.251301996409893">
        <ele>35.710000000000001</ele>
        <time>2025-05-01T08:35:39Z</time>
      </trkpt>
      <trkpt lat="42.928103003650904" lon="-9.251068979501724">
        <ele>36.670000000000002</ele>
        <time>2025-05-01T08:35:40Z</time>
      </trkpt>
      <trkpt lat="42.928037038072944" lon="-9.250831017270684">
        <ele>38.109999999999999</ele>
        <time>2025-05-01T08:35:41Z</time>
      </trkpt>
      <trkpt lat="42.927950033918023" lon="-9.250600012019277">
        <ele>39.07</ele>
        <time>2025-05-01T08:35:42Z</time>
      </trkpt>
      <trkpt lat="42.927318038418889" lon="-9.248375035822392">
        <ele>45.32</ele>
        <time>2025-05-01T08:35:51Z</time>
      </trkpt>
      <trkpt lat="42.927249977365136" lon="-9.246124997735024">
        <ele>49.649999999999999</ele>
        <time>2025-05-01T08:35:59Z</time>
      </trkpt>
      <trkpt lat="42.927335975691676" lon="-9.245587969198823">
        <ele>50.609999999999999</ele>
        <time>2025-05-01T08:36:01Z</time>
      </trkpt>
      <trkpt lat="42.927401019260287" lon="-9.245337015017867">
        <ele>51.090000000000003</ele>
        <time>2025-05-01T08:36:02Z</time>
      </trkpt>
      <trkpt lat="42.92749498039484" lon="-9.245099974796176">
        <ele>51.57</ele>
        <time>2025-05-01T08:36:03Z</time>
      </trkpt>
      <trkpt lat="42.927594976499677" lon="-9.244869975373149">
        <ele>52.049999999999997</ele>
        <time>2025-05-01T08:36:04Z</time>
      </trkpt>
      <trkpt lat="42.92773000895977" lon="-9.244662020355463">
        <ele>52.530000000000001</ele>
        <time>2025-05-01T08:36:05Z</time>
      </trkpt>
      <trkpt lat="42.927865041419864" lon="-9.244454987347126">
        <ele>53.009999999999998</ele>
        <time>2025-05-01T08:36:06Z</time>
      </trkpt>
      <trkpt lat="42.9292550124228" lon="-9.242298994213343">
        <ele>55.890000000000001</ele>
        <time>2025-05-01T08:36:17Z</time>
      </trkpt>
      <trkpt lat="42.929610991850495" lon="-9.241472035646439">
        <ele>58.299999999999997</ele>
        <time>2025-05-01T08:36:21Z</time>
      </trkpt>
      <trkpt lat="42.929657008498907" lon="-9.241269025951624">
        <ele>59.259999999999998</ele>
        <time>2025-05-01T08:36:22Z</time>
      </trkpt>
      <trkpt lat="42.929677963256836" lon="-9.241056963801384">
        <ele>60.700000000000003</ele>
        <time>2025-05-01T08:36:23Z</time>
      </trkpt>
      <trkpt lat="42.929648961871862" lon="-9.240835011005402">
        <ele>61.18</ele>
        <time>2025-05-01T08:36:24Z</time>
      </trkpt>
      <trkpt lat="42.929590037092566" lon="-9.240622026845813">
        <ele>62.140000000000001</ele>
        <time>2025-05-01T08:36:25Z</time>
      </trkpt>
      <trkpt lat="42.929491968825459" lon="-9.240419017150998">
        <ele>62.619999999999997</ele>
        <time>2025-05-01T08:36:26Z</time>
      </trkpt>
      <trkpt lat="42.929375963285565" lon="-9.240223970264196">
        <ele>63.100000000000001</ele>
        <time>2025-05-01T08:36:27Z</time>
      </trkpt>
      <trkpt lat="42.929260041564703" lon="-9.240029007196426">
        <ele>63.579999999999998</ele>
        <time>2025-05-01T08:36:28Z</time>
      </trkpt>
      <trkpt lat="42.928805993869901" lon="-9.239238006994128">
        <ele>66.469999999999999</ele>
        <time>2025-05-01T08:36:32Z</time>
      </trkpt>
      <trkpt lat="42.928703986108303" lon="-9.239034997299314">
        <ele>66.950000000000003</ele>
        <time>2025-05-01T08:36:33Z</time>
      </trkpt>
      <trkpt lat="42.928656041622162" lon="-9.238818995654583">
        <ele>67.909999999999997</ele>
        <time>2025-05-01T08:36:34Z</time>
      </trkpt>
      <trkpt lat="42.928627040237188" lon="-9.238605005666614">
        <ele>68.870000000000005</ele>
        <time>2025-05-01T08:36:35Z</time>
      </trkpt>
      <trkpt lat="42.928627040237188" lon="-9.238408030942082">
        <ele>69.829999999999998</ele>
        <time>2025-05-01T08:36:36Z</time>
      </trkpt>
      <trkpt lat="42.928685965016484" lon="-9.238184988498688">
        <ele>70.310000000000002</ele>
        <time>2025-05-01T08:36:37Z</time>
      </trkpt>
      <trkpt lat="42.928743967786431" lon="-9.237982984632254">
        <ele>70.310000000000002</ele>
        <time>2025-05-01T08:36:38Z</time>
      </trkpt>
      <trkpt lat="42.928843963891268" lon="-9.237799001857638">
        <ele>71.269999999999996</ele>
        <time>2025-05-01T08:36:39Z</time>
      </trkpt>
      <trkpt lat="42.928973967209458" lon="-9.237656006589532">
        <ele>72.719999999999999</ele>
        <time>2025-05-01T08:36:40Z</time>
      </trkpt>
      <trkpt lat="42.929120985791087" lon="-9.237512005493045">
        <ele>73.680000000000007</ele>
        <time>2025-05-01T08:36:41Z</time>
      </trkpt>
      <trkpt lat="42.929272027686238" lon="-9.237363981083036">
        <ele>74.159999999999997</ele>
        <time>2025-05-01T08:36:42Z</time>
      </trkpt>
      <trkpt lat="42.92942700907588" lon="-9.237212017178536">
        <ele>75.120000000000005</ele>
        <time>2025-05-01T08:36:43Z</time>
      </trkpt>
      <trkpt lat="42.930918987840414" lon="-9.235758008435369">
        <ele>76.079999999999998</ele>
        <time>2025-05-01T08:36:52Z</time>
      </trkpt>
      <trkpt lat="42.931111017242074" lon="-9.235671004280448">
        <ele>75.120000000000005</ele>
        <time>2025-05-01T08:36:53Z</time>
      </trkpt>
      <trkpt lat="42.931303968653083" lon="-9.235621970146895">
        <ele>74.640000000000001</ele>
        <time>2025-05-01T08:36:54Z</time>
      </trkpt>
      <trkpt lat="42.931502033025026" lon="-9.235593974590302">
        <ele>73.680000000000007</ele>
        <time>2025-05-01T08:36:55Z</time>
      </trkpt>
      <trkpt lat="42.931701019406319" lon="-9.23559196293354">
        <ele>72.719999999999999</ele>
        <time>2025-05-01T08:36:56Z</time>
      </trkpt>
      <trkpt lat="42.931902017444372" lon="-9.235638985410333">
        <ele>71.760000000000005</ele>
        <time>2025-05-01T08:36:57Z</time>
      </trkpt>
      <trkpt lat="42.932099997997284" lon="-9.235705034807324">
        <ele>70.790000000000006</ele>
        <time>2025-05-01T08:36:58Z</time>
      </trkpt>
      <trkpt lat="42.932296972721815" lon="-9.235788015648723">
        <ele>70.310000000000002</ele>
        <time>2025-05-01T08:36:59Z</time>
      </trkpt>
      <trkpt lat="42.932896027341485" lon="-9.235956994816661">
        <ele>67.430000000000007</ele>
        <time>2025-05-01T08:37:02Z</time>
      </trkpt>
      <trkpt lat="42.933097025379539" lon="-9.235969986766577">
        <ele>66.469999999999999</ele>
        <time>2025-05-01T08:37:03Z</time>
      </trkpt>
      <trkpt lat="42.933298023417592" lon="-9.235918018966913">
        <ele>65.989999999999995</ele>
        <time>2025-05-01T08:37:04Z</time>
      </trkpt>
      <trkpt lat="42.933504972606897" lon="-9.235864961519837">
        <ele>65.030000000000001</ele>
        <time>2025-05-01T08:37:05Z</time>
      </trkpt>
      <trkpt lat="42.933714017271996" lon="-9.235815005376935">
        <ele>64.069999999999993</ele>
        <time>2025-05-01T08:37:06Z</time>
      </trkpt>
      <trkpt lat="42.934129005298018" lon="-9.235726995393634">
        <ele>60.700000000000003</ele>
        <time>2025-05-01T08:37:08Z</time>
      </trkpt>
      <trkpt lat="42.934339977800846" lon="-9.235682990401983">
        <ele>58.780000000000001</ele>
        <time>2025-05-01T08:37:09Z</time>
      </trkpt>
      <trkpt lat="42.936064973473549" lon="-9.236024972051382">
        <ele>46.759999999999998</ele>
        <time>2025-05-01T08:37:17Z</time>
      </trkpt>
      <trkpt lat="42.93748302385211" lon="-9.236788982525468">
        <ele>38.109999999999999</ele>
        <time>2025-05-01T08:37:24Z</time>
      </trkpt>
      <trkpt lat="42.937679998576641" lon="-9.236819995567203">
        <ele>36.670000000000002</ele>
        <time>2025-05-01T08:37:25Z</time>
      </trkpt>
      <trkpt lat="42.937855012714863" lon="-9.236782025545836">
        <ele>35.229999999999997</ele>
        <time>2025-05-01T08:37:26Z</time>
      </trkpt>
      <trkpt lat="42.938033966347575" lon="-9.236737014725804">
        <ele>34.259999999999998</ele>
        <time>2025-05-01T08:37:27Z</time>
      </trkpt>
      <trkpt lat="42.938208980485797" lon="-9.236666020005941">
        <ele>33.299999999999997</ele>
        <time>2025-05-01T08:37:28Z</time>
      </trkpt>
      <trkpt lat="42.938389023765922" lon="-9.23655697144568">
        <ele>32.340000000000003</ele>
        <time>2025-05-01T08:37:29Z</time>
      </trkpt>
      <trkpt lat="42.938572000712156" lon="-9.236445995047689">
        <ele>30.899999999999999</ele>
        <time>2025-05-01T08:37:30Z</time>
      </trkpt>
      <trkpt lat="42.939108023419976" lon="-9.236120022833347">
        <ele>27.530000000000001</ele>
        <time>2025-05-01T08:37:33Z</time>
      </trkpt>
      <trkpt lat="42.939274990931153" lon="-9.23599898815155">
        <ele>26.57</ele>
        <time>2025-05-01T08:37:34Z</time>
      </trkpt>
      <trkpt lat="42.939411029219627" lon="-9.235844006761909">
        <ele>25.609999999999999</ele>
        <time>2025-05-01T08:37:35Z</time>
      </trkpt>
      <trkpt lat="42.939527034759521" lon="-9.235686007887125">
        <ele>24.649999999999999</ele>
        <time>2025-05-01T08:37:36Z</time>
      </trkpt>
      <trkpt lat="42.93963398784399" lon="-9.235541000962257">
        <ele>24.170000000000002</ele>
        <time>2025-05-01T08:37:37Z</time>
      </trkpt>
      <trkpt lat="42.939948979765177" lon="-9.235183009877801">
        <ele>21.289999999999999</ele>
        <time>2025-05-01T08:37:40Z</time>
      </trkpt>
      <trkpt lat="42.940068002790213" lon="-9.235129030421376">
        <ele>20.32</ele>
        <time>2025-05-01T08:37:41Z</time>
      </trkpt>
      <trkpt lat="42.940181996673346" lon="-9.235083013772965">
        <ele>19.359999999999999</ele>
        <time>2025-05-01T08:37:42Z</time>
      </trkpt>
      <trkpt lat="42.940292973071337" lon="-9.235100029036403">
        <ele>18.399999999999999</ele>
        <time>2025-05-01T08:37:43Z</time>
      </trkpt>
      <trkpt lat="42.94040403328836" lon="-9.235116960480809">
        <ele>17.440000000000001</ele>
        <time>2025-05-01T08:37:44Z</time>
      </trkpt>
      <trkpt lat="42.940519032999873" lon="-9.235133975744247">
        <ele>16.960000000000001</ele>
        <time>2025-05-01T08:37:45Z</time>
      </trkpt>
      <trkpt lat="42.940765041857958" lon="-9.235168006271124">
        <ele>16</ele>
        <time>2025-05-01T08:37:47Z</time>
      </trkpt>
      <trkpt lat="42.941239038482308" lon="-9.23511897213757">
        <ele>15.039999999999999</ele>
        <time>2025-05-01T08:37:51Z</time>
      </trkpt>
      <trkpt lat="42.941346997395158" lon="-9.23507303930819">
        <ele>14.56</ele>
        <time>2025-05-01T08:37:52Z</time>
      </trkpt>
      <trkpt lat="42.941453028470278" lon="-9.234990980476141">
        <ele>14.56</ele>
        <time>2025-05-01T08:37:53Z</time>
      </trkpt>
      <trkpt lat="42.94154497794807" lon="-9.234897019341588">
        <ele>14.56</ele>
        <time>2025-05-01T08:37:54Z</time>
      </trkpt>
      <trkpt lat="42.94163198210299" lon="-9.234785959124565">
        <ele>14.08</ele>
        <time>2025-05-01T08:37:55Z</time>
      </trkpt>
      <trkpt lat="42.94171697460115" lon="-9.234669031575322">
        <ele>14.08</ele>
        <time>2025-05-01T08:37:56Z</time>
      </trkpt>
      <trkpt lat="42.942695980891585" lon="-9.233204964548349">
        <ele>11.19</ele>
        <time>2025-05-01T08:38:08Z</time>
      </trkpt>
      <trkpt lat="42.94285599142313" lon="-9.232962979003787">
        <ele>10.710000000000001</ele>
        <time>2025-05-01T08:38:10Z</time>
      </trkpt>
      <trkpt lat="42.942983983084559" lon="-9.232672965154052">
        <ele>9.75</ele>
        <time>2025-05-01T08:38:12Z</time>
      </trkpt>
      <trkpt lat="42.943031005561352" lon="-9.232516977936029">
        <ele>9.27</ele>
        <time>2025-05-01T08:38:13Z</time>
      </trkpt>
      <trkpt lat="42.943056989461184" lon="-9.232356967404485">
        <ele>9.27</ele>
        <time>2025-05-01T08:38:14Z</time>
      </trkpt>
      <trkpt lat="42.943082973361015" lon="-9.232200980186462">
        <ele>8.789999999999999</ele>
        <time>2025-05-01T08:38:15Z</time>
      </trkpt>
      <trkpt lat="42.943109963089228" lon="-9.232042981311679">
        <ele>8.310000000000001</ele>
        <time>2025-05-01T08:38:16Z</time>
      </trkpt>
      <trkpt lat="42.943339962512255" lon="-9.230451006442308">
        <ele>9.27</ele>
        <time>2025-05-01T08:38:26Z</time>
      </trkpt>
      <trkpt lat="42.943335017189384" lon="-9.23028102144599">
        <ele>10.23</ele>
        <time>2025-05-01T08:38:27Z</time>
      </trkpt>
      <trkpt lat="42.943310961127281" lon="-9.230120005086064">
        <ele>10.710000000000001</ele>
        <time>2025-05-01T08:38:28Z</time>
      </trkpt>
      <trkpt lat="42.943278020247817" lon="-9.229967035353184">
        <ele>11.67</ele>
        <time>2025-05-01T08:38:29Z</time>
      </trkpt>
      <trkpt lat="42.943233009427786" lon="-9.229807024821639">
        <ele>12.15</ele>
        <time>2025-05-01T08:38:30Z</time>
      </trkpt>
      <trkpt lat="42.943181041628122" lon="-9.229661012068391">
        <ele>13.119999999999999</ele>
        <time>2025-05-01T08:38:31Z</time>
      </trkpt>
      <trkpt lat="42.943034023046494" lon="-9.229215011000633">
        <ele>15.039999999999999</ele>
        <time>2025-05-01T08:38:34Z</time>
      </trkpt>
      <trkpt lat="42.942995969206095" lon="-9.229060029610992">
        <ele>16</ele>
        <time>2025-05-01T08:38:35Z</time>
      </trkpt>
      <trkpt lat="42.942918017506599" lon="-9.227908020839095">
        <ele>22.25</ele>
        <time>2025-05-01T08:38:42Z</time>
      </trkpt>
      <trkpt lat="42.94319998472929" lon="-9.226137008517981">
        <ele>32.82</ele>
        <time>2025-05-01T08:38:52Z</time>
      </trkpt>
      <trkpt lat="42.943679010495543" lon="-9.224850973114371">
        <ele>37.630000000000003</ele>
        <time>2025-05-01T08:39:00Z</time>
      </trkpt>
      <trkpt lat="42.943743970245123" lon="-9.224416958168149">
        <ele>37.149999999999999</ele>
        <time>2025-05-01T08:39:03Z</time>
      </trkpt>
      <trkpt lat="42.943814964964986" lon="-9.224292989820242">
        <ele>36.670000000000002</ele>
        <time>2025-05-01T08:39:04Z</time>
      </trkpt>
      <trkpt lat="42.943911021575332" lon="-9.224273040890694">
        <ele>36.189999999999998</ele>
        <time>2025-05-01T08:39:05Z</time>
      </trkpt>
      <trkpt lat="42.943991990759969" lon="-9.224302964285016">
        <ele>36.189999999999998</ele>
        <time>2025-05-01T08:39:06Z</time>
      </trkpt>
      <trkpt lat="42.944055022671819" lon="-9.22435300424695">
        <ele>36.189999999999998</ele>
        <time>2025-05-01T08:39:07Z</time>
      </trkpt>
      <trkpt lat="42.944141020998359" lon="-9.224516032263637">
        <ele>36.670000000000002</ele>
        <time>2025-05-01T08:39:08Z</time>
      </trkpt>
      <trkpt lat="42.944248979911208" lon="-9.224537992849946">
        <ele>37.149999999999999</ele>
        <time>2025-05-01T08:39:09Z</time>
      </trkpt>
      <trkpt lat="42.94438099488616" lon="-9.224538998678327">
        <ele>37.630000000000003</ele>
        <time>2025-05-01T08:39:10Z</time>
      </trkpt>
      <trkpt lat="42.944512004032731" lon="-9.224528018385172">
        <ele>38.109999999999999</ele>
        <time>2025-05-01T08:39:11Z</time>
      </trkpt>
      <trkpt lat="42.944653993472457" lon="-9.22446196898818">
        <ele>38.109999999999999</ele>
        <time>2025-05-01T08:39:12Z</time>
      </trkpt>
      <trkpt lat="42.944786008447409" lon="-9.224354010075331">
        <ele>38.590000000000003</ele>
        <time>2025-05-01T08:39:13Z</time>
      </trkpt>
      <trkpt lat="42.944926992058754" lon="-9.224239010363817">
        <ele>38.590000000000003</ele>
        <time>2025-05-01T08:39:14Z</time>
      </trkpt>
      <trkpt lat="42.94635602273047" lon="-9.222921961918473">
        <ele>41.950000000000003</ele>
        <time>2025-05-01T08:39:23Z</time>
      </trkpt>
      <trkpt lat="42.947633005678654" lon="-9.22123602591455">
        <ele>47.240000000000002</ele>
        <time>2025-05-01T08:39:31Z</time>
      </trkpt>
      <trkpt lat="42.949798973277211" lon="-9.218084011226893">
        <ele>64.549999999999997</ele>
        <time>2025-05-01T08:39:44Z</time>
      </trkpt>
      <trkpt lat="42.952259983867407" lon="-9.214460011571646">
        <ele>90.019999999999996</ele>
        <time>2025-05-01T08:39:59Z</time>
      </trkpt>
      <trkpt lat="42.954258983954787" lon="-9.212012998759747">
        <ele>107.81</ele>
        <time>2025-05-01T08:40:10Z</time>
      </trkpt>
      <trkpt lat="42.956078024581075" lon="-9.210756970569491">
        <ele>118.38</ele>
        <time>2025-05-01T08:40:18Z</time>
      </trkpt>
      <trkpt lat="42.958123041316867" lon="-9.21015003696084">
        <ele>129.91999999999999</ele>
        <time>2025-05-01T08:40:26Z</time>
      </trkpt>
      <trkpt lat="42.961060982197523" lon="-9.209513012319803">
        <ele>144.81999999999999</ele>
        <time>2025-05-01T08:40:37Z</time>
      </trkpt>
      <trkpt lat="42.963434988632798" lon="-9.208742966875434">
        <ele>151.53999999999999</ele>
        <time>2025-05-01T08:40:46Z</time>
      </trkpt>
      <trkpt lat="42.96500701457262" lon="-9.207498002797365">
        <ele>150.09999999999999</ele>
        <time>2025-05-01T08:40:53Z</time>
      </trkpt>
      <trkpt lat="42.966301012784243" lon="-9.205836039036512">
        <ele>148.18000000000001</ele>
        <time>2025-05-01T08:41:00Z</time>
      </trkpt>
      <trkpt lat="42.968698991462588" lon="-9.202501969411969">
        <ele>134.24000000000001</ele>
        <time>2025-05-01T08:41:13Z</time>
      </trkpt>
      <trkpt lat="42.971234014257789" lon="-9.198985006660223">
        <ele>114.05</ele>
        <time>2025-05-01T08:41:27Z</time>
      </trkpt>
      <trkpt lat="42.973157996311784" lon="-9.196321992203593">
        <ele>99.150000000000006</ele>
        <time>2025-05-01T08:41:38Z</time>
      </trkpt>
      <trkpt lat="42.975203013047576" lon="-9.193431995809078">
        <ele>88.099999999999994</ele>
        <time>2025-05-01T08:41:50Z</time>
      </trkpt>
      <trkpt lat="42.976761041209102" lon="-9.190990012139082">
        <ele>84.730000000000004</ele>
        <time>2025-05-01T08:42:01Z</time>
      </trkpt>
      <trkpt lat="42.977109979838133" lon="-9.189974963665009">
        <ele>85.689999999999998</ele>
        <time>2025-05-01T08:42:07Z</time>
      </trkpt>
      <trkpt lat="42.977308966219425" lon="-9.189304998144507">
        <ele>85.689999999999998</ele>
        <time>2025-05-01T08:42:12Z</time>
      </trkpt>
      <trkpt lat="42.977350037544966" lon="-9.189196033403277">
        <ele>85.689999999999998</ele>
        <time>2025-05-01T08:42:13Z</time>
      </trkpt>
      <trkpt lat="42.977250041440129" lon="-9.18896896764636">
        <ele>85.689999999999998</ele>
        <time>2025-05-01T08:42:14Z</time>
      </trkpt>
      <trkpt lat="42.977235037833452" lon="-9.188895039260387">
        <ele>85.689999999999998</ele>
        <time>2025-05-01T08:42:15Z</time>
      </trkpt>
      <trkpt lat="42.977215005084872" lon="-9.188728993758559">
        <ele>86.180000000000007</ele>
        <time>2025-05-01T08:42:16Z</time>
      </trkpt>
      <trkpt lat="42.977250963449478" lon="-9.18860100209713">
        <ele>86.180000000000007</ele>
        <time>2025-05-01T08:42:17Z</time>
      </trkpt>
      <trkpt lat="42.977324975654483" lon="-9.188432022929192">
        <ele>86.180000000000007</ele>
        <time>2025-05-01T08:42:18Z</time>
      </trkpt>
      <trkpt lat="42.977412985637784" lon="-9.188368991017342">
        <ele>86.180000000000007</ele>
        <time>2025-05-01T08:42:19Z</time>
      </trkpt>
      <trkpt lat="42.977552963420749" lon="-9.188368991017342">
        <ele>86.659999999999997</ele>
        <time>2025-05-01T08:42:20Z</time>
      </trkpt>
      <trkpt lat="42.977657988667488" lon="-9.188390029594302">
        <ele>86.659999999999997</ele>
        <time>2025-05-01T08:42:21Z</time>
      </trkpt>
      <trkpt lat="42.977825962007046" lon="-9.188496982678771">
        <ele>86.180000000000007</ele>
        <time>2025-05-01T08:42:22Z</time>
      </trkpt>
      <trkpt lat="42.977980021387339" lon="-9.188390029594302">
        <ele>85.689999999999998</ele>
        <time>2025-05-01T08:42:23Z</time>
      </trkpt>
      <trkpt lat="42.979205036535859" lon="-9.187915027141571">
        <ele>83.769999999999996</ele>
        <time>2025-05-01T08:42:31Z</time>
      </trkpt>
      <trkpt lat="42.980831963941455" lon="-9.187265010550618">
        <ele>88.579999999999998</ele>
        <time>2025-05-01T08:42:41Z</time>
      </trkpt>
      <trkpt lat="42.982359984889627" lon="-9.186638966202736">
        <ele>90.980000000000004</ele>
        <time>2025-05-01T08:42:52Z</time>
      </trkpt>
      <trkpt lat="42.984396032989025" lon="-9.185815025120974">
        <ele>87.620000000000005</ele>
        <time>2025-05-01T08:43:06Z</time>
      </trkpt>
      <trkpt lat="42.986080041155219" lon="-9.185175988823175">
        <ele>85.689999999999998</ele>
        <time>2025-05-01T08:43:16Z</time>
      </trkpt>
      <trkpt lat="42.986421016976237" lon="-9.185041962191463">
        <ele>85.209999999999994</ele>
        <time>2025-05-01T08:43:19Z</time>
      </trkpt>
      <trkpt lat="42.986488994210958" lon="-9.185012960806489">
        <ele>85.689999999999998</ele>
        <time>2025-05-01T08:43:20Z</time>
      </trkpt>
      <trkpt lat="42.98653400503099" lon="-9.185101976618171">
        <ele>85.689999999999998</ele>
        <time>2025-05-01T08:43:21Z</time>
      </trkpt>
      <trkpt lat="42.986544985324144" lon="-9.185178000479937">
        <ele>85.689999999999998</ele>
        <time>2025-05-01T08:43:22Z</time>
      </trkpt>
      <trkpt lat="42.986559988930821" lon="-9.185283025726676">
        <ele>85.209999999999994</ele>
        <time>2025-05-01T08:43:23Z</time>
      </trkpt>
      <trkpt lat="42.986579015851021" lon="-9.185413029044867">
        <ele>85.209999999999994</ele>
        <time>2025-05-01T08:43:24Z</time>
      </trkpt>
      <trkpt lat="42.98677196726203" lon="-9.186549028381705">
        <ele>82.329999999999998</ele>
        <time>2025-05-01T08:43:30Z</time>
      </trkpt>
      <trkpt lat="42.986828964203596" lon="-9.186746003106237">
        <ele>82.329999999999998</ele>
        <time>2025-05-01T08:43:31Z</time>
      </trkpt>
      <trkpt lat="42.98689803108573" lon="-9.186935015022755">
        <ele>82.810000000000002</ele>
        <time>2025-05-01T08:43:32Z</time>
      </trkpt>
      <trkpt lat="42.986986041069031" lon="-9.187112962827086">
        <ele>83.769999999999996</ele>
        <time>2025-05-01T08:43:33Z</time>
      </trkpt>
      <trkpt lat="42.987086037173867" lon="-9.187275990843773">
        <ele>84.730000000000004</ele>
        <time>2025-05-01T08:43:34Z</time>
      </trkpt>
      <trkpt lat="42.988065965473652" lon="-9.188970979303122">
        <ele>86.659999999999997</ele>
        <time>2025-05-01T08:43:43Z</time>
      </trkpt>
      <trkpt lat="42.988300994038582" lon="-9.189376998692751">
        <ele>85.689999999999998</ele>
        <time>2025-05-01T08:43:45Z</time>
      </trkpt>
      <trkpt lat="42.988446000963449" lon="-9.189473977312446">
        <ele>85.209999999999994</ele>
        <time>2025-05-01T08:43:46Z</time>
      </trkpt>
      <trkpt lat="42.988607017323375" lon="-9.189557963982225">
        <ele>84.730000000000004</ele>
        <time>2025-05-01T08:43:47Z</time>
      </trkpt>
      <trkpt lat="42.989138010889292" lon="-9.18984898366034">
        <ele>84.25</ele>
        <time>2025-05-01T08:43:50Z</time>
      </trkpt>
      <trkpt lat="42.989285029470921" lon="-9.190006982535124">
        <ele>84.25</ele>
        <time>2025-05-01T08:43:51Z</time>
      </trkpt>
      <trkpt lat="42.989441016688943" lon="-9.190175039693713">
        <ele>84.25</ele>
        <time>2025-05-01T08:43:52Z</time>
      </trkpt>
      <trkpt lat="42.990092039108276" lon="-9.191139964386821">
        <ele>88.579999999999998</ele>
        <time>2025-05-01T08:43:58Z</time>
      </trkpt>
      <trkpt lat="42.990250959992409" lon="-9.191342974081636">
        <ele>90.5</ele>
        <time>2025-05-01T08:44:00Z</time>
      </trkpt>
      <trkpt lat="42.990324972197413" lon="-9.19143601320684">
        <ele>90.980000000000004</ele>
        <time>2025-05-01T08:44:01Z</time>
      </trkpt>
      <trkpt lat="42.990414993837476" lon="-9.191487981006503">
        <ele>91.939999999999998</ele>
        <time>2025-05-01T08:44:02Z</time>
      </trkpt>
      <trkpt lat="42.990528987720609" lon="-9.191504996269941">
        <ele>92.420000000000002</ele>
        <time>2025-05-01T08:44:03Z</time>
      </trkpt>
      <trkpt lat="42.990651028230786" lon="-9.19152301736176">
        <ele>92.900000000000006</ele>
        <time>2025-05-01T08:44:04Z</time>
      </trkpt>
      <trkpt lat="42.990777008235455" lon="-9.191541960462928">
        <ele>93.390000000000001</ele>
        <time>2025-05-01T08:44:05Z</time>
      </trkpt>
      <trkpt lat="42.991271959617734" lon="-9.191464008763433">
        <ele>93.390000000000001</ele>
        <time>2025-05-01T08:44:09Z</time>
      </trkpt>
      <trkpt lat="42.991389976814389" lon="-9.191443976014853">
        <ele>93.390000000000001</ele>
        <time>2025-05-01T08:44:10Z</time>
      </trkpt>
      <trkpt lat="42.99207704141736" lon="-9.19113602489233">
        <ele>95.310000000000002</ele>
        <time>2025-05-01T08:44:16Z</time>
      </trkpt>
      <trkpt lat="42.992198998108506" lon="-9.191152034327388">
        <ele>96.269999999999996</ele>
        <time>2025-05-01T08:44:17Z</time>
      </trkpt>
      <trkpt lat="42.992317015305161" lon="-9.191166032105684">
        <ele>96.75</ele>
        <time>2025-05-01T08:44:18Z</time>
      </trkpt>
      <trkpt lat="42.99304598942399" lon="-9.191337022930384">
        <ele>98.189999999999998</ele>
        <time>2025-05-01T08:44:24Z</time>
      </trkpt>
      <trkpt lat="42.99317398108542" lon="-9.191345991566777">
        <ele>97.709999999999994</ele>
        <time>2025-05-01T08:44:25Z</time>
      </trkpt>
      <trkpt lat="42.993299039080739" lon="-9.191323025152087">
        <ele>97.709999999999994</ele>
        <time>2025-05-01T08:44:26Z</time>
      </trkpt>
      <trkpt lat="42.993414960801601" lon="-9.191245995461941">
        <ele>97.709999999999994</ele>
        <time>2025-05-01T08:44:27Z</time>
      </trkpt>
      <trkpt lat="42.993528032675385" lon="-9.191170977428556">
        <ele>97.709999999999994</ele>
        <time>2025-05-01T08:44:28Z</time>
      </trkpt>
      <trkpt lat="42.993633979931474" lon="-9.191073998808861">
        <ele>98.189999999999998</ele>
        <time>2025-05-01T08:44:29Z</time>
      </trkpt>
      <trkpt lat="42.993727019056678" lon="-9.190967967733741">
        <ele>97.709999999999994</ele>
        <time>2025-05-01T08:44:30Z</time>
      </trkpt>
      <trkpt lat="42.993817962706089" lon="-9.19087702408433">
        <ele>97.230000000000004</ele>
        <time>2025-05-01T08:44:31Z</time>
      </trkpt>
      <trkpt lat="42.993922987952828" lon="-9.19077199883759">
        <ele>97.230000000000004</ele>
        <time>2025-05-01T08:44:32Z</time>
      </trkpt>
      <trkpt lat="42.994006974622607" lon="-9.190730005502701">
        <ele>97.709999999999994</ele>
        <time>2025-05-01T08:44:33Z</time>
      </trkpt>
      <trkpt lat="42.994111999869347" lon="-9.190696980804205">
        <ele>98.189999999999998</ele>
        <time>2025-05-01T08:44:34Z</time>
      </trkpt>
      <trkpt lat="42.994207972660661" lon="-9.190693041309714">
        <ele>98.189999999999998</ele>
        <time>2025-05-01T08:44:35Z</time>
      </trkpt>
      <trkpt lat="42.994306962937117" lon="-9.190720031037927">
        <ele>98.670000000000002</ele>
        <time>2025-05-01T08:44:36Z</time>
      </trkpt>
      <trkpt lat="42.994416011497378" lon="-9.190750038251281">
        <ele>99.150000000000006</ele>
        <time>2025-05-01T08:44:37Z</time>
      </trkpt>
      <trkpt lat="42.995284963399172" lon="-9.191151028499007">
        <ele>101.08</ele>
        <time>2025-05-01T08:44:46Z</time>
      </trkpt>
      <trkpt lat="42.995359981432557" lon="-9.191183969378471">
        <ele>101.08</ele>
        <time>2025-05-01T08:44:47Z</time>
      </trkpt>
      <trkpt lat="42.995427036657929" lon="-9.191213976591826">
        <ele>101.08</ele>
        <time>2025-05-01T08:44:48Z</time>
      </trkpt>
      <trkpt lat="42.995459977537394" lon="-9.191236020997167">
        <ele>101.08</ele>
        <time>2025-05-01T08:44:49Z</time>
      </trkpt>
      <trkpt lat="42.995468024164438" lon="-9.19124398380518">
        <ele>100.59999999999999</ele>
        <time>2025-05-01T08:44:50Z</time>
      </trkpt>
      <trkpt lat="42.995468024164438" lon="-9.19124398380518">
        <ele>100.59999999999999</ele>
        <time>2025-05-01T08:44:51Z</time>
      </trkpt>
      <trkpt lat="42.995448997244239" lon="-9.19130701571703">
        <ele>100.11</ele>
        <time>2025-05-01T08:44:52Z</time>
      </trkpt>
      <trkpt lat="42.99543097615242" lon="-9.191369041800499">
        <ele>100.11</ele>
        <time>2025-05-01T08:44:53Z</time>
      </trkpt>
      <trkpt lat="42.995409015566111" lon="-9.191442970186472">
        <ele>100.11</ele>
        <time>2025-05-01T08:44:54Z</time>
      </trkpt>
      <trkpt lat="42.995381020009518" lon="-9.191539026796818">
        <ele>100.11</ele>
        <time>2025-05-01T08:44:55Z</time>
      </trkpt>
      <trkpt lat="42.995330980047584" lon="-9.191796015948057">
        <ele>101.08</ele>
        <time>2025-05-01T08:44:57Z</time>
      </trkpt>
      <trkpt lat="42.995307007804513" lon="-9.191946974024177">
        <ele>101.56</ele>
        <time>2025-05-01T08:44:58Z</time>
      </trkpt>
      <trkpt lat="42.99515001475811" lon="-9.192591961473227">
        <ele>103</ele>
        <time>2025-05-01T08:45:02Z</time>
      </trkpt>
      <trkpt lat="42.995098968967795" lon="-9.192752977833152">
        <ele>103.48</ele>
        <time>2025-05-01T08:45:03Z</time>
      </trkpt>
      <trkpt lat="42.995037026703358" lon="-9.192910976707935">
        <ele>103.95999999999999</ele>
        <time>2025-05-01T08:45:04Z</time>
      </trkpt>
      <trkpt lat="42.994949016720057" lon="-9.193054977804422">
        <ele>104.44</ele>
        <time>2025-05-01T08:45:05Z</time>
      </trkpt>
      <trkpt lat="42.994856983423233" lon="-9.193200990557671">
        <ele>104.92</ele>
        <time>2025-05-01T08:45:06Z</time>
      </trkpt>
      <trkpt lat="42.994704013690352" lon="-9.193527968600392">
        <ele>105.88</ele>
        <time>2025-05-01T08:45:08Z</time>
      </trkpt>
      <trkpt lat="42.994637964293361" lon="-9.193692002445459">
        <ele>106.36</ele>
        <time>2025-05-01T08:45:09Z</time>
      </trkpt>
      <trkpt lat="42.994602005928755" lon="-9.193874979391694">
        <ele>106.36</ele>
        <time>2025-05-01T08:45:10Z</time>
      </trkpt>
      <trkpt lat="42.994366977363825" lon="-9.195509031414986">
        <ele>106.36</ele>
        <time>2025-05-01T08:45:17Z</time>
      </trkpt>
      <trkpt lat="42.994136977940798" lon="-9.197509959340096">
        <ele>106.84</ele>
        <time>2025-05-01T08:45:26Z</time>
      </trkpt>
      <trkpt lat="42.994144018739462" lon="-9.197723027318716">
        <ele>106.84</ele>
        <time>2025-05-01T08:45:27Z</time>
      </trkpt>
      <trkpt lat="42.994154999032617" lon="-9.197940034791827">
        <ele>106.84</ele>
        <time>2025-05-01T08:45:28Z</time>
      </trkpt>
      <trkpt lat="42.994187017902732" lon="-9.198154024779797">
        <ele>107.31999999999999</ele>
        <time>2025-05-01T08:45:29Z</time>
      </trkpt>
      <trkpt lat="42.994688004255295" lon="-9.20097797177732">
        <ele>116.45999999999999</ele>
        <time>2025-05-01T08:45:41Z</time>
      </trkpt>
      <trkpt lat="42.994673000648618" lon="-9.201224986463785">
        <ele>116.94</ele>
        <time>2025-05-01T08:45:42Z</time>
      </trkpt>
      <trkpt lat="42.994651040062308" lon="-9.201482981443405">
        <ele>116.94</ele>
        <time>2025-05-01T08:45:43Z</time>
      </trkpt>
      <trkpt lat="42.994533022865653" lon="-9.203504025936127">
        <ele>114.05</ele>
        <time>2025-05-01T08:45:50Z</time>
      </trkpt>
      <trkpt lat="42.994565963745117" lon="-9.205319965258241">
        <ele>109.73</ele>
        <time>2025-05-01T08:45:57Z</time>
      </trkpt>
      <trkpt lat="42.994608040899038" lon="-9.206163017079234">
        <ele>107.31999999999999</ele>
        <time>2025-05-01T08:46:01Z</time>
      </trkpt>
      <trkpt lat="42.994647016748786" lon="-9.20636803843081">
        <ele>107.31999999999999</ele>
        <time>2025-05-01T08:46:02Z</time>
      </trkpt>
      <trkpt lat="42.995092011988163" lon="-9.208308029919863">
        <ele>104.92</ele>
        <time>2025-05-01T08:46:11Z</time>
      </trkpt>
      <trkpt lat="42.995125958696008" lon="-9.208520008251071">
        <ele>104.44</ele>
        <time>2025-05-01T08:46:12Z</time>
      </trkpt>
      <trkpt lat="42.995156971737742" lon="-9.208726035431027">
        <ele>103.48</ele>
        <time>2025-05-01T08:46:13Z</time>
      </trkpt>
      <trkpt lat="42.995227966457605" lon="-9.209299022331834">
        <ele>101.08</ele>
        <time>2025-05-01T08:46:16Z</time>
      </trkpt>
      <trkpt lat="42.995307007804513" lon="-9.209432965144515">
        <ele>99.629999999999995</ele>
        <time>2025-05-01T08:46:17Z</time>
      </trkpt>
      <trkpt lat="42.995395017787814" lon="-9.20954997651279">
        <ele>98.670000000000002</ele>
        <time>2025-05-01T08:46:18Z</time>
      </trkpt>
      <trkpt lat="42.995554022490978" lon="-9.20976203866303">
        <ele>96.75</ele>
        <time>2025-05-01T08:46:20Z</time>
      </trkpt>
      <trkpt lat="42.995586963370442" lon="-9.209896987304092">
        <ele>95.790000000000006</ele>
        <time>2025-05-01T08:46:21Z</time>
      </trkpt>
      <trkpt lat="42.995617976412177" lon="-9.210019027814269">
        <ele>94.829999999999998</ele>
        <time>2025-05-01T08:46:22Z</time>
      </trkpt>
      <trkpt lat="42.995611019432545" lon="-9.210115000605583">
        <ele>93.870000000000005</ele>
        <time>2025-05-01T08:46:23Z</time>
      </trkpt>
      <trkpt lat="42.9956029728055" lon="-9.210207033902407">
        <ele>92.900000000000006</ele>
        <time>2025-05-01T08:46:24Z</time>
      </trkpt>
      <trkpt lat="42.995648989453912" lon="-9.210311975330114">
        <ele>92.420000000000002</ele>
        <time>2025-05-01T08:46:25Z</time>
      </trkpt>
      <trkpt lat="42.995703974738717" lon="-9.210327984765172">
        <ele>91.459999999999994</ele>
        <time>2025-05-01T08:46:26Z</time>
      </trkpt>
      <trkpt lat="42.995784021914005" lon="-9.210350029170513">
        <ele>90.5</ele>
        <time>2025-05-01T08:46:27Z</time>
      </trkpt>
      <trkpt lat="42.995882006362081" lon="-9.210377018898726">
        <ele>89.540000000000006</ele>
        <time>2025-05-01T08:46:28Z</time>
      </trkpt>
      <trkpt lat="42.996911974623799" lon="-9.21066896058619">
        <ele>88.099999999999994</ele>
        <time>2025-05-01T08:46:36Z</time>
      </trkpt>
      <trkpt lat="42.997959963977337" lon="-9.21096702106297">
        <ele>89.060000000000002</ele>
        <time>2025-05-01T08:46:45Z</time>
      </trkpt>
      <trkpt lat="42.999010970816016" lon="-9.211300034075975">
        <ele>88.579999999999998</ele>
        <time>2025-05-01T08:46:55Z</time>
      </trkpt>
      <trkpt lat="43.000106988474727" lon="-9.211990032345057">
        <ele>89.540000000000006</ele>
        <time>2025-05-01T08:47:05Z</time>
      </trkpt>
      <trkpt lat="43.001370979472995" lon="-9.21296501532197">
        <ele>85.209999999999994</ele>
        <time>2025-05-01T08:47:17Z</time>
      </trkpt>
      <trkpt lat="43.002578979358077" lon="-9.213901022449136">
        <ele>83.290000000000006</ele>
        <time>2025-05-01T08:47:28Z</time>
      </trkpt>
      <trkpt lat="43.004356026649475" lon="-9.215281018987298">
        <ele>81.849999999999994</ele>
        <time>2025-05-01T08:47:43Z</time>
      </trkpt>
      <trkpt lat="43.005740968510509" lon="-9.216355998069048">
        <ele>77.519999999999996</ele>
        <time>2025-05-01T08:47:55Z</time>
      </trkpt>
      <trkpt lat="43.005864014849067" lon="-9.21642498113215">
        <ele>77.040000000000006</ele>
        <time>2025-05-01T08:47:56Z</time>
      </trkpt>
      <trkpt lat="43.005992006510496" lon="-9.216479966416955">
        <ele>76.560000000000002</ele>
        <time>2025-05-01T08:47:57Z</time>
      </trkpt>
      <trkpt lat="43.006127960979939" lon="-9.216492036357522">
        <ele>76.079999999999998</ele>
        <time>2025-05-01T08:47:58Z</time>
      </trkpt>
      <trkpt lat="43.007378960028291" lon="-9.216387011110783">
        <ele>69.349999999999994</ele>
        <time>2025-05-01T08:48:06Z</time>
      </trkpt>
      <trkpt lat="43.008073987439275" lon="-9.216358009725809">
        <ele>65.030000000000001</ele>
        <time>2025-05-01T08:48:10Z</time>
      </trkpt>
      <trkpt lat="43.008238021284342" lon="-9.216365972533822">
        <ele>64.069999999999993</ele>
        <time>2025-05-01T08:48:11Z</time>
      </trkpt>
      <trkpt lat="43.008402977138758" lon="-9.216418024152517">
        <ele>62.619999999999997</ele>
        <time>2025-05-01T08:48:12Z</time>
      </trkpt>
      <trkpt lat="43.00855603069067" lon="-9.216505028307438">
        <ele>61.659999999999997</ele>
        <time>2025-05-01T08:48:13Z</time>
      </trkpt>
      <trkpt lat="43.008689973503351" lon="-9.216642994433641">
        <ele>60.700000000000003</ele>
        <time>2025-05-01T08:48:14Z</time>
      </trkpt>
      <trkpt lat="43.008806984871626" lon="-9.216813985258341">
        <ele>59.259999999999998</ele>
        <time>2025-05-01T08:48:15Z</time>
      </trkpt>
      <trkpt lat="43.008911004289985" lon="-9.217002997174859">
        <ele>57.82</ele>
        <time>2025-05-01T08:48:16Z</time>
      </trkpt>
      <trkpt lat="43.008958026766777" lon="-9.217228973284364">
        <ele>56.369999999999997</ele>
        <time>2025-05-01T08:48:17Z</time>
      </trkpt>
      <trkpt lat="43.009006977081299" lon="-9.217465007677674">
        <ele>55.409999999999997</ele>
        <time>2025-05-01T08:48:18Z</time>
      </trkpt>
      <trkpt lat="43.00902902148664" lon="-9.217703975737095">
        <ele>54.450000000000003</ele>
        <time>2025-05-01T08:48:19Z</time>
      </trkpt>
      <trkpt lat="43.00905198790133" lon="-9.21795099042356">
        <ele>53.490000000000002</ele>
        <time>2025-05-01T08:48:20Z</time>
      </trkpt>
      <trkpt lat="43.009079983457923" lon="-9.218773003667593">
        <ele>51.090000000000003</ele>
        <time>2025-05-01T08:48:24Z</time>
      </trkpt>
      <trkpt lat="43.009074032306671" lon="-9.218953968957067">
        <ele>50.130000000000003</ele>
        <time>2025-05-01T08:48:25Z</time>
      </trkpt>
      <trkpt lat="43.009011000394821" lon="-9.219129988923669">
        <ele>49.649999999999999</ele>
        <time>2025-05-01T08:48:26Z</time>
      </trkpt>
      <trkpt lat="43.008920978754759" lon="-9.219307014718652">
        <ele>49.159999999999997</ele>
        <time>2025-05-01T08:48:27Z</time>
      </trkpt>
      <trkpt lat="43.008829029276967" lon="-9.219486974179745">
        <ele>49.159999999999997</ele>
        <time>2025-05-01T08:48:28Z</time>
      </trkpt>
      <trkpt lat="43.00827800296247" lon="-9.220619034022093">
        <ele>46.759999999999998</ele>
        <time>2025-05-01T08:48:35Z</time>
      </trkpt>
      <trkpt lat="43.008265011012554" lon="-9.220791030675173">
        <ele>46.759999999999998</ele>
        <time>2025-05-01T08:48:36Z</time>
      </trkpt>
      <trkpt lat="43.008251013234258" lon="-9.220965038985014">
        <ele>46.280000000000001</ele>
        <time>2025-05-01T08:48:37Z</time>
      </trkpt>
      <trkpt lat="43.008246989920735" lon="-9.221335016191006">
        <ele>45.799999999999997</ele>
        <time>2025-05-01T08:48:39Z</time>
      </trkpt>
      <trkpt lat="43.008342040702701" lon="-9.222745019942522">
        <ele>44.840000000000003</ele>
        <time>2025-05-01T08:48:46Z</time>
      </trkpt>
      <trkpt lat="43.008355032652617" lon="-9.222961021587253">
        <ele>44.840000000000003</ele>
        <time>2025-05-01T08:48:47Z</time>
      </trkpt>
      <trkpt lat="43.008458968251944" lon="-9.224422993138433">
        <ele>50.609999999999999</ele>
        <time>2025-05-01T08:48:55Z</time>
      </trkpt>
      <trkpt lat="43.008491992950439" lon="-9.224632037803531">
        <ele>51.57</ele>
        <time>2025-05-01T08:48:56Z</time>
      </trkpt>
      <trkpt lat="43.008546978235245" lon="-9.22473999671638">
        <ele>53.009999999999998</ele>
        <time>2025-05-01T08:48:57Z</time>
      </trkpt>
      <trkpt lat="43.008613027632236" lon="-9.224874023348093">
        <ele>54.450000000000003</ele>
        <time>2025-05-01T08:48:58Z</time>
      </trkpt>
      <trkpt lat="43.008700031787157" lon="-9.224990028887987">
        <ele>55.409999999999997</ele>
        <time>2025-05-01T08:48:59Z</time>
      </trkpt>
      <trkpt lat="43.008788963779807" lon="-9.22510301694274">
        <ele>56.369999999999997</ele>
        <time>2025-05-01T08:49:00Z</time>
      </trkpt>
      <trkpt lat="43.008885020390153" lon="-9.225218016654253">
        <ele>57.340000000000003</ele>
        <time>2025-05-01T08:49:01Z</time>
      </trkpt>
      <trkpt lat="43.010097965598106" lon="-9.226452000439167">
        <ele>57.340000000000003</ele>
        <time>2025-05-01T08:49:13Z</time>
      </trkpt>
      <trkpt lat="43.011603020131588" lon="-9.227881031110883">
        <ele>59.740000000000002</ele>
        <time>2025-05-01T08:49:27Z</time>
      </trkpt>
      <trkpt lat="43.011725982651114" lon="-9.227940961718559">
        <ele>59.740000000000002</ele>
        <time>2025-05-01T08:49:28Z</time>
      </trkpt>
      <trkpt lat="43.013661028817296" lon="-9.228696003556252">
        <ele>64.549999999999997</ele>
        <time>2025-05-01T08:49:43Z</time>
      </trkpt>
      <trkpt lat="43.015014035627246" lon="-9.229348031803966">
        <ele>71.269999999999996</ele>
        <time>2025-05-01T08:49:52Z</time>
      </trkpt>
      <trkpt lat="43.015155019238591" lon="-9.229439981281757">
        <ele>71.269999999999996</ele>
        <time>2025-05-01T08:49:53Z</time>
      </trkpt>
      <trkpt lat="43.015263983979821" lon="-9.229548024013639">
        <ele>71.760000000000005</ele>
        <time>2025-05-01T08:49:54Z</time>
      </trkpt>
      <trkpt lat="43.015335984528065" lon="-9.229694036766887">
        <ele>72.239999999999995</ele>
        <time>2025-05-01T08:49:55Z</time>
      </trkpt>
      <trkpt lat="43.015406979247928" lon="-9.229847006499767">
        <ele>73.680000000000007</ele>
        <time>2025-05-01T08:49:56Z</time>
      </trkpt>
      <trkpt lat="43.015449978411198" lon="-9.23004699870944">
        <ele>75.120000000000005</ele>
        <time>2025-05-01T08:49:57Z</time>
      </trkpt>
      <trkpt lat="43.015499012544751" lon="-9.230267023667693">
        <ele>76.560000000000002</ele>
        <time>2025-05-01T08:49:58Z</time>
      </trkpt>
      <trkpt lat="43.015751978382468" lon="-9.231428001075983">
        <ele>88.099999999999994</ele>
        <time>2025-05-01T08:50:04Z</time>
      </trkpt>
      <trkpt lat="43.015889022499323" lon="-9.23198196105659">
        <ele>93.870000000000005</ele>
        <time>2025-05-01T08:50:07Z</time>
      </trkpt>
      <trkpt lat="43.015951970592141" lon="-9.232149012386799">
        <ele>95.790000000000006</ele>
        <time>2025-05-01T08:50:08Z</time>
      </trkpt>
      <trkpt lat="43.016030006110668" lon="-9.232298964634538">
        <ele>97.709999999999994</ele>
        <time>2025-05-01T08:50:09Z</time>
      </trkpt>
      <trkpt lat="43.016735007986426" lon="-9.233292974531651">
        <ele>104.92</ele>
        <time>2025-05-01T08:50:14Z</time>
      </trkpt>
      <trkpt lat="43.017312018200755" lon="-9.234029995277524">
        <ele>109.25</ele>
        <time>2025-05-01T08:50:18Z</time>
      </trkpt>
      <trkpt lat="43.017617035657167" lon="-9.234206015244126">
        <ele>112.13</ele>
        <time>2025-05-01T08:50:20Z</time>
      </trkpt>
      <trkpt lat="43.017995981499553" lon="-9.234424028545618">
        <ele>115.5</ele>
        <time>2025-05-01T08:50:23Z</time>
      </trkpt>
      <trkpt lat="43.018083991482854" lon="-9.234524024650455">
        <ele>116.45999999999999</ele>
        <time>2025-05-01T08:50:24Z</time>
      </trkpt>
      <trkpt lat="43.018108969554305" lon="-9.234685963019729">
        <ele>116.94</ele>
        <time>2025-05-01T08:50:25Z</time>
      </trkpt>
      <trkpt lat="43.018125984817743" lon="-9.234840022400022">
        <ele>117.42</ele>
        <time>2025-05-01T08:50:26Z</time>
      </trkpt>
      <trkpt lat="43.018119027838111" lon="-9.235013024881482">
        <ele>118.38</ele>
        <time>2025-05-01T08:50:27Z</time>
      </trkpt>
      <trkpt lat="43.018111987039447" lon="-9.235194995999336">
        <ele>119.81999999999999</ele>
        <time>2025-05-01T08:50:28Z</time>
      </trkpt>
      <trkpt lat="43.018116010352969" lon="-9.235552987083793">
        <ele>121.26000000000001</ele>
        <time>2025-05-01T08:50:30Z</time>
      </trkpt>
      <trkpt lat="43.018123973160982" lon="-9.23571802675724">
        <ele>122.22</ele>
        <time>2025-05-01T08:50:31Z</time>
      </trkpt>
      <trkpt lat="43.018193040043116" lon="-9.235882982611656">
        <ele>122.70999999999999</ele>
        <time>2025-05-01T08:50:32Z</time>
      </trkpt>
      <trkpt lat="43.018971970304847" lon="-9.237225009128451">
        <ele>121.73999999999999</ele>
        <time>2025-05-01T08:50:40Z</time>
      </trkpt>
      <trkpt lat="43.020129008218646" lon="-9.239266002550721">
        <ele>115.5</ele>
        <time>2025-05-01T08:50:50Z</time>
      </trkpt>
      <trkpt lat="43.021889040246606" lon="-9.242369988933206">
        <ele>108.77</ele>
        <time>2025-05-01T08:51:04Z</time>
      </trkpt>
      <trkpt lat="43.023260990157723" lon="-9.244761010631919">
        <ele>104.44</ele>
        <time>2025-05-01T08:51:15Z</time>
      </trkpt>
      <trkpt lat="43.024839973077178" lon="-9.24751597456634">
        <ele>108.77</ele>
        <time>2025-05-01T08:51:28Z</time>
      </trkpt>
      <trkpt lat="43.026321977376938" lon="-9.250064995139837">
        <ele>117.90000000000001</ele>
        <time>2025-05-01T08:51:40Z</time>
      </trkpt>
      <trkpt lat="43.026567986235023" lon="-9.250373030081391">
        <ele>120.3</ele>
        <time>2025-05-01T08:51:42Z</time>
      </trkpt>
      <trkpt lat="43.02668902091682" lon="-9.250509990379214">
        <ele>121.26000000000001</ele>
        <time>2025-05-01T08:51:43Z</time>
      </trkpt>
      <trkpt lat="43.026875015348196" lon="-9.250562964007258">
        <ele>122.70999999999999</ele>
        <time>2025-05-01T08:51:44Z</time>
      </trkpt>
      <trkpt lat="43.028671005740762" lon="-9.251828966662288">
        <ele>133.75999999999999</ele>
        <time>2025-05-01T08:51:54Z</time>
      </trkpt>
      <trkpt lat="43.030286030843854" lon="-9.25316596403718">
        <ele>141.93000000000001</ele>
        <time>2025-05-01T08:52:03Z</time>
      </trkpt>
      <trkpt lat="43.031366039067507" lon="-9.254393996670842">
        <ele>152.50999999999999</ele>
        <time>2025-05-01T08:52:10Z</time>
      </trkpt>
      <trkpt lat="43.031564019620419" lon="-9.25447697751224">
        <ele>154.43000000000001</ele>
        <time>2025-05-01T08:52:11Z</time>
      </trkpt>
      <trkpt lat="43.031745990738273" lon="-9.254554007202387">
        <ele>155.87</ele>
        <time>2025-05-01T08:52:12Z</time>
      </trkpt>
      <trkpt lat="43.032859023660421" lon="-9.255024986341596">
        <ele>166.44999999999999</ele>
        <time>2025-05-01T08:52:18Z</time>
      </trkpt>
      <trkpt lat="43.033148031681776" lon="-9.255196982994676">
        <ele>170.28999999999999</ele>
        <time>2025-05-01T08:52:20Z</time>
      </trkpt>
      <trkpt lat="43.03326697088778" lon="-9.255299996584654">
        <ele>171.72999999999999</ele>
        <time>2025-05-01T08:52:21Z</time>
      </trkpt>
      <trkpt lat="43.033378031104803" lon="-9.255397981032729">
        <ele>173.66</ele>
        <time>2025-05-01T08:52:22Z</time>
      </trkpt>
      <trkpt lat="43.033451959490776" lon="-9.255522033199668">
        <ele>175.58000000000001</ele>
        <time>2025-05-01T08:52:23Z</time>
      </trkpt>
      <trkpt lat="43.033527983352542" lon="-9.255655976012349">
        <ele>177.02000000000001</ele>
        <time>2025-05-01T08:52:24Z</time>
      </trkpt>
      <trkpt lat="43.033566037192941" lon="-9.255797965452075">
        <ele>178.46000000000001</ele>
        <time>2025-05-01T08:52:25Z</time>
      </trkpt>
      <trkpt lat="43.033585986122489" lon="-9.255965016782284">
        <ele>179.90000000000001</ele>
        <time>2025-05-01T08:52:26Z</time>
      </trkpt>
      <trkpt lat="43.03360803052783" lon="-9.256147993728519">
        <ele>180.87</ele>
        <time>2025-05-01T08:52:27Z</time>
      </trkpt>
      <trkpt lat="43.033601995557547" lon="-9.256347985938191">
        <ele>182.31</ele>
        <time>2025-05-01T08:52:28Z</time>
      </trkpt>
      <trkpt lat="43.03356695920229" lon="-9.25656097009778">
        <ele>183.75</ele>
        <time>2025-05-01T08:52:29Z</time>
      </trkpt>
      <trkpt lat="43.033531000837684" lon="-9.25677596591413">
        <ele>184.71000000000001</ele>
        <time>2025-05-01T08:52:30Z</time>
      </trkpt>
      <trkpt lat="43.033494958654046" lon="-9.257001020014286">
        <ele>186.15000000000001</ele>
        <time>2025-05-01T08:52:31Z</time>
      </trkpt>
      <trkpt lat="43.033417006954551" lon="-9.257473004981875">
        <ele>188.08000000000001</ele>
        <time>2025-05-01T08:52:33Z</time>
      </trkpt>
      <trkpt lat="43.033384988084435" lon="-9.257714990526438">
        <ele>189.03999999999999</ele>
        <time>2025-05-01T08:52:34Z</time>
      </trkpt>
      <trkpt lat="43.03322003223002" lon="-9.259133962914348">
        <ele>190</ele>
        <time>2025-05-01T08:52:40Z</time>
      </trkpt>
      <trkpt lat="43.033283986151218" lon="-9.26034196279943">
        <ele>187.11000000000001</ele>
        <time>2025-05-01T08:52:45Z</time>
      </trkpt>
      <trkpt lat="43.033304018899798" lon="-9.26057699136436">
        <ele>186.15000000000001</ele>
        <time>2025-05-01T08:52:46Z</time>
      </trkpt>
      <trkpt lat="43.033345006406307" lon="-9.260753011330962">
        <ele>185.19</ele>
        <time>2025-05-01T08:52:47Z</time>
      </trkpt>
      <trkpt lat="43.033476015552878" lon="-9.261074038222432">
        <ele>183.27000000000001</ele>
        <time>2025-05-01T08:52:49Z</time>
      </trkpt>
      <trkpt lat="43.033575005829334" lon="-9.261173028498888">
        <ele>182.31</ele>
        <time>2025-05-01T08:52:50Z</time>
      </trkpt>
      <trkpt lat="43.03369302302599" lon="-9.261266989633441">
        <ele>181.83000000000001</ele>
        <time>2025-05-01T08:52:51Z</time>
      </trkpt>
      <trkpt lat="43.033831994980574" lon="-9.261342007666826">
        <ele>180.87</ele>
        <time>2025-05-01T08:52:52Z</time>
      </trkpt>
      <trkpt lat="43.033979013562202" lon="-9.261419959366322">
        <ele>180.38</ele>
        <time>2025-05-01T08:52:53Z</time>
      </trkpt>
      <trkpt lat="43.035201011225581" lon="-9.262077016755939">
        <ele>175.58000000000001</ele>
        <time>2025-05-01T08:53:00Z</time>
      </trkpt>
      <trkpt lat="43.036351008340716" lon="-9.26272502169013">
        <ele>169.81</ele>
        <time>2025-05-01T08:53:07Z</time>
      </trkpt>
      <trkpt lat="43.036473970860243" lon="-9.262838009744883">
        <ele>168.84999999999999</ele>
        <time>2025-05-01T08:53:08Z</time>
      </trkpt>
      <trkpt lat="43.036583019420505" lon="-9.263001037761569">
        <ele>168.37</ele>
        <time>2025-05-01T08:53:09Z</time>
      </trkpt>
      <trkpt lat="43.037491030991077" lon="-9.264383967965841">
        <ele>160.68000000000001</ele>
        <time>2025-05-01T08:53:16Z</time>
      </trkpt>
      <trkpt lat="43.038479005917907" lon="-9.266120027750731">
        <ele>150.09999999999999</ele>
        <time>2025-05-01T08:53:25Z</time>
      </trkpt>
      <trkpt lat="43.039055010303855" lon="-9.267158964648843">
        <ele>140.00999999999999</ele>
        <time>2025-05-01T08:53:31Z</time>
      </trkpt>
      <trkpt lat="43.039174033328891" lon="-9.267270024865866">
        <ele>139.05000000000001</ele>
        <time>2025-05-01T08:53:32Z</time>
      </trkpt>
      <trkpt lat="43.039306970313191" lon="-9.26732299849391">
        <ele>137.61000000000001</ele>
        <time>2025-05-01T08:53:33Z</time>
      </trkpt>
      <trkpt lat="43.039439991116524" lon="-9.267362980172038">
        <ele>136.63999999999999</ele>
        <time>2025-05-01T08:53:34Z</time>
      </trkpt>
      <trkpt lat="43.039567982777953" lon="-9.267402039840818">
        <ele>135.68000000000001</ele>
        <time>2025-05-01T08:53:35Z</time>
      </trkpt>
      <trkpt lat="43.039685999974608" lon="-9.267437998205423">
        <ele>134.72</ele>
        <time>2025-05-01T08:53:36Z</time>
      </trkpt>
      <trkpt lat="43.039779961109161" lon="-9.26751896739006">
        <ele>134.24000000000001</ele>
        <time>2025-05-01T08:53:37Z</time>
      </trkpt>
      <trkpt lat="43.039870988577604" lon="-9.26760102622211">
        <ele>133.28</ele>
        <time>2025-05-01T08:53:38Z</time>
      </trkpt>
      <trkpt lat="43.039943994954228" lon="-9.267719965428114">
        <ele>132.31999999999999</ele>
        <time>2025-05-01T08:53:39Z</time>
      </trkpt>
      <trkpt lat="43.039998980239034" lon="-9.267848962917924">
        <ele>131.36000000000001</ele>
        <time>2025-05-01T08:53:40Z</time>
      </trkpt>
      <trkpt lat="43.040039967745543" lon="-9.267997993156314">
        <ele>130.40000000000001</ele>
        <time>2025-05-01T08:53:41Z</time>
      </trkpt>
      <trkpt lat="43.040051031857729" lon="-9.268158003687859">
        <ele>129.43000000000001</ele>
        <time>2025-05-01T08:53:42Z</time>
      </trkpt>
      <trkpt lat="43.040038039907813" lon="-9.268337041139603">
        <ele>128.94999999999999</ele>
        <time>2025-05-01T08:53:43Z</time>
      </trkpt>
      <trkpt lat="43.040006021037698" lon="-9.268512977287173">
        <ele>127.98999999999999</ele>
        <time>2025-05-01T08:53:44Z</time>
      </trkpt>
      <trkpt lat="43.039776021614671" lon="-9.270547013729811">
        <ele>118.86</ele>
        <time>2025-05-01T08:53:54Z</time>
      </trkpt>
      <trkpt lat="43.039177972823381" lon="-9.272417016327381">
        <ele>109.25</ele>
        <time>2025-05-01T08:54:03Z</time>
      </trkpt>
      <trkpt lat="43.039103960618377" lon="-9.27256403490901">
        <ele>108.77</ele>
        <time>2025-05-01T08:54:04Z</time>
      </trkpt>
      <trkpt lat="43.038931963965297" lon="-9.27280199714005">
        <ele>106.84</ele>
        <time>2025-05-01T08:54:06Z</time>
      </trkpt>
      <trkpt lat="43.038835991173983" lon="-9.272902999073267">
        <ele>106.36</ele>
        <time>2025-05-01T08:54:07Z</time>
      </trkpt>
      <trkpt lat="43.038363000378013" lon="-9.273325027897954">
        <ele>102.04000000000001</ele>
        <time>2025-05-01T08:54:13Z</time>
      </trkpt>
      <trkpt lat="43.038327964022756" lon="-9.273356040939689">
        <ele>101.08</ele>
        <time>2025-05-01T08:54:14Z</time>
      </trkpt>
      <trkpt lat="43.038312960416079" lon="-9.273428041487932">
        <ele>100.59999999999999</ele>
        <time>2025-05-01T08:54:15Z</time>
      </trkpt>
      <trkpt lat="43.038341039791703" lon="-9.27351001650095">
        <ele>100.11</ele>
        <time>2025-05-01T08:54:16Z</time>
      </trkpt>
      <trkpt lat="43.038382027298212" lon="-9.273627027869225">
        <ele>98.670000000000002</ele>
        <time>2025-05-01T08:54:17Z</time>
      </trkpt>
      <trkpt lat="43.038432989269495" lon="-9.273776980116963">
        <ele>96.75</ele>
        <time>2025-05-01T08:54:18Z</time>
      </trkpt>
      <trkpt lat="43.038834985345602" lon="-9.275185978040099">
        <ele>83.769999999999996</ele>
        <time>2025-05-01T08:54:25Z</time>
      </trkpt>
      <trkpt lat="43.039519032463431" lon="-9.277471974492073">
        <ele>74.159999999999997</ele>
        <time>2025-05-01T08:54:36Z</time>
      </trkpt>
      <trkpt lat="43.040044996887445" lon="-9.279372990131378">
        <ele>74.640000000000001</ele>
        <time>2025-05-01T08:54:46Z</time>
      </trkpt>
      <trkpt lat="43.04054799489677" lon="-9.281109971925616">
        <ele>64.069999999999993</ele>
        <time>2025-05-01T08:54:56Z</time>
      </trkpt>
      <trkpt lat="43.04078696295619" lon="-9.281813967972994">
        <ele>60.219999999999999</ele>
        <time>2025-05-01T08:55:02Z</time>
      </trkpt>
      <trkpt lat="43.040916966274381" lon="-9.281964004039764">
        <ele>58.780000000000001</ele>
        <time>2025-05-01T08:55:04Z</time>
      </trkpt>
      <trkpt lat="43.041631020605564" lon="-9.28279297426343">
        <ele>54.450000000000003</ele>
        <time>2025-05-01T08:55:11Z</time>
      </trkpt>
      <trkpt lat="43.042446998879313" lon="-9.283695034682751">
        <ele>45.32</ele>
        <time>2025-05-01T08:55:19Z</time>
      </trkpt>
      <trkpt lat="43.043691962957382" lon="-9.284741012379527">
        <ele>35.710000000000001</ele>
        <time>2025-05-01T08:55:29Z</time>
      </trkpt>
      <trkpt lat="43.044954026117921" lon="-9.285551961511374">
        <ele>32.340000000000003</ele>
        <time>2025-05-01T08:55:39Z</time>
      </trkpt>
      <trkpt lat="43.04607099853456" lon="-9.286395013332367">
        <ele>25.129999999999999</ele>
        <time>2025-05-01T08:55:52Z</time>
      </trkpt>
      <trkpt lat="43.047392992302775" lon="-9.287527995184064">
        <ele>25.129999999999999</ele>
        <time>2025-05-01T08:56:09Z</time>
      </trkpt>
      <trkpt lat="43.048528991639614" lon="-9.288499960675836">
        <ele>25.129999999999999</ele>
        <time>2025-05-01T08:56:25Z</time>
      </trkpt>
      <trkpt lat="43.049669014289975" lon="-9.289477039128542">
        <ele>26.09</ele>
        <time>2025-05-01T08:56:38Z</time>
      </trkpt>
      <trkpt lat="43.050750028342009" lon="-9.290426038205624">
        <ele>30.899999999999999</ele>
        <time>2025-05-01T08:56:47Z</time>
      </trkpt>
      <trkpt lat="43.050850024446845" lon="-9.290593005716801">
        <ele>31.859999999999999</ele>
        <time>2025-05-01T08:56:48Z</time>
      </trkpt>
      <trkpt lat="43.050875002518296" lon="-9.290730971843004">
        <ele>33.299999999999997</ele>
        <time>2025-05-01T08:56:49Z</time>
      </trkpt>
      <trkpt lat="43.05088497698307" lon="-9.290910009294748">
        <ele>34.259999999999998</ele>
        <time>2025-05-01T08:56:50Z</time>
      </trkpt>
      <trkpt lat="43.050842983648181" lon="-9.291094997897744">
        <ele>34.740000000000002</ele>
        <time>2025-05-01T08:56:51Z</time>
      </trkpt>
      <trkpt lat="43.050767965614796" lon="-9.29123598150909">
        <ele>35.710000000000001</ele>
        <time>2025-05-01T08:56:52Z</time>
      </trkpt>
      <trkpt lat="43.050663024187088" lon="-9.291366990655661">
        <ele>36.670000000000002</ele>
        <time>2025-05-01T08:56:53Z</time>
      </trkpt>
      <trkpt lat="43.050536960363388" lon="-9.291462963446975">
        <ele>38.109999999999999</ele>
        <time>2025-05-01T08:56:54Z</time>
      </trkpt>
      <trkpt lat="43.050406035035849" lon="-9.291562037542462">
        <ele>39.07</ele>
        <time>2025-05-01T08:56:55Z</time>
      </trkpt>
      <trkpt lat="43.049741014838219" lon="-9.292022958397865">
        <ele>46.280000000000001</ele>
        <time>2025-05-01T08:57:00Z</time>
      </trkpt>
      <trkpt lat="43.049600031226873" lon="-9.292076015844941">
        <ele>47.719999999999999</ele>
        <time>2025-05-01T08:57:01Z</time>
      </trkpt>
      <trkpt lat="43.048274014145136" lon="-9.292578008025885">
        <ele>49.649999999999999</ele>
        <time>2025-05-01T08:57:11Z</time>
      </trkpt>
      <trkpt lat="43.04817502386868" lon="-9.29265302605927">
        <ele>49.649999999999999</ele>
        <time>2025-05-01T08:57:12Z</time>
      </trkpt>
      <trkpt lat="43.048095982521772" lon="-9.292774982750416">
        <ele>49.649999999999999</ele>
        <time>2025-05-01T08:57:13Z</time>
      </trkpt>
      <trkpt lat="43.048032028600574" lon="-9.292902974411845">
        <ele>49.649999999999999</ele>
        <time>2025-05-01T08:57:14Z</time>
      </trkpt>
      <trkpt lat="43.048037979751825" lon="-9.293074971064925">
        <ele>50.130000000000003</ele>
        <time>2025-05-01T08:57:15Z</time>
      </trkpt>
      <trkpt lat="43.048060024157166" lon="-9.293231964111328">
        <ele>50.130000000000003</ele>
        <time>2025-05-01T08:57:16Z</time>
      </trkpt>
      <trkpt lat="43.04809195920825" lon="-9.293400021269918">
        <ele>50.130000000000003</ele>
        <time>2025-05-01T08:57:17Z</time>
      </trkpt>
      <trkpt lat="43.048177035525441" lon="-9.293544022366405">
        <ele>50.130000000000003</ele>
        <time>2025-05-01T08:57:18Z</time>
      </trkpt>
      <trkpt lat="43.048282982781529" lon="-9.293673019856215">
        <ele>50.609999999999999</ele>
        <time>2025-05-01T08:57:19Z</time>
      </trkpt>
      <trkpt lat="43.048966024070978" lon="-9.294499978423119">
        <ele>56.369999999999997</ele>
        <time>2025-05-01T08:57:25Z</time>
      </trkpt>
      <trkpt lat="43.049109019339085" lon="-9.294582037255168">
        <ele>57.340000000000003</ele>
        <time>2025-05-01T08:57:26Z</time>
      </trkpt>
      <trkpt lat="43.051081029698253" lon="-9.2956199683249">
        <ele>64.069999999999993</ele>
        <time>2025-05-01T08:57:39Z</time>
      </trkpt>
      <trkpt lat="43.052803007885814" lon="-9.296579025685787">
        <ele>62.140000000000001</ele>
        <time>2025-05-01T08:57:50Z</time>
      </trkpt>
      <trkpt lat="43.052920019254088" lon="-9.296731995418668">
        <ele>62.140000000000001</ele>
        <time>2025-05-01T08:57:51Z</time>
      </trkpt>
      <trkpt lat="43.052994031459093" lon="-9.296827968209982">
        <ele>62.619999999999997</ele>
        <time>2025-05-01T08:57:52Z</time>
      </trkpt>
      <trkpt lat="43.053049016743898" lon="-9.296926036477089">
        <ele>62.140000000000001</ele>
        <time>2025-05-01T08:57:53Z</time>
      </trkpt>
      <trkpt lat="43.053088998422027" lon="-9.297011028975248">
        <ele>61.18</ele>
        <time>2025-05-01T08:57:54Z</time>
      </trkpt>
      <trkpt lat="43.053340036422014" lon="-9.297545040026307">
        <ele>56.859999999999999</ele>
        <time>2025-05-01T08:58:04Z</time>
      </trkpt>
      <trkpt lat="43.05337599478662" lon="-9.297748971730471">
        <ele>57.82</ele>
        <time>2025-05-01T09:09:18Z</time>
      </trkpt>
      <trkpt lat="43.053372977301478" lon="-9.29774696007371">
        <ele>58.299999999999997</ele>
        <time>2025-05-01T09:10:13Z</time>
      </trkpt>
      <trkpt lat="43.053380018100142" lon="-9.297754000872374">
        <ele>57.82</ele>
        <time>2025-05-01T09:11:16Z</time>
      </trkpt>
      <trkpt lat="43.053382029756904" lon="-9.297751989215612">
        <ele>57.82</ele>
        <time>2025-05-01T09:11:32Z</time>
      </trkpt>
      <trkpt lat="43.053340036422014" lon="-9.297544034197927">
        <ele>57.82</ele>
        <time>2025-05-01T09:11:37Z</time>
      </trkpt>
      <trkpt lat="43.053088998422027" lon="-9.297011028975248">
        <ele>58.780000000000001</ele>
        <time>2025-05-01T09:11:48Z</time>
      </trkpt>
      <trkpt lat="43.052980033680797" lon="-9.296810030937195">
        <ele>60.219999999999999</ele>
        <time>2025-05-01T09:11:52Z</time>
      </trkpt>
      <trkpt lat="43.052841983735561" lon="-9.296630993485451">
        <ele>60.700000000000003</ele>
        <time>2025-05-01T09:11:55Z</time>
      </trkpt>
      <trkpt lat="43.052740981802344" lon="-9.296544995158911">
        <ele>60.700000000000003</ele>
        <time>2025-05-01T09:11:56Z</time>
      </trkpt>
      <trkpt lat="43.052635034546256" lon="-9.296485986560583">
        <ele>60.700000000000003</ele>
        <time>2025-05-01T09:11:57Z</time>
      </trkpt>
      <trkpt lat="43.051625015214086" lon="-9.295923979952931">
        <ele>60.700000000000003</ele>
        <time>2025-05-01T09:12:04Z</time>
      </trkpt>
      <trkpt lat="43.04946499876678" lon="-9.294752022251487">
        <ele>61.659999999999997</ele>
        <time>2025-05-01T09:12:17Z</time>
      </trkpt>
      <trkpt lat="43.048898968845606" lon="-9.294422026723623">
        <ele>59.740000000000002</ele>
        <time>2025-05-01T09:12:21Z</time>
      </trkpt>
      <trkpt lat="43.048786986619234" lon="-9.294285988435149">
        <ele>58.780000000000001</ele>
        <time>2025-05-01T09:12:22Z</time>
      </trkpt>
      <trkpt lat="43.048671986907721" lon="-9.294146010652185">
        <ele>58.299999999999997</ele>
        <time>2025-05-01T09:12:23Z</time>
      </trkpt>
      <trkpt lat="43.048110986128449" lon="-9.293432962149382">
        <ele>54.450000000000003</ele>
        <time>2025-05-01T09:12:28Z</time>
      </trkpt>
      <trkpt lat="43.048064969480038" lon="-9.293267000466585">
        <ele>53.490000000000002</ele>
        <time>2025-05-01T09:12:29Z</time>
      </trkpt>
      <trkpt lat="43.048045020550489" lon="-9.293121993541718">
        <ele>53.009999999999998</ele>
        <time>2025-05-01T09:12:30Z</time>
      </trkpt>
      <trkpt lat="43.048023981973529" lon="-9.292977992445231">
        <ele>53.009999999999998</ele>
        <time>2025-05-01T09:12:31Z</time>
      </trkpt>
      <trkpt lat="43.048071004450321" lon="-9.292824016883969">
        <ele>52.530000000000001</ele>
        <time>2025-05-01T09:12:32Z</time>
      </trkpt>
      <trkpt lat="43.048129007220268" lon="-9.292708011344075">
        <ele>52.049999999999997</ele>
        <time>2025-05-01T09:12:33Z</time>
      </trkpt>
      <trkpt lat="43.048210982233286" lon="-9.292625030502677">
        <ele>51.57</ele>
        <time>2025-05-01T09:12:34Z</time>
      </trkpt>
      <trkpt lat="43.048307038843632" lon="-9.292554035782814">
        <ele>51.57</ele>
        <time>2025-05-01T09:12:35Z</time>
      </trkpt>
      <trkpt lat="43.04841298609972" lon="-9.292515981942415">
        <ele>51.090000000000003</ele>
        <time>2025-05-01T09:12:36Z</time>
      </trkpt>
      <trkpt lat="43.048531003296375" lon="-9.292480023577809">
        <ele>50.609999999999999</ele>
        <time>2025-05-01T09:12:37Z</time>
      </trkpt>
      <trkpt lat="43.049975959584117" lon="-9.291870994493365">
        <ele>50.609999999999999</ele>
        <time>2025-05-01T09:12:48Z</time>
      </trkpt>
      <trkpt lat="43.050713986158371" lon="-9.291328014805913">
        <ele>45.32</ele>
        <time>2025-05-01T09:12:54Z</time>
      </trkpt>
      <trkpt lat="43.050791015848517" lon="-9.29119298234582">
        <ele>44.359999999999999</ele>
        <time>2025-05-01T09:12:55Z</time>
      </trkpt>
      <trkpt lat="43.050848012790084" lon="-9.291088040918112">
        <ele>43.399999999999999</ele>
        <time>2025-05-01T09:12:56Z</time>
      </trkpt>
      <trkpt lat="43.050879025831819" lon="-9.290970023721457">
        <ele>42.439999999999998</ele>
        <time>2025-05-01T09:12:57Z</time>
      </trkpt>
      <trkpt lat="43.050890006124973" lon="-9.290861980989575">
        <ele>41.469999999999999</ele>
        <time>2025-05-01T09:12:58Z</time>
      </trkpt>
      <trkpt lat="43.05088103748858" lon="-9.290765002369881">
        <ele>40.990000000000002</ele>
        <time>2025-05-01T09:12:59Z</time>
      </trkpt>
      <trkpt lat="43.050865028053522" lon="-9.290675986558199">
        <ele>40.030000000000001</ele>
        <time>2025-05-01T09:13:00Z</time>
      </trkpt>
      <trkpt lat="43.050850024446845" lon="-9.290593005716801">
        <ele>39.07</ele>
        <time>2025-05-01T09:13:01Z</time>
      </trkpt>
      <trkpt lat="43.05081901140511" lon="-9.290540032088757">
        <ele>38.109999999999999</ele>
        <time>2025-05-01T09:13:02Z</time>
      </trkpt>
      <trkpt lat="43.050785986706614" lon="-9.290486974641681">
        <ele>37.149999999999999</ele>
        <time>2025-05-01T09:13:03Z</time>
      </trkpt>
      <trkpt lat="43.050750028342009" lon="-9.290426960214973">
        <ele>36.189999999999998</ele>
        <time>2025-05-01T09:13:04Z</time>
      </trkpt>
      <trkpt lat="43.05071298032999" lon="-9.290370969101787">
        <ele>35.710000000000001</ele>
        <time>2025-05-01T09:13:05Z</time>
      </trkpt>
      <trkpt lat="43.050651960074902" lon="-9.290319001302123">
        <ele>34.740000000000002</ele>
        <time>2025-05-01T09:13:06Z</time>
      </trkpt>
      <trkpt lat="43.050051983445883" lon="-9.289805022999644">
        <ele>29.940000000000001</ele>
        <time>2025-05-01T09:13:13Z</time>
      </trkpt>
      <trkpt lat="43.049238016828895" lon="-9.289107983931899">
        <ele>26.57</ele>
        <time>2025-05-01T09:13:19Z</time>
      </trkpt>
      <trkpt lat="43.047950975596905" lon="-9.288005009293556">
        <ele>24.649999999999999</ele>
        <time>2025-05-01T09:13:28Z</time>
      </trkpt>
      <trkpt lat="43.045782996341586" lon="-9.286147998645902">
        <ele>25.609999999999999</ele>
        <time>2025-05-01T09:13:42Z</time>
      </trkpt>
      <trkpt lat="43.043895978480577" lon="-9.284872021526098">
        <ele>34.740000000000002</ele>
        <time>2025-05-01T09:13:54Z</time>
      </trkpt>
      <trkpt lat="43.042387990280986" lon="-9.28362999111414">
        <ele>40.990000000000002</ele>
        <time>2025-05-01T09:14:04Z</time>
      </trkpt>
      <trkpt lat="43.039951035752892" lon="-9.280894976109266">
        <ele>65.030000000000001</ele>
        <time>2025-05-01T09:14:21Z</time>
      </trkpt>
      <trkpt lat="43.038799026980996" lon="-9.279411965981126">
        <ele>77.040000000000006</ele>
        <time>2025-05-01T09:14:30Z</time>
      </trkpt>
      <trkpt lat="43.038704982027411" lon="-9.279198981821537">
        <ele>78</ele>
        <time>2025-05-01T09:14:31Z</time>
      </trkpt>
      <trkpt lat="43.03865603171289" lon="-9.279001001268625">
        <ele>78.969999999999999</ele>
        <time>2025-05-01T09:14:32Z</time>
      </trkpt>
      <trkpt lat="43.038117997348309" lon="-9.276817012578249">
        <ele>85.689999999999998</ele>
        <time>2025-05-01T09:14:40Z</time>
      </trkpt>
      <trkpt lat="43.037639977410436" lon="-9.274766966700554">
        <ele>94.349999999999994</ele>
        <time>2025-05-01T09:14:48Z</time>
      </trkpt>
      <trkpt lat="43.037592032924294" lon="-9.274557000026107">
        <ele>95.310000000000002</ele>
        <time>2025-05-01T09:14:49Z</time>
      </trkpt>
      <trkpt lat="43.037589015439153" lon="-9.274352984502912">
        <ele>96.269999999999996</ele>
        <time>2025-05-01T09:14:50Z</time>
      </trkpt>
      <trkpt lat="43.037609970197082" lon="-9.274161960929632">
        <ele>97.230000000000004</ele>
        <time>2025-05-01T09:14:51Z</time>
      </trkpt>
      <trkpt lat="43.037659004330635" lon="-9.273978983983398">
        <ele>97.709999999999994</ele>
        <time>2025-05-01T09:14:52Z</time>
      </trkpt>
      <trkpt lat="43.037761012092233" lon="-9.273813022300601">
        <ele>98.189999999999998</ele>
        <time>2025-05-01T09:14:53Z</time>
      </trkpt>
      <trkpt lat="43.037909958511591" lon="-9.273692993447185">
        <ele>98.670000000000002</ele>
        <time>2025-05-01T09:14:54Z</time>
      </trkpt>
      <trkpt lat="43.038072986528277" lon="-9.273562990128994">
        <ele>99.150000000000006</ele>
        <time>2025-05-01T09:14:55Z</time>
      </trkpt>
      <trkpt lat="43.038930958136916" lon="-9.272803002968431">
        <ele>102.04000000000001</ele>
        <time>2025-05-01T09:15:00Z</time>
      </trkpt>
      <trkpt lat="43.039048975333571" lon="-9.272646009922028">
        <ele>103</ele>
        <time>2025-05-01T09:15:01Z</time>
      </trkpt>
      <trkpt lat="43.039145031943917" lon="-9.272481976076961">
        <ele>103.48</ele>
        <time>2025-05-01T09:15:02Z</time>
      </trkpt>
      <trkpt lat="43.039232958108187" lon="-9.27230603992939">
        <ele>104.44</ele>
        <time>2025-05-01T09:15:03Z</time>
      </trkpt>
      <trkpt lat="43.039305964484811" lon="-9.272089032456279">
        <ele>105.40000000000001</ele>
        <time>2025-05-01T09:15:04Z</time>
      </trkpt>
      <trkpt lat="43.039373019710183" lon="-9.271846041083336">
        <ele>106.36</ele>
        <time>2025-05-01T09:15:05Z</time>
      </trkpt>
      <trkpt lat="43.039846010506153" lon="-9.270159015432">
        <ele>112.13</ele>
        <time>2025-05-01T09:15:12Z</time>
      </trkpt>
      <trkpt lat="43.040050026029348" lon="-9.26813998259604">
        <ele>121.73999999999999</ele>
        <time>2025-05-01T09:15:21Z</time>
      </trkpt>
      <trkpt lat="43.040037034079432" lon="-9.267951976507902">
        <ele>122.22</ele>
        <time>2025-05-01T09:15:22Z</time>
      </trkpt>
      <trkpt lat="43.039966961368918" lon="-9.267775034531951">
        <ele>122.70999999999999</ele>
        <time>2025-05-01T09:15:23Z</time>
      </trkpt>
      <trkpt lat="43.039884986355901" lon="-9.267614018172026">
        <ele>123.19</ele>
        <time>2025-05-01T09:15:24Z</time>
      </trkpt>
      <trkpt lat="43.039779039099813" lon="-9.26751796156168">
        <ele>124.15000000000001</ele>
        <time>2025-05-01T09:15:25Z</time>
      </trkpt>
      <trkpt lat="43.039652975276113" lon="-9.267428023740649">
        <ele>124.63</ele>
        <time>2025-05-01T09:15:26Z</time>
      </trkpt>
      <trkpt lat="43.039511991664767" lon="-9.267385024577379">
        <ele>125.11</ele>
        <time>2025-05-01T09:15:27Z</time>
      </trkpt>
      <trkpt lat="43.039372013881803" lon="-9.26734303124249">
        <ele>125.59</ele>
        <time>2025-05-01T09:15:28Z</time>
      </trkpt>
      <trkpt lat="43.039198005571961" lon="-9.267289973795414">
        <ele>126.06999999999999</ele>
        <time>2025-05-01T09:15:29Z</time>
      </trkpt>
      <trkpt lat="43.039092980325222" lon="-9.267201963812113">
        <ele>126.55</ele>
        <time>2025-05-01T09:15:30Z</time>
      </trkpt>
      <trkpt lat="43.038973035290837" lon="-9.267028039321303">
        <ele>127.03</ele>
        <time>2025-05-01T09:15:31Z</time>
      </trkpt>
      <trkpt lat="43.038855018094182" lon="-9.266839027404785">
        <ele>127.98999999999999</ele>
        <time>2025-05-01T09:15:32Z</time>
      </trkpt>
      <trkpt lat="43.03874303586781" lon="-9.266625959426165">
        <ele>128.94999999999999</ele>
        <time>2025-05-01T09:15:33Z</time>
      </trkpt>
      <trkpt lat="43.037705020979047" lon="-9.264828963205218">
        <ele>139.05000000000001</ele>
        <time>2025-05-01T09:15:41Z</time>
      </trkpt>
      <trkpt lat="43.036751998588443" lon="-9.263255009427667">
        <ele>143.37</ele>
        <time>2025-05-01T09:15:48Z</time>
      </trkpt>
      <trkpt lat="43.036377998068929" lon="-9.262745976448059">
        <ele>146.74000000000001</ele>
        <time>2025-05-01T09:15:51Z</time>
      </trkpt>
      <trkpt lat="43.036243971437216" lon="-9.26263902336359">
        <ele>147.69999999999999</ele>
        <time>2025-05-01T09:15:52Z</time>
      </trkpt>
      <trkpt lat="43.036092007532716" lon="-9.262555036693811">
        <ele>148.66</ele>
        <time>2025-05-01T09:15:53Z</time>
      </trkpt>
      <trkpt lat="43.035935014486313" lon="-9.262470966205001">
        <ele>150.09999999999999</ele>
        <time>2025-05-01T09:15:54Z</time>
      </trkpt>
      <trkpt lat="43.035767963156104" lon="-9.26238102838397">
        <ele>151.53999999999999</ele>
        <time>2025-05-01T09:15:55Z</time>
      </trkpt>
      <trkpt lat="43.034545965492725" lon="-9.261724976822734">
        <ele>160.68000000000001</ele>
        <time>2025-05-01T09:16:02Z</time>
      </trkpt>
      <trkpt lat="43.033871976658702" lon="-9.261362962424755">
        <ele>166.44999999999999</ele>
        <time>2025-05-01T09:16:07Z</time>
      </trkpt>
      <trkpt lat="43.033766029402614" lon="-9.261305965483189">
        <ele>167.88999999999999</ele>
        <time>2025-05-01T09:16:08Z</time>
      </trkpt>
      <trkpt lat="43.033658992499113" lon="-9.261248968541622">
        <ele>168.84999999999999</ele>
        <time>2025-05-01T09:16:09Z</time>
      </trkpt>
      <trkpt lat="43.03356695920229" lon="-9.261164981871843">
        <ele>169.81</ele>
        <time>2025-05-01T09:16:10Z</time>
      </trkpt>
      <trkpt lat="43.033474003896117" lon="-9.261072026565671">
        <ele>170.77000000000001</ele>
        <time>2025-05-01T09:16:11Z</time>
      </trkpt>
      <trkpt lat="43.033389011397958" lon="-9.260934982448816">
        <ele>172.21000000000001</ele>
        <time>2025-05-01T09:16:12Z</time>
      </trkpt>
      <trkpt lat="43.03335296921432" lon="-9.260785030201078">
        <ele>173.16999999999999</ele>
        <time>2025-05-01T09:16:13Z</time>
      </trkpt>
      <trkpt lat="43.033319022506475" lon="-9.260642034932971">
        <ele>173.66</ele>
        <time>2025-05-01T09:16:14Z</time>
      </trkpt>
      <trkpt lat="43.033292032778263" lon="-9.26046802662313">
        <ele>174.13999999999999</ele>
        <time>2025-05-01T09:16:15Z</time>
      </trkpt>
      <trkpt lat="43.033280968666077" lon="-9.260294018313289">
        <ele>174.62</ele>
        <time>2025-05-01T09:16:16Z</time>
      </trkpt>
      <trkpt lat="43.033236963674426" lon="-9.259599996730685">
        <ele>177.02000000000001</ele>
        <time>2025-05-01T09:16:20Z</time>
      </trkpt>
      <trkpt lat="43.033226989209652" lon="-9.25943898037076">
        <ele>177.5</ele>
        <time>2025-05-01T09:16:21Z</time>
      </trkpt>
      <trkpt lat="43.033216008916497" lon="-9.259272012859583">
        <ele>178.46000000000001</ele>
        <time>2025-05-01T09:16:22Z</time>
      </trkpt>
      <trkpt lat="43.03322296589613" lon="-9.259100016206503">
        <ele>178.94</ele>
        <time>2025-05-01T09:16:23Z</time>
      </trkpt>
      <trkpt lat="43.03324400447309" lon="-9.258926007896662">
        <ele>179.41999999999999</ele>
        <time>2025-05-01T09:16:24Z</time>
      </trkpt>
      <trkpt lat="43.033405020833015" lon="-9.257548023015261">
        <ele>184.71000000000001</ele>
        <time>2025-05-01T09:16:31Z</time>
      </trkpt>
      <trkpt lat="43.033591015264392" lon="-9.256415041163564">
        <ele>189.52000000000001</ele>
        <time>2025-05-01T09:16:37Z</time>
      </trkpt>
      <trkpt lat="43.033601995557547" lon="-9.256092002615333">
        <ele>190.96000000000001</ele>
        <time>2025-05-01T09:16:39Z</time>
      </trkpt>
      <trkpt lat="43.033584980294108" lon="-9.255953030660749">
        <ele>190.96000000000001</ele>
        <time>2025-05-01T09:16:40Z</time>
      </trkpt>
      <trkpt lat="43.033569976687431" lon="-9.25582897849381">
        <ele>191.44</ele>
        <time>2025-05-01T09:16:41Z</time>
      </trkpt>
      <trkpt lat="43.033558996394277" lon="-9.255738034844399">
        <ele>190.96000000000001</ele>
        <time>2025-05-01T09:16:42Z</time>
      </trkpt>
      <trkpt lat="43.033534018322825" lon="-9.255665028467774">
        <ele>190.47999999999999</ele>
        <time>2025-05-01T09:16:43Z</time>
      </trkpt>
      <trkpt lat="43.033498981967568" lon="-9.255604008212686">
        <ele>189.52000000000001</ele>
        <time>2025-05-01T09:16:44Z</time>
      </trkpt>
      <trkpt lat="43.03345799446106" lon="-9.255532007664442">
        <ele>189.03999999999999</ele>
        <time>2025-05-01T09:16:45Z</time>
      </trkpt>
      <trkpt lat="43.033405020833015" lon="-9.255440980195999">
        <ele>188.56</ele>
        <time>2025-05-01T09:16:46Z</time>
      </trkpt>
      <trkpt lat="43.033333020284772" lon="-9.255357999354601">
        <ele>188.08000000000001</ele>
        <time>2025-05-01T09:16:47Z</time>
      </trkpt>
      <trkpt lat="43.033251967281103" lon="-9.255287004634738">
        <ele>187.11000000000001</ele>
        <time>2025-05-01T09:16:48Z</time>
      </trkpt>
      <trkpt lat="43.033068990334868" lon="-9.255126994103193">
        <ele>186.15000000000001</ele>
        <time>2025-05-01T09:16:50Z</time>
      </trkpt>
      <trkpt lat="43.032948961481452" lon="-9.255063040181994">
        <ele>185.66999999999999</ele>
        <time>2025-05-01T09:16:51Z</time>
      </trkpt>
      <trkpt lat="43.031817991286516" lon="-9.254585020244122">
        <ele>178.46000000000001</ele>
        <time>2025-05-01T09:16:59Z</time>
      </trkpt>
      <trkpt lat="43.0315269716084" lon="-9.254461973905563">
        <ele>176.53999999999999</ele>
        <time>2025-05-01T09:17:01Z</time>
      </trkpt>
      <trkpt lat="43.031366039067507" lon="-9.254393996670842">
        <ele>175.09999999999999</ele>
        <time>2025-05-01T09:17:02Z</time>
      </trkpt>
      <trkpt lat="43.031243998557329" lon="-9.254255024716258">
        <ele>174.13999999999999</ele>
        <time>2025-05-01T09:17:03Z</time>
      </trkpt>
      <trkpt lat="43.030217969790101" lon="-9.253090023994446">
        <ele>165.47999999999999</ele>
        <time>2025-05-01T09:17:10Z</time>
      </trkpt>
      <trkpt lat="43.028637981042266" lon="-9.251801976934075">
        <ele>153.47</ele>
        <time>2025-05-01T09:17:19Z</time>
      </trkpt>
      <trkpt lat="43.027294026687741" lon="-9.250814002007246">
        <ele>144.81999999999999</ele>
        <time>2025-05-01T09:17:27Z</time>
      </trkpt>
      <trkpt lat="43.026543008163571" lon="-9.250345034524798">
        <ele>137.61000000000001</ele>
        <time>2025-05-01T09:17:33Z</time>
      </trkpt>
      <trkpt lat="43.026450974866748" lon="-9.25024101510644">
        <ele>136.16</ele>
        <time>2025-05-01T09:17:34Z</time>
      </trkpt>
      <trkpt lat="43.026351984590292" lon="-9.250118974596262">
        <ele>134.72</ele>
        <time>2025-05-01T09:17:35Z</time>
      </trkpt>
      <trkpt lat="43.025630973279476" lon="-9.248823970556259">
        <ele>123.19</ele>
        <time>2025-05-01T09:17:42Z</time>
      </trkpt>
      <trkpt lat="43.02415500395" lon="-9.246298000216484">
        <ele>108.77</ele>
        <time>2025-05-01T09:17:54Z</time>
      </trkpt>
      <trkpt lat="43.022591024637222" lon="-9.243610007688403">
        <ele>100.11</ele>
        <time>2025-05-01T09:18:08Z</time>
      </trkpt>
      <trkpt lat="43.021113965660334" lon="-9.240969959646463">
        <ele>100.59999999999999</ele>
        <time>2025-05-01T09:18:21Z</time>
      </trkpt>
      <trkpt lat="43.019741009920835" lon="-9.238595031201839">
        <ele>101.56</ele>
        <time>2025-05-01T09:18:33Z</time>
      </trkpt>
      <trkpt lat="43.018586989492178" lon="-9.236563006415963">
        <ele>103.95999999999999</ele>
        <time>2025-05-01T09:18:43Z</time>
      </trkpt>
      <trkpt lat="43.018126990646124" lon="-9.235767982900143">
        <ele>104.44</ele>
        <time>2025-05-01T09:18:48Z</time>
      </trkpt>
      <trkpt lat="43.018116010352969" lon="-9.235560027882457">
        <ele>104.44</ele>
        <time>2025-05-01T09:18:49Z</time>
      </trkpt>
      <trkpt lat="43.018107041716576" lon="-9.235389959067106">
        <ele>103.95999999999999</ele>
        <time>2025-05-01T09:18:50Z</time>
      </trkpt>
      <trkpt lat="43.018109975382686" lon="-9.235231038182974">
        <ele>103.95999999999999</ele>
        <time>2025-05-01T09:18:51Z</time>
      </trkpt>
      <trkpt lat="43.01811701618135" lon="-9.235069015994668">
        <ele>103.48</ele>
        <time>2025-05-01T09:18:52Z</time>
      </trkpt>
      <trkpt lat="43.018122967332602" lon="-9.234900958836079">
        <ele>102.52</ele>
        <time>2025-05-01T09:18:53Z</time>
      </trkpt>
      <trkpt lat="43.01811701618135" lon="-9.234737008810043">
        <ele>101.56</ele>
        <time>2025-05-01T09:18:54Z</time>
      </trkpt>
      <trkpt lat="43.018092038109899" lon="-9.234576998278499">
        <ele>100.59999999999999</ele>
        <time>2025-05-01T09:18:55Z</time>
      </trkpt>
      <trkpt lat="43.018020037561655" lon="-9.234438026323915">
        <ele>99.629999999999995</ele>
        <time>2025-05-01T09:18:56Z</time>
      </trkpt>
      <trkpt lat="43.017900008708239" lon="-9.234368959441781">
        <ele>98.670000000000002</ele>
        <time>2025-05-01T09:18:57Z</time>
      </trkpt>
      <trkpt lat="43.017775034531951" lon="-9.234296958893538">
        <ele>97.709999999999994</ele>
        <time>2025-05-01T09:18:58Z</time>
      </trkpt>
      <trkpt lat="43.01764402538538" lon="-9.234222024679184">
        <ele>97.230000000000004</ele>
        <time>2025-05-01T09:18:59Z</time>
      </trkpt>
      <trkpt lat="43.017512010410428" lon="-9.234146000817418">
        <ele>96.269999999999996</ele>
        <time>2025-05-01T09:19:00Z</time>
      </trkpt>
      <trkpt lat="43.017375972121954" lon="-9.234067965298891">
        <ele>95.310000000000002</ele>
        <time>2025-05-01T09:19:01Z</time>
      </trkpt>
      <trkpt lat="43.017241023480892" lon="-9.233960006386042">
        <ele>94.829999999999998</ele>
        <time>2025-05-01T09:19:02Z</time>
      </trkpt>
      <trkpt lat="43.017116971313953" lon="-9.233819022774696">
        <ele>93.870000000000005</ele>
        <time>2025-05-01T09:19:03Z</time>
      </trkpt>
      <trkpt lat="43.016997026279569" lon="-9.233653983101249">
        <ele>93.390000000000001</ele>
        <time>2025-05-01T09:19:04Z</time>
      </trkpt>
      <trkpt lat="43.015889022499323" lon="-9.231981039047241">
        <ele>85.689999999999998</ele>
        <time>2025-05-01T09:19:14Z</time>
      </trkpt>
      <trkpt lat="43.015837976709008" lon="-9.231817005202174">
        <ele>85.209999999999994</ele>
        <time>2025-05-01T09:19:15Z</time>
      </trkpt>
      <trkpt lat="43.015438998118043" lon="-9.229996036738157">
        <ele>79.450000000000003</ele>
        <time>2025-05-01T09:19:23Z</time>
      </trkpt>
      <trkpt lat="43.015316035598516" lon="-9.229652965441346">
        <ele>78</ele>
        <time>2025-05-01T09:19:25Z</time>
      </trkpt>
      <trkpt lat="43.015251997858286" lon="-9.229523967951536">
        <ele>77.040000000000006</ele>
        <time>2025-05-01T09:19:26Z</time>
      </trkpt>
      <trkpt lat="43.015161976218224" lon="-9.229446016252041">
        <ele>76.560000000000002</ele>
        <time>2025-05-01T09:19:27Z</time>
      </trkpt>
      <trkpt lat="43.015071032568812" lon="-9.229370998218656">
        <ele>75.599999999999994</ele>
        <time>2025-05-01T09:19:28Z</time>
      </trkpt>
      <trkpt lat="43.014936000108719" lon="-9.229318024590612">
        <ele>75.120000000000005</ele>
        <time>2025-05-01T09:19:29Z</time>
      </trkpt>
      <trkpt lat="43.013770999386907" lon="-9.228708995506167">
        <ele>69.829999999999998</ele>
        <time>2025-05-01T09:19:37Z</time>
      </trkpt>
      <trkpt lat="43.011784991249442" lon="-9.227969963103533">
        <ele>61.18</ele>
        <time>2025-05-01T09:19:52Z</time>
      </trkpt>
      <trkpt lat="43.011567983776331" lon="-9.227864015847445">
        <ele>60.219999999999999</ele>
        <time>2025-05-01T09:19:54Z</time>
      </trkpt>
      <trkpt lat="43.011463964357972" lon="-9.227806013077498">
        <ele>59.740000000000002</ele>
        <time>2025-05-01T09:19:55Z</time>
      </trkpt>
      <trkpt lat="43.011346030980349" lon="-9.227722026407719">
        <ele>58.780000000000001</ele>
        <time>2025-05-01T09:19:56Z</time>
      </trkpt>
      <trkpt lat="43.01029896363616" lon="-9.226657021790743">
        <ele>53.490000000000002</ele>
        <time>2025-05-01T09:20:06Z</time>
      </trkpt>
      <trkpt lat="43.009167993441224" lon="-9.225506018847227">
        <ele>53.009999999999998</ele>
        <time>2025-05-01T09:20:16Z</time>
      </trkpt>
      <trkpt lat="43.008677987381816" lon="-9.224961027503014">
        <ele>54.450000000000003</ele>
        <time>2025-05-01T09:20:21Z</time>
      </trkpt>
      <trkpt lat="43.008592994883657" lon="-9.224833035841584">
        <ele>54.93</ele>
        <time>2025-05-01T09:20:22Z</time>
      </trkpt>
      <trkpt lat="43.008522000163794" lon="-9.224690962582827">
        <ele>55.409999999999997</ele>
        <time>2025-05-01T09:20:23Z</time>
      </trkpt>
      <trkpt lat="43.008474977687001" lon="-9.224522989243269">
        <ele>55.409999999999997</ele>
        <time>2025-05-01T09:20:24Z</time>
      </trkpt>
      <trkpt lat="43.008446982130408" lon="-9.224345963448286">
        <ele>55.890000000000001</ele>
        <time>2025-05-01T09:20:25Z</time>
      </trkpt>
      <trkpt lat="43.008424015715718" lon="-9.22416097484529">
        <ele>56.369999999999997</ele>
        <time>2025-05-01T09:20:26Z</time>
      </trkpt>
      <trkpt lat="43.008376993238926" lon="-9.223340973258019">
        <ele>56.859999999999999</ele>
        <time>2025-05-01T09:20:30Z</time>
      </trkpt>
      <trkpt lat="43.008365007117391" lon="-9.223135029897094">
        <ele>56.859999999999999</ele>
        <time>2025-05-01T09:20:31Z</time>
      </trkpt>
      <trkpt lat="43.008352015167475" lon="-9.222924979403615">
        <ele>56.369999999999997</ele>
        <time>2025-05-01T09:20:32Z</time>
      </trkpt>
      <trkpt lat="43.008244978263974" lon="-9.221310038119555">
        <ele>53.969999999999999</ele>
        <time>2025-05-01T09:20:40Z</time>
      </trkpt>
      <trkpt lat="43.008261993527412" lon="-9.220825983211398">
        <ele>52.530000000000001</ele>
        <time>2025-05-01T09:20:43Z</time>
      </trkpt>
      <trkpt lat="43.008274985477328" lon="-9.220654992386699">
        <ele>52.049999999999997</ele>
        <time>2025-05-01T09:20:44Z</time>
      </trkpt>
      <trkpt lat="43.008334999904037" lon="-9.220486013218761">
        <ele>51.090000000000003</ele>
        <time>2025-05-01T09:20:45Z</time>
      </trkpt>
      <trkpt lat="43.00840700045228" lon="-9.220318961888552">
        <ele>50.609999999999999</ele>
        <time>2025-05-01T09:20:46Z</time>
      </trkpt>
      <trkpt lat="43.008494004607201" lon="-9.220146965235472">
        <ele>50.609999999999999</ele>
        <time>2025-05-01T09:20:47Z</time>
      </trkpt>
      <trkpt lat="43.009019969031215" lon="-9.21911196783185">
        <ele>48.68</ele>
        <time>2025-05-01T09:20:53Z</time>
      </trkpt>
      <trkpt lat="43.009074032306671" lon="-9.218961009755731">
        <ele>48.200000000000003</ele>
        <time>2025-05-01T09:20:54Z</time>
      </trkpt>
      <trkpt lat="43.009078977629542" lon="-9.218800999224186">
        <ele>47.719999999999999</ele>
        <time>2025-05-01T09:20:55Z</time>
      </trkpt>
      <trkpt lat="43.009085012599826" lon="-9.218629002571106">
        <ele>46.759999999999998</ele>
        <time>2025-05-01T09:20:56Z</time>
      </trkpt>
      <trkpt lat="43.009092975407839" lon="-9.218408977612853">
        <ele>46.280000000000001</ele>
        <time>2025-05-01T09:20:57Z</time>
      </trkpt>
      <trkpt lat="43.008956015110016" lon="-9.217216987162828">
        <ele>46.759999999999998</ele>
        <time>2025-05-01T09:21:03Z</time>
      </trkpt>
      <trkpt lat="43.008916033431888" lon="-9.21702403575182">
        <ele>46.759999999999998</ele>
        <time>2025-05-01T09:21:04Z</time>
      </trkpt>
      <trkpt lat="43.008839003741741" lon="-9.216861007735133">
        <ele>47.240000000000002</ele>
        <time>2025-05-01T09:21:05Z</time>
      </trkpt>
      <trkpt lat="43.008742025122046" lon="-9.216719018295407">
        <ele>47.240000000000002</ele>
        <time>2025-05-01T09:21:06Z</time>
      </trkpt>
      <trkpt lat="43.008644040673971" lon="-9.216576023027301">
        <ele>47.719999999999999</ele>
        <time>2025-05-01T09:21:07Z</time>
      </trkpt>
      <trkpt lat="43.00851596519351" lon="-9.216481978073716">
        <ele>48.200000000000003</ele>
        <time>2025-05-01T09:21:08Z</time>
      </trkpt>
      <trkpt lat="43.008381016552448" lon="-9.216405032202601">
        <ele>49.159999999999997</ele>
        <time>2025-05-01T09:21:09Z</time>
      </trkpt>
      <trkpt lat="43.008238021284342" lon="-9.216366978362203">
        <ele>50.130000000000003</ele>
        <time>2025-05-01T09:21:10Z</time>
      </trkpt>
      <trkpt lat="43.008083961904049" lon="-9.21635901555419">
        <ele>51.090000000000003</ele>
        <time>2025-05-01T09:21:11Z</time>
      </trkpt>
      <trkpt lat="43.007923029363155" lon="-9.216350968927145">
        <ele>51.57</ele>
        <time>2025-05-01T09:21:12Z</time>
      </trkpt>
      <trkpt lat="43.007752960547805" lon="-9.21635901555419">
        <ele>52.530000000000001</ele>
        <time>2025-05-01T09:21:13Z</time>
      </trkpt>
      <trkpt lat="43.006286965683103" lon="-9.216492958366871">
        <ele>62.140000000000001</ele>
        <time>2025-05-01T09:21:21Z</time>
      </trkpt>
      <trkpt lat="43.006127960979939" lon="-9.216492036357522">
        <ele>64.069999999999993</ele>
        <time>2025-05-01T09:21:22Z</time>
      </trkpt>
      <trkpt lat="43.005977002903819" lon="-9.216478960588574">
        <ele>65.510000000000005</ele>
        <time>2025-05-01T09:21:23Z</time>
      </trkpt>
      <trkpt lat="43.00582897849381" lon="-9.216405032202601">
        <ele>66.950000000000003</ele>
        <time>2025-05-01T09:21:24Z</time>
      </trkpt>
      <trkpt lat="43.004833040758967" lon="-9.215668011456728">
        <ele>76.560000000000002</ele>
        <time>2025-05-01T09:21:31Z</time>
      </trkpt>
      <trkpt lat="43.003384983167052" lon="-9.21453301794827">
        <ele>84.730000000000004</ele>
        <time>2025-05-01T09:21:43Z</time>
      </trkpt>
      <trkpt lat="43.001825027167797" lon="-9.213317977264524">
        <ele>83.769999999999996</ele>
        <time>2025-05-01T09:21:56Z</time>
      </trkpt>
      <trkpt lat="43.000053009018302" lon="-9.211950972676277">
        <ele>88.579999999999998</ele>
        <time>2025-05-01T09:22:11Z</time>
      </trkpt>
      <trkpt lat="42.998955985531211" lon="-9.211278995499015">
        <ele>91.459999999999994</ele>
        <time>2025-05-01T09:22:20Z</time>
      </trkpt>
      <trkpt lat="42.997400974854827" lon="-9.210812961682677">
        <ele>96.269999999999996</ele>
        <time>2025-05-01T09:22:32Z</time>
      </trkpt>
      <trkpt lat="42.996089039370418" lon="-9.210435021668673">
        <ele>100.11</ele>
        <time>2025-05-01T09:22:44Z</time>
      </trkpt>
      <trkpt lat="42.99564303830266" lon="-9.210310969501734">
        <ele>102.52</ele>
        <time>2025-05-01T09:22:52Z</time>
      </trkpt>
      <trkpt lat="42.995598027482629" lon="-9.210276016965509">
        <ele>102.52</ele>
        <time>2025-05-01T09:22:53Z</time>
      </trkpt>
      <trkpt lat="42.9956029728055" lon="-9.210209967568517">
        <ele>102.52</ele>
        <time>2025-05-01T09:22:54Z</time>
      </trkpt>
      <trkpt lat="42.995590986683965" lon="-9.209911990910769">
        <ele>103.48</ele>
        <time>2025-05-01T09:22:57Z</time>
      </trkpt>
      <trkpt lat="42.995554022490978" lon="-9.20976203866303">
        <ele>103.95999999999999</ele>
        <time>2025-05-01T09:22:58Z</time>
      </trkpt>
      <trkpt lat="42.995498031377792" lon="-9.209687020629644">
        <ele>104.44</ele>
        <time>2025-05-01T09:22:59Z</time>
      </trkpt>
      <trkpt lat="42.995417984202504" lon="-9.209580989554524">
        <ele>104.92</ele>
        <time>2025-05-01T09:23:00Z</time>
      </trkpt>
      <trkpt lat="42.995336009189487" lon="-9.209472024813294">
        <ele>105.40000000000001</ele>
        <time>2025-05-01T09:23:01Z</time>
      </trkpt>
      <trkpt lat="42.995254034176469" lon="-9.209361970424652">
        <ele>106.36</ele>
        <time>2025-05-01T09:23:02Z</time>
      </trkpt>
      <trkpt lat="42.995218997821212" lon="-9.209217969328165">
        <ele>107.31999999999999</ele>
        <time>2025-05-01T09:23:03Z</time>
      </trkpt>
      <trkpt lat="42.995200976729393" lon="-9.209056030958891">
        <ele>107.81</ele>
        <time>2025-05-01T09:23:04Z</time>
      </trkpt>
      <trkpt lat="42.995179016143084" lon="-9.208880010992289">
        <ele>108.77</ele>
        <time>2025-05-01T09:23:05Z</time>
      </trkpt>
      <trkpt lat="42.995053958147764" lon="-9.208127986639738">
        <ele>112.61</ele>
        <time>2025-05-01T09:23:09Z</time>
      </trkpt>
      <trkpt lat="42.995011964812875" lon="-9.207940986379981">
        <ele>113.56999999999999</ele>
        <time>2025-05-01T09:23:10Z</time>
      </trkpt>
      <trkpt lat="42.994723962619901" lon="-9.206769028678536">
        <ele>117.90000000000001</ele>
        <time>2025-05-01T09:23:18Z</time>
      </trkpt>
      <trkpt lat="42.994667971506715" lon="-9.20649996958673">
        <ele>117.42</ele>
        <time>2025-05-01T09:23:24Z</time>
      </trkpt>
      <trkpt lat="42.994564035907388" lon="-9.206546992063522">
        <ele>122.70999999999999</ele>
        <time>2025-05-01T09:29:21Z</time>
      </trkpt>
      <trkpt lat="42.994619021192193" lon="-9.206518996506929">
        <ele>117.42</ele>
        <time>2025-05-01T09:29:33Z</time>
      </trkpt>
      <trkpt lat="42.994651040062308" lon="-9.206395028159022">
        <ele>117.90000000000001</ele>
        <time>2025-05-01T09:29:36Z</time>
      </trkpt>
      <trkpt lat="42.994638970121741" lon="-9.206312969326973">
        <ele>117.90000000000001</ele>
        <time>2025-05-01T09:29:37Z</time>
      </trkpt>
      <trkpt lat="42.994565963745117" lon="-9.20522902160883">
        <ele>116.45999999999999</ele>
        <time>2025-05-01T09:29:45Z</time>
      </trkpt>
      <trkpt lat="42.994538974016905" lon="-9.203720027580857">
        <ele>115.5</ele>
        <time>2025-05-01T09:29:52Z</time>
      </trkpt>
      <trkpt lat="42.994560012593865" lon="-9.202555026859045">
        <ele>115.01000000000001</ele>
        <time>2025-05-01T09:29:57Z</time>
      </trkpt>
      <trkpt lat="42.994579961523414" lon="-9.202327039092779">
        <ele>114.53</ele>
        <time>2025-05-01T09:29:58Z</time>
      </trkpt>
      <trkpt lat="42.994599994271994" lon="-9.202098967507482">
        <ele>113.56999999999999</ele>
        <time>2025-05-01T09:29:59Z</time>
      </trkpt>
      <trkpt lat="42.994620027020574" lon="-9.201855976134539">
        <ele>112.61</ele>
        <time>2025-05-01T09:30:00Z</time>
      </trkpt>
      <trkpt lat="42.994638970121741" lon="-9.201617008075118">
        <ele>111.65000000000001</ele>
        <time>2025-05-01T09:30:01Z</time>
      </trkpt>
      <trkpt lat="42.994684986770153" lon="-9.200950982049108">
        <ele>109.25</ele>
        <time>2025-05-01T09:30:04Z</time>
      </trkpt>
      <trkpt lat="42.994662020355463" lon="-9.200743027031422">
        <ele>108.29000000000001</ele>
        <time>2025-05-01T09:30:05Z</time>
      </trkpt>
      <trkpt lat="42.994638970121741" lon="-9.200529959052801">
        <ele>107.81</ele>
        <time>2025-05-01T09:30:06Z</time>
      </trkpt>
      <trkpt lat="42.994174025952816" lon="-9.198082024231553">
        <ele>102.52</ele>
        <time>2025-05-01T09:30:17Z</time>
      </trkpt>
      <trkpt lat="42.994142007082701" lon="-9.197678016498685">
        <ele>103.48</ele>
        <time>2025-05-01T09:30:19Z</time>
      </trkpt>
      <trkpt lat="42.994136977940798" lon="-9.197485987097025">
        <ele>103.48</ele>
        <time>2025-05-01T09:30:20Z</time>
      </trkpt>
      <trkpt lat="42.994407964870334" lon="-9.195214994251728">
        <ele>105.40000000000001</ele>
        <time>2025-05-01T09:30:31Z</time>
      </trkpt>
      <trkpt lat="42.994618015363812" lon="-9.193783029913902">
        <ele>106.36</ele>
        <time>2025-05-01T09:30:38Z</time>
      </trkpt>
      <trkpt lat="42.994670988991857" lon="-9.193610027432442">
        <ele>106.36</ele>
        <time>2025-05-01T09:30:39Z</time>
      </trkpt>
      <trkpt lat="42.994737038388848" lon="-9.193446999415755">
        <ele>106.84</ele>
        <time>2025-05-01T09:30:40Z</time>
      </trkpt>
      <trkpt lat="42.995108021423221" lon="-9.192723976448178">
        <ele>107.31999999999999</ele>
        <time>2025-05-01T09:30:45Z</time>
      </trkpt>
      <trkpt lat="42.995157977566123" lon="-9.192567989230156">
        <ele>106.84</ele>
        <time>2025-05-01T09:30:46Z</time>
      </trkpt>
      <trkpt lat="42.995207011699677" lon="-9.192414013668895">
        <ele>105.88</ele>
        <time>2025-05-01T09:30:47Z</time>
      </trkpt>
      <trkpt lat="42.995404992252588" lon="-9.191456967964768">
        <ele>103</ele>
        <time>2025-05-01T09:30:54Z</time>
      </trkpt>
      <trkpt lat="42.995428964495659" lon="-9.19137398712337">
        <ele>102.52</ele>
        <time>2025-05-01T09:30:55Z</time>
      </trkpt>
      <trkpt lat="42.995445979759097" lon="-9.19122202321887">
        <ele>101.56</ele>
        <time>2025-05-01T09:30:56Z</time>
      </trkpt>
      <trkpt lat="42.995328968390822" lon="-9.191169971600175">
        <ele>101.08</ele>
        <time>2025-05-01T09:30:57Z</time>
      </trkpt>
      <trkpt lat="42.995261996984482" lon="-9.191139964386821">
        <ele>100.59999999999999</ele>
        <time>2025-05-01T09:30:58Z</time>
      </trkpt>
      <trkpt lat="42.995184967294335" lon="-9.191106017678976">
        <ele>100.11</ele>
        <time>2025-05-01T09:30:59Z</time>
      </trkpt>
      <trkpt lat="42.995100980624557" lon="-9.191068969666958">
        <ele>99.150000000000006</ele>
        <time>2025-05-01T09:31:00Z</time>
      </trkpt>
      <trkpt lat="42.99431199207902" lon="-9.190721958875656">
        <ele>99.150000000000006</ele>
        <time>2025-05-01T09:31:08Z</time>
      </trkpt>
      <trkpt lat="42.994179977104068" lon="-9.19068600051105">
        <ele>99.150000000000006</ele>
        <time>2025-05-01T09:31:09Z</time>
      </trkpt>
      <trkpt lat="42.994101019576192" lon="-9.190698992460966">
        <ele>99.629999999999995</ele>
        <time>2025-05-01T09:31:10Z</time>
      </trkpt>
      <trkpt lat="42.993993982672691" lon="-9.190736040472984">
        <ele>99.629999999999995</ele>
        <time>2025-05-01T09:31:11Z</time>
      </trkpt>
      <trkpt lat="42.993887029588223" lon="-9.190807035192847">
        <ele>99.629999999999995</ele>
        <time>2025-05-01T09:31:12Z</time>
      </trkpt>
      <trkpt lat="42.993793990463018" lon="-9.1909009963274">
        <ele>99.150000000000006</ele>
        <time>2025-05-01T09:31:13Z</time>
      </trkpt>
      <trkpt lat="42.993697011843324" lon="-9.191001998260617">
        <ele>98.670000000000002</ele>
        <time>2025-05-01T09:31:14Z</time>
      </trkpt>
      <trkpt lat="42.9936049785465" lon="-9.191107023507357">
        <ele>98.189999999999998</ele>
        <time>2025-05-01T09:31:15Z</time>
      </trkpt>
      <trkpt lat="42.993506994098425" lon="-9.191184975206852">
        <ele>98.189999999999998</ele>
        <time>2025-05-01T09:31:16Z</time>
      </trkpt>
      <trkpt lat="42.993398029357195" lon="-9.191257981583476">
        <ele>97.709999999999994</ele>
        <time>2025-05-01T09:31:17Z</time>
      </trkpt>
      <trkpt lat="42.993286969140172" lon="-9.1913309879601">
        <ele>97.709999999999994</ele>
        <time>2025-05-01T09:31:18Z</time>
      </trkpt>
      <trkpt lat="42.993183033540845" lon="-9.191345991566777">
        <ele>97.709999999999994</ele>
        <time>2025-05-01T09:31:19Z</time>
      </trkpt>
      <trkpt lat="42.993059987202287" lon="-9.191338028758764">
        <ele>97.709999999999994</ele>
        <time>2025-05-01T09:31:20Z</time>
      </trkpt>
      <trkpt lat="42.992931995540857" lon="-9.191328976303339">
        <ele>98.189999999999998</ele>
        <time>2025-05-01T09:31:21Z</time>
      </trkpt>
      <trkpt lat="42.992796963080764" lon="-9.191292012110353">
        <ele>98.670000000000002</ele>
        <time>2025-05-01T09:31:22Z</time>
      </trkpt>
      <trkpt lat="42.992665031924844" lon="-9.191254964098334">
        <ele>99.150000000000006</ele>
        <time>2025-05-01T09:31:23Z</time>
      </trkpt>
      <trkpt lat="42.99214300699532" lon="-9.191144993528724">
        <ele>99.629999999999995</ele>
        <time>2025-05-01T09:31:27Z</time>
      </trkpt>
      <trkpt lat="42.992018032819033" lon="-9.191152034327388">
        <ele>99.629999999999995</ele>
        <time>2025-05-01T09:31:28Z</time>
      </trkpt>
      <trkpt lat="42.991890041157603" lon="-9.191187992691994">
        <ele>99.150000000000006</ele>
        <time>2025-05-01T09:31:29Z</time>
      </trkpt>
      <trkpt lat="42.99175500869751" lon="-9.191251024603844">
        <ele>98.670000000000002</ele>
        <time>2025-05-01T09:31:30Z</time>
      </trkpt>
      <trkpt lat="42.991621987894177" lon="-9.191327970474958">
        <ele>98.670000000000002</ele>
        <time>2025-05-01T09:31:31Z</time>
      </trkpt>
      <trkpt lat="42.99119995906949" lon="-9.191475994884968">
        <ele>97.709999999999994</ele>
        <time>2025-05-01T09:31:34Z</time>
      </trkpt>
      <trkpt lat="42.991057969629765" lon="-9.191498961299658">
        <ele>97.230000000000004</ele>
        <time>2025-05-01T09:31:35Z</time>
      </trkpt>
      <trkpt lat="42.990550026297569" lon="-9.191508013755083">
        <ele>98.670000000000002</ele>
        <time>2025-05-01T09:31:39Z</time>
      </trkpt>
      <trkpt lat="42.990441983565688" lon="-9.191492004320025">
        <ele>98.670000000000002</ele>
        <time>2025-05-01T09:31:40Z</time>
      </trkpt>
      <trkpt lat="42.99033896997571" lon="-9.191453028470278">
        <ele>98.670000000000002</ele>
        <time>2025-05-01T09:31:41Z</time>
      </trkpt>
      <trkpt lat="42.990259006619453" lon="-9.191353032365441">
        <ele>98.670000000000002</ele>
        <time>2025-05-01T09:31:42Z</time>
      </trkpt>
      <trkpt lat="42.990176025778055" lon="-9.191249012947083">
        <ele>98.670000000000002</ele>
        <time>2025-05-01T09:31:43Z</time>
      </trkpt>
      <trkpt lat="42.990089021623135" lon="-9.19113501906395">
        <ele>98.670000000000002</ele>
        <time>2025-05-01T09:31:44Z</time>
      </trkpt>
      <trkpt lat="42.989437999203801" lon="-9.190171016380191">
        <ele>95.790000000000006</ele>
        <time>2025-05-01T09:31:51Z</time>
      </trkpt>
      <trkpt lat="42.989230966195464" lon="-9.189948979765177">
        <ele>94.349999999999994</ele>
        <time>2025-05-01T09:31:53Z</time>
      </trkpt>
      <trkpt lat="42.98911202698946" lon="-9.189834985882044">
        <ele>93.390000000000001</ele>
        <time>2025-05-01T09:31:54Z</time>
      </trkpt>
      <trkpt lat="42.988981017842889" lon="-9.18976197950542">
        <ele>92.900000000000006</ele>
        <time>2025-05-01T09:31:55Z</time>
      </trkpt>
      <trkpt lat="42.988845985382795" lon="-9.189686961472035">
        <ele>91.939999999999998</ele>
        <time>2025-05-01T09:31:56Z</time>
      </trkpt>
      <trkpt lat="42.988709025084972" lon="-9.189612027257681">
        <ele>90.980000000000004</ele>
        <time>2025-05-01T09:31:57Z</time>
      </trkpt>
      <trkpt lat="42.988452035933733" lon="-9.189476994797587">
        <ele>89.060000000000002</ele>
        <time>2025-05-01T09:31:59Z</time>
      </trkpt>
      <trkpt lat="42.988343993201852" lon="-9.189419997856021">
        <ele>88.099999999999994</ele>
        <time>2025-05-01T09:32:00Z</time>
      </trkpt>
      <trkpt lat="42.988264029845595" lon="-9.18931296095252">
        <ele>87.620000000000005</ele>
        <time>2025-05-01T09:32:01Z</time>
      </trkpt>
      <trkpt lat="42.988190017640591" lon="-9.189184969291091">
        <ele>87.140000000000001</ele>
        <time>2025-05-01T09:32:02Z</time>
      </trkpt>
      <trkpt lat="42.988113993778825" lon="-9.1890549659729">
        <ele>86.659999999999997</ele>
        <time>2025-05-01T09:32:03Z</time>
      </trkpt>
      <trkpt lat="42.987634968012571" lon="-9.188198000192642">
        <ele>88.579999999999998</ele>
        <time>2025-05-01T09:32:09Z</time>
      </trkpt>
      <trkpt lat="42.986862994730473" lon="-9.186866031959653">
        <ele>90.980000000000004</ele>
        <time>2025-05-01T09:32:17Z</time>
      </trkpt>
      <trkpt lat="42.986802980303764" lon="-9.186655981466174">
        <ele>90.5</ele>
        <time>2025-05-01T09:32:18Z</time>
      </trkpt>
      <trkpt lat="42.986743971705437" lon="-9.186450960114598">
        <ele>89.540000000000006</ele>
        <time>2025-05-01T09:32:19Z</time>
      </trkpt>
      <trkpt lat="42.98670600168407" lon="-9.186243005096912">
        <ele>89.060000000000002</ele>
        <time>2025-05-01T09:32:20Z</time>
      </trkpt>
      <trkpt lat="42.986583961173892" lon="-9.185449993237853">
        <ele>89.540000000000006</ele>
        <time>2025-05-01T09:32:25Z</time>
      </trkpt>
      <trkpt lat="42.986438032239676" lon="-9.185303980484605">
        <ele>90.5</ele>
        <time>2025-05-01T09:32:28Z</time>
      </trkpt>
      <trkpt lat="42.986400984227657" lon="-9.185267016291618">
        <ele>90.980000000000004</ele>
        <time>2025-05-01T09:32:29Z</time>
      </trkpt>
      <trkpt lat="42.986357985064387" lon="-9.185234997421503">
        <ele>91.459999999999994</ele>
        <time>2025-05-01T09:32:30Z</time>
      </trkpt>
      <trkpt lat="42.986275004222989" lon="-9.185230974107981">
        <ele>91.939999999999998</ele>
        <time>2025-05-01T09:32:31Z</time>
      </trkpt>
      <trkpt lat="42.986175008118153" lon="-9.18522602878511">
        <ele>91.939999999999998</ele>
        <time>2025-05-01T09:32:32Z</time>
      </trkpt>
      <trkpt lat="42.9860620200634" lon="-9.185219993814826">
        <ele>91.939999999999998</ele>
        <time>2025-05-01T09:32:33Z</time>
      </trkpt>
      <trkpt lat="42.985004978254437" lon="-9.185586031526327">
        <ele>92.420000000000002</ele>
        <time>2025-05-01T09:32:40Z</time>
      </trkpt>
      <trkpt lat="42.983179986476898" lon="-9.18630201369524">
        <ele>93.390000000000001</ele>
        <time>2025-05-01T09:32:51Z</time>
      </trkpt>
      <trkpt lat="42.981739975512028" lon="-9.186897967010737">
        <ele>93.390000000000001</ele>
        <time>2025-05-01T09:33:00Z</time>
      </trkpt>
      <trkpt lat="42.979377033188939" lon="-9.187846966087818">
        <ele>91.939999999999998</ele>
        <time>2025-05-01T09:33:14Z</time>
      </trkpt>
      <trkpt lat="42.978119999170303" lon="-9.188339989632368">
        <ele>90.5</ele>
        <time>2025-05-01T09:33:23Z</time>
      </trkpt>
      <trkpt lat="42.978026960045099" lon="-9.188373014330864">
        <ele>90.5</ele>
        <time>2025-05-01T09:33:24Z</time>
      </trkpt>
      <trkpt lat="42.97794003970921" lon="-9.188418025150895">
        <ele>90.5</ele>
        <time>2025-05-01T09:33:25Z</time>
      </trkpt>
      <trkpt lat="42.977862004190683" lon="-9.18847200460732">
        <ele>90.5</ele>
        <time>2025-05-01T09:33:26Z</time>
      </trkpt>
      <trkpt lat="42.977808024734259" lon="-9.188754977658391">
        <ele>90.980000000000004</ele>
        <time>2025-05-01T09:33:27Z</time>
      </trkpt>
      <trkpt lat="42.977808024734259" lon="-9.188755983486772">
        <ele>90.980000000000004</ele>
        <time>2025-05-01T09:33:28Z</time>
      </trkpt>
      <trkpt lat="42.977771982550621" lon="-9.18888196349144">
        <ele>90.980000000000004</ele>
        <time>2025-05-01T09:33:29Z</time>
      </trkpt>
      <trkpt lat="42.977736024186015" lon="-9.189005009829998">
        <ele>91.459999999999994</ele>
        <time>2025-05-01T09:33:30Z</time>
      </trkpt>
      <trkpt lat="42.977634016424417" lon="-9.189113974571228">
        <ele>91.459999999999994</ele>
        <time>2025-05-01T09:33:31Z</time>
      </trkpt>
      <trkpt lat="42.977593028917909" lon="-9.18914096429944">
        <ele>91.459999999999994</ele>
        <time>2025-05-01T09:33:32Z</time>
      </trkpt>
      <trkpt lat="42.977358000352979" lon="-9.189173988997936">
        <ele>91.459999999999994</ele>
        <time>2025-05-01T09:33:33Z</time>
      </trkpt>
      <trkpt lat="42.97731801867485" lon="-9.189282031729817">
        <ele>91.459999999999994</ele>
        <time>2025-05-01T09:33:34Z</time>
      </trkpt>
      <trkpt lat="42.977276025339961" lon="-9.189394013956189">
        <ele>91.459999999999994</ele>
        <time>2025-05-01T09:33:35Z</time>
      </trkpt>
      <trkpt lat="42.977234032005072" lon="-9.189523011445999">
        <ele>91.459999999999994</ele>
        <time>2025-05-01T09:33:36Z</time>
      </trkpt>
      <trkpt lat="42.976838992908597" lon="-9.19079496525228">
        <ele>91.939999999999998</ele>
        <time>2025-05-01T09:33:43Z</time>
      </trkpt>
      <trkpt lat="42.975997030735016" lon="-9.192332038655877">
        <ele>92.420000000000002</ele>
        <time>2025-05-01T09:33:51Z</time>
      </trkpt>
      <trkpt lat="42.97439600341022" lon="-9.194541005417705">
        <ele>94.829999999999998</ele>
        <time>2025-05-01T09:34:03Z</time>
      </trkpt>
      <trkpt lat="42.972791958600283" lon="-9.19680898077786">
        <ele>101.56</ele>
        <time>2025-05-01T09:34:14Z</time>
      </trkpt>
      <trkpt lat="42.971025975421071" lon="-9.199274014681578">
        <ele>110.20999999999999</ele>
        <time>2025-05-01T09:34:24Z</time>
      </trkpt>
      <trkpt lat="42.968611987307668" lon="-9.202624009922147">
        <ele>127.98999999999999</ele>
        <time>2025-05-01T09:34:38Z</time>
      </trkpt>
      <trkpt lat="42.966177966445684" lon="-9.206007029861212">
        <ele>150.09999999999999</ele>
        <time>2025-05-01T09:34:52Z</time>
      </trkpt>
      <trkpt lat="42.964511979371309" lon="-9.207994965836406">
        <ele>159.72</ele>
        <time>2025-05-01T09:35:01Z</time>
      </trkpt>
      <trkpt lat="42.962959986180067" lon="-9.208956034854055">
        <ele>162.59999999999999</ele>
        <time>2025-05-01T09:35:08Z</time>
      </trkpt>
      <trkpt lat="42.96055899001658" lon="-9.209600016474724">
        <ele>157.31</ele>
        <time>2025-05-01T09:35:18Z</time>
      </trkpt>
      <trkpt lat="42.959067011252046" lon="-9.209931017830968">
        <ele>147.69999999999999</ele>
        <time>2025-05-01T09:35:25Z</time>
      </trkpt>
      <trkpt lat="42.95632797293365" lon="-9.210664015263319">
        <ele>132.80000000000001</ele>
        <time>2025-05-01T09:35:38Z</time>
      </trkpt>
      <trkpt lat="42.954575987532735" lon="-9.211734971031547">
        <ele>121.26000000000001</ele>
        <time>2025-05-01T09:35:47Z</time>
      </trkpt>
      <trkpt lat="42.953069005161524" lon="-9.213343039155006">
        <ele>110.20999999999999</ele>
        <time>2025-05-01T09:35:56Z</time>
      </trkpt>
      <trkpt lat="42.951667970046401" lon="-9.215331980958581">
        <ele>100.11</ele>
        <time>2025-05-01T09:36:04Z</time>
      </trkpt>
      <trkpt lat="42.949769971892238" lon="-9.218126004561782">
        <ele>86.180000000000007</ele>
        <time>2025-05-01T09:36:14Z</time>
      </trkpt>
      <trkpt lat="42.948413025587797" lon="-9.220104971900582">
        <ele>77.519999999999996</ele>
        <time>2025-05-01T09:36:21Z</time>
      </trkpt>
      <trkpt lat="42.94622702524066" lon="-9.22306596301496">
        <ele>59.259999999999998</ele>
        <time>2025-05-01T09:36:32Z</time>
      </trkpt>
      <trkpt lat="42.944840993732214" lon="-9.2243089992553">
        <ele>47.719999999999999</ele>
        <time>2025-05-01T09:36:39Z</time>
      </trkpt>
      <trkpt lat="42.944707972928882" lon="-9.22441796399653">
        <ele>45.799999999999997</ele>
        <time>2025-05-01T09:36:40Z</time>
      </trkpt>
      <trkpt lat="42.944591967388988" lon="-9.224498011171818">
        <ele>44.359999999999999</ele>
        <time>2025-05-01T09:36:41Z</time>
      </trkpt>
      <trkpt lat="42.94448803178966" lon="-9.224530030041933">
        <ele>42.439999999999998</ele>
        <time>2025-05-01T09:36:42Z</time>
      </trkpt>
      <trkpt lat="42.94438200071454" lon="-9.224537992849946">
        <ele>40.990000000000002</ele>
        <time>2025-05-01T09:36:43Z</time>
      </trkpt>
      <trkpt lat="42.944290973246098" lon="-9.224546039476991">
        <ele>39.549999999999997</ele>
        <time>2025-05-01T09:36:44Z</time>
      </trkpt>
      <trkpt lat="42.944197012111545" lon="-9.224527012556791">
        <ele>38.590000000000003</ele>
        <time>2025-05-01T09:36:45Z</time>
      </trkpt>
      <trkpt lat="42.944098021835089" lon="-9.224507985636592">
        <ele>37.630000000000003</ele>
        <time>2025-05-01T09:36:46Z</time>
      </trkpt>
      <trkpt lat="42.943990984931588" lon="-9.224675036966801">
        <ele>37.149999999999999</ele>
        <time>2025-05-01T09:36:47Z</time>
      </trkpt>
      <trkpt lat="42.943904986605048" lon="-9.224718036130071">
        <ele>36.670000000000002</ele>
        <time>2025-05-01T09:36:48Z</time>
      </trkpt>
      <trkpt lat="42.943726032972336" lon="-9.224773021414876">
        <ele>35.710000000000001</ele>
        <time>2025-05-01T09:36:49Z</time>
      </trkpt>
      <trkpt lat="42.943632993847132" lon="-9.224926996976137">
        <ele>35.229999999999997</ele>
        <time>2025-05-01T09:36:50Z</time>
      </trkpt>
      <trkpt lat="42.943540038540959" lon="-9.22508298419416">
        <ele>35.229999999999997</ele>
        <time>2025-05-01T09:36:51Z</time>
      </trkpt>
      <trkpt lat="42.943452028557658" lon="-9.225304014980793">
        <ele>34.740000000000002</ele>
        <time>2025-05-01T09:36:52Z</time>
      </trkpt>
      <trkpt lat="42.943368041887879" lon="-9.225511969998479">
        <ele>34.740000000000002</ele>
        <time>2025-05-01T09:36:53Z</time>
      </trkpt>
      <trkpt lat="42.943315990269184" lon="-9.225723026320338">
        <ele>34.259999999999998</ele>
        <time>2025-05-01T09:36:54Z</time>
      </trkpt>
      <trkpt lat="42.942947018891573" lon="-9.227461013942957">
        <ele>30.420000000000002</ele>
        <time>2025-05-01T09:37:03Z</time>
      </trkpt>
      <trkpt lat="42.942975014448166" lon="-9.228784013539553">
        <ele>24.170000000000002</ele>
        <time>2025-05-01T09:37:11Z</time>
      </trkpt>
      <trkpt lat="42.943127984181046" lon="-9.229508964344859">
        <ele>20.809999999999999</ele>
        <time>2025-05-01T09:37:16Z</time>
      </trkpt>
      <trkpt lat="42.943270979449153" lon="-9.22993702813983">
        <ele>20.809999999999999</ele>
        <time>2025-05-01T09:37:19Z</time>
      </trkpt>
      <trkpt lat="42.943301992490888" lon="-9.230081029236317">
        <ele>20.32</ele>
        <time>2025-05-01T09:37:20Z</time>
      </trkpt>
      <trkpt lat="42.9433289822191" lon="-9.230226036161184">
        <ele>19.84</ele>
        <time>2025-05-01T09:37:21Z</time>
      </trkpt>
      <trkpt lat="42.943342979997396" lon="-9.23036802560091">
        <ele>18.879999999999999</ele>
        <time>2025-05-01T09:37:22Z</time>
      </trkpt>
      <trkpt lat="42.9433289822191" lon="-9.230524012818933">
        <ele>18.399999999999999</ele>
        <time>2025-05-01T09:37:23Z</time>
      </trkpt>
      <trkpt lat="42.943307021632791" lon="-9.230667008087039">
        <ele>17.440000000000001</ele>
        <time>2025-05-01T09:37:24Z</time>
      </trkpt>
      <trkpt lat="42.943286988884211" lon="-9.230806985870004">
        <ele>16.960000000000001</ele>
        <time>2025-05-01T09:37:25Z</time>
      </trkpt>
      <trkpt lat="42.943064030259848" lon="-9.232317991554737">
        <ele>12.630000000000001</ele>
        <time>2025-05-01T09:37:36Z</time>
      </trkpt>
      <trkpt lat="42.943011978641152" lon="-9.232587972655892">
        <ele>11.67</ele>
        <time>2025-05-01T09:37:38Z</time>
      </trkpt>
      <trkpt lat="42.942969985306263" lon="-9.232714036479592">
        <ele>11.67</ele>
        <time>2025-05-01T09:37:39Z</time>
      </trkpt>
      <trkpt lat="42.942917011678219" lon="-9.23283901065588">
        <ele>11.67</ele>
        <time>2025-05-01T09:37:40Z</time>
      </trkpt>
      <trkpt lat="42.94285599142313" lon="-9.232961973175407">
        <ele>12.15</ele>
        <time>2025-05-01T09:37:41Z</time>
      </trkpt>
      <trkpt lat="42.94279002584517" lon="-9.233055012300611">
        <ele>12.15</ele>
        <time>2025-05-01T09:37:42Z</time>
      </trkpt>
      <trkpt lat="42.942316029220819" lon="-9.233758002519608">
        <ele>14.08</ele>
        <time>2025-05-01T09:37:49Z</time>
      </trkpt>
      <trkpt lat="42.941969018429518" lon="-9.234281033277512">
        <ele>16.960000000000001</ele>
        <time>2025-05-01T09:37:54Z</time>
      </trkpt>
      <trkpt lat="42.941905986517668" lon="-9.234385974705219">
        <ele>16.960000000000001</ele>
        <time>2025-05-01T09:37:55Z</time>
      </trkpt>
      <trkpt lat="42.941484963521361" lon="-9.23496600240469">
        <ele>17.920000000000002</ele>
        <time>2025-05-01T09:38:01Z</time>
      </trkpt>
      <trkpt lat="42.941309027373791" lon="-9.235102962702513">
        <ele>17.440000000000001</ele>
        <time>2025-05-01T09:38:03Z</time>
      </trkpt>
      <trkpt lat="42.941211964935064" lon="-9.235125007107854">
        <ele>17.440000000000001</ele>
        <time>2025-05-01T09:38:04Z</time>
      </trkpt>
      <trkpt lat="42.941112974658608" lon="-9.235145961865783">
        <ele>17.440000000000001</ele>
        <time>2025-05-01T09:38:05Z</time>
      </trkpt>
      <trkpt lat="42.94070603325963" lon="-9.235163982957602">
        <ele>17.440000000000001</ele>
        <time>2025-05-01T09:38:09Z</time>
      </trkpt>
      <trkpt lat="42.940273024141788" lon="-9.235097011551261">
        <ele>19.84</ele>
        <time>2025-05-01T09:38:13Z</time>
      </trkpt>
      <trkpt lat="42.940147966146469" lon="-9.235091982409358">
        <ele>20.32</ele>
        <time>2025-05-01T09:38:14Z</time>
      </trkpt>
      <trkpt lat="42.940030032768846" lon="-9.235145961865783">
        <ele>20.809999999999999</ele>
        <time>2025-05-01T09:38:15Z</time>
      </trkpt>
      <trkpt lat="42.939914027228951" lon="-9.235213017091155">
        <ele>21.289999999999999</ele>
        <time>2025-05-01T09:38:16Z</time>
      </trkpt>
      <trkpt lat="42.939815036952496" lon="-9.235328016802669">
        <ele>21.77</ele>
        <time>2025-05-01T09:38:17Z</time>
      </trkpt>
      <trkpt lat="42.939710011705756" lon="-9.235448967665434">
        <ele>22.73</ele>
        <time>2025-05-01T09:38:18Z</time>
      </trkpt>
      <trkpt lat="42.939603980630636" lon="-9.235581988468766">
        <ele>23.690000000000001</ele>
        <time>2025-05-01T09:38:19Z</time>
      </trkpt>
      <trkpt lat="42.939263004809618" lon="-9.236010974273086">
        <ele>26.09</ele>
        <time>2025-05-01T09:38:22Z</time>
      </trkpt>
      <trkpt lat="42.939122021198273" lon="-9.236110970377922">
        <ele>27.050000000000001</ele>
        <time>2025-05-01T09:38:23Z</time>
      </trkpt>
      <trkpt lat="42.938970979303122" lon="-9.236203003674746">
        <ele>28.02</ele>
        <time>2025-05-01T09:38:24Z</time>
      </trkpt>
      <trkpt lat="42.93799901381135" lon="-9.236745983362198">
        <ele>32.340000000000003</ele>
        <time>2025-05-01T09:38:30Z</time>
      </trkpt>
      <trkpt lat="42.93782802298665" lon="-9.236788982525468">
        <ele>33.299999999999997</ele>
        <time>2025-05-01T09:38:31Z</time>
      </trkpt>
      <trkpt lat="42.937660971656442" lon="-9.236819995567203">
        <ele>33.780000000000001</ele>
        <time>2025-05-01T09:38:32Z</time>
      </trkpt>
      <trkpt lat="42.937489980831742" lon="-9.23679200001061">
        <ele>34.740000000000002</ele>
        <time>2025-05-01T09:38:33Z</time>
      </trkpt>
      <trkpt lat="42.937325024977326" lon="-9.236712958663702">
        <ele>35.710000000000001</ele>
        <time>2025-05-01T09:38:34Z</time>
      </trkpt>
      <trkpt lat="42.937158979475498" lon="-9.236612962558866">
        <ele>36.189999999999998</ele>
        <time>2025-05-01T09:38:35Z</time>
      </trkpt>
      <trkpt lat="42.935910997912288" lon="-9.235946014523506">
        <ele>42.920000000000002</ele>
        <time>2025-05-01T09:38:42Z</time>
      </trkpt>
      <trkpt lat="42.935725003480911" lon="-9.235858004540205">
        <ele>44.359999999999999</ele>
        <time>2025-05-01T09:38:43Z</time>
      </trkpt>
      <trkpt lat="42.935535991564393" lon="-9.235790027305484">
        <ele>45.32</ele>
        <time>2025-05-01T09:38:44Z</time>
      </trkpt>
      <trkpt lat="42.934074020013213" lon="-9.235738981515169">
        <ele>53.969999999999999</ele>
        <time>2025-05-01T09:38:51Z</time>
      </trkpt>
      <trkpt lat="42.933858018368483" lon="-9.2357839923352">
        <ele>54.450000000000003</ele>
        <time>2025-05-01T09:38:52Z</time>
      </trkpt>
      <trkpt lat="42.933635981753469" lon="-9.235831014811993">
        <ele>55.409999999999997</ele>
        <time>2025-05-01T09:38:53Z</time>
      </trkpt>
      <trkpt lat="42.932982025668025" lon="-9.235971998423338">
        <ele>57.340000000000003</ele>
        <time>2025-05-01T09:38:56Z</time>
      </trkpt>
      <trkpt lat="42.932783961296082" lon="-9.235936962068081">
        <ele>57.82</ele>
        <time>2025-05-01T09:38:57Z</time>
      </trkpt>
      <trkpt lat="42.932583969086409" lon="-9.235903015360236">
        <ele>58.780000000000001</ele>
        <time>2025-05-01T09:38:58Z</time>
      </trkpt>
      <trkpt lat="42.932386994361877" lon="-9.23582699149847">
        <ele>59.259999999999998</ele>
        <time>2025-05-01T09:38:59Z</time>
      </trkpt>
      <trkpt lat="42.932197982445359" lon="-9.235747028142214">
        <ele>59.740000000000002</ele>
        <time>2025-05-01T09:39:00Z</time>
      </trkpt>
      <trkpt lat="42.931995978578925" lon="-9.235661029815674">
        <ele>60.219999999999999</ele>
        <time>2025-05-01T09:39:01Z</time>
      </trkpt>
      <trkpt lat="42.931809984147549" lon="-9.235617024824023">
        <ele>60.700000000000003</ele>
        <time>2025-05-01T09:39:02Z</time>
      </trkpt>
      <trkpt lat="42.931601023301482" lon="-9.235578970983625">
        <ele>61.659999999999997</ele>
        <time>2025-05-01T09:39:03Z</time>
      </trkpt>
      <trkpt lat="42.931393990293145" lon="-9.235608978196979">
        <ele>62.140000000000001</ele>
        <time>2025-05-01T09:39:04Z</time>
      </trkpt>
      <trkpt lat="42.93118704110384" lon="-9.235638985410333">
        <ele>62.619999999999997</ele>
        <time>2025-05-01T09:39:05Z</time>
      </trkpt>
      <trkpt lat="42.930984031409025" lon="-9.235728001222014">
        <ele>63.100000000000001</ele>
        <time>2025-05-01T09:39:06Z</time>
      </trkpt>
      <trkpt lat="42.930784961208701" lon="-9.235818022862077">
        <ele>63.579999999999998</ele>
        <time>2025-05-01T09:39:07Z</time>
      </trkpt>
      <trkpt lat="42.930611958727241" lon="-9.235994964838028">
        <ele>64.069999999999993</ele>
        <time>2025-05-01T09:39:08Z</time>
      </trkpt>
      <trkpt lat="42.930441973730922" lon="-9.236188000068069">
        <ele>64.069999999999993</ele>
        <time>2025-05-01T09:39:09Z</time>
      </trkpt>
      <trkpt lat="42.930265031754971" lon="-9.236378017812967">
        <ele>64.549999999999997</ele>
        <time>2025-05-01T09:39:10Z</time>
      </trkpt>
      <trkpt lat="42.930085994303226" lon="-9.236562000587583">
        <ele>64.549999999999997</ele>
        <time>2025-05-01T09:39:11Z</time>
      </trkpt>
      <trkpt lat="42.928905989974737" lon="-9.237721972167492">
        <ele>63.579999999999998</ele>
        <time>2025-05-01T09:39:18Z</time>
      </trkpt>
      <trkpt lat="42.928785039111972" lon="-9.237906038761139">
        <ele>63.100000000000001</ele>
        <time>2025-05-01T09:39:19Z</time>
      </trkpt>
      <trkpt lat="42.928702980279922" lon="-9.238117011263967">
        <ele>62.619999999999997</ele>
        <time>2025-05-01T09:39:20Z</time>
      </trkpt>
      <trkpt lat="42.928646989166737" lon="-9.238333012908697">
        <ele>62.140000000000001</ele>
        <time>2025-05-01T09:39:21Z</time>
      </trkpt>
      <trkpt lat="42.928627040237188" lon="-9.238551026210189">
        <ele>61.18</ele>
        <time>2025-05-01T09:39:22Z</time>
      </trkpt>
      <trkpt lat="42.928646989166737" lon="-9.23876996152103">
        <ele>60.700000000000003</ele>
        <time>2025-05-01T09:39:23Z</time>
      </trkpt>
      <trkpt lat="42.928690994158387" lon="-9.239009013399482">
        <ele>59.740000000000002</ele>
        <time>2025-05-01T09:39:24Z</time>
      </trkpt>
      <trkpt lat="42.928783027455211" lon="-9.239191990345717">
        <ele>59.259999999999998</ele>
        <time>2025-05-01T09:39:25Z</time>
      </trkpt>
      <trkpt lat="42.928886963054538" lon="-9.239399023354054">
        <ele>58.780000000000001</ele>
        <time>2025-05-01T09:39:26Z</time>
      </trkpt>
      <trkpt lat="42.929586013779044" lon="-9.240608029067516">
        <ele>55.890000000000001</ele>
        <time>2025-05-01T09:39:32Z</time>
      </trkpt>
      <trkpt lat="42.92964200489223" lon="-9.240808021277189">
        <ele>55.409999999999997</ele>
        <time>2025-05-01T09:39:33Z</time>
      </trkpt>
      <trkpt lat="42.929677963256836" lon="-9.241008013486862">
        <ele>54.93</ele>
        <time>2025-05-01T09:39:34Z</time>
      </trkpt>
      <trkpt lat="42.929670000448823" lon="-9.241211023181677">
        <ele>54.450000000000003</ele>
        <time>2025-05-01T09:39:35Z</time>
      </trkpt>
      <trkpt lat="42.92962197214365" lon="-9.241426018998027">
        <ele>53.969999999999999</ele>
        <time>2025-05-01T09:39:36Z</time>
      </trkpt>
      <trkpt lat="42.929571010172367" lon="-9.241647971794009">
        <ele>53.490000000000002</ele>
        <time>2025-05-01T09:39:37Z</time>
      </trkpt>
      <trkpt lat="42.929474031552672" lon="-9.241860033944249">
        <ele>52.530000000000001</ele>
        <time>2025-05-01T09:39:38Z</time>
      </trkpt>
      <trkpt lat="42.929368000477552" lon="-9.242091961205006">
        <ele>52.049999999999997</ele>
        <time>2025-05-01T09:39:39Z</time>
      </trkpt>
      <trkpt lat="42.929243026301265" lon="-9.242320032790303">
        <ele>51.090000000000003</ele>
        <time>2025-05-01T09:39:40Z</time>
      </trkpt>
      <trkpt lat="42.927934024482965" lon="-9.244349040091038">
        <ele>41.950000000000003</ele>
        <time>2025-05-01T09:39:49Z</time>
      </trkpt>
      <trkpt lat="42.927533034235239" lon="-9.245011964812875">
        <ele>38.590000000000003</ele>
        <time>2025-05-01T09:39:52Z</time>
      </trkpt>
      <trkpt lat="42.927434965968132" lon="-9.245241964235902">
        <ele>38.109999999999999</ele>
        <time>2025-05-01T09:39:53Z</time>
      </trkpt>
      <trkpt lat="42.927353996783495" lon="-9.245484033599496">
        <ele>37.149999999999999</ele>
        <time>2025-05-01T09:39:54Z</time>
      </trkpt>
      <trkpt lat="42.927305968478322" lon="-9.24575200304389">
        <ele>36.189999999999998</ele>
        <time>2025-05-01T09:39:55Z</time>
      </trkpt>
      <trkpt lat="42.927258023992181" lon="-9.246022989973426">
        <ele>35.710000000000001</ele>
        <time>2025-05-01T09:39:56Z</time>
      </trkpt>
      <trkpt lat="42.927242014557123" lon="-9.246301017701626">
        <ele>35.229999999999997</ele>
        <time>2025-05-01T09:39:57Z</time>
      </trkpt>
      <trkpt lat="42.927228016778827" lon="-9.246593965217471">
        <ele>34.740000000000002</ele>
        <time>2025-05-01T09:39:58Z</time>
      </trkpt>
      <trkpt lat="42.927215024828911" lon="-9.24689001403749">
        <ele>34.740000000000002</ele>
        <time>2025-05-01T09:39:59Z</time>
      </trkpt>
      <trkpt lat="42.927222987636924" lon="-9.247171981260181">
        <ele>34.740000000000002</ele>
        <time>2025-05-01T09:40:00Z</time>
      </trkpt>
      <trkpt lat="42.927258023992181" lon="-9.247754020616412">
        <ele>34.259999999999998</ele>
        <time>2025-05-01T09:40:02Z</time>
      </trkpt>
      <trkpt lat="42.927564969286323" lon="-9.249481027945876">
        <ele>31.379999999999999</ele>
        <time>2025-05-01T09:40:08Z</time>
      </trkpt>
      <trkpt lat="42.928085988387465" lon="-9.25099303945899">
        <ele>28.98</ele>
        <time>2025-05-01T09:40:15Z</time>
      </trkpt>
      <trkpt lat="42.928130999207497" lon="-9.251194959506393">
        <ele>28.5</ele>
        <time>2025-05-01T09:40:16Z</time>
      </trkpt>
      <trkpt lat="42.92816000059247" lon="-9.251399980857968">
        <ele>28.02</ele>
        <time>2025-05-01T09:40:17Z</time>
      </trkpt>
      <trkpt lat="42.928169975057244" lon="-9.251606008037925">
        <ele>28.02</ele>
        <time>2025-05-01T09:40:18Z</time>
      </trkpt>
      <trkpt lat="42.928170980885625" lon="-9.251802982762456">
        <ele>27.530000000000001</ele>
        <time>2025-05-01T09:40:19Z</time>
      </trkpt>
      <trkpt lat="42.928153965622187" lon="-9.251996017992497">
        <ele>27.530000000000001</ele>
        <time>2025-05-01T09:40:20Z</time>
      </trkpt>
      <trkpt lat="42.928111972287297" lon="-9.252590965479612">
        <ele>26.57</ele>
        <time>2025-05-01T09:40:23Z</time>
      </trkpt>
      <trkpt lat="42.92813896201551" lon="-9.252802021801472">
        <ele>25.609999999999999</ele>
        <time>2025-05-01T09:40:24Z</time>
      </trkpt>
      <trkpt lat="42.928185984492302" lon="-9.253010982647538">
        <ele>25.129999999999999</ele>
        <time>2025-05-01T09:40:25Z</time>
      </trkpt>
      <trkpt lat="42.928240969777107" lon="-9.253226984292269">
        <ele>24.649999999999999</ele>
        <time>2025-05-01T09:40:26Z</time>
      </trkpt>
      <trkpt lat="42.928297966718674" lon="-9.253447009250522">
        <ele>24.170000000000002</ele>
        <time>2025-05-01T09:40:27Z</time>
      </trkpt>
      <trkpt lat="42.928540958091617" lon="-9.255207041278482">
        <ele>17.440000000000001</ele>
        <time>2025-05-01T09:40:35Z</time>
      </trkpt>
      <trkpt lat="42.928252033889294" lon="-9.256960032507777">
        <ele>11.67</ele>
        <time>2025-05-01T09:40:43Z</time>
      </trkpt>
      <trkpt lat="42.927918015047908" lon="-9.25778397358954">
        <ele>7.83</ele>
        <time>2025-05-01T09:40:47Z</time>
      </trkpt>
      <trkpt lat="42.927806032821536" lon="-9.257967034354806">
        <ele>7.35</ele>
        <time>2025-05-01T09:40:48Z</time>
      </trkpt>
      <trkpt lat="42.92661395855248" lon="-9.259418025612831">
        <ele>0.62</ele>
        <time>2025-05-01T09:40:58Z</time>
      </trkpt>
      <trkpt lat="42.925867969170213" lon="-9.260207014158368">
        <ele>1.1</ele>
        <time>2025-05-01T09:41:05Z</time>
      </trkpt>
      <trkpt lat="42.925768978893757" lon="-9.260312961414456">
        <ele>1.58</ele>
        <time>2025-05-01T09:41:06Z</time>
      </trkpt>
      <trkpt lat="42.92493799701333" lon="-9.26122298464179">
        <ele>3.98</ele>
        <time>2025-05-01T09:41:15Z</time>
      </trkpt>
      <trkpt lat="42.923608040437102" lon="-9.2626609839499">
        <ele>4.46</ele>
        <time>2025-05-01T09:41:29Z</time>
      </trkpt>
      <trkpt lat="42.922468017786741" lon="-9.263889016583562">
        <ele>4.94</ele>
        <time>2025-05-01T09:41:41Z</time>
      </trkpt>
      <trkpt lat="42.921609040349722" lon="-9.264821000397205">
        <ele>7.83</ele>
        <time>2025-05-01T09:41:50Z</time>
      </trkpt>
      <trkpt lat="42.920559039339423" lon="-9.265937972813845">
        <ele>13.119999999999999</ele>
        <time>2025-05-01T09:42:01Z</time>
      </trkpt>
      <trkpt lat="42.919217012822628" lon="-9.267338002100587">
        <ele>19.84</ele>
        <time>2025-05-01T09:42:15Z</time>
      </trkpt>
      <trkpt lat="42.919108970090747" lon="-9.267406985163689">
        <ele>20.32</ele>
        <time>2025-05-01T09:42:16Z</time>
      </trkpt>
      <trkpt lat="42.918997993692756" lon="-9.267449984326959">
        <ele>20.809999999999999</ele>
        <time>2025-05-01T09:42:17Z</time>
      </trkpt>
      <trkpt lat="42.91887897066772" lon="-9.267470017075539">
        <ele>21.289999999999999</ele>
        <time>2025-05-01T09:42:18Z</time>
      </trkpt>
      <trkpt lat="42.918758019804955" lon="-9.267489966005087">
        <ele>21.77</ele>
        <time>2025-05-01T09:42:19Z</time>
      </trkpt>
      <trkpt lat="42.918638996779919" lon="-9.267503963783383">
        <ele>22.25</ele>
        <time>2025-05-01T09:42:20Z</time>
      </trkpt>
      <trkpt lat="42.9171790368855" lon="-9.267503963783383">
        <ele>24.170000000000002</ele>
        <time>2025-05-01T09:42:32Z</time>
      </trkpt>
      <trkpt lat="42.915729973465204" lon="-9.267519973218441">
        <ele>25.609999999999999</ele>
        <time>2025-05-01T09:42:44Z</time>
      </trkpt>
      <trkpt lat="42.914079995825887" lon="-9.267441015690565">
        <ele>26.09</ele>
        <time>2025-05-01T09:42:58Z</time>
      </trkpt>
      <trkpt lat="42.913977988064289" lon="-9.26738996990025">
        <ele>26.09</ele>
        <time>2025-05-01T09:42:59Z</time>
      </trkpt>
      <trkpt lat="42.91389299556613" lon="-9.267329033464193">
        <ele>26.09</ele>
        <time>2025-05-01T09:43:00Z</time>
      </trkpt>
      <trkpt lat="42.913824012503028" lon="-9.267204981297255">
        <ele>26.09</ele>
        <time>2025-05-01T09:43:01Z</time>
      </trkpt>
      <trkpt lat="42.913777995854616" lon="-9.267082018777728">
        <ele>26.09</ele>
        <time>2025-05-01T09:43:02Z</time>
      </trkpt>
      <trkpt lat="42.913738014176488" lon="-9.266935000196099">
        <ele>26.09</ele>
        <time>2025-05-01T09:43:03Z</time>
      </trkpt>
      <trkpt lat="42.91370197199285" lon="-9.266788987442851">
        <ele>26.09</ele>
        <time>2025-05-01T09:43:04Z</time>
      </trkpt>
      <trkpt lat="42.913669031113386" lon="-9.266651021316648">
        <ele>26.09</ele>
        <time>2025-05-01T09:43:05Z</time>
      </trkpt>
      <trkpt lat="42.913381028920412" lon="-9.265129035338759">
        <ele>29.460000000000001</ele>
        <time>2025-05-01T09:43:15Z</time>
      </trkpt>
      <trkpt lat="42.913234010338783" lon="-9.264690997079015">
        <ele>29.460000000000001</ele>
        <time>2025-05-01T09:43:18Z</time>
      </trkpt>
      <trkpt lat="42.913105012848973" lon="-9.264402994886041">
        <ele>28.98</ele>
        <time>2025-05-01T09:43:20Z</time>
      </trkpt>
      <trkpt lat="42.912993030622602" lon="-9.26431498490274">
        <ele>28.02</ele>
        <time>2025-05-01T09:43:21Z</time>
      </trkpt>
      <trkpt lat="42.91288498789072" lon="-9.264253964647651">
        <ele>27.530000000000001</ele>
        <time>2025-05-01T09:43:22Z</time>
      </trkpt>
      <trkpt lat="42.912774011492729" lon="-9.264195039868355">
        <ele>27.530000000000001</ele>
        <time>2025-05-01T09:43:23Z</time>
      </trkpt>
      <trkpt lat="42.912650965154171" lon="-9.264162015169859">
        <ele>27.050000000000001</ele>
        <time>2025-05-01T09:43:24Z</time>
      </trkpt>
      <trkpt lat="42.911649998277426" lon="-9.263796983286738">
        <ele>26.57</ele>
        <time>2025-05-01T09:43:33Z</time>
      </trkpt>
      <trkpt lat="42.911027977243066" lon="-9.263582993298769">
        <ele>28.98</ele>
        <time>2025-05-01T09:43:39Z</time>
      </trkpt>
      <trkpt lat="42.910933010280132" lon="-9.263531025499106">
        <ele>29.940000000000001</ele>
        <time>2025-05-01T09:43:40Z</time>
      </trkpt>
      <trkpt lat="42.91084298864007" lon="-9.26347796805203">
        <ele>30.420000000000002</ele>
        <time>2025-05-01T09:43:41Z</time>
      </trkpt>
      <trkpt lat="42.910763025283813" lon="-9.263418037444353">
        <ele>30.899999999999999</ele>
        <time>2025-05-01T09:43:42Z</time>
      </trkpt>
      <trkpt lat="42.910689013078809" lon="-9.263361040502787">
        <ele>31.859999999999999</ele>
        <time>2025-05-01T09:43:43Z</time>
      </trkpt>
      <trkpt lat="42.910548029467463" lon="-9.263254003599286">
        <ele>32.82</ele>
        <time>2025-05-01T09:43:45Z</time>
      </trkpt>
      <trkpt lat="42.910481980070472" lon="-9.263203963637352">
        <ele>33.299999999999997</ele>
        <time>2025-05-01T09:43:46Z</time>
      </trkpt>
      <trkpt lat="42.910420037806034" lon="-9.263157024979591">
        <ele>34.259999999999998</ele>
        <time>2025-05-01T09:43:47Z</time>
      </trkpt>
      <trkpt lat="42.910329010337591" lon="-9.2630909755826">
        <ele>35.710000000000001</ele>
        <time>2025-05-01T09:43:49Z</time>
      </trkpt>
      <trkpt lat="42.910288022831082" lon="-9.263061974197626">
        <ele>36.670000000000002</ele>
        <time>2025-05-01T09:43:50Z</time>
      </trkpt>
      <trkpt lat="42.910244017839432" lon="-9.263029033318162">
        <ele>37.149999999999999</ele>
        <time>2025-05-01T09:43:51Z</time>
      </trkpt>
      <trkpt lat="42.910206969827414" lon="-9.262998020276427">
        <ele>38.109999999999999</ele>
        <time>2025-05-01T09:43:52Z</time>
      </trkpt>
      <trkpt lat="42.910170005634427" lon="-9.262967007234693">
        <ele>38.590000000000003</ele>
        <time>2025-05-01T09:43:53Z</time>
      </trkpt>
      <trkpt lat="42.910051988437772" lon="-9.262890983372927">
        <ele>40.990000000000002</ele>
        <time>2025-05-01T09:43:56Z</time>
      </trkpt>
      <trkpt lat="42.909934977069497" lon="-9.262826023623347">
        <ele>41.950000000000003</ele>
        <time>2025-05-01T09:43:58Z</time>
      </trkpt>
      <trkpt lat="42.909874962642789" lon="-9.262791993096471">
        <ele>42.920000000000002</ele>
        <time>2025-05-01T09:43:59Z</time>
      </trkpt>
      <trkpt lat="42.909814026206732" lon="-9.262758968397975">
        <ele>43.399999999999999</ele>
        <time>2025-05-01T09:44:00Z</time>
      </trkpt>
      <trkpt lat="42.909755017608404" lon="-9.262726027518511">
        <ele>44.359999999999999</ele>
        <time>2025-05-01T09:44:01Z</time>
      </trkpt>
      <trkpt lat="42.909703971818089" lon="-9.262698031961918">
        <ele>44.840000000000003</ele>
        <time>2025-05-01T09:44:02Z</time>
      </trkpt>
      <trkpt lat="42.9096619784832" lon="-9.262674981728196">
        <ele>44.840000000000003</ele>
        <time>2025-05-01T09:44:03Z</time>
      </trkpt>
      <trkpt lat="42.909623002633452" lon="-9.262653021141887">
        <ele>45.32</ele>
        <time>2025-05-01T09:44:04Z</time>
      </trkpt>
      <trkpt lat="42.909584026783705" lon="-9.262631982564926">
        <ele>45.799999999999997</ele>
        <time>2025-05-01T09:44:05Z</time>
      </trkpt>
      <trkpt lat="42.909533986821771" lon="-9.262603987008333">
        <ele>46.280000000000001</ele>
        <time>2025-05-01T09:44:06Z</time>
      </trkpt>
      <trkpt lat="42.909481013193727" lon="-9.26257498562336">
        <ele>47.240000000000002</ele>
        <time>2025-05-01T09:44:07Z</time>
      </trkpt>
      <trkpt lat="42.909426027908921" lon="-9.262544978410006">
        <ele>47.240000000000002</ele>
        <time>2025-05-01T09:44:08Z</time>
      </trkpt>
      <trkpt lat="42.909370958805084" lon="-9.262513965368271">
        <ele>47.719999999999999</ele>
        <time>2025-05-01T09:44:09Z</time>
      </trkpt>
      <trkpt lat="42.909311028197408" lon="-9.262482030317187">
        <ele>47.719999999999999</ele>
        <time>2025-05-01T09:44:10Z</time>
      </trkpt>
      <trkpt lat="42.909153029322624" lon="-9.262442970648408">
        <ele>48.200000000000003</ele>
        <time>2025-05-01T09:44:13Z</time>
      </trkpt>
      <trkpt lat="42.909094020724297" lon="-9.262463003396988">
        <ele>48.200000000000003</ele>
        <time>2025-05-01T09:44:14Z</time>
      </trkpt>
      <trkpt lat="42.909046998247504" lon="-9.262484963983297">
        <ele>47.719999999999999</ele>
        <time>2025-05-01T09:44:15Z</time>
      </trkpt>
      <trkpt lat="42.9089539591223" lon="-9.262528968974948">
        <ele>48.200000000000003</ele>
        <time>2025-05-01T09:44:17Z</time>
      </trkpt>
      <trkpt lat="42.90890802629292" lon="-9.262550007551909">
        <ele>48.200000000000003</ele>
        <time>2025-05-01T09:44:18Z</time>
      </trkpt>
      <trkpt lat="42.908866032958031" lon="-9.262570040300489">
        <ele>48.200000000000003</ele>
        <time>2025-05-01T09:44:19Z</time>
      </trkpt>
      <trkpt lat="42.908824039623141" lon="-9.262588983401656">
        <ele>48.68</ele>
        <time>2025-05-01T09:44:20Z</time>
      </trkpt>
      <trkpt lat="42.90882202796638" lon="-9.262590995058417">
        <ele>48.68</ele>
        <time>2025-05-01T09:44:21Z</time>
      </trkpt>
      <trkpt lat="42.908764025196433" lon="-9.262640029191971">
        <ele>48.68</ele>
        <time>2025-05-01T09:44:22Z</time>
      </trkpt>
      <trkpt lat="42.908728988841176" lon="-9.262670036405325">
        <ele>48.68</ele>
        <time>2025-05-01T09:44:23Z</time>
      </trkpt>
      <trkpt lat="42.908691018819809" lon="-9.262701971456409">
        <ele>48.68</ele>
        <time>2025-05-01T09:44:24Z</time>
      </trkpt>
      <trkpt lat="42.908581970259547" lon="-9.262796016409993">
        <ele>48.68</ele>
        <time>2025-05-01T09:44:27Z</time>
      </trkpt>
      <trkpt lat="42.908549029380083" lon="-9.262824011966586">
        <ele>48.68</ele>
        <time>2025-05-01T09:44:28Z</time>
      </trkpt>
      <trkpt lat="42.908482979983091" lon="-9.262880003079772">
        <ele>47.719999999999999</ele>
        <time>2025-05-01T09:44:30Z</time>
      </trkpt>
      <trkpt lat="42.908447021618485" lon="-9.262912021949887">
        <ele>47.719999999999999</ele>
        <time>2025-05-01T09:44:31Z</time>
      </trkpt>
      <trkpt lat="42.908410979434848" lon="-9.262943034991622">
        <ele>47.719999999999999</ele>
        <time>2025-05-01T09:44:32Z</time>
      </trkpt>
      <trkpt lat="42.908332021906972" lon="-9.263010006397963">
        <ele>46.280000000000001</ele>
        <time>2025-05-01T09:44:34Z</time>
      </trkpt>
      <trkpt lat="42.908251974731684" lon="-9.263078989461064">
        <ele>45.32</ele>
        <time>2025-05-01T09:44:36Z</time>
      </trkpt>
      <trkpt lat="42.908177962526679" lon="-9.263143027201295">
        <ele>44.359999999999999</ele>
        <time>2025-05-01T09:44:38Z</time>
      </trkpt>
      <trkpt lat="42.908144015818834" lon="-9.263171022757888">
        <ele>43.880000000000003</ele>
        <time>2025-05-01T09:44:39Z</time>
      </trkpt>
      <trkpt lat="42.908107973635197" lon="-9.263202035799623">
        <ele>42.920000000000002</ele>
        <time>2025-05-01T09:44:40Z</time>
      </trkpt>
      <trkpt lat="42.908075032755733" lon="-9.263231037184596">
        <ele>42.439999999999998</ele>
        <time>2025-05-01T09:44:41Z</time>
      </trkpt>
      <trkpt lat="42.908058017492294" lon="-9.263238999992609">
        <ele>41.950000000000003</ele>
        <time>2025-05-01T09:44:42Z</time>
      </trkpt>
      <trkpt lat="42.907820977270603" lon="-9.263330027461052">
        <ele>36.189999999999998</ele>
        <time>2025-05-01T09:44:50Z</time>
      </trkpt>
      <trkpt lat="42.907809996977448" lon="-9.263268001377583">
        <ele>35.229999999999997</ele>
        <time>2025-05-01T09:44:51Z</time>
      </trkpt>
      <trkpt lat="42.907828018069267" lon="-9.263194995000958">
        <ele>34.740000000000002</ele>
        <time>2025-05-01T09:44:52Z</time>
      </trkpt>
      <trkpt lat="42.907847966998816" lon="-9.263116959482431">
        <ele>33.780000000000001</ele>
        <time>2025-05-01T09:44:53Z</time>
      </trkpt>
      <trkpt lat="42.907864982262254" lon="-9.263053005561233">
        <ele>32.82</ele>
        <time>2025-05-01T09:44:54Z</time>
      </trkpt>
      <trkpt lat="42.907903036102653" lon="-9.262927025556564">
        <ele>31.379999999999999</ele>
        <time>2025-05-01T09:44:56Z</time>
      </trkpt>
      <trkpt lat="42.907913010567427" lon="-9.262718986719847">
        <ele>29.460000000000001</ele>
        <time>2025-05-01T09:44:59Z</time>
      </trkpt>
      <trkpt lat="42.90789800696075" lon="-9.262672970071435">
        <ele>28.5</ele>
        <time>2025-05-01T09:45:00Z</time>
      </trkpt>
      <trkpt lat="42.907818965613842" lon="-9.262602981179953">
        <ele>28.02</ele>
        <time>2025-05-01T09:45:01Z</time>
      </trkpt>
      <trkpt lat="42.90776900947094" lon="-9.26259501837194">
        <ele>27.530000000000001</ele>
        <time>2025-05-01T09:45:02Z</time>
      </trkpt>
      <trkpt lat="42.907688962295651" lon="-9.262582026422024">
        <ele>26.57</ele>
        <time>2025-05-01T09:45:03Z</time>
      </trkpt>
      <trkpt lat="42.907606987282634" lon="-9.262569034472108">
        <ele>26.09</ele>
        <time>2025-05-01T09:45:04Z</time>
      </trkpt>
      <trkpt lat="42.906724959611893" lon="-9.262413969263434">
        <ele>19.359999999999999</ele>
        <time>2025-05-01T09:45:15Z</time>
      </trkpt>
      <trkpt lat="42.906633010134101" lon="-9.262397037819028">
        <ele>19.359999999999999</ele>
        <time>2025-05-01T09:45:16Z</time>
      </trkpt>
      <trkpt lat="42.906600991263986" lon="-9.262335011735559">
        <ele>18.879999999999999</ele>
        <time>2025-05-01T09:45:17Z</time>
      </trkpt>
      <trkpt lat="42.906558997929096" lon="-9.26225395873189">
        <ele>18.879999999999999</ele>
        <time>2025-05-01T09:45:18Z</time>
      </trkpt>
      <trkpt lat="42.906515998765826" lon="-9.262170977890492">
        <ele>18.399999999999999</ele>
        <time>2025-05-01T09:45:19Z</time>
      </trkpt>
      <trkpt lat="42.906232019886374" lon="-9.26160997711122">
        <ele>16.960000000000001</ele>
        <time>2025-05-01T09:45:26Z</time>
      </trkpt>
      <trkpt lat="42.906179968267679" lon="-9.261559015139937">
        <ele>16.48</ele>
        <time>2025-05-01T09:45:27Z</time>
      </trkpt>
      <trkpt lat="42.906128000468016" lon="-9.261506963521242">
        <ele>16.48</ele>
        <time>2025-05-01T09:45:28Z</time>
      </trkpt>
      <trkpt lat="42.906032027676702" lon="-9.261409984901547">
        <ele>16</ele>
        <time>2025-05-01T09:45:29Z</time>
      </trkpt>
      <trkpt lat="42.905990034341812" lon="-9.261404033750296">
        <ele>16</ele>
        <time>2025-05-01T09:45:30Z</time>
      </trkpt>
      <trkpt lat="42.905898001044989" lon="-9.26139104180038">
        <ele>16</ele>
        <time>2025-05-01T09:45:32Z</time>
      </trkpt>
      <trkpt lat="42.905844021588564" lon="-9.261395987123251">
        <ele>15.52</ele>
        <time>2025-05-01T09:45:33Z</time>
      </trkpt>
      <trkpt lat="42.905715024098754" lon="-9.261419037356973">
        <ele>15.52</ele>
        <time>2025-05-01T09:45:36Z</time>
      </trkpt>
      <trkpt lat="42.905652998015285" lon="-9.261430017650127">
        <ele>15.52</ele>
        <time>2025-05-01T09:45:37Z</time>
      </trkpt>
      <trkpt lat="42.905580997467041" lon="-9.261512998491526">
        <ele>15.52</ele>
        <time>2025-05-01T09:45:38Z</time>
      </trkpt>
      <trkpt lat="42.905541015788913" lon="-9.26156303845346">
        <ele>15.52</ele>
        <time>2025-05-01T09:45:39Z</time>
      </trkpt>
      <trkpt lat="42.905502961948514" lon="-9.26160997711122">
        <ele>15.52</ele>
        <time>2025-05-01T09:45:40Z</time>
      </trkpt>
      <trkpt lat="42.905441019684076" lon="-9.261688012629747">
        <ele>15.039999999999999</ele>
        <time>2025-05-01T09:45:42Z</time>
      </trkpt>
      <trkpt lat="42.905405983328819" lon="-9.261731011793017">
        <ele>15.039999999999999</ele>
        <time>2025-05-01T09:45:43Z</time>
      </trkpt>
      <trkpt lat="42.905373964458704" lon="-9.261771999299526">
        <ele>14.56</ele>
        <time>2025-05-01T09:45:44Z</time>
      </trkpt>
      <trkpt lat="42.90534496307373" lon="-9.261808041483164">
        <ele>14.56</ele>
        <time>2025-05-01T09:45:45Z</time>
      </trkpt>
      <trkpt lat="42.905315039679408" lon="-9.26184500567615">
        <ele>14.08</ele>
        <time>2025-05-01T09:45:46Z</time>
      </trkpt>
      <trkpt lat="42.905284026637673" lon="-9.261896973475814">
        <ele>14.08</ele>
        <time>2025-05-01T09:45:47Z</time>
      </trkpt>
      <trkpt lat="42.90525896474719" lon="-9.261947013437748">
        <ele>13.6</ele>
        <time>2025-05-01T09:45:48Z</time>
      </trkpt>
      <trkpt lat="42.905238009989262" lon="-9.261990012601018">
        <ele>13.6</ele>
        <time>2025-05-01T09:45:50Z</time>
      </trkpt>
      <trkpt lat="42.905238009989262" lon="-9.261990012601018">
        <ele>13.119999999999999</ele>
        <time>2025-05-01T09:45:52Z</time>
      </trkpt>
      <trkpt lat="42.905238009989262" lon="-9.261990012601018">
        <ele>13.119999999999999</ele>
        <time>2025-05-01T09:46:05Z</time>
      </trkpt>
      <trkpt lat="42.906285999342799" lon="-9.262279020622373">
        <ele>16.48</ele>
        <time>2025-05-01T11:11:16Z</time>
      </trkpt>
      <trkpt lat="42.906289016827941" lon="-9.262280026450753">
        <ele>16.960000000000001</ele>
        <time>2025-05-01T11:12:06Z</time>
      </trkpt>
      <trkpt lat="42.906290022656322" lon="-9.262276003137231">
        <ele>16.960000000000001</ele>
        <time>2025-05-01T11:12:53Z</time>
      </trkpt>
      <trkpt lat="42.906293962150812" lon="-9.262280026450753">
        <ele>16.960000000000001</ele>
        <time>2025-05-01T11:13:34Z</time>
      </trkpt>
      <trkpt lat="42.906291028484702" lon="-9.262280026450753">
        <ele>17.440000000000001</ele>
        <time>2025-05-01T11:14:32Z</time>
      </trkpt>
      <trkpt lat="42.906291028484702" lon="-9.262280026450753">
        <ele>17.440000000000001</ele>
        <time>2025-05-01T11:14:36Z</time>
      </trkpt>
      <trkpt lat="42.906497977674007" lon="-9.262136025354266">
        <ele>16.48</ele>
        <time>2025-05-01T11:14:39Z</time>
      </trkpt>
      <trkpt lat="42.906515998765826" lon="-9.262170977890492">
        <ele>16</ele>
        <time>2025-05-01T11:14:40Z</time>
      </trkpt>
      <trkpt lat="42.906536031514406" lon="-9.262210037559271">
        <ele>16</ele>
        <time>2025-05-01T11:14:41Z</time>
      </trkpt>
      <trkpt lat="42.906555980443954" lon="-9.262248007580638">
        <ele>15.52</ele>
        <time>2025-05-01T11:14:42Z</time>
      </trkpt>
      <trkpt lat="42.906572995707393" lon="-9.262281032279134">
        <ele>15.52</ele>
        <time>2025-05-01T11:14:43Z</time>
      </trkpt>
      <trkpt lat="42.906633010134101" lon="-9.262397037819028">
        <ele>15.039999999999999</ele>
        <time>2025-05-01T11:14:52Z</time>
      </trkpt>
      <trkpt lat="42.906661005690694" lon="-9.262401983141899">
        <ele>15.039999999999999</ele>
        <time>2025-05-01T11:14:56Z</time>
      </trkpt>
      <trkpt lat="42.906682966277003" lon="-9.262406006455421">
        <ele>15.039999999999999</ele>
        <time>2025-05-01T11:14:57Z</time>
      </trkpt>
      <trkpt lat="42.906719008460641" lon="-9.262412963435054">
        <ele>15.039999999999999</ele>
        <time>2025-05-01T11:14:58Z</time>
      </trkpt>
      <trkpt lat="42.906768964603543" lon="-9.262422015890479">
        <ele>15.039999999999999</ele>
        <time>2025-05-01T11:14:59Z</time>
      </trkpt>
      <trkpt lat="42.90682596154511" lon="-9.262431990355253">
        <ele>15.039999999999999</ele>
        <time>2025-05-01T11:15:00Z</time>
      </trkpt>
      <trkpt lat="42.906885975971818" lon="-9.262442970648408">
        <ele>15.039999999999999</ele>
        <time>2025-05-01T11:15:01Z</time>
      </trkpt>
      <trkpt lat="42.906943978741765" lon="-9.262453028932214">
        <ele>15.039999999999999</ele>
        <time>2025-05-01T11:15:02Z</time>
      </trkpt>
      <trkpt lat="42.907171966508031" lon="-9.262494016438723">
        <ele>14.56</ele>
        <time>2025-05-01T11:15:06Z</time>
      </trkpt>
      <trkpt lat="42.907228963449597" lon="-9.262503990903497">
        <ele>14.56</ele>
        <time>2025-05-01T11:15:07Z</time>
      </trkpt>
      <trkpt lat="42.907284032553434" lon="-9.262513965368271">
        <ele>14.56</ele>
        <time>2025-05-01T11:15:08Z</time>
      </trkpt>
      <trkpt lat="42.907568011432886" lon="-9.262562999501824">
        <ele>14.08</ele>
        <time>2025-05-01T11:15:14Z</time>
      </trkpt>
      <trkpt lat="42.907876968383789" lon="-9.262612033635378">
        <ele>15.039999999999999</ele>
        <time>2025-05-01T11:15:23Z</time>
      </trkpt>
      <trkpt lat="42.907919967547059" lon="-9.262741031125188">
        <ele>14.56</ele>
        <time>2025-05-01T11:15:24Z</time>
      </trkpt>
      <trkpt lat="42.907919967547059" lon="-9.262741031125188">
        <ele>15.039999999999999</ele>
        <time>2025-05-01T11:15:25Z</time>
      </trkpt>
      <trkpt lat="42.907919967547059" lon="-9.262787969782949">
        <ele>14.56</ele>
        <time>2025-05-01T11:15:26Z</time>
      </trkpt>
      <trkpt lat="42.907919967547059" lon="-9.262838009744883">
        <ele>14.56</ele>
        <time>2025-05-01T11:15:27Z</time>
      </trkpt>
      <trkpt lat="42.907919967547059" lon="-9.262869022786617">
        <ele>14.56</ele>
        <time>2025-05-01T11:15:28Z</time>
      </trkpt>
      <trkpt lat="42.907916028052568" lon="-9.262885032221675">
        <ele>14.56</ele>
        <time>2025-05-01T11:15:29Z</time>
      </trkpt>
      <trkpt lat="42.907904963940382" lon="-9.262921996414661">
        <ele>14.56</ele>
        <time>2025-05-01T11:15:30Z</time>
      </trkpt>
      <trkpt lat="42.907892977818847" lon="-9.26296197809279">
        <ele>14.08</ele>
        <time>2025-05-01T11:15:31Z</time>
      </trkpt>
      <trkpt lat="42.907879985868931" lon="-9.26300598308444">
        <ele>14.08</ele>
        <time>2025-05-01T11:15:32Z</time>
      </trkpt>
      <trkpt lat="42.907865988090634" lon="-9.263049988076091">
        <ele>14.08</ele>
        <time>2025-05-01T11:15:33Z</time>
      </trkpt>
      <trkpt lat="42.90779197588563" lon="-9.263342013582587">
        <ele>13.119999999999999</ele>
        <time>2025-05-01T11:15:40Z</time>
      </trkpt>
      <trkpt lat="42.907774960622191" lon="-9.263381995260716">
        <ele>13.119999999999999</ele>
        <time>2025-05-01T11:15:41Z</time>
      </trkpt>
      <trkpt lat="42.90774897672236" lon="-9.263448966667056">
        <ele>13.119999999999999</ele>
        <time>2025-05-01T11:15:42Z</time>
      </trkpt>
      <trkpt lat="42.907717963680625" lon="-9.263501018285751">
        <ele>13.119999999999999</ele>
        <time>2025-05-01T11:15:43Z</time>
      </trkpt>
      <trkpt lat="42.9076830111444" lon="-9.26356203854084">
        <ele>13.119999999999999</ele>
        <time>2025-05-01T11:15:44Z</time>
      </trkpt>
      <trkpt lat="42.907482013106346" lon="-9.263835037127137">
        <ele>14.08</ele>
        <time>2025-05-01T11:15:49Z</time>
      </trkpt>
      <trkpt lat="42.907228963449597" lon="-9.264091020449996">
        <ele>15.52</ele>
        <time>2025-05-01T11:15:55Z</time>
      </trkpt>
      <trkpt lat="42.906721020117402" lon="-9.264540961012244">
        <ele>19.359999999999999</ele>
        <time>2025-05-01T11:16:05Z</time>
      </trkpt>
      <trkpt lat="42.906672991812229" lon="-9.26459401845932">
        <ele>19.359999999999999</ele>
        <time>2025-05-01T11:16:06Z</time>
      </trkpt>
      <trkpt lat="42.906627980992198" lon="-9.264730978757143">
        <ele>20.32</ele>
        <time>2025-05-01T11:16:08Z</time>
      </trkpt>
      <trkpt lat="42.90661096572876" lon="-9.264813959598541">
        <ele>20.32</ele>
        <time>2025-05-01T11:16:09Z</time>
      </trkpt>
      <trkpt lat="42.90661096572876" lon="-9.264880008995533">
        <ele>20.809999999999999</ele>
        <time>2025-05-01T11:16:10Z</time>
      </trkpt>
      <trkpt lat="42.906640972942114" lon="-9.26498000510037">
        <ele>21.289999999999999</ele>
        <time>2025-05-01T11:16:11Z</time>
      </trkpt>
      <trkpt lat="42.906676009297371" lon="-9.265015041455627">
        <ele>21.77</ele>
        <time>2025-05-01T11:16:12Z</time>
      </trkpt>
      <trkpt lat="42.906676009297371" lon="-9.265015041455627">
        <ele>21.77</ele>
        <time>2025-05-01T11:16:13Z</time>
      </trkpt>
      <trkpt lat="42.906771982088685" lon="-9.265159964561462">
        <ele>22.25</ele>
        <time>2025-05-01T11:16:14Z</time>
      </trkpt>
      <trkpt lat="42.906827973201871" lon="-9.265181003138423">
        <ele>22.73</ele>
        <time>2025-05-01T11:16:15Z</time>
      </trkpt>
      <trkpt lat="42.906885975971818" lon="-9.265202963724732">
        <ele>23.210000000000001</ele>
        <time>2025-05-01T11:16:16Z</time>
      </trkpt>
      <trkpt lat="42.906943978741765" lon="-9.265226013958454">
        <ele>23.690000000000001</ele>
        <time>2025-05-01T11:16:17Z</time>
      </trkpt>
      <trkpt lat="42.907002987340093" lon="-9.265238000079989">
        <ele>24.170000000000002</ele>
        <time>2025-05-01T11:16:18Z</time>
      </trkpt>
      <trkpt lat="42.907065013423562" lon="-9.265247974544764">
        <ele>24.649999999999999</ele>
        <time>2025-05-01T11:16:19Z</time>
      </trkpt>
      <trkpt lat="42.907136008143425" lon="-9.265258032828569">
        <ele>25.129999999999999</ele>
        <time>2025-05-01T11:16:20Z</time>
      </trkpt>
      <trkpt lat="42.907205997034907" lon="-9.265267001464963">
        <ele>25.129999999999999</ele>
        <time>2025-05-01T11:16:21Z</time>
      </trkpt>
      <trkpt lat="42.907255031168461" lon="-9.265273036435247">
        <ele>25.609999999999999</ele>
        <time>2025-05-01T11:16:22Z</time>
      </trkpt>
      <trkpt lat="42.907346980646253" lon="-9.265247974544764">
        <ele>25.609999999999999</ele>
        <time>2025-05-01T11:16:23Z</time>
      </trkpt>
      <trkpt lat="42.907415963709354" lon="-9.265230037271977">
        <ele>26.09</ele>
        <time>2025-05-01T11:16:24Z</time>
      </trkpt>
      <trkpt lat="42.907483018934727" lon="-9.265212016180158">
        <ele>26.09</ele>
        <time>2025-05-01T11:16:25Z</time>
      </trkpt>
      <trkpt lat="42.907547978684306" lon="-9.265195000916719">
        <ele>26.09</ele>
        <time>2025-05-01T11:16:26Z</time>
      </trkpt>
      <trkpt lat="42.907613022252917" lon="-9.265159964561462">
        <ele>26.09</ele>
        <time>2025-05-01T11:16:27Z</time>
      </trkpt>
      <trkpt lat="42.907660966739058" lon="-9.265124006196857">
        <ele>26.57</ele>
        <time>2025-05-01T11:16:28Z</time>
      </trkpt>
      <trkpt lat="42.907735984772444" lon="-9.265068015083671">
        <ele>27.050000000000001</ele>
        <time>2025-05-01T11:16:30Z</time>
      </trkpt>
      <trkpt lat="42.907757023349404" lon="-9.265070026740432">
        <ele>27.050000000000001</ele>
        <time>2025-05-01T11:16:31Z</time>
      </trkpt>
      <trkpt lat="42.907789964228868" lon="-9.265123000368476">
        <ele>27.050000000000001</ele>
        <time>2025-05-01T11:16:32Z</time>
      </trkpt>
      <trkpt lat="42.907910998910666" lon="-9.265307988971472">
        <ele>28.02</ele>
        <time>2025-05-01T11:16:35Z</time>
      </trkpt>
      <trkpt lat="42.907955003902316" lon="-9.265376972034574">
        <ele>28.98</ele>
        <time>2025-05-01T11:16:36Z</time>
      </trkpt>
      <trkpt lat="42.908340990543365" lon="-9.265734041109681">
        <ele>34.740000000000002</ele>
        <time>2025-05-01T11:16:42Z</time>
      </trkpt>
      <trkpt lat="42.90865195915103" lon="-9.265952976420522">
        <ele>39.07</ele>
        <time>2025-05-01T11:16:46Z</time>
      </trkpt>
      <trkpt lat="42.908731000497937" lon="-9.265994969755411">
        <ele>40.030000000000001</ele>
        <time>2025-05-01T11:16:47Z</time>
      </trkpt>
      <trkpt lat="42.908898973837495" lon="-9.266082979738712">
        <ele>41.950000000000003</ele>
        <time>2025-05-01T11:16:49Z</time>
      </trkpt>
      <trkpt lat="42.909071976318955" lon="-9.266189010813832">
        <ele>43.880000000000003</ele>
        <time>2025-05-01T11:16:51Z</time>
      </trkpt>
      <trkpt lat="42.909354027360678" lon="-9.266372993588448">
        <ele>47.719999999999999</ele>
        <time>2025-05-01T11:16:55Z</time>
      </trkpt>
      <trkpt lat="42.909401971846819" lon="-9.266404006630182">
        <ele>48.68</ele>
        <time>2025-05-01T11:16:56Z</time>
      </trkpt>
      <trkpt lat="42.909429967403412" lon="-9.266469972208142">
        <ele>49.159999999999997</ele>
        <time>2025-05-01T11:16:57Z</time>
      </trkpt>
      <trkpt lat="42.909413035959005" lon="-9.266515988856554">
        <ele>49.649999999999999</ele>
        <time>2025-05-01T11:16:58Z</time>
      </trkpt>
      <trkpt lat="42.909393003210425" lon="-9.266570974141359">
        <ele>50.609999999999999</ele>
        <time>2025-05-01T11:16:59Z</time>
      </trkpt>
      <trkpt lat="42.909371964633465" lon="-9.266628976911306">
        <ele>51.090000000000003</ele>
        <time>2025-05-01T11:17:00Z</time>
      </trkpt>
      <trkpt lat="42.909357966855168" lon="-9.266712041571736">
        <ele>51.090000000000003</ele>
        <time>2025-05-01T11:17:01Z</time>
      </trkpt>
      <trkpt lat="42.909357966855168" lon="-9.266784964129329">
        <ele>51.57</ele>
        <time>2025-05-01T11:17:02Z</time>
      </trkpt>
      <trkpt lat="42.909357966855168" lon="-9.266868028789759">
        <ele>52.049999999999997</ele>
        <time>2025-05-01T11:17:03Z</time>
      </trkpt>
      <trkpt lat="42.909357966855168" lon="-9.266954027116299">
        <ele>52.530000000000001</ele>
        <time>2025-05-01T11:17:04Z</time>
      </trkpt>
      <trkpt lat="42.909365007653832" lon="-9.267046982422471">
        <ele>53.009999999999998</ele>
        <time>2025-05-01T11:17:05Z</time>
      </trkpt>
      <trkpt lat="42.909380011260509" lon="-9.267133986577392">
        <ele>53.490000000000002</ele>
        <time>2025-05-01T11:17:06Z</time>
      </trkpt>
      <trkpt lat="42.909396020695567" lon="-9.267219984903932">
        <ele>53.969999999999999</ele>
        <time>2025-05-01T11:17:07Z</time>
      </trkpt>
      <trkpt lat="42.909396020695567" lon="-9.267296008765698">
        <ele>54.450000000000003</ele>
        <time>2025-05-01T11:17:08Z</time>
      </trkpt>
      <trkpt lat="42.909387974068522" lon="-9.267375972121954">
        <ele>54.93</ele>
        <time>2025-05-01T11:17:09Z</time>
      </trkpt>
      <trkpt lat="42.909380011260509" lon="-9.267460964620113">
        <ele>55.409999999999997</ele>
        <time>2025-05-01T11:17:10Z</time>
      </trkpt>
      <trkpt lat="42.909344974905252" lon="-9.267530031502247">
        <ele>55.409999999999997</ele>
        <time>2025-05-01T11:17:11Z</time>
      </trkpt>
      <trkpt lat="42.909305999055505" lon="-9.267608989030123">
        <ele>55.890000000000001</ele>
        <time>2025-05-01T11:17:12Z</time>
      </trkpt>
      <trkpt lat="42.909271968528628" lon="-9.267675960436463">
        <ele>55.890000000000001</ele>
        <time>2025-05-01T11:17:13Z</time>
      </trkpt>
      <trkpt lat="42.909226035699248" lon="-9.267798000946641">
        <ele>55.890000000000001</ele>
        <time>2025-05-01T11:17:14Z</time>
      </trkpt>
      <trkpt lat="42.909217989072204" lon="-9.267906965687871">
        <ele>55.890000000000001</ele>
        <time>2025-05-01T11:17:15Z</time>
      </trkpt>
      <trkpt lat="42.90920902043581" lon="-9.268020959571004">
        <ele>55.409999999999997</ele>
        <time>2025-05-01T11:17:16Z</time>
      </trkpt>
      <trkpt lat="42.909181024879217" lon="-9.268360007554293">
        <ele>53.490000000000002</ele>
        <time>2025-05-01T11:17:19Z</time>
      </trkpt>
      <trkpt lat="42.909173984080553" lon="-9.268457992002368">
        <ele>53.009999999999998</ele>
        <time>2025-05-01T11:17:20Z</time>
      </trkpt>
      <trkpt lat="42.909159986302257" lon="-9.26863300614059">
        <ele>51.090000000000003</ele>
        <time>2025-05-01T11:17:22Z</time>
      </trkpt>
      <trkpt lat="42.909154035151005" lon="-9.268708024173975">
        <ele>50.130000000000003</ele>
        <time>2025-05-01T11:17:23Z</time>
      </trkpt>
      <trkpt lat="42.909149006009102" lon="-9.268772983923554">
        <ele>49.649999999999999</ele>
        <time>2025-05-01T11:17:24Z</time>
      </trkpt>
      <trkpt lat="42.909199967980385" lon="-9.26884900778532">
        <ele>49.159999999999997</ele>
        <time>2025-05-01T11:17:25Z</time>
      </trkpt>
      <trkpt lat="42.909255959093571" lon="-9.268863005563617">
        <ele>48.68</ele>
        <time>2025-05-01T11:17:26Z</time>
      </trkpt>
      <trkpt lat="42.909326031804085" lon="-9.268880020827055">
        <ele>48.200000000000003</ele>
        <time>2025-05-01T11:17:27Z</time>
      </trkpt>
      <trkpt lat="42.909411024302244" lon="-9.268901981413364">
        <ele>47.719999999999999</ele>
        <time>2025-05-01T11:17:28Z</time>
      </trkpt>
      <trkpt lat="42.909503979608417" lon="-9.268925031647086">
        <ele>47.719999999999999</ele>
        <time>2025-05-01T11:17:29Z</time>
      </trkpt>
      <trkpt lat="42.909599030390382" lon="-9.268939029425383">
        <ele>47.240000000000002</ele>
        <time>2025-05-01T11:17:30Z</time>
      </trkpt>
      <trkpt lat="42.909697014838457" lon="-9.268927965313196">
        <ele>47.240000000000002</ele>
        <time>2025-05-01T11:17:31Z</time>
      </trkpt>
      <trkpt lat="42.909802040085196" lon="-9.268916985020042">
        <ele>47.240000000000002</ele>
        <time>2025-05-01T11:17:32Z</time>
      </trkpt>
      <trkpt lat="42.909912010654807" lon="-9.268903993070126">
        <ele>46.759999999999998</ele>
        <time>2025-05-01T11:17:33Z</time>
      </trkpt>
      <trkpt lat="42.910023992881179" lon="-9.26889200694859">
        <ele>46.280000000000001</ele>
        <time>2025-05-01T11:17:34Z</time>
      </trkpt>
      <trkpt lat="42.910483991727233" lon="-9.268799973651767">
        <ele>44.359999999999999</ele>
        <time>2025-05-01T11:17:38Z</time>
      </trkpt>
      <trkpt lat="42.910581976175308" lon="-9.268759991973639">
        <ele>43.880000000000003</ele>
        <time>2025-05-01T11:17:39Z</time>
      </trkpt>
      <trkpt lat="42.910881964489818" lon="-9.268638035282493">
        <ele>40.990000000000002</ele>
        <time>2025-05-01T11:17:43Z</time>
      </trkpt>
      <trkpt lat="42.910948013886809" lon="-9.268645998090506">
        <ele>40.030000000000001</ele>
        <time>2025-05-01T11:17:44Z</time>
      </trkpt>
      <trkpt lat="42.910997970029712" lon="-9.26869997754693">
        <ele>39.07</ele>
        <time>2025-05-01T11:17:45Z</time>
      </trkpt>
      <trkpt lat="42.911101989448071" lon="-9.268811959773302">
        <ele>37.149999999999999</ele>
        <time>2025-05-01T11:17:47Z</time>
      </trkpt>
      <trkpt lat="42.911159992218018" lon="-9.268874991685152">
        <ele>36.670000000000002</ele>
        <time>2025-05-01T11:17:48Z</time>
      </trkpt>
      <trkpt lat="42.911239033564925" lon="-9.268924025818706">
        <ele>35.710000000000001</ele>
        <time>2025-05-01T11:17:49Z</time>
      </trkpt>
      <trkpt lat="42.912159031257033" lon="-9.269300037994981">
        <ele>32.340000000000003</ele>
        <time>2025-05-01T11:17:58Z</time>
      </trkpt>
      <trkpt lat="42.912384001538157" lon="-9.269371032714844">
        <ele>32.340000000000003</ele>
        <time>2025-05-01T11:18:00Z</time>
      </trkpt>
      <trkpt lat="42.912491960451007" lon="-9.26936499774456">
        <ele>32.340000000000003</ele>
        <time>2025-05-01T11:18:01Z</time>
      </trkpt>
      <trkpt lat="42.912607965990901" lon="-9.269357034936547">
        <ele>32.340000000000003</ele>
        <time>2025-05-01T11:18:02Z</time>
      </trkpt>
      <trkpt lat="42.913230992853642" lon="-9.269257038831711">
        <ele>32.82</ele>
        <time>2025-05-01T11:18:10Z</time>
      </trkpt>
      <trkpt lat="42.913293018937111" lon="-9.269246980547905">
        <ele>32.82</ele>
        <time>2025-05-01T11:18:11Z</time>
      </trkpt>
      <trkpt lat="42.91335797868669" lon="-9.269257038831711">
        <ele>33.299999999999997</ele>
        <time>2025-05-01T11:18:12Z</time>
      </trkpt>
      <trkpt lat="42.913670958951116" lon="-9.269220996648073">
        <ele>33.299999999999997</ele>
        <time>2025-05-01T11:18:18Z</time>
      </trkpt>
      <trkpt lat="42.913726028054953" lon="-9.26921303384006">
        <ele>33.780000000000001</ele>
        <time>2025-05-01T11:18:19Z</time>
      </trkpt>
      <trkpt lat="42.913785958662629" lon="-9.269204987213016">
        <ele>33.780000000000001</ele>
        <time>2025-05-01T11:18:20Z</time>
      </trkpt>
      <trkpt lat="42.913862988352776" lon="-9.26921303384006">
        <ele>34.259999999999998</ele>
        <time>2025-05-01T11:18:21Z</time>
      </trkpt>
      <trkpt lat="42.913941023871303" lon="-9.269239017739892">
        <ele>34.259999999999998</ele>
        <time>2025-05-01T11:18:22Z</time>
      </trkpt>
      <trkpt lat="42.914026016369462" lon="-9.269268019124866">
        <ele>34.259999999999998</ele>
        <time>2025-05-01T11:18:23Z</time>
      </trkpt>
      <trkpt lat="42.914939979091287" lon="-9.269506987184286">
        <ele>33.780000000000001</ele>
        <time>2025-05-01T11:18:33Z</time>
      </trkpt>
      <trkpt lat="42.915917979553342" lon="-9.269670015200973">
        <ele>32.340000000000003</ele>
        <time>2025-05-01T11:18:43Z</time>
      </trkpt>
      <trkpt lat="42.916618958115578" lon="-9.269633973017335">
        <ele>32.82</ele>
        <time>2025-05-01T11:18:52Z</time>
      </trkpt>
      <trkpt lat="42.916661035269499" lon="-9.269631961360574">
        <ele>32.82</ele>
        <time>2025-05-01T11:18:53Z</time>
      </trkpt>
      <trkpt lat="42.916727000847459" lon="-9.269634978845716">
        <ele>33.299999999999997</ele>
        <time>2025-05-01T11:18:54Z</time>
      </trkpt>
      <trkpt lat="42.916773017495871" lon="-9.269669009372592">
        <ele>33.299999999999997</ele>
        <time>2025-05-01T11:18:55Z</time>
      </trkpt>
      <trkpt lat="42.916825991123915" lon="-9.26970798522234">
        <ele>33.299999999999997</ele>
        <time>2025-05-01T11:18:56Z</time>
      </trkpt>
      <trkpt lat="42.916889023035765" lon="-9.269754001870751">
        <ele>33.299999999999997</ele>
        <time>2025-05-01T11:18:57Z</time>
      </trkpt>
      <trkpt lat="42.917036041617393" lon="-9.269861960783601">
        <ele>33.780000000000001</ele>
        <time>2025-05-01T11:18:59Z</time>
      </trkpt>
      <trkpt lat="42.917107958346605" lon="-9.269875036552548">
        <ele>34.259999999999998</ele>
        <time>2025-05-01T11:19:00Z</time>
      </trkpt>
      <trkpt lat="42.917197979986668" lon="-9.269889034330845">
        <ele>34.740000000000002</ele>
        <time>2025-05-01T11:19:01Z</time>
      </trkpt>
      <trkpt lat="42.918090987950563" lon="-9.269972015172243">
        <ele>41.469999999999999</ele>
        <time>2025-05-01T11:19:10Z</time>
      </trkpt>
      <trkpt lat="42.918957006186247" lon="-9.269875036552548">
        <ele>42.920000000000002</ele>
        <time>2025-05-01T11:19:19Z</time>
      </trkpt>
      <trkpt lat="42.919078040868044" lon="-9.269864978268743">
        <ele>43.399999999999999</ele>
        <time>2025-05-01T11:19:20Z</time>
      </trkpt>
      <trkpt lat="42.919138977304101" lon="-9.269887022674084">
        <ele>43.399999999999999</ele>
        <time>2025-05-01T11:19:21Z</time>
      </trkpt>
      <trkpt lat="42.919912040233612" lon="-9.270169995725155">
        <ele>45.799999999999997</ele>
        <time>2025-05-01T11:19:30Z</time>
      </trkpt>
      <trkpt lat="42.919967025518417" lon="-9.270198997110128">
        <ele>46.280000000000001</ele>
        <time>2025-05-01T11:19:31Z</time>
      </trkpt>
      <trkpt lat="42.920012036338449" lon="-9.270258005708456">
        <ele>46.280000000000001</ele>
        <time>2025-05-01T11:19:32Z</time>
      </trkpt>
      <trkpt lat="42.920057969167829" lon="-9.270319025963545">
        <ele>46.280000000000001</ele>
        <time>2025-05-01T11:19:33Z</time>
      </trkpt>
      <trkpt lat="42.920101974159479" lon="-9.270379040390253">
        <ele>46.280000000000001</ele>
        <time>2025-05-01T11:19:34Z</time>
      </trkpt>
      <trkpt lat="42.920191995799541" lon="-9.270498985424638">
        <ele>46.280000000000001</ele>
        <time>2025-05-01T11:19:36Z</time>
      </trkpt>
      <trkpt lat="42.920243041589856" lon="-9.270543996244669">
        <ele>46.280000000000001</ele>
        <time>2025-05-01T11:19:37Z</time>
      </trkpt>
      <trkpt lat="42.920302972197533" lon="-9.270575009286404">
        <ele>46.759999999999998</ele>
        <time>2025-05-01T11:19:38Z</time>
      </trkpt>
      <trkpt lat="42.920369021594524" lon="-9.2706080339849">
        <ele>47.240000000000002</ele>
        <time>2025-05-01T11:19:39Z</time>
      </trkpt>
      <trkpt lat="42.920431969687343" lon="-9.270640974864364">
        <ele>47.719999999999999</ele>
        <time>2025-05-01T11:19:40Z</time>
      </trkpt>
      <trkpt lat="42.92049097828567" lon="-9.270670982077718">
        <ele>48.200000000000003</ele>
        <time>2025-05-01T11:19:41Z</time>
      </trkpt>
      <trkpt lat="42.920546969398856" lon="-9.270699983462691">
        <ele>48.200000000000003</ele>
        <time>2025-05-01T11:19:42Z</time>
      </trkpt>
      <trkpt lat="42.92059600353241" lon="-9.270724961534143">
        <ele>48.68</ele>
        <time>2025-05-01T11:19:43Z</time>
      </trkpt>
      <trkpt lat="42.92064000852406" lon="-9.270747005939484">
        <ele>48.68</ele>
        <time>2025-05-01T11:19:44Z</time>
      </trkpt>
      <trkpt lat="42.920686025172472" lon="-9.270770978182554">
        <ele>49.159999999999997</ele>
        <time>2025-05-01T11:19:45Z</time>
      </trkpt>
      <trkpt lat="42.920734975486994" lon="-9.270796040073037">
        <ele>49.159999999999997</ele>
        <time>2025-05-01T11:19:46Z</time>
      </trkpt>
      <trkpt lat="42.920780992135406" lon="-9.270820012316108">
        <ele>49.159999999999997</ele>
        <time>2025-05-01T11:19:47Z</time>
      </trkpt>
      <trkpt lat="42.920819967985153" lon="-9.270839961245656">
        <ele>49.159999999999997</ele>
        <time>2025-05-01T11:19:48Z</time>
      </trkpt>
      <trkpt lat="42.920849975198507" lon="-9.270854964852333">
        <ele>49.159999999999997</ele>
        <time>2025-05-01T11:19:49Z</time>
      </trkpt>
      <trkpt lat="42.92087696492672" lon="-9.27086896263063">
        <ele>49.649999999999999</ele>
        <time>2025-05-01T11:19:50Z</time>
      </trkpt>
      <trkpt lat="42.921019038185477" lon="-9.270941969007254">
        <ele>50.609999999999999</ele>
        <time>2025-05-01T11:19:55Z</time>
      </trkpt>
      <trkpt lat="42.921059019863605" lon="-9.270928977057338">
        <ele>50.609999999999999</ele>
        <time>2025-05-01T11:19:56Z</time>
      </trkpt>
      <trkpt lat="42.921066982671618" lon="-9.270891007035971">
        <ele>51.090000000000003</ele>
        <time>2025-05-01T11:19:57Z</time>
      </trkpt>
      <trkpt lat="42.921077040955424" lon="-9.270842978730798">
        <ele>51.57</ele>
        <time>2025-05-01T11:19:58Z</time>
      </trkpt>
      <trkpt lat="42.92109003290534" lon="-9.270779024809599">
        <ele>51.090000000000003</ele>
        <time>2025-05-01T11:19:59Z</time>
      </trkpt>
      <trkpt lat="42.921104030683637" lon="-9.270714987069368">
        <ele>51.090000000000003</ele>
        <time>2025-05-01T11:20:00Z</time>
      </trkpt>
      <trkpt lat="42.921137977391481" lon="-9.270551037043333">
        <ele>51.090000000000003</ele>
        <time>2025-05-01T11:20:02Z</time>
      </trkpt>
      <trkpt lat="42.921125991269946" lon="-9.27047903649509">
        <ele>50.609999999999999</ele>
        <time>2025-05-01T11:20:03Z</time>
      </trkpt>
      <trkpt lat="42.921101013198495" lon="-9.270329000428319">
        <ele>49.649999999999999</ele>
        <time>2025-05-01T11:20:05Z</time>
      </trkpt>
      <trkpt lat="42.921138983219862" lon="-9.270291030406952">
        <ele>49.159999999999997</ele>
        <time>2025-05-01T11:20:06Z</time>
      </trkpt>
      <trkpt lat="42.921194974333048" lon="-9.270286001265049">
        <ele>48.200000000000003</ele>
        <time>2025-05-01T11:20:07Z</time>
      </trkpt>
      <trkpt lat="42.921260017901659" lon="-9.270280972123146">
        <ele>47.719999999999999</ele>
        <time>2025-05-01T11:20:08Z</time>
      </trkpt>
      <trkpt lat="42.921325983479619" lon="-9.270276026800275">
        <ele>46.759999999999998</ele>
        <time>2025-05-01T11:20:09Z</time>
      </trkpt>
      <trkpt lat="42.921387003734708" lon="-9.270254988223314">
        <ele>46.280000000000001</ele>
        <time>2025-05-01T11:20:10Z</time>
      </trkpt>
      <trkpt lat="42.921426985412836" lon="-9.27020201459527">
        <ele>45.799999999999997</ele>
        <time>2025-05-01T11:20:11Z</time>
      </trkpt>
      <trkpt lat="42.921442994847894" lon="-9.270119033753872">
        <ele>44.840000000000003</ele>
        <time>2025-05-01T11:20:12Z</time>
      </trkpt>
      <trkpt lat="42.921450035646558" lon="-9.270018031820655">
        <ele>43.880000000000003</ele>
        <time>2025-05-01T11:20:13Z</time>
      </trkpt>
      <trkpt lat="42.92145699262619" lon="-9.269912000745535">
        <ele>43.399999999999999</ele>
        <time>2025-05-01T11:20:14Z</time>
      </trkpt>
      <trkpt lat="42.92147601954639" lon="-9.269626010209322">
        <ele>40.509999999999998</ele>
        <time>2025-05-01T11:20:17Z</time>
      </trkpt>
      <trkpt lat="42.921486999839544" lon="-9.269532971084118">
        <ele>39.549999999999997</ele>
        <time>2025-05-01T11:20:18Z</time>
      </trkpt>
      <trkpt lat="42.921527987346053" lon="-9.269459964707494">
        <ele>38.590000000000003</ele>
        <time>2025-05-01T11:20:19Z</time>
      </trkpt>
      <trkpt lat="42.921931995078921" lon="-9.268730990588665">
        <ele>33.299999999999997</ele>
        <time>2025-05-01T11:20:25Z</time>
      </trkpt>
      <trkpt lat="42.922731041908264" lon="-9.267288967967033">
        <ele>25.129999999999999</ele>
        <time>2025-05-01T11:20:36Z</time>
      </trkpt>
      <trkpt lat="42.923138989135623" lon="-9.266550019383431">
        <ele>21.289999999999999</ele>
        <time>2025-05-01T11:20:44Z</time>
      </trkpt>
      <trkpt lat="42.923249965533614" lon="-9.266349021345377">
        <ele>19.84</ele>
        <time>2025-05-01T11:20:47Z</time>
      </trkpt>
      <trkpt lat="42.923297993838787" lon="-9.266261011362076">
        <ele>19.359999999999999</ele>
        <time>2025-05-01T11:20:48Z</time>
      </trkpt>
      <trkpt lat="42.923871986567974" lon="-9.26521603949368">
        <ele>16</ele>
        <time>2025-05-01T11:20:58Z</time>
      </trkpt>
      <trkpt lat="42.924364004284143" lon="-9.264320014044642">
        <ele>15.039999999999999</ele>
        <time>2025-05-01T11:21:06Z</time>
      </trkpt>
      <trkpt lat="42.924429969862103" lon="-9.264199985191226">
        <ele>15.039999999999999</ele>
        <time>2025-05-01T11:21:07Z</time>
      </trkpt>
      <trkpt lat="42.925058025866747" lon="-9.263057028874755">
        <ele>15.039999999999999</ele>
        <time>2025-05-01T11:21:18Z</time>
      </trkpt>
      <trkpt lat="42.925247037783265" lon="-9.26289601251483">
        <ele>16</ele>
        <time>2025-05-01T11:21:24Z</time>
      </trkpt>
      <trkpt lat="42.925282996147871" lon="-9.26291897892952">
        <ele>16</ele>
        <time>2025-05-01T11:21:25Z</time>
      </trkpt>
      <trkpt lat="42.92532398365438" lon="-9.262944962829351">
        <ele>16</ele>
        <time>2025-05-01T11:21:26Z</time>
      </trkpt>
      <trkpt lat="42.925527999177575" lon="-9.263059040531516">
        <ele>16</ele>
        <time>2025-05-01T11:21:30Z</time>
      </trkpt>
      <trkpt lat="42.925594970583916" lon="-9.263082006946206">
        <ele>16.48</ele>
        <time>2025-05-01T11:21:31Z</time>
      </trkpt>
      <trkpt lat="42.925823964178562" lon="-9.263165993615985">
        <ele>17.440000000000001</ele>
        <time>2025-05-01T11:21:34Z</time>
      </trkpt>
      <trkpt lat="42.925907028838992" lon="-9.263215027749538">
        <ele>17.920000000000002</ele>
        <time>2025-05-01T11:21:35Z</time>
      </trkpt>
      <trkpt lat="42.926278011873364" lon="-9.263438992202282">
        <ele>20.32</ele>
        <time>2025-05-01T11:21:40Z</time>
      </trkpt>
      <trkpt lat="42.926350012421608" lon="-9.263464976102114">
        <ele>20.809999999999999</ele>
        <time>2025-05-01T11:21:41Z</time>
      </trkpt>
      <trkpt lat="42.92642000131309" lon="-9.263446033000946">
        <ele>20.809999999999999</ele>
        <time>2025-05-01T11:21:42Z</time>
      </trkpt>
      <trkpt lat="42.92702098377049" lon="-9.263365985825658">
        <ele>23.210000000000001</ele>
        <time>2025-05-01T11:21:49Z</time>
      </trkpt>
      <trkpt lat="42.927182000130415" lon="-9.263320975005627">
        <ele>23.690000000000001</ele>
        <time>2025-05-01T11:21:51Z</time>
      </trkpt>
      <trkpt lat="42.927682986482978" lon="-9.263182003051043">
        <ele>24.170000000000002</ele>
        <time>2025-05-01T11:22:00Z</time>
      </trkpt>
      <trkpt lat="42.927727997303009" lon="-9.263172028586268">
        <ele>24.170000000000002</ele>
        <time>2025-05-01T11:22:02Z</time>
      </trkpt>
      <trkpt lat="42.92775004170835" lon="-9.2631980124861">
        <ele>23.690000000000001</ele>
        <time>2025-05-01T11:22:03Z</time>
      </trkpt>
      <trkpt lat="42.927787005901337" lon="-9.26324101164937">
        <ele>23.690000000000001</ele>
        <time>2025-05-01T11:22:04Z</time>
      </trkpt>
      <trkpt lat="42.927836962044239" lon="-9.263301026076078">
        <ele>23.210000000000001</ele>
        <time>2025-05-01T11:22:05Z</time>
      </trkpt>
      <trkpt lat="42.927893958985806" lon="-9.263367997482419">
        <ele>22.73</ele>
        <time>2025-05-01T11:22:06Z</time>
      </trkpt>
      <trkpt lat="42.928547998890281" lon="-9.264149023219943">
        <ele>21.289999999999999</ele>
        <time>2025-05-01T11:22:14Z</time>
      </trkpt>
      <trkpt lat="42.928902972489595" lon="-9.264612961560488">
        <ele>21.77</ele>
        <time>2025-05-01T11:22:18Z</time>
      </trkpt>
      <trkpt lat="42.929865969344974" lon="-9.265869995579124">
        <ele>24.649999999999999</ele>
        <time>2025-05-01T11:22:28Z</time>
      </trkpt>
      <trkpt lat="42.930961987003684" lon="-9.267301959916949">
        <ele>31.859999999999999</ele>
        <time>2025-05-01T11:22:38Z</time>
      </trkpt>
      <trkpt lat="42.931306986138225" lon="-9.267733041197062">
        <ele>34.740000000000002</ele>
        <time>2025-05-01T11:22:43Z</time>
      </trkpt>
      <trkpt lat="42.931844014674425" lon="-9.268382973968983">
        <ele>41.469999999999999</ele>
        <time>2025-05-01T11:22:53Z</time>
      </trkpt>
      <trkpt lat="42.931974017992616" lon="-9.268512977287173">
        <ele>42.920000000000002</ele>
        <time>2025-05-01T11:22:55Z</time>
      </trkpt>
      <trkpt lat="42.932040989398956" lon="-9.268556982278824">
        <ele>43.399999999999999</ele>
        <time>2025-05-01T11:22:56Z</time>
      </trkpt>
      <trkpt lat="42.9321129899472" lon="-9.268605010583997">
        <ele>43.880000000000003</ele>
        <time>2025-05-01T11:22:57Z</time>
      </trkpt>
      <trkpt lat="42.932185996323824" lon="-9.268650021404028">
        <ele>44.359999999999999</ele>
        <time>2025-05-01T11:22:58Z</time>
      </trkpt>
      <trkpt lat="42.932276017963886" lon="-9.268692014738917">
        <ele>44.359999999999999</ele>
        <time>2025-05-01T11:22:59Z</time>
      </trkpt>
      <trkpt lat="42.933258041739464" lon="-9.269151007756591">
        <ele>42.920000000000002</ele>
        <time>2025-05-01T11:23:09Z</time>
      </trkpt>
      <trkpt lat="42.933778977021575" lon="-9.269371032714844">
        <ele>41.469999999999999</ele>
        <time>2025-05-01T11:23:15Z</time>
      </trkpt>
      <trkpt lat="42.934783967211843" lon="-9.26977101713419">
        <ele>40.030000000000001</ele>
        <time>2025-05-01T11:23:21Z</time>
      </trkpt>
      <trkpt lat="42.936807023361325" lon="-9.270535027608275">
        <ele>44.359999999999999</ele>
        <time>2025-05-01T11:23:31Z</time>
      </trkpt>
      <trkpt lat="42.939357971772552" lon="-9.27151101641357">
        <ele>50.609999999999999</ele>
        <time>2025-05-01T11:23:45Z</time>
      </trkpt>
      <trkpt lat="42.941425032913685" lon="-9.272302016615868">
        <ele>59.740000000000002</ele>
        <time>2025-05-01T11:23:57Z</time>
      </trkpt>
      <trkpt lat="42.942879963666201" lon="-9.272857988253236">
        <ele>66.469999999999999</ele>
        <time>2025-05-01T11:24:06Z</time>
      </trkpt>
      <trkpt lat="42.943974975496531" lon="-9.273276999592781">
        <ele>73.680000000000007</ele>
        <time>2025-05-01T11:24:16Z</time>
      </trkpt>
      <trkpt lat="42.944342019036412" lon="-9.273353023454547">
        <ele>75.599999999999994</ele>
        <time>2025-05-01T11:24:19Z</time>
      </trkpt>
      <trkpt lat="42.945745987817645" lon="-9.273438015952706">
        <ele>79.930000000000007</ele>
        <time>2025-05-01T11:24:28Z</time>
      </trkpt>
      <trkpt lat="42.947883037850261" lon="-9.273533988744021">
        <ele>76.079999999999998</ele>
        <time>2025-05-01T11:24:40Z</time>
      </trkpt>
      <trkpt lat="42.950948970392346" lon="-9.273648988455534">
        <ele>72.719999999999999</ele>
        <time>2025-05-01T11:24:55Z</time>
      </trkpt>
      <trkpt lat="42.952298037707806" lon="-9.27376801148057">
        <ele>71.269999999999996</ele>
        <time>2025-05-01T11:25:03Z</time>
      </trkpt>
      <trkpt lat="42.952315974980593" lon="-9.273770023137331">
        <ele>70.790000000000006</ele>
        <time>2025-05-01T11:25:04Z</time>
      </trkpt>
      <trkpt lat="42.952429968863726" lon="-9.273713026195765">
        <ele>70.310000000000002</ele>
        <time>2025-05-01T11:25:05Z</time>
      </trkpt>
      <trkpt lat="42.952489983290434" lon="-9.27368201315403">
        <ele>69.829999999999998</ele>
        <time>2025-05-01T11:25:06Z</time>
      </trkpt>
      <trkpt lat="42.952554021030664" lon="-9.273586040362716">
        <ele>69.829999999999998</ele>
        <time>2025-05-01T11:25:07Z</time>
      </trkpt>
      <trkpt lat="42.952628033235669" lon="-9.273473974317312">
        <ele>69.349999999999994</ele>
        <time>2025-05-01T11:25:08Z</time>
      </trkpt>
      <trkpt lat="42.9534259904176" lon="-9.272303022444248">
        <ele>62.140000000000001</ele>
        <time>2025-05-01T11:25:16Z</time>
      </trkpt>
      <trkpt lat="42.954562995582819" lon="-9.270655978471041">
        <ele>50.609999999999999</ele>
        <time>2025-05-01T11:25:25Z</time>
      </trkpt>
      <trkpt lat="42.955752974376082" lon="-9.268946992233396">
        <ele>40.990000000000002</ele>
        <time>2025-05-01T11:25:35Z</time>
      </trkpt>
      <trkpt lat="42.956822002306581" lon="-9.26738603040576">
        <ele>48.200000000000003</ele>
        <time>2025-05-01T11:25:45Z</time>
      </trkpt>
      <trkpt lat="42.957376968115568" lon="-9.266654960811138">
        <ele>53.969999999999999</ele>
        <time>2025-05-01T11:25:50Z</time>
      </trkpt>
      <trkpt lat="42.957495991140604" lon="-9.266509031876922">
        <ele>55.409999999999997</ele>
        <time>2025-05-01T11:25:51Z</time>
      </trkpt>
      <trkpt lat="42.958997022360563" lon="-9.26558299921453">
        <ele>65.030000000000001</ele>
        <time>2025-05-01T11:26:01Z</time>
      </trkpt>
      <trkpt lat="42.959973011165857" lon="-9.264954021200538">
        <ele>65.030000000000001</ele>
        <time>2025-05-01T11:26:07Z</time>
      </trkpt>
      <trkpt lat="42.961229039356112" lon="-9.263979038223624">
        <ele>62.619999999999997</ele>
        <time>2025-05-01T11:26:15Z</time>
      </trkpt>
      <trkpt lat="42.962954035028815" lon="-9.262609016150236">
        <ele>51.57</ele>
        <time>2025-05-01T11:26:26Z</time>
      </trkpt>
      <trkpt lat="42.964623961597681" lon="-9.261261038482189">
        <ele>43.880000000000003</ele>
        <time>2025-05-01T11:26:37Z</time>
      </trkpt>
      <trkpt lat="42.965879989787936" lon="-9.260221011936665">
        <ele>39.07</ele>
        <time>2025-05-01T11:26:46Z</time>
      </trkpt>
      <trkpt lat="42.967395018786192" lon="-9.258692990988493">
        <ele>34.740000000000002</ele>
        <time>2025-05-01T11:26:57Z</time>
      </trkpt>
      <trkpt lat="42.968668984249234" lon="-9.25739798694849">
        <ele>52.049999999999997</ele>
        <time>2025-05-01T11:27:07Z</time>
      </trkpt>
      <trkpt lat="42.969403993338346" lon="-9.256734978407621">
        <ele>62.140000000000001</ele>
        <time>2025-05-01T11:27:13Z</time>
      </trkpt>
      <trkpt lat="42.969506001099944" lon="-9.25664696842432">
        <ele>63.579999999999998</ele>
        <time>2025-05-01T11:27:14Z</time>
      </trkpt>
      <trkpt lat="42.969617983326316" lon="-9.256633976474404">
        <ele>65.030000000000001</ele>
        <time>2025-05-01T11:27:15Z</time>
      </trkpt>
      <trkpt lat="42.969728959724307" lon="-9.256635988131166">
        <ele>65.989999999999995</ele>
        <time>2025-05-01T11:27:16Z</time>
      </trkpt>
      <trkpt lat="42.969823004677892" lon="-9.2566670011729">
        <ele>66.950000000000003</ele>
        <time>2025-05-01T11:27:17Z</time>
      </trkpt>
      <trkpt lat="42.969898022711277" lon="-9.256691979244351">
        <ele>67.909999999999997</ele>
        <time>2025-05-01T11:27:18Z</time>
      </trkpt>
      <trkpt lat="42.969954013824463" lon="-9.256711006164551">
        <ele>68.870000000000005</ele>
        <time>2025-05-01T11:27:19Z</time>
      </trkpt>
      <trkpt lat="42.970029031857848" lon="-9.25664302892983">
        <ele>69.349999999999994</ele>
        <time>2025-05-01T11:27:20Z</time>
      </trkpt>
      <trkpt lat="42.970038000494242" lon="-9.256570022553206">
        <ele>69.829999999999998</ele>
        <time>2025-05-01T11:27:21Z</time>
      </trkpt>
      <trkpt lat="42.970049986615777" lon="-9.256468014791608">
        <ele>70.790000000000006</ele>
        <time>2025-05-01T11:27:22Z</time>
      </trkpt>
      <trkpt lat="42.970064990222454" lon="-9.256335999816656">
        <ele>70.790000000000006</ele>
        <time>2025-05-01T11:27:23Z</time>
      </trkpt>
      <trkpt lat="42.970234975218773" lon="-9.254878973588347">
        <ele>70.310000000000002</ele>
        <time>2025-05-01T11:27:31Z</time>
      </trkpt>
      <trkpt lat="42.970420969650149" lon="-9.253205023705959">
        <ele>65.989999999999995</ele>
        <time>2025-05-01T11:27:40Z</time>
      </trkpt>
      <trkpt lat="42.970561031252146" lon="-9.251898033544421">
        <ele>65.989999999999995</ele>
        <time>2025-05-01T11:27:48Z</time>
      </trkpt>
      <trkpt lat="42.970603024587035" lon="-9.251500982791185">
        <ele>67.909999999999997</ele>
        <time>2025-05-01T11:27:52Z</time>
      </trkpt>
      <trkpt lat="42.970608975738287" lon="-9.251450020819902">
        <ele>68.870000000000005</ele>
        <time>2025-05-01T11:27:53Z</time>
      </trkpt>
      <trkpt lat="42.970611993223429" lon="-9.251415990293026">
        <ele>69.349999999999994</ele>
        <time>2025-05-01T11:27:54Z</time>
      </trkpt>
      <trkpt lat="42.970638982951641" lon="-9.251350024715066">
        <ele>69.829999999999998</ele>
        <time>2025-05-01T11:27:55Z</time>
      </trkpt>
      <trkpt lat="42.970660021528602" lon="-9.251353964209557">
        <ele>70.310000000000002</ele>
        <time>2025-05-01T11:27:56Z</time>
      </trkpt>
      <trkpt lat="42.97070100903511" lon="-9.251361005008221">
        <ele>70.790000000000006</ele>
        <time>2025-05-01T11:27:57Z</time>
      </trkpt>
      <trkpt lat="42.97076404094696" lon="-9.251371985301375">
        <ele>71.269999999999996</ele>
        <time>2025-05-01T11:27:58Z</time>
      </trkpt>
      <trkpt lat="42.970844004303217" lon="-9.251386988908052">
        <ele>71.269999999999996</ele>
        <time>2025-05-01T11:27:59Z</time>
      </trkpt>
      <trkpt lat="42.97093796543777" lon="-9.251404004171491">
        <ele>71.269999999999996</ele>
        <time>2025-05-01T11:28:00Z</time>
      </trkpt>
      <trkpt lat="42.971038967370987" lon="-9.25142202526331">
        <ele>71.760000000000005</ele>
        <time>2025-05-01T11:28:01Z</time>
      </trkpt>
      <trkpt lat="42.971140975132585" lon="-9.251439962536097">
        <ele>71.760000000000005</ele>
        <time>2025-05-01T11:28:02Z</time>
      </trkpt>
      <trkpt lat="42.97123895958066" lon="-9.251457983627915">
        <ele>72.239999999999995</ele>
        <time>2025-05-01T11:28:03Z</time>
      </trkpt>
      <trkpt lat="42.97132596373558" lon="-9.251472987234592">
        <ele>72.239999999999995</ele>
        <time>2025-05-01T11:28:04Z</time>
      </trkpt>
      <trkpt lat="42.971411040052772" lon="-9.25148899666965">
        <ele>72.719999999999999</ele>
        <time>2025-05-01T11:28:05Z</time>
      </trkpt>
      <trkpt lat="42.971496032550931" lon="-9.251483967527747">
        <ele>72.719999999999999</ele>
        <time>2025-05-01T11:28:06Z</time>
      </trkpt>
      <trkpt lat="42.971592005342245" lon="-9.251452032476664">
        <ele>73.200000000000003</ele>
        <time>2025-05-01T11:28:07Z</time>
      </trkpt>
      <trkpt lat="42.971693007275462" lon="-9.251418001949787">
        <ele>74.159999999999997</ele>
        <time>2025-05-01T11:28:08Z</time>
      </trkpt>
      <trkpt lat="42.972181001678109" lon="-9.251255979761481">
        <ele>80.409999999999997</ele>
        <time>2025-05-01T11:28:13Z</time>
      </trkpt>
      <trkpt lat="42.973132012411952" lon="-9.250947022810578">
        <ele>88.579999999999998</ele>
        <time>2025-05-01T11:28:23Z</time>
      </trkpt>
      <trkpt lat="42.974273040890694" lon="-9.250611998140812">
        <ele>96.75</ele>
        <time>2025-05-01T11:28:32Z</time>
      </trkpt>
      <trkpt lat="42.974971001967788" lon="-9.250360038131475">
        <ele>101.56</ele>
        <time>2025-05-01T11:28:37Z</time>
      </trkpt>
      <trkpt lat="42.975849006325006" lon="-9.249557973816991">
        <ele>107.31999999999999</ele>
        <time>2025-05-01T11:28:44Z</time>
      </trkpt>
      <trkpt lat="42.975963000208139" lon="-9.249372985213995">
        <ele>109.25</ele>
        <time>2025-05-01T11:28:45Z</time>
      </trkpt>
      <trkpt lat="42.976075988262892" lon="-9.249222027137876">
        <ele>110.69</ele>
        <time>2025-05-01T11:28:46Z</time>
      </trkpt>
      <trkpt lat="42.976192999631166" lon="-9.249067967757583">
        <ele>112.13</ele>
        <time>2025-05-01T11:28:47Z</time>
      </trkpt>
      <trkpt lat="42.976313028484583" lon="-9.248908963054419">
        <ele>113.09</ele>
        <time>2025-05-01T11:28:48Z</time>
      </trkpt>
      <trkpt lat="42.976433979347348" lon="-9.248748030513525">
        <ele>114.53</ele>
        <time>2025-05-01T11:28:49Z</time>
      </trkpt>
      <trkpt lat="42.97718801535666" lon="-9.247344983741641">
        <ele>124.15000000000001</ele>
        <time>2025-05-01T11:28:57Z</time>
      </trkpt>
      <trkpt lat="42.977250963449478" lon="-9.247185979038477">
        <ele>124.63</ele>
        <time>2025-05-01T11:28:58Z</time>
      </trkpt>
      <trkpt lat="42.977336039766669" lon="-9.246968971565366">
        <ele>124.63</ele>
        <time>2025-05-01T11:28:59Z</time>
      </trkpt>
      <trkpt lat="42.977433018386364" lon="-9.246299006044865">
        <ele>122.70999999999999</ele>
        <time>2025-05-01T11:29:03Z</time>
      </trkpt>
      <trkpt lat="42.977427989244461" lon="-9.246141007170081">
        <ele>122.22</ele>
        <time>2025-05-01T11:29:04Z</time>
      </trkpt>
      <trkpt lat="42.977422960102558" lon="-9.246003041043878">
        <ele>121.73999999999999</ele>
        <time>2025-05-01T11:29:05Z</time>
      </trkpt>
      <trkpt lat="42.977449027821422" lon="-9.245878988876939">
        <ele>121.26000000000001</ele>
        <time>2025-05-01T11:29:06Z</time>
      </trkpt>
      <trkpt lat="42.977478029206395" lon="-9.245790978893638">
        <ele>120.78</ele>
        <time>2025-05-01T11:29:07Z</time>
      </trkpt>
      <trkpt lat="42.977531002834439" lon="-9.245631974190474">
        <ele>118.38</ele>
        <time>2025-05-01T11:29:11Z</time>
      </trkpt>
      <trkpt lat="42.977615995332599" lon="-9.245652006939054">
        <ele>117.42</ele>
        <time>2025-05-01T11:29:12Z</time>
      </trkpt>
      <trkpt lat="42.977663017809391" lon="-9.245706992223859">
        <ele>116.94</ele>
        <time>2025-05-01T11:29:13Z</time>
      </trkpt>
      <trkpt lat="42.977721020579338" lon="-9.24577496945858">
        <ele>115.98</ele>
        <time>2025-05-01T11:29:14Z</time>
      </trkpt>
      <trkpt lat="42.977785980328918" lon="-9.245851999148727">
        <ele>115.01000000000001</ele>
        <time>2025-05-01T11:29:15Z</time>
      </trkpt>
      <trkpt lat="42.978373970836401" lon="-9.246547026559711">
        <ele>106.36</ele>
        <time>2025-05-01T11:29:21Z</time>
      </trkpt>
      <trkpt lat="42.978774961084127" lon="-9.246940976008773">
        <ele>100.11</ele>
        <time>2025-05-01T11:29:24Z</time>
      </trkpt>
      <trkpt lat="42.978922985494137" lon="-9.247039966285229">
        <ele>98.189999999999998</ele>
        <time>2025-05-01T11:29:25Z</time>
      </trkpt>
      <trkpt lat="42.979559004306793" lon="-9.247259991243482">
        <ele>88.579999999999998</ele>
        <time>2025-05-01T11:29:29Z</time>
      </trkpt>
      <trkpt lat="42.97972597181797" lon="-9.247255967929959">
        <ele>86.180000000000007</ele>
        <time>2025-05-01T11:29:30Z</time>
      </trkpt>
      <trkpt lat="42.979904003441334" lon="-9.247207017615438">
        <ele>84.25</ele>
        <time>2025-05-01T11:29:31Z</time>
      </trkpt>
      <trkpt lat="42.980078011751175" lon="-9.247097969055176">
        <ele>81.849999999999994</ele>
        <time>2025-05-01T11:29:32Z</time>
      </trkpt>
      <trkpt lat="42.980255959555507" lon="-9.246983975172043">
        <ele>79.450000000000003</ele>
        <time>2025-05-01T11:29:33Z</time>
      </trkpt>
      <trkpt lat="42.98112097196281" lon="-9.246446024626494">
        <ele>68.870000000000005</ele>
        <time>2025-05-01T11:29:38Z</time>
      </trkpt>
      <trkpt lat="42.982188994064927" lon="-9.246158022433519">
        <ele>57.82</ele>
        <time>2025-05-01T11:29:44Z</time>
      </trkpt>
      <trkpt lat="42.982364008203149" lon="-9.246126003563404">
        <ele>55.890000000000001</ele>
        <time>2025-05-01T11:29:45Z</time>
      </trkpt>
      <trkpt lat="42.983611989766359" lon="-9.246204039081931">
        <ele>49.159999999999997</ele>
        <time>2025-05-01T11:29:53Z</time>
      </trkpt>
      <trkpt lat="42.984181959182024" lon="-9.246248966082931">
        <ele>43.880000000000003</ele>
        <time>2025-05-01T11:30:01Z</time>
      </trkpt>
      <trkpt lat="42.984970025718212" lon="-9.246282996609807">
        <ele>40.990000000000002</ele>
        <time>2025-05-01T11:30:08Z</time>
      </trkpt>
      <trkpt lat="42.985102962702513" lon="-9.246231028810144">
        <ele>40.509999999999998</ele>
        <time>2025-05-01T11:30:09Z</time>
      </trkpt>
      <trkpt lat="42.985241012647748" lon="-9.246164979413152">
        <ele>39.549999999999997</ele>
        <time>2025-05-01T11:30:10Z</time>
      </trkpt>
      <trkpt lat="42.986560994759202" lon="-9.245327962562442">
        <ele>30.420000000000002</ele>
        <time>2025-05-01T11:30:18Z</time>
      </trkpt>
      <trkpt lat="42.988626966252923" lon="-9.244039999321103">
        <ele>19.84</ele>
        <time>2025-05-01T11:30:29Z</time>
      </trkpt>
      <trkpt lat="42.988795023411512" lon="-9.243961041793227">
        <ele>19.359999999999999</ele>
        <time>2025-05-01T11:30:30Z</time>
      </trkpt>
      <trkpt lat="42.988982023671269" lon="-9.243944026529789">
        <ele>19.359999999999999</ele>
        <time>2025-05-01T11:30:31Z</time>
      </trkpt>
      <trkpt lat="42.990940036252141" lon="-9.243889963254333">
        <ele>18.879999999999999</ele>
        <time>2025-05-01T11:30:40Z</time>
      </trkpt>
      <trkpt lat="42.992983041331172" lon="-9.243869008496404">
        <ele>17.920000000000002</ele>
        <time>2025-05-01T11:30:50Z</time>
      </trkpt>
      <trkpt lat="42.994789006188512" lon="-9.243820980191231">
        <ele>23.210000000000001</ele>
        <time>2025-05-01T11:30:59Z</time>
      </trkpt>
      <trkpt lat="42.995470035821199" lon="-9.24379600211978">
        <ele>30.899999999999999</ele>
        <time>2025-05-01T11:31:03Z</time>
      </trkpt>
      <trkpt lat="42.99562300555408" lon="-9.243761971592903">
        <ele>32.82</ele>
        <time>2025-05-01T11:31:04Z</time>
      </trkpt>
      <trkpt lat="42.995766000822186" lon="-9.24371100962162">
        <ele>34.259999999999998</ele>
        <time>2025-05-01T11:31:05Z</time>
      </trkpt>
      <trkpt lat="42.997119007632136" lon="-9.243024028837681">
        <ele>44.359999999999999</ele>
        <time>2025-05-01T11:31:14Z</time>
      </trkpt>
      <trkpt lat="42.997551010921597" lon="-9.242797968909144">
        <ele>47.240000000000002</ele>
        <time>2025-05-01T11:31:19Z</time>
      </trkpt>
      <trkpt lat="42.997585041448474" lon="-9.242780031636357">
        <ele>47.719999999999999</ele>
        <time>2025-05-01T11:31:20Z</time>
      </trkpt>
      <trkpt lat="42.997591998428106" lon="-9.242663020268083">
        <ele>48.200000000000003</ele>
        <time>2025-05-01T11:31:21Z</time>
      </trkpt>
      <trkpt lat="42.99755796790123" lon="-9.242621026933193">
        <ele>48.68</ele>
        <time>2025-05-01T11:31:22Z</time>
      </trkpt>
      <trkpt lat="42.997511029243469" lon="-9.242563024163246">
        <ele>49.159999999999997</ele>
        <time>2025-05-01T11:31:23Z</time>
      </trkpt>
      <trkpt lat="42.997456965968013" lon="-9.242496974766254">
        <ele>49.649999999999999</ele>
        <time>2025-05-01T11:31:24Z</time>
      </trkpt>
      <trkpt lat="42.9972970392555" lon="-9.242236968129873">
        <ele>51.57</ele>
        <time>2025-05-01T11:31:27Z</time>
      </trkpt>
      <trkpt lat="42.997249010950327" lon="-9.242140995338559">
        <ele>52.530000000000001</ele>
        <time>2025-05-01T11:31:28Z</time>
      </trkpt>
      <trkpt lat="42.997237024828792" lon="-9.242005962878466">
        <ele>53.009999999999998</ele>
        <time>2025-05-01T11:31:29Z</time>
      </trkpt>
      <trkpt lat="42.997225038707256" lon="-9.241870008409023">
        <ele>53.490000000000002</ele>
        <time>2025-05-01T11:31:30Z</time>
      </trkpt>
      <trkpt lat="42.997212968766689" lon="-9.241730030626059">
        <ele>54.450000000000003</ele>
        <time>2025-05-01T11:31:31Z</time>
      </trkpt>
      <trkpt lat="42.997207017615438" lon="-9.241588041186333">
        <ele>54.93</ele>
        <time>2025-05-01T11:31:32Z</time>
      </trkpt>
      <trkpt lat="42.997239036485553" lon="-9.24025297164917">
        <ele>58.299999999999997</ele>
        <time>2025-05-01T11:31:39Z</time>
      </trkpt>
      <trkpt lat="42.997245993465185" lon="-9.238108964636922">
        <ele>65.989999999999995</ele>
        <time>2025-05-01T11:31:48Z</time>
      </trkpt>
      <trkpt lat="42.997222021222115" lon="-9.237631028518081">
        <ele>66.950000000000003</ele>
        <time>2025-05-01T11:31:50Z</time>
      </trkpt>
      <trkpt lat="42.997174998745322" lon="-9.237406980246306">
        <ele>67.430000000000007</ele>
        <time>2025-05-01T11:31:51Z</time>
      </trkpt>
      <trkpt lat="42.997116995975375" lon="-9.237195001915097">
        <ele>67.430000000000007</ele>
        <time>2025-05-01T11:31:52Z</time>
      </trkpt>
      <trkpt lat="42.997026974335313" lon="-9.236988974735141">
        <ele>67.430000000000007</ele>
        <time>2025-05-01T11:31:53Z</time>
      </trkpt>
      <trkpt lat="42.99693301320076" lon="-9.236776996403933">
        <ele>67.909999999999997</ele>
        <time>2025-05-01T11:31:54Z</time>
      </trkpt>
      <trkpt lat="42.995683019980788" lon="-9.233927987515926">
        <ele>79.450000000000003</ele>
        <time>2025-05-01T11:32:07Z</time>
      </trkpt>
      <trkpt lat="42.994562024250627" lon="-9.231371004134417">
        <ele>91.939999999999998</ele>
        <time>2025-05-01T11:32:18Z</time>
      </trkpt>
      <trkpt lat="42.994125997647643" lon="-9.23026098869741">
        <ele>90.5</ele>
        <time>2025-05-01T11:32:23Z</time>
      </trkpt>
      <trkpt lat="42.994064977392554" lon="-9.230028977617621">
        <ele>89.540000000000006</ele>
        <time>2025-05-01T11:32:24Z</time>
      </trkpt>
      <trkpt lat="42.994018960744143" lon="-9.229778023436666">
        <ele>89.540000000000006</ele>
        <time>2025-05-01T11:32:25Z</time>
      </trkpt>
      <trkpt lat="42.993932040408254" lon="-9.228953998535872">
        <ele>89.540000000000006</ele>
        <time>2025-05-01T11:32:28Z</time>
      </trkpt>
      <trkpt lat="42.993879988789558" lon="-9.228708995506167">
        <ele>90.019999999999996</ele>
        <time>2025-05-01T11:32:29Z</time>
      </trkpt>
      <trkpt lat="42.993788961321115" lon="-9.228452006354928">
        <ele>90.5</ele>
        <time>2025-05-01T11:32:30Z</time>
      </trkpt>
      <trkpt lat="42.993675973266363" lon="-9.228231981396675">
        <ele>90.980000000000004</ele>
        <time>2025-05-01T11:32:31Z</time>
      </trkpt>
      <trkpt lat="42.99353901296854" lon="-9.22802603803575">
        <ele>91.459999999999994</ele>
        <time>2025-05-01T11:32:32Z</time>
      </trkpt>
      <trkpt lat="42.993400041013956" lon="-9.227816993370652">
        <ele>91.939999999999998</ele>
        <time>2025-05-01T11:32:33Z</time>
      </trkpt>
      <trkpt lat="42.993261991068721" lon="-9.227610966190696">
        <ele>92.420000000000002</ele>
        <time>2025-05-01T11:32:34Z</time>
      </trkpt>
      <trkpt lat="42.992475014179945" lon="-9.226375976577401">
        <ele>92.900000000000006</ele>
        <time>2025-05-01T11:32:41Z</time>
      </trkpt>
      <trkpt lat="42.992454981431365" lon="-9.226216971874237">
        <ele>92.900000000000006</ele>
        <time>2025-05-01T11:32:42Z</time>
      </trkpt>
      <trkpt lat="42.992450036108494" lon="-9.226094009354711">
        <ele>92.420000000000002</ele>
        <time>2025-05-01T11:32:43Z</time>
      </trkpt>
      <trkpt lat="42.992510972544551" lon="-9.225953025743365">
        <ele>92.420000000000002</ele>
        <time>2025-05-01T11:32:44Z</time>
      </trkpt>
      <trkpt lat="42.992579033598304" lon="-9.22579200938344">
        <ele>91.939999999999998</ele>
        <time>2025-05-01T11:32:45Z</time>
      </trkpt>
      <trkpt lat="42.99265899695456" lon="-9.225613977760077">
        <ele>91.939999999999998</ele>
        <time>2025-05-01T11:32:46Z</time>
      </trkpt>
      <trkpt lat="42.993143973872066" lon="-9.224642012268305">
        <ele>95.790000000000006</ele>
        <time>2025-05-01T11:32:51Z</time>
      </trkpt>
      <trkpt lat="42.993223015218973" lon="-9.224447971209884">
        <ele>97.230000000000004</ele>
        <time>2025-05-01T11:32:52Z</time>
      </trkpt>
      <trkpt lat="42.993295015767217" lon="-9.224231969565153">
        <ele>98.189999999999998</ele>
        <time>2025-05-01T11:32:53Z</time>
      </trkpt>
      <trkpt lat="42.993784015998244" lon="-9.221930969506502">
        <ele>106.36</ele>
        <time>2025-05-01T11:33:02Z</time>
      </trkpt>
      <trkpt lat="42.993837995454669" lon="-9.22168898396194">
        <ele>107.31999999999999</ele>
        <time>2025-05-01T11:33:03Z</time>
      </trkpt>
      <trkpt lat="42.993934974074364" lon="-9.221464013680816">
        <ele>107.81</ele>
        <time>2025-05-01T11:33:04Z</time>
      </trkpt>
      <trkpt lat="42.994050979614258" lon="-9.221252035349608">
        <ele>108.29000000000001</ele>
        <time>2025-05-01T11:33:05Z</time>
      </trkpt>
      <trkpt lat="42.995135011151433" lon="-9.219530979171395">
        <ele>110.20999999999999</ele>
        <time>2025-05-01T11:33:13Z</time>
      </trkpt>
      <trkpt lat="42.995656030252576" lon="-9.218652974814177">
        <ele>112.13</ele>
        <time>2025-05-01T11:33:17Z</time>
      </trkpt>
      <trkpt lat="42.995753008872271" lon="-9.218410989269614">
        <ele>113.09</ele>
        <time>2025-05-01T11:33:18Z</time>
      </trkpt>
      <trkpt lat="42.99598703160882" lon="-9.217694001272321">
        <ele>114.53</ele>
        <time>2025-05-01T11:33:21Z</time>
      </trkpt>
      <trkpt lat="42.996013015508652" lon="-9.217461990192533">
        <ele>114.53</ele>
        <time>2025-05-01T11:33:22Z</time>
      </trkpt>
      <trkpt lat="42.996025001630187" lon="-9.217245988547802">
        <ele>115.01000000000001</ele>
        <time>2025-05-01T11:33:23Z</time>
      </trkpt>
      <trkpt lat="42.995979990810156" lon="-9.217030992731452">
        <ele>115.01000000000001</ele>
        <time>2025-05-01T11:33:24Z</time>
      </trkpt>
      <trkpt lat="42.995929028838873" lon="-9.216808034107089">
        <ele>114.53</ele>
        <time>2025-05-01T11:33:25Z</time>
      </trkpt>
      <trkpt lat="42.995712021365762" lon="-9.216129016131163">
        <ele>113.56999999999999</ele>
        <time>2025-05-01T11:33:28Z</time>
      </trkpt>
      <trkpt lat="42.995609007775784" lon="-9.215903962031007">
        <ele>112.61</ele>
        <time>2025-05-01T11:33:29Z</time>
      </trkpt>
      <trkpt lat="42.995502976700664" lon="-9.21567102894187">
        <ele>111.65000000000001</ele>
        <time>2025-05-01T11:33:30Z</time>
      </trkpt>
      <trkpt lat="42.995093017816544" lon="-9.214796964079142">
        <ele>107.31999999999999</ele>
        <time>2025-05-01T11:33:34Z</time>
      </trkpt>
      <trkpt lat="42.995051024481654" lon="-9.214568976312876">
        <ele>106.36</ele>
        <time>2025-05-01T11:33:35Z</time>
      </trkpt>
      <trkpt lat="42.995016993954778" lon="-9.2143190279603">
        <ele>105.40000000000001</ele>
        <time>2025-05-01T11:33:36Z</time>
      </trkpt>
      <trkpt lat="42.995073990896344" lon="-9.212958980351687">
        <ele>100.59999999999999</ele>
        <time>2025-05-01T11:33:41Z</time>
      </trkpt>
      <trkpt lat="42.995120007544756" lon="-9.212682964280248">
        <ele>99.629999999999995</ele>
        <time>2025-05-01T11:33:42Z</time>
      </trkpt>
      <trkpt lat="42.9956029728055" lon="-9.210211979225278">
        <ele>106.36</ele>
        <time>2025-05-01T11:33:52Z</time>
      </trkpt>
      <trkpt lat="42.995616970583797" lon="-9.210036965087056">
        <ele>107.31999999999999</ele>
        <time>2025-05-01T11:33:53Z</time>
      </trkpt>
      <trkpt lat="42.995585035532713" lon="-9.209889024496079">
        <ele>108.29000000000001</ele>
        <time>2025-05-01T11:33:54Z</time>
      </trkpt>
      <trkpt lat="42.995547987520695" lon="-9.209753992035985">
        <ele>109.25</ele>
        <time>2025-05-01T11:33:55Z</time>
      </trkpt>
      <trkpt lat="42.995477998629212" lon="-9.209661036729813">
        <ele>109.73</ele>
        <time>2025-05-01T11:33:56Z</time>
      </trkpt>
      <trkpt lat="42.995413038879633" lon="-9.209574032574892">
        <ele>110.20999999999999</ele>
        <time>2025-05-01T11:33:57Z</time>
      </trkpt>
      <trkpt lat="42.995349001139402" lon="-9.209489040076733">
        <ele>110.69</ele>
        <time>2025-05-01T11:33:58Z</time>
      </trkpt>
      <trkpt lat="42.995285969227552" lon="-9.209404969587922">
        <ele>111.65000000000001</ele>
        <time>2025-05-01T11:33:59Z</time>
      </trkpt>
      <trkpt lat="42.995229978114367" lon="-9.209321988746524">
        <ele>112.13</ele>
        <time>2025-05-01T11:34:00Z</time>
      </trkpt>
      <trkpt lat="42.99521598033607" lon="-9.209195002913475">
        <ele>113.09</ele>
        <time>2025-05-01T11:34:01Z</time>
      </trkpt>
      <trkpt lat="42.995201982557774" lon="-9.209067011252046">
        <ele>114.05</ele>
        <time>2025-05-01T11:34:02Z</time>
      </trkpt>
      <trkpt lat="42.995186978951097" lon="-9.208932984620333">
        <ele>115.01000000000001</ele>
        <time>2025-05-01T11:34:03Z</time>
      </trkpt>
      <trkpt lat="42.994981035590172" lon="-9.207797991111875">
        <ele>120.3</ele>
        <time>2025-05-01T11:34:11Z</time>
      </trkpt>
      <trkpt lat="42.994679035618901" lon="-9.206571970134974">
        <ele>123.67</ele>
        <time>2025-05-01T11:34:21Z</time>
      </trkpt>
      <trkpt lat="42.994635030627251" lon="-9.206288997083902">
        <ele>124.15000000000001</ele>
        <time>2025-05-01T11:34:27Z</time>
      </trkpt>
      <trkpt lat="42.994618015363812" lon="-9.206211967393756">
        <ele>124.15000000000001</ele>
        <time>2025-05-01T11:34:28Z</time>
      </trkpt>
      <trkpt lat="42.994605023413897" lon="-9.206118006259203">
        <ele>124.15000000000001</ele>
        <time>2025-05-01T11:34:29Z</time>
      </trkpt>
      <trkpt lat="42.994595970958471" lon="-9.206000994890928">
        <ele>123.67</ele>
        <time>2025-05-01T11:34:30Z</time>
      </trkpt>
      <trkpt lat="42.994580967351794" lon="-9.205865040421486">
        <ele>123.67</ele>
        <time>2025-05-01T11:34:31Z</time>
      </trkpt>
      <trkpt lat="42.994565963745117" lon="-9.205716010183096">
        <ele>123.19</ele>
        <time>2025-05-01T11:34:32Z</time>
      </trkpt>
      <trkpt lat="42.994565963745117" lon="-9.20555398799479">
        <ele>122.70999999999999</ele>
        <time>2025-05-01T11:34:33Z</time>
      </trkpt>
      <trkpt lat="42.994565963745117" lon="-9.20538199134171">
        <ele>122.22</ele>
        <time>2025-05-01T11:34:34Z</time>
      </trkpt>
      <trkpt lat="42.994565963745117" lon="-9.205011008307338">
        <ele>122.22</ele>
        <time>2025-05-01T11:34:36Z</time>
      </trkpt>
      <trkpt lat="42.994565963745117" lon="-9.204812021926045">
        <ele>122.22</ele>
        <time>2025-05-01T11:34:37Z</time>
      </trkpt>
      <trkpt lat="42.994549032300711" lon="-9.202672960236669">
        <ele>122.70999999999999</ele>
        <time>2025-05-01T11:34:47Z</time>
      </trkpt>
      <trkpt lat="42.994568981230259" lon="-9.202442960813642">
        <ele>122.22</ele>
        <time>2025-05-01T11:34:48Z</time>
      </trkpt>
      <trkpt lat="42.99459001980722" lon="-9.202214973047376">
        <ele>122.22</ele>
        <time>2025-05-01T11:34:49Z</time>
      </trkpt>
      <trkpt lat="42.994651040062308" lon="-9.20063397847116">
        <ele>122.70999999999999</ele>
        <time>2025-05-01T11:34:56Z</time>
      </trkpt>
      <trkpt lat="42.994621032848954" lon="-9.200397022068501">
        <ele>122.22</ele>
        <time>2025-05-01T11:34:57Z</time>
      </trkpt>
      <trkpt lat="42.994156004860997" lon="-9.197942968457937">
        <ele>113.09</ele>
        <time>2025-05-01T11:35:07Z</time>
      </trkpt>
      <trkpt lat="42.994144018739462" lon="-9.197728978469968">
        <ele>112.13</ele>
        <time>2025-05-01T11:35:08Z</time>
      </trkpt>
      <trkpt lat="42.994136977940798" lon="-9.197532003745437">
        <ele>111.65000000000001</ele>
        <time>2025-05-01T11:35:09Z</time>
      </trkpt>
      <trkpt lat="42.994274022057652" lon="-9.19627396389842">
        <ele>106.84</ele>
        <time>2025-05-01T11:35:17Z</time>
      </trkpt>
      <trkpt lat="42.994552971795201" lon="-9.194153007119894">
        <ele>106.36</ele>
        <time>2025-05-01T11:35:30Z</time>
      </trkpt>
      <trkpt lat="42.994640981778502" lon="-9.193684961646795">
        <ele>107.31999999999999</ele>
        <time>2025-05-01T11:35:33Z</time>
      </trkpt>
      <trkpt lat="42.99469898454845" lon="-9.193541966378689">
        <ele>107.81</ele>
        <time>2025-05-01T11:35:34Z</time>
      </trkpt>
      <trkpt lat="42.994760004803538" lon="-9.193390002474189">
        <ele>107.81</ele>
        <time>2025-05-01T11:35:35Z</time>
      </trkpt>
      <trkpt lat="42.994909035041928" lon="-9.193120021373034">
        <ele>108.29000000000001</ele>
        <time>2025-05-01T11:35:37Z</time>
      </trkpt>
      <trkpt lat="42.994992015883327" lon="-9.192985994741321">
        <ele>108.29000000000001</ele>
        <time>2025-05-01T11:35:38Z</time>
      </trkpt>
      <trkpt lat="42.995059993118048" lon="-9.192875018343329">
        <ele>107.81</ele>
        <time>2025-05-01T11:35:39Z</time>
      </trkpt>
      <trkpt lat="42.995114978402853" lon="-9.19270402751863">
        <ele>107.81</ele>
        <time>2025-05-01T11:35:40Z</time>
      </trkpt>
      <trkpt lat="42.995163006708026" lon="-9.192550973966718">
        <ele>107.31999999999999</ele>
        <time>2025-05-01T11:35:41Z</time>
      </trkpt>
      <trkpt lat="42.995211035013199" lon="-9.19240202754736">
        <ele>106.84</ele>
        <time>2025-05-01T11:35:42Z</time>
      </trkpt>
      <trkpt lat="42.995390994474292" lon="-9.19150298461318">
        <ele>102.52</ele>
        <time>2025-05-01T11:35:49Z</time>
      </trkpt>
      <trkpt lat="42.995456960052252" lon="-9.191280025988817">
        <ele>99.629999999999995</ele>
        <time>2025-05-01T11:35:53Z</time>
      </trkpt>
      <trkpt lat="42.995482021942735" lon="-9.191229986026883">
        <ele>99.150000000000006</ele>
        <time>2025-05-01T11:35:54Z</time>
      </trkpt>
      <trkpt lat="42.995542958378792" lon="-9.191171983256936">
        <ele>99.150000000000006</ele>
        <time>2025-05-01T11:35:55Z</time>
      </trkpt>
      <trkpt lat="42.995609007775784" lon="-9.191109035164118">
        <ele>98.670000000000002</ele>
        <time>2025-05-01T11:35:56Z</time>
      </trkpt>
      <trkpt lat="42.995683019980788" lon="-9.191038040444255">
        <ele>98.670000000000002</ele>
        <time>2025-05-01T11:35:57Z</time>
      </trkpt>
      <trkpt lat="42.995768012478948" lon="-9.190956987440586">
        <ele>98.189999999999998</ele>
        <time>2025-05-01T11:35:58Z</time>
      </trkpt>
      <trkpt lat="42.99585803411901" lon="-9.190870989114046">
        <ele>98.189999999999998</ele>
        <time>2025-05-01T11:35:59Z</time>
      </trkpt>
      <trkpt lat="42.995953001081944" lon="-9.190780967473984">
        <ele>97.709999999999994</ele>
        <time>2025-05-01T11:36:00Z</time>
      </trkpt>
      <trkpt lat="42.996434038504958" lon="-9.190300013870001">
        <ele>95.790000000000006</ele>
        <time>2025-05-01T11:36:05Z</time>
      </trkpt>
      <trkpt lat="42.99650302156806" lon="-9.190167998895049">
        <ele>95.310000000000002</ele>
        <time>2025-05-01T11:36:06Z</time>
      </trkpt>
      <trkpt lat="42.996576027944684" lon="-9.190030032768846">
        <ele>94.829999999999998</ele>
        <time>2025-05-01T11:36:07Z</time>
      </trkpt>
      <trkpt lat="42.996648028492928" lon="-9.18989198282361">
        <ele>93.870000000000005</ele>
        <time>2025-05-01T11:36:08Z</time>
      </trkpt>
      <trkpt lat="42.996573010459542" lon="-9.189772959798574">
        <ele>93.390000000000001</ele>
        <time>2025-05-01T11:36:09Z</time>
      </trkpt>
      <trkpt lat="42.996512996032834" lon="-9.18967698700726">
        <ele>92.420000000000002</ele>
        <time>2025-05-01T11:36:10Z</time>
      </trkpt>
      <trkpt lat="42.996433032676578" lon="-9.189548995345831">
        <ele>91.939999999999998</ele>
        <time>2025-05-01T11:36:11Z</time>
      </trkpt>
      <trkpt lat="42.996347034350038" lon="-9.189465008676052">
        <ele>91.459999999999994</ele>
        <time>2025-05-01T11:36:12Z</time>
      </trkpt>
      <trkpt lat="42.996237985789776" lon="-9.189358977600932">
        <ele>90.980000000000004</ele>
        <time>2025-05-01T11:36:13Z</time>
      </trkpt>
      <trkpt lat="42.995754014700651" lon="-9.188886992633343">
        <ele>87.140000000000001</ele>
        <time>2025-05-01T11:36:18Z</time>
      </trkpt>
      <trkpt lat="42.995676985010505" lon="-9.188811974599958">
        <ele>86.659999999999997</ele>
        <time>2025-05-01T11:36:19Z</time>
      </trkpt>
      <trkpt lat="42.995617976412177" lon="-9.188711978495121">
        <ele>86.659999999999997</ele>
        <time>2025-05-01T11:36:20Z</time>
      </trkpt>
      <trkpt lat="42.995617976412177" lon="-9.188584992662072">
        <ele>86.180000000000007</ele>
        <time>2025-05-01T11:36:21Z</time>
      </trkpt>
      <trkpt lat="42.995642032474279" lon="-9.188434034585953">
        <ele>86.180000000000007</ele>
        <time>2025-05-01T11:36:22Z</time>
      </trkpt>
      <trkpt lat="42.995674973353744" lon="-9.188261032104492">
        <ele>85.689999999999998</ele>
        <time>2025-05-01T11:36:23Z</time>
      </trkpt>
      <trkpt lat="42.995990971103311" lon="-9.186697974801064">
        <ele>78.480000000000004</ele>
        <time>2025-05-01T11:36:30Z</time>
      </trkpt>
      <trkpt lat="42.996272016316652" lon="-9.185497015714645">
        <ele>75.599999999999994</ele>
        <time>2025-05-01T11:36:37Z</time>
      </trkpt>
      <trkpt lat="42.996239997446537" lon="-9.1853560321033">
        <ele>75.599999999999994</ele>
        <time>2025-05-01T11:36:38Z</time>
      </trkpt>
      <trkpt lat="42.996183000504971" lon="-9.185232985764742">
        <ele>76.079999999999998</ele>
        <time>2025-05-01T11:36:39Z</time>
      </trkpt>
      <trkpt lat="42.99611602909863" lon="-9.185086973011494">
        <ele>76.079999999999998</ele>
        <time>2025-05-01T11:36:40Z</time>
      </trkpt>
      <trkpt lat="42.996044028550386" lon="-9.184929979965091">
        <ele>76.560000000000002</ele>
        <time>2025-05-01T11:36:41Z</time>
      </trkpt>
      <trkpt lat="42.995045995339751" lon="-9.182770969346166">
        <ele>83.769999999999996</ele>
        <time>2025-05-01T11:36:53Z</time>
      </trkpt>
      <trkpt lat="42.994493963196874" lon="-9.181618960574269">
        <ele>94.349999999999994</ele>
        <time>2025-05-01T11:37:00Z</time>
      </trkpt>
      <trkpt lat="42.994450964033604" lon="-9.181529022753239">
        <ele>95.310000000000002</ele>
        <time>2025-05-01T11:37:01Z</time>
      </trkpt>
      <trkpt lat="42.994437972083688" lon="-9.181502033025026">
        <ele>95.790000000000006</ele>
        <time>2025-05-01T11:37:02Z</time>
      </trkpt>
      <trkpt lat="42.994392039254308" lon="-9.181388961151242">
        <ele>99.150000000000006</ele>
        <time>2025-05-01T11:37:10Z</time>
      </trkpt>
      <trkpt lat="42.994374018162489" lon="-9.181342022493482">
        <ele>100.59999999999999</ele>
        <time>2025-05-01T11:37:22Z</time>
      </trkpt>
      <trkpt lat="42.994360020384192" lon="-9.181281002238393">
        <ele>101.08</ele>
        <time>2025-05-01T11:37:23Z</time>
      </trkpt>
      <trkpt lat="42.994415005668998" lon="-9.181239008903503">
        <ele>101.56</ele>
        <time>2025-05-01T11:37:24Z</time>
      </trkpt>
      <trkpt lat="42.9944839887321" lon="-9.181186035275459">
        <ele>101.56</ele>
        <time>2025-05-01T11:37:25Z</time>
      </trkpt>
      <trkpt lat="42.994564035907388" lon="-9.18112400919199">
        <ele>102.04000000000001</ele>
        <time>2025-05-01T11:37:26Z</time>
      </trkpt>
      <trkpt lat="42.995284963399172" lon="-9.180576000362635">
        <ele>102.52</ele>
        <time>2025-05-01T11:37:32Z</time>
      </trkpt>
      <trkpt lat="42.996332030743361" lon="-9.179560029879212">
        <ele>101.56</ele>
        <time>2025-05-01T11:37:39Z</time>
      </trkpt>
      <trkpt lat="42.996662026271224" lon="-9.17931703850627">
        <ele>101.56</ele>
        <time>2025-05-01T11:37:41Z</time>
      </trkpt>
      <trkpt lat="42.996841985732317" lon="-9.17923104017973">
        <ele>101.08</ele>
        <time>2025-05-01T11:37:42Z</time>
      </trkpt>
      <trkpt lat="42.997024962678552" lon="-9.17914898134768">
        <ele>101.08</ele>
        <time>2025-05-01T11:37:43Z</time>
      </trkpt>
      <trkpt lat="42.998237991705537" lon="-9.17865302413702">
        <ele>98.189999999999998</ele>
        <time>2025-05-01T11:37:49Z</time>
      </trkpt>
      <trkpt lat="42.998442007228732" lon="-9.178508017212153">
        <ele>97.709999999999994</ele>
        <time>2025-05-01T11:37:50Z</time>
      </trkpt>
      <trkpt lat="43.000467997044325" lon="-9.177053002640605">
        <ele>97.230000000000004</ele>
        <time>2025-05-01T11:38:00Z</time>
      </trkpt>
      <trkpt lat="43.001867020502687" lon="-9.17631397023797">
        <ele>99.150000000000006</ele>
        <time>2025-05-01T11:38:07Z</time>
      </trkpt>
      <trkpt lat="43.003667034208775" lon="-9.175663031637669">
        <ele>103.48</ele>
        <time>2025-05-01T11:38:16Z</time>
      </trkpt>
      <trkpt lat="43.003866020590067" lon="-9.175584996119142">
        <ele>104.44</ele>
        <time>2025-05-01T11:38:17Z</time>
      </trkpt>
      <trkpt lat="43.004041034728289" lon="-9.175438983365893">
        <ele>104.92</ele>
        <time>2025-05-01T11:38:18Z</time>
      </trkpt>
      <trkpt lat="43.004200961440802" lon="-9.17530101723969">
        <ele>105.40000000000001</ele>
        <time>2025-05-01T11:38:19Z</time>
      </trkpt>
      <trkpt lat="43.004363989457488" lon="-9.175097001716495">
        <ele>105.40000000000001</ele>
        <time>2025-05-01T11:38:20Z</time>
      </trkpt>
      <trkpt lat="43.004512013867497" lon="-9.174898015335202">
        <ele>105.88</ele>
        <time>2025-05-01T11:38:21Z</time>
      </trkpt>
      <trkpt lat="43.004640005528927" lon="-9.174666004255414">
        <ele>106.36</ele>
        <time>2025-05-01T11:38:22Z</time>
      </trkpt>
      <trkpt lat="43.004764979705215" lon="-9.174425024539232">
        <ele>106.84</ele>
        <time>2025-05-01T11:38:23Z</time>
      </trkpt>
      <trkpt lat="43.00488299690187" lon="-9.174170969054103">
        <ele>107.81</ele>
        <time>2025-05-01T11:38:24Z</time>
      </trkpt>
      <trkpt lat="43.004994979128242" lon="-9.173900987952948">
        <ele>108.29000000000001</ele>
        <time>2025-05-01T11:38:25Z</time>
      </trkpt>
      <trkpt lat="43.005361016839743" lon="-9.173119040206075">
        <ele>109.25</ele>
        <time>2025-05-01T11:38:28Z</time>
      </trkpt>
      <trkpt lat="43.005518009886146" lon="-9.172877976670861">
        <ele>109.25</ele>
        <time>2025-05-01T11:38:29Z</time>
      </trkpt>
      <trkpt lat="43.005679026246071" lon="-9.172634985297918">
        <ele>109.25</ele>
        <time>2025-05-01T11:38:30Z</time>
      </trkpt>
      <trkpt lat="43.007027003914118" lon="-9.171273009851575">
        <ele>114.53</ele>
        <time>2025-05-01T11:38:37Z</time>
      </trkpt>
      <trkpt lat="43.007559003308415" lon="-9.170676972717047">
        <ele>117.42</ele>
        <time>2025-05-01T11:38:40Z</time>
      </trkpt>
      <trkpt lat="43.007705016061664" lon="-9.1704479791224">
        <ele>118.38</ele>
        <time>2025-05-01T11:38:41Z</time>
      </trkpt>
      <trkpt lat="43.007832001894712" lon="-9.170191995799542">
        <ele>119.34</ele>
        <time>2025-05-01T11:38:42Z</time>
      </trkpt>
      <trkpt lat="43.008600035682321" lon="-9.16868501342833">
        <ele>123.67</ele>
        <time>2025-05-01T11:38:48Z</time>
      </trkpt>
      <trkpt lat="43.00875099375844" lon="-9.168487032875419">
        <ele>124.63</ele>
        <time>2025-05-01T11:38:49Z</time>
      </trkpt>
      <trkpt lat="43.009492037817836" lon="-9.167507020756602">
        <ele>129.43000000000001</ele>
        <time>2025-05-01T11:38:54Z</time>
      </trkpt>
      <trkpt lat="43.009564960375428" lon="-9.167253971099854">
        <ele>130.40000000000001</ele>
        <time>2025-05-01T11:38:55Z</time>
      </trkpt>
      <trkpt lat="43.009638972580433" lon="-9.166983989998698">
        <ele>131.84</ele>
        <time>2025-05-01T11:38:56Z</time>
      </trkpt>
      <trkpt lat="43.009695969521999" lon="-9.166723983362317">
        <ele>132.80000000000001</ele>
        <time>2025-05-01T11:38:57Z</time>
      </trkpt>
      <trkpt lat="43.009705021977425" lon="-9.166435981169343">
        <ele>133.28</ele>
        <time>2025-05-01T11:38:58Z</time>
      </trkpt>
      <trkpt lat="43.009716002270579" lon="-9.166116965934634">
        <ele>133.75999999999999</ele>
        <time>2025-05-01T11:38:59Z</time>
      </trkpt>
      <trkpt lat="43.009716002270579" lon="-9.165861988440156">
        <ele>134.24000000000001</ele>
        <time>2025-05-01T11:39:00Z</time>
      </trkpt>
      <trkpt lat="43.009637966752052" lon="-9.162407973781228">
        <ele>135.19999999999999</ele>
        <time>2025-05-01T11:39:12Z</time>
      </trkpt>
      <trkpt lat="43.009810969233513" lon="-9.160577030852437">
        <ele>135.19999999999999</ele>
        <time>2025-05-01T11:39:19Z</time>
      </trkpt>
      <trkpt lat="43.01004096865654" lon="-9.159097960218787">
        <ele>136.63999999999999</ele>
        <time>2025-05-01T11:39:26Z</time>
      </trkpt>
      <trkpt lat="43.010521000251174" lon="-9.157585026696324">
        <ele>141.44999999999999</ele>
        <time>2025-05-01T11:39:35Z</time>
      </trkpt>
      <trkpt lat="43.010671958327293" lon="-9.156700987368822">
        <ele>145.78</ele>
        <time>2025-05-01T11:39:40Z</time>
      </trkpt>
      <trkpt lat="43.010681010782719" lon="-9.156517004594207">
        <ele>146.74000000000001</ele>
        <time>2025-05-01T11:39:41Z</time>
      </trkpt>
      <trkpt lat="43.010681010782719" lon="-9.156336961314082">
        <ele>147.22</ele>
        <time>2025-05-01T11:39:42Z</time>
      </trkpt>
      <trkpt lat="43.010665001347661" lon="-9.15615800768137">
        <ele>148.18000000000001</ele>
        <time>2025-05-01T11:39:43Z</time>
      </trkpt>
      <trkpt lat="43.01064002327621" lon="-9.15598601102829">
        <ele>148.66</ele>
        <time>2025-05-01T11:39:44Z</time>
      </trkpt>
      <trkpt lat="43.010611021891236" lon="-9.155809991061688">
        <ele>149.62</ele>
        <time>2025-05-01T11:39:45Z</time>
      </trkpt>
      <trkpt lat="43.010573973879218" lon="-9.155634976923466">
        <ele>150.09999999999999</ele>
        <time>2025-05-01T11:39:46Z</time>
      </trkpt>
      <trkpt lat="43.010093020275235" lon="-9.153633965179324">
        <ele>152.03</ele>
        <time>2025-05-01T11:39:57Z</time>
      </trkpt>
      <trkpt lat="43.010092014446855" lon="-9.152553034946322">
        <ele>149.62</ele>
        <time>2025-05-01T11:40:02Z</time>
      </trkpt>
      <trkpt lat="43.010123027488589" lon="-9.152339966967702">
        <ele>149.62</ele>
        <time>2025-05-01T11:40:03Z</time>
      </trkpt>
      <trkpt lat="43.010173989459872" lon="-9.152126982808113">
        <ele>149.13999999999999</ele>
        <time>2025-05-01T11:40:04Z</time>
      </trkpt>
      <trkpt lat="43.010781006887555" lon="-9.150308026000857">
        <ele>148.18000000000001</ele>
        <time>2025-05-01T11:40:13Z</time>
      </trkpt>
      <trkpt lat="43.01126598380506" lon="-9.148164018988609">
        <ele>151.53999999999999</ele>
        <time>2025-05-01T11:40:23Z</time>
      </trkpt>
      <trkpt lat="43.011352987959981" lon="-9.147963020950556">
        <ele>152.03</ele>
        <time>2025-05-01T11:40:24Z</time>
      </trkpt>
      <trkpt lat="43.011439992114902" lon="-9.147760011255741">
        <ele>152.50999999999999</ele>
        <time>2025-05-01T11:40:25Z</time>
      </trkpt>
      <trkpt lat="43.011549040675163" lon="-9.147572005167604">
        <ele>153.47</ele>
        <time>2025-05-01T11:40:26Z</time>
      </trkpt>
      <trkpt lat="43.011670997366309" lon="-9.147392967715859">
        <ele>153.94999999999999</ele>
        <time>2025-05-01T11:40:27Z</time>
      </trkpt>
      <trkpt lat="43.011805023998022" lon="-9.147232035174966">
        <ele>154.43000000000001</ele>
        <time>2025-05-01T11:40:28Z</time>
      </trkpt>
      <trkpt lat="43.012656960636377" lon="-9.145999979227781">
        <ele>157.31</ele>
        <time>2025-05-01T11:40:35Z</time>
      </trkpt>
      <trkpt lat="43.012737007811666" lon="-9.14578003808856">
        <ele>157.78999999999999</ele>
        <time>2025-05-01T11:40:36Z</time>
      </trkpt>
      <trkpt lat="43.012799033895135" lon="-9.145556995645165">
        <ele>158.27000000000001</ele>
        <time>2025-05-01T11:40:37Z</time>
      </trkpt>
      <trkpt lat="43.012856030836701" lon="-9.145322972908616">
        <ele>158.75</ele>
        <time>2025-05-01T11:40:38Z</time>
      </trkpt>
      <trkpt lat="43.01289701834321" lon="-9.145079981535673">
        <ele>159.24000000000001</ele>
        <time>2025-05-01T11:40:39Z</time>
      </trkpt>
      <trkpt lat="43.012911016121507" lon="-9.144818969070911">
        <ele>160.19999999999999</ele>
        <time>2025-05-01T11:40:40Z</time>
      </trkpt>
      <trkpt lat="43.012926019728184" lon="-9.144544964656234">
        <ele>161.16</ele>
        <time>2025-05-01T11:40:41Z</time>
      </trkpt>
      <trkpt lat="43.012909004464746" lon="-9.144265009090304">
        <ele>161.63999999999999</ele>
        <time>2025-05-01T11:40:42Z</time>
      </trkpt>
      <trkpt lat="43.012856030836701" lon="-9.143983963876963">
        <ele>162.59999999999999</ele>
        <time>2025-05-01T11:40:43Z</time>
      </trkpt>
      <trkpt lat="43.012801967561245" lon="-9.14369503967464">
        <ele>163.56</ele>
        <time>2025-05-01T11:40:44Z</time>
      </trkpt>
      <trkpt lat="43.012551013380289" lon="-9.142175987362862">
        <ele>169.33000000000001</ele>
        <time>2025-05-01T11:40:49Z</time>
      </trkpt>
      <trkpt lat="43.012533998116851" lon="-9.141856972128153">
        <ele>170.77000000000001</ele>
        <time>2025-05-01T11:40:50Z</time>
      </trkpt>
      <trkpt lat="43.012565011158586" lon="-9.141537034884095">
        <ele>172.21000000000001</ele>
        <time>2025-05-01T11:40:51Z</time>
      </trkpt>
      <trkpt lat="43.012602981179953" lon="-9.141220031306148">
        <ele>173.66</ele>
        <time>2025-05-01T11:40:52Z</time>
      </trkpt>
      <trkpt lat="43.01268202252686" lon="-9.140919037163258">
        <ele>175.09999999999999</ele>
        <time>2025-05-01T11:40:53Z</time>
      </trkpt>
      <trkpt lat="43.012769026681781" lon="-9.140623994171619">
        <ele>176.53999999999999</ele>
        <time>2025-05-01T11:40:54Z</time>
      </trkpt>
      <trkpt lat="43.012886038050056" lon="-9.14034596644342">
        <ele>178.46000000000001</ele>
        <time>2025-05-01T11:40:55Z</time>
      </trkpt>
      <trkpt lat="43.013014029711485" lon="-9.140072967857122">
        <ele>179.90000000000001</ele>
        <time>2025-05-01T11:40:56Z</time>
      </trkpt>
      <trkpt lat="43.013169011101127" lon="-9.139826958999038">
        <ele>181.34999999999999</ele>
        <time>2025-05-01T11:40:57Z</time>
      </trkpt>
      <trkpt lat="43.013323992490768" lon="-9.139580028131604">
        <ele>183.27000000000001</ele>
        <time>2025-05-01T11:40:58Z</time>
      </trkpt>
      <trkpt lat="43.013494983315468" lon="-9.139346005395055">
        <ele>184.71000000000001</ele>
        <time>2025-05-01T11:40:59Z</time>
      </trkpt>
      <trkpt lat="43.014065036550164" lon="-9.138317964971066">
        <ele>190</ele>
        <time>2025-05-01T11:41:03Z</time>
      </trkpt>
      <trkpt lat="43.014168972149491" lon="-9.138027029111981">
        <ele>190.96000000000001</ele>
        <time>2025-05-01T11:41:04Z</time>
      </trkpt>
      <trkpt lat="43.014467032626271" lon="-9.1368000023067">
        <ele>194.31999999999999</ele>
        <time>2025-05-01T11:41:08Z</time>
      </trkpt>
      <trkpt lat="43.014661995694041" lon="-9.136213017627597">
        <ele>195.77000000000001</ele>
        <time>2025-05-01T11:41:10Z</time>
      </trkpt>
      <trkpt lat="43.015129035338759" lon="-9.135128986090422">
        <ele>198.65000000000001</ele>
        <time>2025-05-01T11:41:14Z</time>
      </trkpt>
      <trkpt lat="43.015199024230242" lon="-9.134834026917815">
        <ele>199.13</ele>
        <time>2025-05-01T11:41:15Z</time>
      </trkpt>
      <trkpt lat="43.015259960666299" lon="-9.13454401306808">
        <ele>199.61000000000001</ele>
        <time>2025-05-01T11:41:16Z</time>
      </trkpt>
      <trkpt lat="43.015294997021556" lon="-9.13424301892519">
        <ele>200.09</ele>
        <time>2025-05-01T11:41:17Z</time>
      </trkpt>
      <trkpt lat="43.015290973708034" lon="-9.133941018953919">
        <ele>200.56999999999999</ele>
        <time>2025-05-01T11:41:18Z</time>
      </trkpt>
      <trkpt lat="43.015259960666299" lon="-9.133646981790662">
        <ele>201.05000000000001</ele>
        <time>2025-05-01T11:41:19Z</time>
      </trkpt>
      <trkpt lat="43.015220984816551" lon="-9.133347999304533">
        <ele>201.05000000000001</ele>
        <time>2025-05-01T11:41:20Z</time>
      </trkpt>
      <trkpt lat="43.015126017853618" lon="-9.133097967132926">
        <ele>201.05000000000001</ele>
        <time>2025-05-01T11:41:21Z</time>
      </trkpt>
      <trkpt lat="43.015029961243272" lon="-9.13284600712359">
        <ele>200.56999999999999</ele>
        <time>2025-05-01T11:41:22Z</time>
      </trkpt>
      <trkpt lat="43.0149179790169" lon="-9.132612990215421">
        <ele>200.09</ele>
        <time>2025-05-01T11:41:23Z</time>
      </trkpt>
      <trkpt lat="43.014797028154135" lon="-9.132394976913929">
        <ele>200.09</ele>
        <time>2025-05-01T11:41:24Z</time>
      </trkpt>
      <trkpt lat="43.014655038714409" lon="-9.13220202550292">
        <ele>199.13</ele>
        <time>2025-05-01T11:41:25Z</time>
      </trkpt>
      <trkpt lat="43.014512965455651" lon="-9.132019970566034">
        <ele>198.16999999999999</ele>
        <time>2025-05-01T11:41:26Z</time>
      </trkpt>
      <trkpt lat="43.014226974919438" lon="-9.131662985309959">
        <ele>195.77000000000001</ele>
        <time>2025-05-01T11:41:28Z</time>
      </trkpt>
      <trkpt lat="43.014108035713434" lon="-9.131454024463892">
        <ele>194.31999999999999</ele>
        <time>2025-05-01T11:41:29Z</time>
      </trkpt>
      <trkpt lat="43.01399203017354" lon="-9.131231987848878">
        <ele>193.36000000000001</ele>
        <time>2025-05-01T11:41:30Z</time>
      </trkpt>
      <trkpt lat="43.01388499327004" lon="-9.130993019789457">
        <ele>191.91999999999999</ele>
        <time>2025-05-01T11:41:31Z</time>
      </trkpt>
      <trkpt lat="43.013801006600261" lon="-9.130748016759753">
        <ele>190.47999999999999</ele>
        <time>2025-05-01T11:41:32Z</time>
      </trkpt>
      <trkpt lat="43.01373302936554" lon="-9.130489015951753">
        <ele>189.52000000000001</ele>
        <time>2025-05-01T11:41:33Z</time>
      </trkpt>
      <trkpt lat="43.013681983575225" lon="-9.130233032628894">
        <ele>188.08000000000001</ele>
        <time>2025-05-01T11:41:34Z</time>
      </trkpt>
      <trkpt lat="43.013668991625309" lon="-9.129959028214216">
        <ele>187.11000000000001</ele>
        <time>2025-05-01T11:41:35Z</time>
      </trkpt>
      <trkpt lat="43.013672009110451" lon="-9.12968804128468">
        <ele>185.66999999999999</ele>
        <time>2025-05-01T11:41:36Z</time>
      </trkpt>
      <trkpt lat="43.013685001060367" lon="-9.129414036870003">
        <ele>184.71000000000001</ele>
        <time>2025-05-01T11:41:37Z</time>
      </trkpt>
      <trkpt lat="43.013753984123468" lon="-9.129161993041635">
        <ele>182.78999999999999</ele>
        <time>2025-05-01T11:41:38Z</time>
      </trkpt>
      <trkpt lat="43.013825984671712" lon="-9.128909027203918">
        <ele>181.34999999999999</ele>
        <time>2025-05-01T11:41:39Z</time>
      </trkpt>
      <trkpt lat="43.013899996876717" lon="-9.128652038052678">
        <ele>179.90000000000001</ele>
        <time>2025-05-01T11:41:40Z</time>
      </trkpt>
      <trkpt lat="43.014009967446327" lon="-9.128441987559199">
        <ele>177.97999999999999</ele>
        <time>2025-05-01T11:41:41Z</time>
      </trkpt>
      <trkpt lat="43.01412396132946" lon="-9.128232020884752">
        <ele>176.53999999999999</ele>
        <time>2025-05-01T11:41:42Z</time>
      </trkpt>
      <trkpt lat="43.014265028759837" lon="-9.128047032281756">
        <ele>175.09999999999999</ele>
        <time>2025-05-01T11:41:43Z</time>
      </trkpt>
      <trkpt lat="43.014416992664337" lon="-9.127874029800296">
        <ele>173.66</ele>
        <time>2025-05-01T11:41:44Z</time>
      </trkpt>
      <trkpt lat="43.015572018921375" lon="-9.126327987760305">
        <ele>164.03999999999999</ele>
        <time>2025-05-01T11:41:52Z</time>
      </trkpt>
      <trkpt lat="43.015858009457588" lon="-9.125605970621109">
        <ele>164.03999999999999</ele>
        <time>2025-05-01T11:41:55Z</time>
      </trkpt>
      <trkpt lat="43.016414986923337" lon="-9.122910015285015">
        <ele>176.06</ele>
        <time>2025-05-01T11:42:06Z</time>
      </trkpt>
      <trkpt lat="43.016919996589422" lon="-9.120886037126184">
        <ele>189.03999999999999</ele>
        <time>2025-05-01T11:42:14Z</time>
      </trkpt>
      <trkpt lat="43.017046982422471" lon="-9.12064396776259">
        <ele>190.47999999999999</ele>
        <time>2025-05-01T11:42:15Z</time>
      </trkpt>
      <trkpt lat="43.017186960205436" lon="-9.120412040501833">
        <ele>192.40000000000001</ele>
        <time>2025-05-01T11:42:16Z</time>
      </trkpt>
      <trkpt lat="43.017336996272206" lon="-9.120185980573297">
        <ele>193.84</ele>
        <time>2025-05-01T11:42:17Z</time>
      </trkpt>
      <trkpt lat="43.017506981268525" lon="-9.119984982535243">
        <ele>195.28</ele>
        <time>2025-05-01T11:42:18Z</time>
      </trkpt>
      <trkpt lat="43.017700016498566" lon="-9.119813991710544">
        <ele>196.72999999999999</ele>
        <time>2025-05-01T11:42:19Z</time>
      </trkpt>
      <trkpt lat="43.017897997051477" lon="-9.119649035856128">
        <ele>198.16999999999999</ele>
        <time>2025-05-01T11:42:20Z</time>
      </trkpt>
      <trkpt lat="43.018111987039447" lon="-9.11950696259737">
        <ele>200.09</ele>
        <time>2025-05-01T11:42:21Z</time>
      </trkpt>
      <trkpt lat="43.019473040476441" lon="-9.118363000452519">
        <ele>211.15000000000001</ele>
        <time>2025-05-01T11:42:28Z</time>
      </trkpt>
      <trkpt lat="43.019649982452393" lon="-9.118158984929323">
        <ele>212.59</ele>
        <time>2025-05-01T11:42:29Z</time>
      </trkpt>
      <trkpt lat="43.019781997427344" lon="-9.117914987728">
        <ele>213.55000000000001</ele>
        <time>2025-05-01T11:42:30Z</time>
      </trkpt>
      <trkpt lat="43.019916024059057" lon="-9.117662021890283">
        <ele>214.50999999999999</ele>
        <time>2025-05-01T11:42:31Z</time>
      </trkpt>
      <trkpt lat="43.020038986578584" lon="-9.11740000359714">
        <ele>215.47</ele>
        <time>2025-05-01T11:42:32Z</time>
      </trkpt>
      <trkpt lat="43.020134037360549" lon="-9.117110995575786">
        <ele>216.43000000000001</ele>
        <time>2025-05-01T11:42:33Z</time>
      </trkpt>
      <trkpt lat="43.020787993445992" lon="-9.114982997998595">
        <ele>222.68000000000001</ele>
        <time>2025-05-01T11:42:40Z</time>
      </trkpt>
      <trkpt lat="43.020946998149157" lon="-9.114725003018975">
        <ele>223.63999999999999</ele>
        <time>2025-05-01T11:42:41Z</time>
      </trkpt>
      <trkpt lat="43.021100973710418" lon="-9.114472959190607">
        <ele>224.12</ele>
        <time>2025-05-01T11:42:42Z</time>
      </trkpt>
      <trkpt lat="43.02127699367702" lon="-9.114246983081102">
        <ele>225.09</ele>
        <time>2025-05-01T11:42:43Z</time>
      </trkpt>
      <trkpt lat="43.021463993936777" lon="-9.114050008356571">
        <ele>225.09</ele>
        <time>2025-05-01T11:42:44Z</time>
      </trkpt>
      <trkpt lat="43.021672032773495" lon="-9.113895026966929">
        <ele>225.56999999999999</ele>
        <time>2025-05-01T11:42:45Z</time>
      </trkpt>
      <trkpt lat="43.021887028589845" lon="-9.113754965364933">
        <ele>226.05000000000001</ele>
        <time>2025-05-01T11:42:46Z</time>
      </trkpt>
      <trkpt lat="43.022111998870969" lon="-9.113630997017026">
        <ele>226.53</ele>
        <time>2025-05-01T11:42:47Z</time>
      </trkpt>
      <trkpt lat="43.024179982021451" lon="-9.112611003220081">
        <ele>229.41</ele>
        <time>2025-05-01T11:42:56Z</time>
      </trkpt>
      <trkpt lat="43.026292975991964" lon="-9.111613975837827">
        <ele>238.06</ele>
        <time>2025-05-01T11:43:06Z</time>
      </trkpt>
      <trkpt lat="43.026936035603285" lon="-9.111549016088247">
        <ele>237.58000000000001</ele>
        <time>2025-05-01T11:43:09Z</time>
      </trkpt>
      <trkpt lat="43.027154970914125" lon="-9.111568965017796">
        <ele>237.58000000000001</ele>
        <time>2025-05-01T11:43:10Z</time>
      </trkpt>
      <trkpt lat="43.027366027235985" lon="-9.111636020243168">
        <ele>237.09999999999999</ele>
        <time>2025-05-01T11:43:11Z</time>
      </trkpt>
      <trkpt lat="43.027579011395574" lon="-9.111723024398089">
        <ele>236.62</ele>
        <time>2025-05-01T11:43:12Z</time>
      </trkpt>
      <trkpt lat="43.027781015262008" lon="-9.111867025494576">
        <ele>236.13999999999999</ele>
        <time>2025-05-01T11:43:13Z</time>
      </trkpt>
      <trkpt lat="43.028990020975471" lon="-9.11286598071456">
        <ele>230.84999999999999</ele>
        <time>2025-05-01T11:43:19Z</time>
      </trkpt>
      <trkpt lat="43.030248982831836" lon="-9.113758988678455">
        <ele>227.49000000000001</ele>
        <time>2025-05-01T11:43:25Z</time>
      </trkpt>
      <trkpt lat="43.030483005568385" lon="-9.113792013376951">
        <ele>227.00999999999999</ele>
        <time>2025-05-01T11:43:26Z</time>
      </trkpt>
      <trkpt lat="43.030711999163032" lon="-9.113823026418686">
        <ele>227.00999999999999</ele>
        <time>2025-05-01T11:43:27Z</time>
      </trkpt>
      <trkpt lat="43.030938981100917" lon="-9.113781033083797">
        <ele>226.05000000000001</ele>
        <time>2025-05-01T11:43:28Z</time>
      </trkpt>
      <trkpt lat="43.031169986352324" lon="-9.113735016435385">
        <ele>225.56999999999999</ele>
        <time>2025-05-01T11:43:29Z</time>
      </trkpt>
      <trkpt lat="43.031391017138958" lon="-9.11368296481669">
        <ele>225.09</ele>
        <time>2025-05-01T11:43:30Z</time>
      </trkpt>
      <trkpt lat="43.031610958278179" lon="-9.113580035045743">
        <ele>224.61000000000001</ele>
        <time>2025-05-01T11:43:31Z</time>
      </trkpt>
      <trkpt lat="43.031820002943277" lon="-9.113461012020707">
        <ele>224.12</ele>
        <time>2025-05-01T11:43:32Z</time>
      </trkpt>
      <trkpt lat="43.033552961423993" lon="-9.112353008240461">
        <ele>220.28</ele>
        <time>2025-05-01T11:43:41Z</time>
      </trkpt>
      <trkpt lat="43.035741979256272" lon="-9.11097502335906">
        <ele>214.03</ele>
        <time>2025-05-01T11:43:52Z</time>
      </trkpt>
      <trkpt lat="43.037365972995758" lon="-9.110301034525037">
        <ele>208.25999999999999</ele>
        <time>2025-05-01T11:43:59Z</time>
      </trkpt>
      <trkpt lat="43.040264016017318" lon="-9.109425041824579">
        <ele>199.61000000000001</ele>
        <time>2025-05-01T11:44:11Z</time>
      </trkpt>
      <trkpt lat="43.041474027559161" lon="-9.108466990292072">
        <ele>196.72999999999999</ele>
        <time>2025-05-01T11:44:17Z</time>
      </trkpt>
      <trkpt lat="43.043002970516682" lon="-9.107038965448737">
        <ele>191.91999999999999</ele>
        <time>2025-05-01T11:44:26Z</time>
      </trkpt>
      <trkpt lat="43.044328987598419" lon="-9.106366988271475">
        <ele>188.08000000000001</ele>
        <time>2025-05-01T11:44:33Z</time>
      </trkpt>
      <trkpt lat="43.04512501694262" lon="-9.106059037148953">
        <ele>186.15000000000001</ele>
        <time>2025-05-01T11:44:37Z</time>
      </trkpt>
      <trkpt lat="43.045307993888855" lon="-9.105921993032098">
        <ele>185.66999999999999</ele>
        <time>2025-05-01T11:44:38Z</time>
      </trkpt>
      <trkpt lat="43.045477978885174" lon="-9.105784026905894">
        <ele>185.19</ele>
        <time>2025-05-01T11:44:39Z</time>
      </trkpt>
      <trkpt lat="43.045638995245099" lon="-9.105618987232447">
        <ele>185.19</ele>
        <time>2025-05-01T11:44:40Z</time>
      </trkpt>
      <trkpt lat="43.045800011605024" lon="-9.10545302554965">
        <ele>184.71000000000001</ele>
        <time>2025-05-01T11:44:41Z</time>
      </trkpt>
      <trkpt lat="43.047331972047687" lon="-9.103684024885297">
        <ele>184.22999999999999</ele>
        <time>2025-05-01T11:44:51Z</time>
      </trkpt>
      <trkpt lat="43.048744993284345" lon="-9.101787032559514">
        <ele>189.52000000000001</ele>
        <time>2025-05-01T11:45:00Z</time>
      </trkpt>
      <trkpt lat="43.050206964835525" lon="-9.099196018651128">
        <ele>203.94</ele>
        <time>2025-05-01T11:45:11Z</time>
      </trkpt>
      <trkpt lat="43.051199968904257" lon="-9.098014002665877">
        <ele>214.03</ele>
        <time>2025-05-01T11:45:17Z</time>
      </trkpt>
      <trkpt lat="43.05292597040534" lon="-9.096930976957083">
        <ele>222.19999999999999</ele>
        <time>2025-05-01T11:45:25Z</time>
      </trkpt>
      <trkpt lat="43.053892990574241" lon="-9.096233015879989">
        <ele>227.00999999999999</ele>
        <time>2025-05-01T11:45:30Z</time>
      </trkpt>
      <trkpt lat="43.054065993055701" lon="-9.096061019226909">
        <ele>227.97</ele>
        <time>2025-05-01T11:45:31Z</time>
      </trkpt>
      <trkpt lat="43.054214017465711" lon="-9.095847029238939">
        <ele>228.93000000000001</ele>
        <time>2025-05-01T11:45:32Z</time>
      </trkpt>
      <trkpt lat="43.054351983591914" lon="-9.095617029815912">
        <ele>229.41</ele>
        <time>2025-05-01T11:45:33Z</time>
      </trkpt>
      <trkpt lat="43.054461032152176" lon="-9.095357023179531">
        <ele>229.88999999999999</ele>
        <time>2025-05-01T11:45:34Z</time>
      </trkpt>
      <trkpt lat="43.054573014378548" lon="-9.095089975744486">
        <ele>230.37</ele>
        <time>2025-05-01T11:45:35Z</time>
      </trkpt>
      <trkpt lat="43.054677033796906" lon="-9.094805996865034">
        <ele>230.84999999999999</ele>
        <time>2025-05-01T11:45:36Z</time>
      </trkpt>
      <trkpt lat="43.05569501593709" lon="-9.091619029641151">
        <ele>236.62</ele>
        <time>2025-05-01T11:45:47Z</time>
      </trkpt>
      <trkpt lat="43.056457014754415" lon="-9.088617973029614">
        <ele>235.18000000000001</ele>
        <time>2025-05-01T11:45:58Z</time>
      </trkpt>
      <trkpt lat="43.056803019717336" lon="-9.087393041700125">
        <ele>233.74000000000001</ele>
        <time>2025-05-01T11:46:04Z</time>
      </trkpt>
      <trkpt lat="43.05750198662281" lon="-9.086466003209353">
        <ele>231.33000000000001</ele>
        <time>2025-05-01T11:46:12Z</time>
      </trkpt>
      <trkpt lat="43.0583590362221" lon="-9.085920006036758">
        <ele>229.41</ele>
        <time>2025-05-01T11:46:20Z</time>
      </trkpt>
      <trkpt lat="43.058443022891879" lon="-9.08577399328351">
        <ele>228.93000000000001</ele>
        <time>2025-05-01T11:46:21Z</time>
      </trkpt>
      <trkpt lat="43.058462971821427" lon="-9.085656981915236">
        <ele>228.93000000000001</ele>
        <time>2025-05-01T11:46:22Z</time>
      </trkpt>
      <trkpt lat="43.058458026498556" lon="-9.085537036880851">
        <ele>228.44999999999999</ele>
        <time>2025-05-01T11:46:23Z</time>
      </trkpt>
      <trkpt lat="43.05844503454864" lon="-9.08540896140039">
        <ele>228.44999999999999</ele>
        <time>2025-05-01T11:46:24Z</time>
      </trkpt>
      <trkpt lat="43.05842399597168" lon="-9.085200000554323">
        <ele>228.44999999999999</ele>
        <time>2025-05-01T11:46:25Z</time>
      </trkpt>
      <trkpt lat="43.058364987373352" lon="-9.08512800000608">
        <ele>228.44999999999999</ele>
        <time>2025-05-01T11:46:26Z</time>
      </trkpt>
      <trkpt lat="43.058270020410419" lon="-9.085010988637805">
        <ele>228.44999999999999</ele>
        <time>2025-05-01T11:46:27Z</time>
      </trkpt>
      <trkpt lat="43.058150997385383" lon="-9.084900012239814">
        <ele>228.44999999999999</ele>
        <time>2025-05-01T11:46:28Z</time>
      </trkpt>
      <trkpt lat="43.056993959471583" lon="-9.083828972652555">
        <ele>226.05000000000001</ele>
        <time>2025-05-01T11:46:36Z</time>
      </trkpt>
      <trkpt lat="43.05681299418211" lon="-9.083707015961409">
        <ele>225.09</ele>
        <time>2025-05-01T11:46:37Z</time>
      </trkpt>
      <trkpt lat="43.055181037634611" lon="-9.082837980240583">
        <ele>221.24000000000001</ele>
        <time>2025-05-01T11:46:46Z</time>
      </trkpt>
      <trkpt lat="43.054999988526106" lon="-9.082796992734075">
        <ele>221.72</ele>
        <time>2025-05-01T11:46:47Z</time>
      </trkpt>
      <trkpt lat="43.054809970781207" lon="-9.082796992734075">
        <ele>222.19999999999999</ele>
        <time>2025-05-01T11:46:48Z</time>
      </trkpt>
      <trkpt lat="43.053834987804294" lon="-9.08274301327765">
        <ele>228.93000000000001</ele>
        <time>2025-05-01T11:46:53Z</time>
      </trkpt>
      <trkpt lat="43.053641030564904" lon="-9.082670006901026">
        <ele>230.37</ele>
        <time>2025-05-01T11:46:54Z</time>
      </trkpt>
      <trkpt lat="43.053451012820005" lon="-9.082590965554118">
        <ele>231.33000000000001</ele>
        <time>2025-05-01T11:46:55Z</time>
      </trkpt>
      <trkpt lat="43.053271975368261" lon="-9.082457022741437">
        <ele>232.78</ele>
        <time>2025-05-01T11:46:56Z</time>
      </trkpt>
      <trkpt lat="43.053098972886801" lon="-9.082312015816569">
        <ele>233.74000000000001</ele>
        <time>2025-05-01T11:46:57Z</time>
      </trkpt>
      <trkpt lat="43.052950026467443" lon="-9.082114035263658">
        <ele>235.66</ele>
        <time>2025-05-01T11:46:58Z</time>
      </trkpt>
      <trkpt lat="43.052798984572291" lon="-9.081912031397224">
        <ele>236.62</ele>
        <time>2025-05-01T11:46:59Z</time>
      </trkpt>
      <trkpt lat="43.05238600820303" lon="-9.081284981220961">
        <ele>240.47</ele>
        <time>2025-05-01T11:47:02Z</time>
      </trkpt>
      <trkpt lat="43.052275031805038" lon="-9.081050958484411">
        <ele>241.91</ele>
        <time>2025-05-01T11:47:03Z</time>
      </trkpt>
      <trkpt lat="43.052184004336596" lon="-9.080800004303455">
        <ele>243.34999999999999</ele>
        <time>2025-05-01T11:47:04Z</time>
      </trkpt>
      <trkpt lat="43.052102029323578" lon="-9.080538991838694">
        <ele>244.31</ele>
        <time>2025-05-01T11:47:05Z</time>
      </trkpt>
      <trkpt lat="43.052041009068489" lon="-9.080264987424016">
        <ele>245.27000000000001</ele>
        <time>2025-05-01T11:47:06Z</time>
      </trkpt>
      <trkpt lat="43.052006978541613" lon="-9.079982014372945">
        <ele>246.72</ele>
        <time>2025-05-01T11:47:07Z</time>
      </trkpt>
      <trkpt lat="43.051707996055484" lon="-9.077689982950687">
        <ele>255.84999999999999</ele>
        <time>2025-05-01T11:47:15Z</time>
      </trkpt>
      <trkpt lat="43.05161202326417" lon="-9.077425030991435">
        <ele>256.81</ele>
        <time>2025-05-01T11:47:16Z</time>
      </trkpt>
      <trkpt lat="43.051519989967346" lon="-9.077171981334686">
        <ele>257.76999999999998</ele>
        <time>2025-05-01T11:47:17Z</time>
      </trkpt>
      <trkpt lat="43.051415970548987" lon="-9.076927984133363">
        <ele>258.73000000000002</ele>
        <time>2025-05-01T11:47:18Z</time>
      </trkpt>
      <trkpt lat="43.051280016079545" lon="-9.076717011630535">
        <ele>259.20999999999998</ele>
        <time>2025-05-01T11:47:19Z</time>
      </trkpt>
      <trkpt lat="43.051111036911607" lon="-9.07655599527061">
        <ele>260.17000000000002</ele>
        <time>2025-05-01T11:47:20Z</time>
      </trkpt>
      <trkpt lat="43.050943985581398" lon="-9.076411994174123">
        <ele>261.13999999999999</ele>
        <time>2025-05-01T11:47:21Z</time>
      </trkpt>
      <trkpt lat="43.05077601224184" lon="-9.076267993077636">
        <ele>262.10000000000002</ele>
        <time>2025-05-01T11:47:22Z</time>
      </trkpt>
      <trkpt lat="43.049015980213881" lon="-9.075034009292722">
        <ele>275.56</ele>
        <time>2025-05-01T11:47:32Z</time>
      </trkpt>
      <trkpt lat="43.047537999227643" lon="-9.074222976341844">
        <ele>287.08999999999997</ele>
        <time>2025-05-01T11:47:39Z</time>
      </trkpt>
      <trkpt lat="43.04639495909214" lon="-9.073885018005967">
        <ele>295.25999999999999</ele>
        <time>2025-05-01T11:47:44Z</time>
      </trkpt>
      <trkpt lat="43.046174012124538" lon="-9.073759960010648">
        <ele>296.69999999999999</ele>
        <time>2025-05-01T11:47:45Z</time>
      </trkpt>
      <trkpt lat="43.045965973287821" lon="-9.073607996106148">
        <ele>298.14999999999998</ele>
        <time>2025-05-01T11:47:46Z</time>
      </trkpt>
      <trkpt lat="43.045766986906528" lon="-9.073427030816674">
        <ele>299.58999999999997</ele>
        <time>2025-05-01T11:47:47Z</time>
      </trkpt>
      <trkpt lat="43.045570012181997" lon="-9.07324698753655">
        <ele>300.55000000000001</ele>
        <time>2025-05-01T11:47:48Z</time>
      </trkpt>
      <trkpt lat="43.045388041064143" lon="-9.07303299754858">
        <ele>301.99000000000001</ele>
        <time>2025-05-01T11:47:49Z</time>
      </trkpt>
      <trkpt lat="43.045204980298877" lon="-9.07281800173223">
        <ele>302.94999999999999</ele>
        <time>2025-05-01T11:47:50Z</time>
      </trkpt>
      <trkpt lat="43.043972002342343" lon="-9.071321999654174">
        <ele>310.16000000000003</ele>
        <time>2025-05-01T11:47:57Z</time>
      </trkpt>
      <trkpt lat="43.043766980990767" lon="-9.071185039356351">
        <ele>311.12</ele>
        <time>2025-05-01T11:47:58Z</time>
      </trkpt>
      <trkpt lat="43.041893960908055" lon="-9.070170996710658">
        <ele>315.44999999999999</ele>
        <time>2025-05-01T11:48:07Z</time>
      </trkpt>
      <trkpt lat="43.040533997118473" lon="-9.069447973743081">
        <ele>315.93000000000001</ele>
        <time>2025-05-01T11:48:15Z</time>
      </trkpt>
      <trkpt lat="43.038730965927243" lon="-9.068291019648314">
        <ele>319.30000000000001</ele>
        <time>2025-05-01T11:48:27Z</time>
      </trkpt>
      <trkpt lat="43.038403987884521" lon="-9.068062026053667">
        <ele>320.74000000000001</ele>
        <time>2025-05-01T11:48:29Z</time>
      </trkpt>
      <trkpt lat="43.0382289737463" lon="-9.067957000806928">
        <ele>321.22000000000003</ele>
        <time>2025-05-01T11:48:30Z</time>
      </trkpt>
      <trkpt lat="43.038040967658162" lon="-9.067874019965529">
        <ele>322.18000000000001</ele>
        <time>2025-05-01T11:48:31Z</time>
      </trkpt>
      <trkpt lat="43.036732971668243" lon="-9.066966008394957">
        <ele>327.94999999999999</ele>
        <time>2025-05-01T11:48:38Z</time>
      </trkpt>
      <trkpt lat="43.036453016102314" lon="-9.066538028419018">
        <ele>330.35000000000002</ele>
        <time>2025-05-01T11:48:40Z</time>
      </trkpt>
      <trkpt lat="43.03534802980721" lon="-9.064516983926296">
        <ele>344.76999999999998</ele>
        <time>2025-05-01T11:48:49Z</time>
      </trkpt>
      <trkpt lat="43.034459967166185" lon="-9.062686040997505">
        <ele>356.31</ele>
        <time>2025-05-01T11:48:57Z</time>
      </trkpt>
      <trkpt lat="43.034012960270047" lon="-9.060740014538169">
        <ele>365.44</ele>
        <time>2025-05-01T11:49:04Z</time>
      </trkpt>
      <trkpt lat="43.033595038577914" lon="-9.057740969583392">
        <ele>381.77999999999997</ele>
        <time>2025-05-01T11:49:14Z</time>
      </trkpt>
      <trkpt lat="43.03350199945271" lon="-9.056561971083283">
        <ele>387.55000000000001</ele>
        <time>2025-05-01T11:49:18Z</time>
      </trkpt>
      <trkpt lat="43.033527983352542" lon="-9.056272963061929">
        <ele>389.47000000000003</ele>
        <time>2025-05-01T11:49:19Z</time>
      </trkpt>
      <trkpt lat="43.033553967252374" lon="-9.055982027202845">
        <ele>390.91000000000003</ele>
        <time>2025-05-01T11:49:20Z</time>
      </trkpt>
      <trkpt lat="43.033640971407294" lon="-9.054801017045975">
        <ele>397.16000000000003</ele>
        <time>2025-05-01T11:49:24Z</time>
      </trkpt>
      <trkpt lat="43.033619010820985" lon="-9.054499017074704">
        <ele>398.60000000000002</ele>
        <time>2025-05-01T11:49:25Z</time>
      </trkpt>
      <trkpt lat="43.033597972244024" lon="-9.054215038195252">
        <ele>400.05000000000001</ele>
        <time>2025-05-01T11:49:26Z</time>
      </trkpt>
      <trkpt lat="43.033541981130838" lon="-9.053895017132163">
        <ele>401.49000000000001</ele>
        <time>2025-05-01T11:49:27Z</time>
      </trkpt>
      <trkpt lat="43.033489007502794" lon="-9.053584970533848">
        <ele>402.93000000000001</ele>
        <time>2025-05-01T11:49:28Z</time>
      </trkpt>
      <trkpt lat="43.033211985602975" lon="-9.050797987729311">
        <ele>415.43000000000001</ele>
        <time>2025-05-01T11:49:37Z</time>
      </trkpt>
      <trkpt lat="43.033337965607643" lon="-9.049582025036216">
        <ele>418.79000000000002</ele>
        <time>2025-05-01T11:49:41Z</time>
      </trkpt>
      <trkpt lat="43.033409966155887" lon="-9.049284970387816">
        <ele>418.79000000000002</ele>
        <time>2025-05-01T11:49:42Z</time>
      </trkpt>
      <trkpt lat="43.033492024987936" lon="-9.048999985679984">
        <ele>418.31</ele>
        <time>2025-05-01T11:49:43Z</time>
      </trkpt>
      <trkpt lat="43.033624961972237" lon="-9.048745008185506">
        <ele>418.31</ele>
        <time>2025-05-01T11:49:44Z</time>
      </trkpt>
      <trkpt lat="43.033748008310795" lon="-9.048506962135434">
        <ele>417.35000000000002</ele>
        <time>2025-05-01T11:49:45Z</time>
      </trkpt>
      <trkpt lat="43.033940037712455" lon="-9.048294983804226">
        <ele>416.38999999999999</ele>
        <time>2025-05-01T11:49:46Z</time>
      </trkpt>
      <trkpt lat="43.034131983295083" lon="-9.048102032393217">
        <ele>415.43000000000001</ele>
        <time>2025-05-01T11:49:47Z</time>
      </trkpt>
      <trkpt lat="43.034333987161517" lon="-9.04791695997119">
        <ele>413.98000000000002</ele>
        <time>2025-05-01T11:49:48Z</time>
      </trkpt>
      <trkpt lat="43.034532973542809" lon="-9.047738006338477">
        <ele>412.54000000000002</ele>
        <time>2025-05-01T11:49:49Z</time>
      </trkpt>
      <trkpt lat="43.035252979025245" lon="-9.046921022236347">
        <ele>406.29000000000002</ele>
        <time>2025-05-01T11:49:53Z</time>
      </trkpt>
      <trkpt lat="43.035418018698692" lon="-9.046677025035024">
        <ele>404.37</ele>
        <time>2025-05-01T11:49:54Z</time>
      </trkpt>
      <trkpt lat="43.035556990653276" lon="-9.046391034498811">
        <ele>402.44999999999999</ele>
        <time>2025-05-01T11:49:55Z</time>
      </trkpt>
      <trkpt lat="43.035674002021551" lon="-9.04608802869916">
        <ele>400.52999999999997</ele>
        <time>2025-05-01T11:49:56Z</time>
      </trkpt>
      <trkpt lat="43.035789001733065" lon="-9.045788962393999">
        <ele>398.12</ele>
        <time>2025-05-01T11:49:57Z</time>
      </trkpt>
      <trkpt lat="43.035870976746082" lon="-9.045470030978322">
        <ele>395.72000000000003</ele>
        <time>2025-05-01T11:49:58Z</time>
      </trkpt>
      <trkpt lat="43.035924034193158" lon="-9.045134000480175">
        <ele>392.83999999999997</ele>
        <time>2025-05-01T11:49:59Z</time>
      </trkpt>
      <trkpt lat="43.035956975072622" lon="-9.044790007174015">
        <ele>389.94999999999999</ele>
        <time>2025-05-01T11:50:00Z</time>
      </trkpt>
      <trkpt lat="43.035988993942738" lon="-9.044448025524616">
        <ele>387.55000000000001</ele>
        <time>2025-05-01T11:50:01Z</time>
      </trkpt>
      <trkpt lat="43.035986982285976" lon="-9.044102020561695">
        <ele>384.66000000000003</ele>
        <time>2025-05-01T11:50:02Z</time>
      </trkpt>
      <trkpt lat="43.035963010042906" lon="-9.043755009770393">
        <ele>382.25999999999999</ele>
        <time>2025-05-01T11:50:03Z</time>
      </trkpt>
      <trkpt lat="43.035927973687649" lon="-9.043406993150711">
        <ele>379.86000000000001</ele>
        <time>2025-05-01T11:50:04Z</time>
      </trkpt>
      <trkpt lat="43.035291032865644" lon="-9.039672017097473">
        <ele>354.38</ele>
        <time>2025-05-01T11:50:15Z</time>
      </trkpt>
      <trkpt lat="43.034750986844301" lon="-9.036365021020174">
        <ele>343.81</ele>
        <time>2025-05-01T11:50:25Z</time>
      </trkpt>
      <trkpt lat="43.034137012436986" lon="-9.032916035503149">
        <ele>340.44</ele>
        <time>2025-05-01T11:50:36Z</time>
      </trkpt>
      <trkpt lat="43.034069035202265" lon="-9.032637001946569">
        <ele>340.44</ele>
        <time>2025-05-01T11:50:37Z</time>
      </trkpt>
      <trkpt lat="43.033966021612287" lon="-9.032379006966949">
        <ele>340.44</ele>
        <time>2025-05-01T11:50:38Z</time>
      </trkpt>
      <trkpt lat="43.03382596001029" lon="-9.032144984230399">
        <ele>339.95999999999998</ele>
        <time>2025-05-01T11:50:39Z</time>
      </trkpt>
      <trkpt lat="43.033667961135507" lon="-9.031944992020726">
        <ele>339.95999999999998</ele>
        <time>2025-05-01T11:50:40Z</time>
      </trkpt>
      <trkpt lat="43.033506022766232" lon="-9.031741982325912">
        <ele>339.95999999999998</ele>
        <time>2025-05-01T11:50:41Z</time>
      </trkpt>
      <trkpt lat="43.032736983150244" lon="-9.030841011554003">
        <ele>338.04000000000002</ele>
        <time>2025-05-01T11:50:46Z</time>
      </trkpt>
      <trkpt lat="43.032614020630717" lon="-9.030645964667201">
        <ele>337.07999999999998</ele>
        <time>2025-05-01T11:50:47Z</time>
      </trkpt>
      <trkpt lat="43.032527016475797" lon="-9.030409008264542">
        <ele>336.60000000000002</ele>
        <time>2025-05-01T11:50:48Z</time>
      </trkpt>
      <trkpt lat="43.032446969300508" lon="-9.030175991356373">
        <ele>335.63999999999999</ele>
        <time>2025-05-01T11:50:49Z</time>
      </trkpt>
      <trkpt lat="43.032379997894168" lon="-9.029935011640191">
        <ele>334.19999999999999</ele>
        <time>2025-05-01T11:50:50Z</time>
      </trkpt>
      <trkpt lat="43.032327024266124" lon="-9.029692020267248">
        <ele>333.23000000000002</ele>
        <time>2025-05-01T11:50:51Z</time>
      </trkpt>
      <trkpt lat="43.03210599347949" lon="-9.028748972341418">
        <ele>328.43000000000001</ele>
        <time>2025-05-01T11:50:55Z</time>
      </trkpt>
      <trkpt lat="43.032017983496189" lon="-9.028528025373817">
        <ele>326.99000000000001</ele>
        <time>2025-05-01T11:50:56Z</time>
      </trkpt>
      <trkpt lat="43.031898960471153" lon="-9.028324009850621">
        <ele>325.54000000000002</ele>
        <time>2025-05-01T11:50:57Z</time>
      </trkpt>
      <trkpt lat="43.031772980466485" lon="-9.028125023469329">
        <ele>324.10000000000002</ele>
        <time>2025-05-01T11:50:58Z</time>
      </trkpt>
      <trkpt lat="43.031626967713237" lon="-9.027942968532443">
        <ele>322.66000000000003</ele>
        <time>2025-05-01T11:50:59Z</time>
      </trkpt>
      <trkpt lat="43.031471986323595" lon="-9.027777006849647">
        <ele>321.22000000000003</ele>
        <time>2025-05-01T11:51:00Z</time>
      </trkpt>
      <trkpt lat="43.030376974493265" lon="-9.026547968387604">
        <ele>311.60000000000002</ele>
        <time>2025-05-01T11:51:07Z</time>
      </trkpt>
      <trkpt lat="43.030245965346694" lon="-9.026338001713157">
        <ele>310.63999999999999</ele>
        <time>2025-05-01T11:51:08Z</time>
      </trkpt>
      <trkpt lat="43.030148986726999" lon="-9.026102973148227">
        <ele>309.19999999999999</ele>
        <time>2025-05-01T11:51:09Z</time>
      </trkpt>
      <trkpt lat="43.030070029199123" lon="-9.025854030624032">
        <ele>308.24000000000001</ele>
        <time>2025-05-01T11:51:10Z</time>
      </trkpt>
      <trkpt lat="43.030012026429176" lon="-9.025605004280806">
        <ele>306.80000000000001</ele>
        <time>2025-05-01T11:51:11Z</time>
      </trkpt>
      <trkpt lat="43.029987970367074" lon="-9.025366036221385">
        <ele>305.36000000000001</ele>
        <time>2025-05-01T11:51:12Z</time>
      </trkpt>
      <trkpt lat="43.029980007559061" lon="-9.025135030969977">
        <ele>304.88</ele>
        <time>2025-05-01T11:51:13Z</time>
      </trkpt>
      <trkpt lat="43.029971960932016" lon="-9.02490402571857">
        <ele>303.43000000000001</ele>
        <time>2025-05-01T11:51:14Z</time>
      </trkpt>
      <trkpt lat="43.029971960932016" lon="-9.024667991325259">
        <ele>302.47000000000003</ele>
        <time>2025-05-01T11:51:15Z</time>
      </trkpt>
      <trkpt lat="43.029990987852216" lon="-9.024492977187038">
        <ele>301.50999999999999</ele>
        <time>2025-05-01T11:51:16Z</time>
      </trkpt>
      <trkpt lat="43.030224004760385" lon="-9.023008961230516">
        <ele>298.63</ele>
        <time>2025-05-01T11:51:25Z</time>
      </trkpt>
      <trkpt lat="43.030231967568398" lon="-9.022190971300006">
        <ele>299.11000000000001</ele>
        <time>2025-05-01T11:51:30Z</time>
      </trkpt>
      <trkpt lat="43.030206989496946" lon="-9.022029032930732">
        <ele>299.11000000000001</ele>
        <time>2025-05-01T11:51:31Z</time>
      </trkpt>
      <trkpt lat="43.030126020312309" lon="-9.021718986332417">
        <ele>300.06999999999999</ele>
        <time>2025-05-01T11:51:33Z</time>
      </trkpt>
      <trkpt lat="43.029571976512671" lon="-9.02043404057622">
        <ele>304.88</ele>
        <time>2025-05-01T11:51:42Z</time>
      </trkpt>
      <trkpt lat="43.029508022591472" lon="-9.020295990630984">
        <ele>305.36000000000001</ele>
        <time>2025-05-01T11:51:43Z</time>
      </trkpt>
      <trkpt lat="43.028821963816881" lon="-9.01876101270318">
        <ele>311.12</ele>
        <time>2025-05-01T11:51:54Z</time>
      </trkpt>
      <trkpt lat="43.028791034594178" lon="-9.018402015790343">
        <ele>312.56999999999999</ele>
        <time>2025-05-01T11:51:56Z</time>
      </trkpt>
      <trkpt lat="43.028791034594178" lon="-9.018262960016727">
        <ele>313.05000000000001</ele>
        <time>2025-05-01T11:51:57Z</time>
      </trkpt>
      <trkpt lat="43.028668994084001" lon="-9.016652964055538">
        <ele>317.85000000000002</ele>
        <time>2025-05-01T11:52:07Z</time>
      </trkpt>
      <trkpt lat="43.028507977724075" lon="-9.01553800329566">
        <ele>317.85000000000002</ele>
        <time>2025-05-01T11:52:15Z</time>
      </trkpt>
      <trkpt lat="43.028493979945779" lon="-9.01538603939116">
        <ele>317.85000000000002</ele>
        <time>2025-05-01T11:52:16Z</time>
      </trkpt>
      <trkpt lat="43.028507977724075" lon="-9.015219993889332">
        <ele>318.32999999999998</ele>
        <time>2025-05-01T11:52:17Z</time>
      </trkpt>
      <trkpt lat="43.028542008250952" lon="-9.015058977529407">
        <ele>318.32999999999998</ele>
        <time>2025-05-01T11:52:18Z</time>
      </trkpt>
      <trkpt lat="43.028580984100699" lon="-9.014894021674991">
        <ele>318.81</ele>
        <time>2025-05-01T11:52:19Z</time>
      </trkpt>
      <trkpt lat="43.028622977435589" lon="-9.014722025021911">
        <ele>319.30000000000001</ele>
        <time>2025-05-01T11:52:20Z</time>
      </trkpt>
      <trkpt lat="43.029171992093325" lon="-9.012769041582942">
        <ele>320.25999999999999</ele>
        <time>2025-05-01T11:52:31Z</time>
      </trkpt>
      <trkpt lat="43.029524032026529" lon="-9.011487029492855">
        <ele>318.81</ele>
        <time>2025-05-01T11:52:39Z</time>
      </trkpt>
      <trkpt lat="43.029541969299316" lon="-9.011300029233098">
        <ele>318.32999999999998</ele>
        <time>2025-05-01T11:52:40Z</time>
      </trkpt>
      <trkpt lat="43.029541969299316" lon="-9.011082015931606">
        <ele>317.85000000000002</ele>
        <time>2025-05-01T11:52:41Z</time>
      </trkpt>
      <trkpt lat="43.029541969299316" lon="-9.010864002630115">
        <ele>317.37</ele>
        <time>2025-05-01T11:52:42Z</time>
      </trkpt>
      <trkpt lat="43.029528977349401" lon="-9.010634003207088">
        <ele>316.88999999999999</ele>
        <time>2025-05-01T11:52:43Z</time>
      </trkpt>
      <trkpt lat="43.029480027034879" lon="-9.010395035147667">
        <ele>316.41000000000003</ele>
        <time>2025-05-01T11:52:44Z</time>
      </trkpt>
      <trkpt lat="43.029428981244564" lon="-9.01014500297606">
        <ele>315.44999999999999</ele>
        <time>2025-05-01T11:52:45Z</time>
      </trkpt>
      <trkpt lat="43.028831016272306" lon="-9.007289037108421">
        <ele>309.19999999999999</ele>
        <time>2025-05-01T11:52:55Z</time>
      </trkpt>
      <trkpt lat="43.027990981936455" lon="-9.003363037481904">
        <ele>307.75999999999999</ele>
        <time>2025-05-01T11:53:07Z</time>
      </trkpt>
      <trkpt lat="43.027127981185913" lon="-8.999418010935187">
        <ele>304.88</ele>
        <time>2025-05-01T11:53:18Z</time>
      </trkpt>
      <trkpt lat="43.026404036208987" lon="-8.99605100043118">
        <ele>308.72000000000003</ele>
        <time>2025-05-01T11:53:28Z</time>
      </trkpt>
      <trkpt lat="43.025593003258109" lon="-8.992322981357575">
        <ele>311.12</ele>
        <time>2025-05-01T11:53:40Z</time>
      </trkpt>
      <trkpt lat="43.02497299388051" lon="-8.989255959168077">
        <ele>305.83999999999997</ele>
        <time>2025-05-01T11:53:50Z</time>
      </trkpt>
      <trkpt lat="43.02443403750658" lon="-8.985145976766944">
        <ele>302.47000000000003</ele>
        <time>2025-05-01T11:54:03Z</time>
      </trkpt>
      <trkpt lat="43.023970015347004" lon="-8.982608020305634">
        <ele>300.55000000000001</ele>
        <time>2025-05-01T11:54:11Z</time>
      </trkpt>
      <trkpt lat="43.023142972961068" lon="-8.980959970504046">
        <ele>299.11000000000001</ele>
        <time>2025-05-01T11:54:17Z</time>
      </trkpt>
      <trkpt lat="43.021404985338449" lon="-8.97830399684608">
        <ele>300.06999999999999</ele>
        <time>2025-05-01T11:54:28Z</time>
      </trkpt>
      <trkpt lat="43.020022977143526" lon="-8.975627990439534">
        <ele>303.43000000000001</ele>
        <time>2025-05-01T11:54:38Z</time>
      </trkpt>
      <trkpt lat="43.018984962254763" lon="-8.973502004519105">
        <ele>309.68000000000001</ele>
        <time>2025-05-01T11:54:46Z</time>
      </trkpt>
      <trkpt lat="43.017464987933636" lon="-8.970362981781364">
        <ele>314.49000000000001</ele>
        <time>2025-05-01T11:54:58Z</time>
      </trkpt>
      <trkpt lat="43.016103012487292" lon="-8.96758203394711">
        <ele>316.88999999999999</ele>
        <time>2025-05-01T11:55:08Z</time>
      </trkpt>
      <trkpt lat="43.014860982075334" lon="-8.96502798423171">
        <ele>318.81</ele>
        <time>2025-05-01T11:55:17Z</time>
      </trkpt>
      <trkpt lat="43.014126978814602" lon="-8.962900992482901">
        <ele>323.13999999999999</ele>
        <time>2025-05-01T11:55:24Z</time>
      </trkpt>
      <trkpt lat="43.01351803354919" lon="-8.960092971101403">
        <ele>325.06</ele>
        <time>2025-05-01T11:55:33Z</time>
      </trkpt>
      <trkpt lat="43.013042025268078" lon="-8.957525007426739">
        <ele>320.74000000000001</ele>
        <time>2025-05-01T11:55:42Z</time>
      </trkpt>
      <trkpt lat="43.013073038309813" lon="-8.955640001222491">
        <ele>318.32999999999998</ele>
        <time>2025-05-01T11:55:48Z</time>
      </trkpt>
      <trkpt lat="43.013506969437003" lon="-8.953736973926425">
        <ele>316.88999999999999</ele>
        <time>2025-05-01T11:55:54Z</time>
      </trkpt>
      <trkpt lat="43.013739986345172" lon="-8.951759012416005">
        <ele>314.97000000000003</ele>
        <time>2025-05-01T11:56:00Z</time>
      </trkpt>
      <trkpt lat="43.013694975525141" lon="-8.951088041067123">
        <ele>314.49000000000001</ele>
        <time>2025-05-01T11:56:02Z</time>
      </trkpt>
      <trkpt lat="43.013148978352547" lon="-8.948932969942689">
        <ele>311.60000000000002</ele>
        <time>2025-05-01T11:56:09Z</time>
      </trkpt>
      <trkpt lat="43.012368958443403" lon="-8.946566004306078">
        <ele>309.19999999999999</ele>
        <time>2025-05-01T11:56:18Z</time>
      </trkpt>
      <trkpt lat="43.011623974889517" lon="-8.944352008402348">
        <ele>306.80000000000001</ele>
        <time>2025-05-01T11:56:26Z</time>
      </trkpt>
      <trkpt lat="43.010611021891236" lon="-8.941308036446571">
        <ele>303.43000000000001</ele>
        <time>2025-05-01T11:56:36Z</time>
      </trkpt>
      <trkpt lat="43.009791020303965" lon="-8.93883696757257">
        <ele>303.43000000000001</ele>
        <time>2025-05-01T11:56:44Z</time>
      </trkpt>
      <trkpt lat="43.009544005617499" lon="-8.937023961916566">
        <ele>307.75999999999999</ele>
        <time>2025-05-01T11:56:50Z</time>
      </trkpt>
      <trkpt lat="43.009814992547035" lon="-8.934742994606495">
        <ele>314.97000000000003</ele>
        <time>2025-05-01T11:56:57Z</time>
      </trkpt>
      <trkpt lat="43.010252024978399" lon="-8.932430008426309">
        <ele>320.74000000000001</ele>
        <time>2025-05-01T11:57:05Z</time>
      </trkpt>
      <trkpt lat="43.01096498966217" lon="-8.928506020456553">
        <ele>320.74000000000001</ele>
        <time>2025-05-01T11:57:20Z</time>
      </trkpt>
      <trkpt lat="43.011212004348636" lon="-8.926895018666983">
        <ele>314.49000000000001</ele>
        <time>2025-05-01T11:57:27Z</time>
      </trkpt>
      <trkpt lat="43.011207981035113" lon="-8.9266989659518">
        <ele>313.52999999999997</ele>
        <time>2025-05-01T11:57:28Z</time>
      </trkpt>
      <trkpt lat="43.011190965771675" lon="-8.926515989005566">
        <ele>312.56999999999999</ele>
        <time>2025-05-01T11:57:29Z</time>
      </trkpt>
      <trkpt lat="43.011155007407069" lon="-8.926350027322769">
        <ele>312.08999999999997</ele>
        <time>2025-05-01T11:57:30Z</time>
      </trkpt>
      <trkpt lat="43.011116031557322" lon="-8.926199991255999">
        <ele>311.60000000000002</ele>
        <time>2025-05-01T11:57:31Z</time>
      </trkpt>
      <trkpt lat="43.011061968281865" lon="-8.926060013473034">
        <ele>311.12</ele>
        <time>2025-05-01T11:57:32Z</time>
      </trkpt>
      <trkpt lat="43.010997008532286" lon="-8.925927998498082">
        <ele>310.63999999999999</ele>
        <time>2025-05-01T11:57:33Z</time>
      </trkpt>
      <trkpt lat="43.010913021862507" lon="-8.925806963816285">
        <ele>310.63999999999999</ele>
        <time>2025-05-01T11:57:34Z</time>
      </trkpt>
      <trkpt lat="43.010028982535005" lon="-8.924427973106504">
        <ele>311.12</ele>
        <time>2025-05-01T11:57:45Z</time>
      </trkpt>
      <trkpt lat="43.009934015572071" lon="-8.924318002536893">
        <ele>311.12</ele>
        <time>2025-05-01T11:57:46Z</time>
      </trkpt>
      <trkpt lat="43.009815998375416" lon="-8.924242984503508">
        <ele>310.63999999999999</ele>
        <time>2025-05-01T11:57:47Z</time>
      </trkpt>
      <trkpt lat="43.009385000914335" lon="-8.923950036987662">
        <ele>310.63999999999999</ele>
        <time>2025-05-01T11:57:51Z</time>
      </trkpt>
      <trkpt lat="43.00928701646626" lon="-8.923861021175981">
        <ele>310.63999999999999</ele>
        <time>2025-05-01T11:57:52Z</time>
      </trkpt>
      <trkpt lat="43.008952997624874" lon="-8.923383001238108">
        <ele>310.16000000000003</ele>
        <time>2025-05-01T11:57:56Z</time>
      </trkpt>
      <trkpt lat="43.008906980976462" lon="-8.923246040940285">
        <ele>309.68000000000001</ele>
        <time>2025-05-01T11:57:57Z</time>
      </trkpt>
      <trkpt lat="43.008861970156431" lon="-8.923094999045134">
        <ele>308.72000000000003</ele>
        <time>2025-05-01T11:57:58Z</time>
      </trkpt>
      <trkpt lat="43.008491992950439" lon="-8.92134896479547">
        <ele>304.88</ele>
        <time>2025-05-01T11:58:09Z</time>
      </trkpt>
      <trkpt lat="43.008438013494015" lon="-8.921212004497647">
        <ele>304.88</ele>
        <time>2025-05-01T11:58:10Z</time>
      </trkpt>
      <trkpt lat="43.008374981582165" lon="-8.921056017279625">
        <ele>304.38999999999999</ele>
        <time>2025-05-01T11:58:11Z</time>
      </trkpt>
      <trkpt lat="43.008299041539431" lon="-8.920890977606177">
        <ele>304.38999999999999</ele>
        <time>2025-05-01T11:58:12Z</time>
      </trkpt>
      <trkpt lat="43.008196027949452" lon="-8.920757034793496">
        <ele>303.91000000000003</ele>
        <time>2025-05-01T11:58:13Z</time>
      </trkpt>
      <trkpt lat="43.008088991045952" lon="-8.92061797901988">
        <ele>303.91000000000003</ele>
        <time>2025-05-01T11:58:14Z</time>
      </trkpt>
      <trkpt lat="43.007979020476341" lon="-8.920475989580154">
        <ele>303.91000000000003</ele>
        <time>2025-05-01T11:58:15Z</time>
      </trkpt>
      <trkpt lat="43.00784700550139" lon="-8.92033701762557">
        <ele>303.91000000000003</ele>
        <time>2025-05-01T11:58:16Z</time>
      </trkpt>
      <trkpt lat="43.00769898109138" lon="-8.920252025127411">
        <ele>303.91000000000003</ele>
        <time>2025-05-01T11:58:17Z</time>
      </trkpt>
      <trkpt lat="43.0075460113585" lon="-8.92016502097249">
        <ele>304.38999999999999</ele>
        <time>2025-05-01T11:58:18Z</time>
      </trkpt>
      <trkpt lat="43.007379965856671" lon="-8.920094026252627">
        <ele>304.38999999999999</ele>
        <time>2025-05-01T11:58:19Z</time>
      </trkpt>
      <trkpt lat="43.007201012223959" lon="-8.920065024867654">
        <ele>304.88</ele>
        <time>2025-05-01T11:58:20Z</time>
      </trkpt>
      <trkpt lat="43.007014011964202" lon="-8.920042980462313">
        <ele>305.36000000000001</ele>
        <time>2025-05-01T11:58:21Z</time>
      </trkpt>
      <trkpt lat="43.006199039518833" lon="-8.919904008507729">
        <ele>307.75999999999999</ele>
        <time>2025-05-01T11:58:25Z</time>
      </trkpt>
      <trkpt lat="43.005986977368593" lon="-8.919831002131105">
        <ele>308.72000000000003</ele>
        <time>2025-05-01T11:58:26Z</time>
      </trkpt>
      <trkpt lat="43.005781034007668" lon="-8.919697981327772">
        <ele>309.68000000000001</ele>
        <time>2025-05-01T11:58:27Z</time>
      </trkpt>
      <trkpt lat="43.005581041797996" lon="-8.919550962746143">
        <ele>310.63999999999999</ele>
        <time>2025-05-01T11:58:28Z</time>
      </trkpt>
      <trkpt lat="43.005408961325884" lon="-8.919337978586555">
        <ele>311.60000000000002</ele>
        <time>2025-05-01T11:58:29Z</time>
      </trkpt>
      <trkpt lat="43.005236964672804" lon="-8.919114014133811">
        <ele>313.05000000000001</ele>
        <time>2025-05-01T11:58:30Z</time>
      </trkpt>
      <trkpt lat="43.005088018253446" lon="-8.91885501332581">
        <ele>314.00999999999999</ele>
        <time>2025-05-01T11:58:31Z</time>
      </trkpt>
      <trkpt lat="43.004948040470481" lon="-8.918580003082752">
        <ele>315.44999999999999</ele>
        <time>2025-05-01T11:58:32Z</time>
      </trkpt>
      <trkpt lat="43.003133023157716" lon="-8.915048958733678">
        <ele>332.26999999999998</ele>
        <time>2025-05-01T11:58:45Z</time>
      </trkpt>
      <trkpt lat="43.002819959074259" lon="-8.914592983201146">
        <ele>335.16000000000003</ele>
        <time>2025-05-01T11:58:47Z</time>
      </trkpt>
      <trkpt lat="43.002645028755069" lon="-8.914399025961757">
        <ele>336.60000000000002</ele>
        <time>2025-05-01T11:58:48Z</time>
      </trkpt>
      <trkpt lat="43.002459034323692" lon="-8.914238009601831">
        <ele>337.56</ele>
        <time>2025-05-01T11:58:49Z</time>
      </trkpt>
      <trkpt lat="43.002261975780129" lon="-8.914116974920034">
        <ele>338.51999999999998</ele>
        <time>2025-05-01T11:58:50Z</time>
      </trkpt>
      <trkpt lat="43.002062989398837" lon="-8.914007004350424">
        <ele>339.48000000000002</ele>
        <time>2025-05-01T11:58:51Z</time>
      </trkpt>
      <trkpt lat="43.001855034381151" lon="-8.913941960781813">
        <ele>340.44</ele>
        <time>2025-05-01T11:58:52Z</time>
      </trkpt>
      <trkpt lat="43.001645989716053" lon="-8.913900973275304">
        <ele>341.41000000000003</ele>
        <time>2025-05-01T11:58:53Z</time>
      </trkpt>
      <trkpt lat="43.001444991677999" lon="-8.913863003253937">
        <ele>342.37</ele>
        <time>2025-05-01T11:58:54Z</time>
      </trkpt>
      <trkpt lat="43.001250028610229" lon="-8.913900973275304">
        <ele>343.32999999999998</ele>
        <time>2025-05-01T11:58:55Z</time>
      </trkpt>
      <trkpt lat="43.001062022522092" lon="-8.913942966610193">
        <ele>344.29000000000002</ele>
        <time>2025-05-01T11:58:56Z</time>
      </trkpt>
      <trkpt lat="43.000853983685374" lon="-8.913988983258605">
        <ele>344.76999999999998</ele>
        <time>2025-05-01T11:58:57Z</time>
      </trkpt>
      <trkpt lat="43.000692967325449" lon="-8.914059977978468">
        <ele>345.25</ele>
        <time>2025-05-01T11:58:58Z</time>
      </trkpt>
      <trkpt lat="43.000514013692737" lon="-8.914139019325376">
        <ele>346.20999999999998</ele>
        <time>2025-05-01T11:58:59Z</time>
      </trkpt>
      <trkpt lat="42.999785961583257" lon="-8.914416963234544">
        <ele>347.17000000000002</ele>
        <time>2025-05-01T11:59:03Z</time>
      </trkpt>
      <trkpt lat="42.999590998515487" lon="-8.914440013468266">
        <ele>347.64999999999998</ele>
        <time>2025-05-01T11:59:04Z</time>
      </trkpt>
      <trkpt lat="42.999398969113827" lon="-8.914410006254911">
        <ele>347.64999999999998</ele>
        <time>2025-05-01T11:59:05Z</time>
      </trkpt>
      <trkpt lat="42.999207023531199" lon="-8.914354015141726">
        <ele>348.13</ele>
        <time>2025-05-01T11:59:06Z</time>
      </trkpt>
      <trkpt lat="42.999019017443061" lon="-8.914300035685301">
        <ele>348.13</ele>
        <time>2025-05-01T11:59:07Z</time>
      </trkpt>
      <trkpt lat="42.998836962506175" lon="-8.914246978238225">
        <ele>348.13</ele>
        <time>2025-05-01T11:59:08Z</time>
      </trkpt>
      <trkpt lat="42.998663038015366" lon="-8.914152011275291">
        <ele>348.13</ele>
        <time>2025-05-01T11:59:09Z</time>
      </trkpt>
      <trkpt lat="42.997341966256499" lon="-8.913453966379166">
        <ele>349.57999999999998</ele>
        <time>2025-05-01T11:59:18Z</time>
      </trkpt>
      <trkpt lat="42.996612992137671" lon="-8.912992039695382">
        <ele>348.62</ele>
        <time>2025-05-01T11:59:26Z</time>
      </trkpt>
      <trkpt lat="42.996537974104285" lon="-8.912929007783532">
        <ele>348.13</ele>
        <time>2025-05-01T11:59:27Z</time>
      </trkpt>
      <trkpt lat="42.996475026011467" lon="-8.912848038598895">
        <ele>348.13</ele>
        <time>2025-05-01T11:59:28Z</time>
      </trkpt>
      <trkpt lat="42.996423980221152" lon="-8.912742007523775">
        <ele>347.64999999999998</ele>
        <time>2025-05-01T11:59:29Z</time>
      </trkpt>
      <trkpt lat="42.996371006593108" lon="-8.912631031125784">
        <ele>347.17000000000002</ele>
        <time>2025-05-01T11:59:30Z</time>
      </trkpt>
      <trkpt lat="42.996316021308303" lon="-8.91251603141427">
        <ele>346.69</ele>
        <time>2025-05-01T11:59:31Z</time>
      </trkpt>
      <trkpt lat="42.996262041851878" lon="-8.912401031702757">
        <ele>346.20999999999998</ele>
        <time>2025-05-01T11:59:32Z</time>
      </trkpt>
      <trkpt lat="42.99622499383986" lon="-8.912278991192579">
        <ele>345.73000000000002</ele>
        <time>2025-05-01T11:59:33Z</time>
      </trkpt>
      <trkpt lat="42.996133966371417" lon="-8.911891998723149">
        <ele>343.81</ele>
        <time>2025-05-01T11:59:37Z</time>
      </trkpt>
      <trkpt lat="42.996120974421501" lon="-8.911839025095105">
        <ele>343.32999999999998</ele>
        <time>2025-05-01T11:59:38Z</time>
      </trkpt>
      <trkpt lat="42.99607596360147" lon="-8.9116579759866">
        <ele>339.95999999999998</ele>
        <time>2025-05-01T11:59:44Z</time>
      </trkpt>
      <trkpt lat="42.996072024106979" lon="-8.911641966551542">
        <ele>339.48000000000002</ele>
        <time>2025-05-01T11:59:45Z</time>
      </trkpt>
      <trkpt lat="42.996072024106979" lon="-8.911641966551542">
        <ele>338.04000000000002</ele>
        <time>2025-05-01T11:59:59Z</time>
      </trkpt>
      <trkpt lat="42.996016032993793" lon="-8.911738023161888">
        <ele>327.94999999999999</ele>
        <time>2025-05-01T12:06:37Z</time>
      </trkpt>
      <trkpt lat="42.996071018278599" lon="-8.911640038713813">
        <ele>331.31</ele>
        <time>2025-05-01T12:06:49Z</time>
      </trkpt>
      <trkpt lat="42.996045034378767" lon="-8.911534007638693">
        <ele>332.75</ele>
        <time>2025-05-01T12:06:51Z</time>
      </trkpt>
      <trkpt lat="42.996035981923342" lon="-8.911496959626675">
        <ele>333.23000000000002</ele>
        <time>2025-05-01T12:06:52Z</time>
      </trkpt>
      <trkpt lat="42.99603003077209" lon="-8.911476004868746">
        <ele>334.19999999999999</ele>
        <time>2025-05-01T12:06:53Z</time>
      </trkpt>
      <trkpt lat="42.996027013286948" lon="-8.91146301291883">
        <ele>334.68000000000001</ele>
        <time>2025-05-01T12:07:04Z</time>
      </trkpt>
      <trkpt lat="42.996023995801806" lon="-8.911452032625675">
        <ele>334.19999999999999</ele>
        <time>2025-05-01T12:07:05Z</time>
      </trkpt>
      <trkpt lat="42.996015027165413" lon="-8.911414984613657">
        <ele>333.70999999999998</ele>
        <time>2025-05-01T12:07:06Z</time>
      </trkpt>
      <trkpt lat="42.995998011901975" lon="-8.911347007378936">
        <ele>333.23000000000002</ele>
        <time>2025-05-01T12:07:07Z</time>
      </trkpt>
      <trkpt lat="42.995974961668253" lon="-8.911251034587622">
        <ele>332.75</ele>
        <time>2025-05-01T12:07:08Z</time>
      </trkpt>
      <trkpt lat="42.995947971940041" lon="-8.911140980198979">
        <ele>332.26999999999998</ele>
        <time>2025-05-01T12:07:09Z</time>
      </trkpt>
      <trkpt lat="42.995628034695983" lon="-8.909823009744287">
        <ele>330.35000000000002</ele>
        <time>2025-05-01T12:07:18Z</time>
      </trkpt>
      <trkpt lat="42.995134005323052" lon="-8.907782016322017">
        <ele>330.82999999999998</ele>
        <time>2025-05-01T12:07:30Z</time>
      </trkpt>
      <trkpt lat="42.994595970958471" lon="-8.905439022928476">
        <ele>332.75</ele>
        <time>2025-05-01T12:07:43Z</time>
      </trkpt>
      <trkpt lat="42.994043016806245" lon="-8.902614992111921">
        <ele>330.35000000000002</ele>
        <time>2025-05-01T12:07:57Z</time>
      </trkpt>
      <trkpt lat="42.993466006591916" lon="-8.899558028206229">
        <ele>326.01999999999998</ele>
        <time>2025-05-01T12:08:11Z</time>
      </trkpt>
      <trkpt lat="42.993125030770898" lon="-8.897695988416672">
        <ele>326.01999999999998</ele>
        <time>2025-05-01T12:08:20Z</time>
      </trkpt>
      <trkpt lat="42.99272102303803" lon="-8.894999027252197">
        <ele>320.25999999999999</ele>
        <time>2025-05-01T12:08:32Z</time>
      </trkpt>
      <trkpt lat="42.99255196005106" lon="-8.892415976151824">
        <ele>317.37</ele>
        <time>2025-05-01T12:08:42Z</time>
      </trkpt>
      <trkpt lat="42.992307962849736" lon="-8.890426028519869">
        <ele>317.85000000000002</ele>
        <time>2025-05-01T12:08:49Z</time>
      </trkpt>
      <trkpt lat="42.991741010919213" lon="-8.8887959998101">
        <ele>319.30000000000001</ele>
        <time>2025-05-01T12:08:55Z</time>
      </trkpt>
      <trkpt lat="42.990548014640808" lon="-8.885888988152146">
        <ele>324.57999999999998</ele>
        <time>2025-05-01T12:09:07Z</time>
      </trkpt>
      <trkpt lat="42.989915013313293" lon="-8.883675998076797">
        <ele>329.38999999999999</ele>
        <time>2025-05-01T12:09:16Z</time>
      </trkpt>
      <trkpt lat="42.989488039165735" lon="-8.880324997007847">
        <ele>335.16000000000003</ele>
        <time>2025-05-01T12:09:28Z</time>
      </trkpt>
      <trkpt lat="42.989103980362415" lon="-8.877121014520526">
        <ele>343.81</ele>
        <time>2025-05-01T12:09:39Z</time>
      </trkpt>
      <trkpt lat="42.988827964290977" lon="-8.874835018068552">
        <ele>345.73000000000002</ele>
        <time>2025-05-01T12:09:48Z</time>
      </trkpt>
      <trkpt lat="42.988720005378127" lon="-8.873856011778116">
        <ele>348.13</ele>
        <time>2025-05-01T12:09:54Z</time>
      </trkpt>
      <trkpt lat="42.988710030913353" lon="-8.873746041208506">
        <ele>348.13</ele>
        <time>2025-05-01T12:09:55Z</time>
      </trkpt>
      <trkpt lat="42.988573992624879" lon="-8.873655013740063">
        <ele>348.62</ele>
        <time>2025-05-01T12:09:56Z</time>
      </trkpt>
      <trkpt lat="42.988643981516361" lon="-8.8734130281955">
        <ele>349.10000000000002</ele>
        <time>2025-05-01T12:09:57Z</time>
      </trkpt>
      <trkpt lat="42.988638030365109" lon="-8.87336902320385">
        <ele>349.10000000000002</ele>
        <time>2025-05-01T12:09:58Z</time>
      </trkpt>
      <trkpt lat="42.988621015101671" lon="-8.87324103154242">
        <ele>349.57999999999998</ele>
        <time>2025-05-01T12:09:59Z</time>
      </trkpt>
      <trkpt lat="42.988601988181472" lon="-8.873096024617553">
        <ele>350.06</ele>
        <time>2025-05-01T12:10:00Z</time>
      </trkpt>
      <trkpt lat="42.988580027595162" lon="-8.872931990772486">
        <ele>350.54000000000002</ele>
        <time>2025-05-01T12:10:01Z</time>
      </trkpt>
      <trkpt lat="42.988553959876299" lon="-8.872750019654632">
        <ele>351.01999999999998</ele>
        <time>2025-05-01T12:10:02Z</time>
      </trkpt>
      <trkpt lat="42.988507021218538" lon="-8.872562013566494">
        <ele>351.01999999999998</ele>
        <time>2025-05-01T12:10:03Z</time>
      </trkpt>
      <trkpt lat="42.988438960164785" lon="-8.872374007478356">
        <ele>351.5</ele>
        <time>2025-05-01T12:10:04Z</time>
      </trkpt>
      <trkpt lat="42.988251037895679" lon="-8.872018028050661">
        <ele>351.5</ele>
        <time>2025-05-01T12:10:06Z</time>
      </trkpt>
      <trkpt lat="42.988135032355785" lon="-8.87184401974082">
        <ele>351.5</ele>
        <time>2025-05-01T12:10:07Z</time>
      </trkpt>
      <trkpt lat="42.988003017380834" lon="-8.871699012815952">
        <ele>351.01999999999998</ele>
        <time>2025-05-01T12:10:08Z</time>
      </trkpt>
      <trkpt lat="42.987871002405882" lon="-8.871566997841001">
        <ele>351.01999999999998</ele>
        <time>2025-05-01T12:10:09Z</time>
      </trkpt>
      <trkpt lat="42.987730018794537" lon="-8.871455015614629">
        <ele>350.54000000000002</ele>
        <time>2025-05-01T12:10:10Z</time>
      </trkpt>
      <trkpt lat="42.986579015851021" lon="-8.870520014315844">
        <ele>347.17000000000002</ele>
        <time>2025-05-01T12:10:19Z</time>
      </trkpt>
      <trkpt lat="42.986186994239688" lon="-8.870213991031051">
        <ele>345.73000000000002</ele>
        <time>2025-05-01T12:10:23Z</time>
      </trkpt>
      <trkpt lat="42.986000999808311" lon="-8.870193036273122">
        <ele>345.73000000000002</ele>
        <time>2025-05-01T12:10:25Z</time>
      </trkpt>
      <trkpt lat="42.98591198399663" lon="-8.870101002976298">
        <ele>345.25</ele>
        <time>2025-05-01T12:10:26Z</time>
      </trkpt>
      <trkpt lat="42.985157025977969" lon="-8.869354007765651">
        <ele>344.29000000000002</ele>
        <time>2025-05-01T12:10:34Z</time>
      </trkpt>
      <trkpt lat="42.983692958950996" lon="-8.868153970688582">
        <ele>344.29000000000002</ele>
        <time>2025-05-01T12:10:44Z</time>
      </trkpt>
      <trkpt lat="42.981219040229917" lon="-8.866138039156795">
        <ele>350.06</ele>
        <time>2025-05-01T12:10:59Z</time>
      </trkpt>
      <trkpt lat="42.978141959756613" lon="-8.863649033010006">
        <ele>351.98000000000002</ele>
        <time>2025-05-01T12:11:17Z</time>
      </trkpt>
      <trkpt lat="42.975688995793462" lon="-8.861627988517284">
        <ele>353.89999999999998</ele>
        <time>2025-05-01T12:11:31Z</time>
      </trkpt>
      <trkpt lat="42.973653031513095" lon="-8.859724039211869">
        <ele>356.31</ele>
        <time>2025-05-01T12:11:43Z</time>
      </trkpt>
      <trkpt lat="42.97340601682663" lon="-8.859281977638602">
        <ele>355.82999999999998</ele>
        <time>2025-05-01T12:11:45Z</time>
      </trkpt>
      <trkpt lat="42.973306020721793" lon="-8.85906295850873">
        <ele>355.33999999999997</ele>
        <time>2025-05-01T12:11:46Z</time>
      </trkpt>
      <trkpt lat="42.97321499325335" lon="-8.858827007934451">
        <ele>355.33999999999997</ele>
        <time>2025-05-01T12:11:47Z</time>
      </trkpt>
      <trkpt lat="42.972536981105804" lon="-8.856770005077124">
        <ele>353.42000000000002</ele>
        <time>2025-05-01T12:11:56Z</time>
      </trkpt>
      <trkpt lat="42.972035994753242" lon="-8.855710029602051">
        <ele>351.01999999999998</ele>
        <time>2025-05-01T12:12:03Z</time>
      </trkpt>
      <trkpt lat="42.971927030012012" lon="-8.855600981041789">
        <ele>350.54000000000002</ele>
        <time>2025-05-01T12:12:04Z</time>
      </trkpt>
      <trkpt lat="42.971828039735556" lon="-8.855502996593714">
        <ele>350.06</ele>
        <time>2025-05-01T12:12:05Z</time>
      </trkpt>
      <trkpt lat="42.971730977296829" lon="-8.855406017974019">
        <ele>349.57999999999998</ele>
        <time>2025-05-01T12:12:06Z</time>
      </trkpt>
      <trkpt lat="42.970810979604721" lon="-8.855011984705925">
        <ele>344.29000000000002</ele>
        <time>2025-05-01T12:12:14Z</time>
      </trkpt>
      <trkpt lat="42.970108995214105" lon="-8.854711996391416">
        <ele>339</ele>
        <time>2025-05-01T12:12:20Z</time>
      </trkpt>
      <trkpt lat="42.969996007159352" lon="-8.854606971144676">
        <ele>338.51999999999998</ele>
        <time>2025-05-01T12:12:21Z</time>
      </trkpt>
      <trkpt lat="42.969889976084232" lon="-8.854508986696601">
        <ele>338.04000000000002</ele>
        <time>2025-05-01T12:12:22Z</time>
      </trkpt>
      <trkpt lat="42.969792997464538" lon="-8.854358028620482">
        <ele>337.56</ele>
        <time>2025-05-01T12:12:23Z</time>
      </trkpt>
      <trkpt lat="42.969702975824475" lon="-8.854217967018485">
        <ele>337.56</ele>
        <time>2025-05-01T12:12:24Z</time>
      </trkpt>
      <trkpt lat="42.969644973054528" lon="-8.854061979800463">
        <ele>337.07999999999998</ele>
        <time>2025-05-01T12:12:25Z</time>
      </trkpt>
      <trkpt lat="42.969587976112962" lon="-8.853900963440538">
        <ele>336.60000000000002</ele>
        <time>2025-05-01T12:12:26Z</time>
      </trkpt>
      <trkpt lat="42.969532990828156" lon="-8.853745982050896">
        <ele>336.12</ele>
        <time>2025-05-01T12:12:27Z</time>
      </trkpt>
      <trkpt lat="42.969479011371732" lon="-8.853595023974776">
        <ele>335.63999999999999</ele>
        <time>2025-05-01T12:12:28Z</time>
      </trkpt>
      <trkpt lat="42.969455039128661" lon="-8.853442976251245">
        <ele>335.16000000000003</ele>
        <time>2025-05-01T12:12:29Z</time>
      </trkpt>
      <trkpt lat="42.969444980844855" lon="-8.853281959891319">
        <ele>334.68000000000001</ele>
        <time>2025-05-01T12:12:30Z</time>
      </trkpt>
      <trkpt lat="42.969440035521984" lon="-8.853120021522045">
        <ele>334.19999999999999</ele>
        <time>2025-05-01T12:12:31Z</time>
      </trkpt>
      <trkpt lat="42.969440035521984" lon="-8.852950036525726">
        <ele>333.70999999999998</ele>
        <time>2025-05-01T12:12:32Z</time>
      </trkpt>
      <trkpt lat="42.969440035521984" lon="-8.852780973538756">
        <ele>333.23000000000002</ele>
        <time>2025-05-01T12:12:33Z</time>
      </trkpt>
      <trkpt lat="42.969523016363382" lon="-8.851136025041342">
        <ele>330.82999999999998</ele>
        <time>2025-05-01T12:12:41Z</time>
      </trkpt>
      <trkpt lat="42.969431988894939" lon="-8.849469032138586">
        <ele>327.94999999999999</ele>
        <time>2025-05-01T12:12:47Z</time>
      </trkpt>
      <trkpt lat="42.969351019710302" lon="-8.849183041602373">
        <ele>326.99000000000001</ele>
        <time>2025-05-01T12:12:48Z</time>
      </trkpt>
      <trkpt lat="42.969254963099957" lon="-8.848904008045793">
        <ele>326.5</ele>
        <time>2025-05-01T12:12:49Z</time>
      </trkpt>
      <trkpt lat="42.969157984480262" lon="-8.84861902333796">
        <ele>325.54000000000002</ele>
        <time>2025-05-01T12:12:50Z</time>
      </trkpt>
      <trkpt lat="42.969024041667581" lon="-8.848350970074534">
        <ele>325.06</ele>
        <time>2025-05-01T12:12:51Z</time>
      </trkpt>
      <trkpt lat="42.968877023085952" lon="-8.848099010065198">
        <ele>324.10000000000002</ele>
        <time>2025-05-01T12:12:52Z</time>
      </trkpt>
      <trkpt lat="42.968691028654575" lon="-8.8478899654001">
        <ele>323.13999999999999</ele>
        <time>2025-05-01T12:12:53Z</time>
      </trkpt>
      <trkpt lat="42.968500005081296" lon="-8.847676981240511">
        <ele>321.69999999999999</ele>
        <time>2025-05-01T12:12:54Z</time>
      </trkpt>
      <trkpt lat="42.968308981508017" lon="-8.847463997080922">
        <ele>320.74000000000001</ele>
        <time>2025-05-01T12:12:55Z</time>
      </trkpt>
      <trkpt lat="42.96810002066195" lon="-8.847279008477926">
        <ele>319.77999999999997</ele>
        <time>2025-05-01T12:12:56Z</time>
      </trkpt>
      <trkpt lat="42.967876978218555" lon="-8.847128972411156">
        <ele>318.32999999999998</ele>
        <time>2025-05-01T12:12:57Z</time>
      </trkpt>
      <trkpt lat="42.967642033472657" lon="-8.847009027376771">
        <ele>316.88999999999999</ele>
        <time>2025-05-01T12:12:58Z</time>
      </trkpt>
      <trkpt lat="42.967403987422585" lon="-8.846887992694974">
        <ele>315.44999999999999</ele>
        <time>2025-05-01T12:12:59Z</time>
      </trkpt>
      <trkpt lat="42.964485995471478" lon="-8.845285037532449">
        <ele>294.77999999999997</ele>
        <time>2025-05-01T12:13:11Z</time>
      </trkpt>
      <trkpt lat="42.964286003261805" lon="-8.845084961503744">
        <ele>293.81999999999999</ele>
        <time>2025-05-01T12:13:12Z</time>
      </trkpt>
      <trkpt lat="42.964133033528924" lon="-8.84483702480793">
        <ele>292.86000000000001</ele>
        <time>2025-05-01T12:13:13Z</time>
      </trkpt>
      <trkpt lat="42.963985009118915" lon="-8.844566959887743">
        <ele>292.38</ele>
        <time>2025-05-01T12:13:14Z</time>
      </trkpt>
      <trkpt lat="42.963851988315582" lon="-8.844295972958207">
        <ele>291.89999999999998</ele>
        <time>2025-05-01T12:13:15Z</time>
      </trkpt>
      <trkpt lat="42.963785016909242" lon="-8.843983998522162">
        <ele>290.94</ele>
        <time>2025-05-01T12:13:16Z</time>
      </trkpt>
      <trkpt lat="42.963729025796056" lon="-8.843673029914498">
        <ele>289.97000000000003</ele>
        <time>2025-05-01T12:13:17Z</time>
      </trkpt>
      <trkpt lat="42.96371603384614" lon="-8.843346973881126">
        <ele>289.49000000000001</ele>
        <time>2025-05-01T12:13:18Z</time>
      </trkpt>
      <trkpt lat="42.963737994432449" lon="-8.84303298778832">
        <ele>288.52999999999997</ele>
        <time>2025-05-01T12:13:19Z</time>
      </trkpt>
      <trkpt lat="42.963786022737622" lon="-8.842706009745598">
        <ele>287.08999999999997</ele>
        <time>2025-05-01T12:13:20Z</time>
      </trkpt>
      <trkpt lat="42.963833967223763" lon="-8.842375008389354">
        <ele>285.64999999999998</ele>
        <time>2025-05-01T12:13:21Z</time>
      </trkpt>
      <trkpt lat="42.963918037712574" lon="-8.842055993154645">
        <ele>284.20999999999998</ele>
        <time>2025-05-01T12:13:22Z</time>
      </trkpt>
      <trkpt lat="42.964006969705224" lon="-8.841731026768684">
        <ele>282.76999999999998</ele>
        <time>2025-05-01T12:13:23Z</time>
      </trkpt>
      <trkpt lat="42.964713983237743" lon="-8.839056026190519">
        <ele>270.26999999999998</ele>
        <time>2025-05-01T12:13:31Z</time>
      </trkpt>
      <trkpt lat="42.96479201875627" lon="-8.83837197907269">
        <ele>266.89999999999998</ele>
        <time>2025-05-01T12:13:33Z</time>
      </trkpt>
      <trkpt lat="42.964801993221045" lon="-8.838028991594911">
        <ele>265.45999999999998</ele>
        <time>2025-05-01T12:13:34Z</time>
      </trkpt>
      <trkpt lat="42.964676013216376" lon="-8.835482988506556">
        <ele>251.52000000000001</ele>
        <time>2025-05-01T12:13:42Z</time>
      </trkpt>
      <trkpt lat="42.964249961078167" lon="-8.833732008934021">
        <ele>241.43000000000001</ele>
        <time>2025-05-01T12:13:48Z</time>
      </trkpt>
      <trkpt lat="42.963079009205103" lon="-8.830436998978257">
        <ele>239.99000000000001</ele>
        <time>2025-05-01T12:14:00Z</time>
      </trkpt>
      <trkpt lat="42.962971972301602" lon="-8.830200964584947">
        <ele>240.47</ele>
        <time>2025-05-01T12:14:01Z</time>
      </trkpt>
      <trkpt lat="42.962830988690257" lon="-8.829998960718513">
        <ele>240.94999999999999</ele>
        <time>2025-05-01T12:14:02Z</time>
      </trkpt>
      <trkpt lat="42.962671983987093" lon="-8.829831993207336">
        <ele>241.91</ele>
        <time>2025-05-01T12:14:03Z</time>
      </trkpt>
      <trkpt lat="42.962500993162394" lon="-8.829666031524539">
        <ele>242.38999999999999</ele>
        <time>2025-05-01T12:14:04Z</time>
      </trkpt>
      <trkpt lat="42.962304018437862" lon="-8.829554971307516">
        <ele>242.87</ele>
        <time>2025-05-01T12:14:05Z</time>
      </trkpt>
      <trkpt lat="42.962108971551061" lon="-8.829446006566286">
        <ele>242.87</ele>
        <time>2025-05-01T12:14:06Z</time>
      </trkpt>
      <trkpt lat="42.961919959634542" lon="-8.829337963834405">
        <ele>243.83000000000001</ele>
        <time>2025-05-01T12:14:07Z</time>
      </trkpt>
      <trkpt lat="42.960932990536094" lon="-8.828454008325934">
        <ele>246.22999999999999</ele>
        <time>2025-05-01T12:14:13Z</time>
      </trkpt>
      <trkpt lat="42.960809022188187" lon="-8.828254016116262">
        <ele>246.72</ele>
        <time>2025-05-01T12:14:14Z</time>
      </trkpt>
      <trkpt lat="42.960683964192867" lon="-8.828048994764686">
        <ele>246.72</ele>
        <time>2025-05-01T12:14:15Z</time>
      </trkpt>
      <trkpt lat="42.96057902276516" lon="-8.827836010605097">
        <ele>246.72</ele>
        <time>2025-05-01T12:14:16Z</time>
      </trkpt>
      <trkpt lat="42.960494030267" lon="-8.827602993696928">
        <ele>246.22999999999999</ele>
        <time>2025-05-01T12:14:17Z</time>
      </trkpt>
      <trkpt lat="42.960422029718757" lon="-8.827364025637507">
        <ele>246.22999999999999</ele>
        <time>2025-05-01T12:14:18Z</time>
      </trkpt>
      <trkpt lat="42.959751980379224" lon="-8.825003011152148">
        <ele>242.87</ele>
        <time>2025-05-01T12:14:27Z</time>
      </trkpt>
      <trkpt lat="42.958996016532183" lon="-8.822540994733572">
        <ele>236.62</ele>
        <time>2025-05-01T12:14:36Z</time>
      </trkpt>
      <trkpt lat="42.958865007385612" lon="-8.822307977825403">
        <ele>235.66</ele>
        <time>2025-05-01T12:14:37Z</time>
      </trkpt>
      <trkpt lat="42.958698039874434" lon="-8.822131035849452">
        <ele>234.22</ele>
        <time>2025-05-01T12:14:38Z</time>
      </trkpt>
      <trkpt lat="42.958524031564593" lon="-8.821949986740947">
        <ele>232.78</ele>
        <time>2025-05-01T12:14:39Z</time>
      </trkpt>
      <trkpt lat="42.95834599994123" lon="-8.82176399230957">
        <ele>231.81</ele>
        <time>2025-05-01T12:14:40Z</time>
      </trkpt>
      <trkpt lat="42.958157993853092" lon="-8.821618985384703">
        <ele>230.84999999999999</ele>
        <time>2025-05-01T12:14:41Z</time>
      </trkpt>
      <trkpt lat="42.957459026947618" lon="-8.820971986278892">
        <ele>227.49000000000001</ele>
        <time>2025-05-01T12:14:45Z</time>
      </trkpt>
      <trkpt lat="42.957318965345621" lon="-8.820770988240838">
        <ele>227.00999999999999</ele>
        <time>2025-05-01T12:14:46Z</time>
      </trkpt>
      <trkpt lat="42.957188962027431" lon="-8.820556998252869">
        <ele>227.00999999999999</ele>
        <time>2025-05-01T12:14:47Z</time>
      </trkpt>
      <trkpt lat="42.957074968144298" lon="-8.820321969687939">
        <ele>227.00999999999999</ele>
        <time>2025-05-01T12:14:48Z</time>
      </trkpt>
      <trkpt lat="42.956967009231448" lon="-8.82008601911366">
        <ele>227.00999999999999</ele>
        <time>2025-05-01T12:14:49Z</time>
      </trkpt>
      <trkpt lat="42.956859972327948" lon="-8.819854008033872">
        <ele>227.49000000000001</ele>
        <time>2025-05-01T12:14:50Z</time>
      </trkpt>
      <trkpt lat="42.956202998757362" lon="-8.817735984921455">
        <ele>228.44999999999999</ele>
        <time>2025-05-01T12:14:59Z</time>
      </trkpt>
      <trkpt lat="42.95529599301517" lon="-8.814863003790379">
        <ele>219.80000000000001</ele>
        <time>2025-05-01T12:15:12Z</time>
      </trkpt>
      <trkpt lat="42.954612029716372" lon="-8.812755960971117">
        <ele>210.19</ele>
        <time>2025-05-01T12:15:22Z</time>
      </trkpt>
      <trkpt lat="42.954461993649602" lon="-8.811790030449629">
        <ele>209.22</ele>
        <time>2025-05-01T12:15:26Z</time>
      </trkpt>
      <trkpt lat="42.954462999477983" lon="-8.811537986621261">
        <ele>209.22</ele>
        <time>2025-05-01T12:15:27Z</time>
      </trkpt>
      <trkpt lat="42.954473979771137" lon="-8.811284014955163">
        <ele>209.69999999999999</ele>
        <time>2025-05-01T12:15:28Z</time>
      </trkpt>
      <trkpt lat="42.954492000862956" lon="-8.811016967520118">
        <ele>210.66999999999999</ele>
        <time>2025-05-01T12:15:29Z</time>
      </trkpt>
      <trkpt lat="42.954544974491" lon="-8.810765007510781">
        <ele>211.15000000000001</ele>
        <time>2025-05-01T12:15:30Z</time>
      </trkpt>
      <trkpt lat="42.954589985311031" lon="-8.810507012531161">
        <ele>212.11000000000001</ele>
        <time>2025-05-01T12:15:31Z</time>
      </trkpt>
      <trkpt lat="42.954890979453921" lon="-8.808632986620069">
        <ele>214.99000000000001</ele>
        <time>2025-05-01T12:15:38Z</time>
      </trkpt>
      <trkpt lat="42.954863989725709" lon="-8.808328974992037">
        <ele>214.99000000000001</ele>
        <time>2025-05-01T12:15:39Z</time>
      </trkpt>
      <trkpt lat="42.954489989206195" lon="-8.805340994149447">
        <ele>217.40000000000001</ele>
        <time>2025-05-01T12:15:48Z</time>
      </trkpt>
      <trkpt lat="42.953922031447291" lon="-8.801226988434792">
        <ele>231.33000000000001</ele>
        <time>2025-05-01T12:16:01Z</time>
      </trkpt>
      <trkpt lat="42.953871991485357" lon="-8.800964970141649">
        <ele>232.30000000000001</ele>
        <time>2025-05-01T12:16:02Z</time>
      </trkpt>
      <trkpt lat="42.953789010643959" lon="-8.80070898681879">
        <ele>232.78</ele>
        <time>2025-05-01T12:16:03Z</time>
      </trkpt>
      <trkpt lat="42.953681973740458" lon="-8.80047001875937">
        <ele>233.25999999999999</ele>
        <time>2025-05-01T12:16:04Z</time>
      </trkpt>
      <trkpt lat="42.95355599373579" lon="-8.800252005457878">
        <ele>233.74000000000001</ele>
        <time>2025-05-01T12:16:05Z</time>
      </trkpt>
      <trkpt lat="42.953416015952826" lon="-8.800056958571076">
        <ele>234.22</ele>
        <time>2025-05-01T12:16:06Z</time>
      </trkpt>
      <trkpt lat="42.953262962400913" lon="-8.799863001331687">
        <ele>234.69999999999999</ele>
        <time>2025-05-01T12:16:07Z</time>
      </trkpt>
      <trkpt lat="42.953079985454679" lon="-8.799702990800142">
        <ele>235.66</ele>
        <time>2025-05-01T12:16:08Z</time>
      </trkpt>
      <trkpt lat="42.952886028215289" lon="-8.79954700358212">
        <ele>236.62</ele>
        <time>2025-05-01T12:16:09Z</time>
      </trkpt>
      <trkpt lat="42.95267497189343" lon="-8.799403002485633">
        <ele>238.06</ele>
        <time>2025-05-01T12:16:10Z</time>
      </trkpt>
      <trkpt lat="42.950974032282829" lon="-8.798167007043958">
        <ele>251.03999999999999</ele>
        <time>2025-05-01T12:16:18Z</time>
      </trkpt>
      <trkpt lat="42.950804969295859" lon="-8.79795502871275">
        <ele>252.96000000000001</ele>
        <time>2025-05-01T12:16:19Z</time>
      </trkpt>
      <trkpt lat="42.949700988829136" lon="-8.796534966677427">
        <ele>264.98000000000002</ele>
        <time>2025-05-01T12:16:26Z</time>
      </trkpt>
      <trkpt lat="42.948932033032179" lon="-8.795829964801669">
        <ele>270.75</ele>
        <time>2025-05-01T12:16:31Z</time>
      </trkpt>
      <trkpt lat="42.948789037764072" lon="-8.795668026432395">
        <ele>272.19</ele>
        <time>2025-05-01T12:16:32Z</time>
      </trkpt>
      <trkpt lat="42.948674038052559" lon="-8.795468034222722">
        <ele>273.14999999999998</ele>
        <time>2025-05-01T12:16:33Z</time>
      </trkpt>
      <trkpt lat="42.948565995320678" lon="-8.795257983729243">
        <ele>273.63</ele>
        <time>2025-05-01T12:16:34Z</time>
      </trkpt>
      <trkpt lat="42.948491983115673" lon="-8.7950149923563">
        <ele>274.11000000000001</ele>
        <time>2025-05-01T12:16:35Z</time>
      </trkpt>
      <trkpt lat="42.948417970910668" lon="-8.794761020690203">
        <ele>274.11000000000001</ele>
        <time>2025-05-01T12:16:36Z</time>
      </trkpt>
      <trkpt lat="42.948051011189818" lon="-8.793748989701271">
        <ele>273.63</ele>
        <time>2025-05-01T12:16:40Z</time>
      </trkpt>
      <trkpt lat="42.947936011478305" lon="-8.793522007763386">
        <ele>273.14999999999998</ele>
        <time>2025-05-01T12:16:41Z</time>
      </trkpt>
      <trkpt lat="42.947800979018211" lon="-8.793326038867235">
        <ele>272.19</ele>
        <time>2025-05-01T12:16:42Z</time>
      </trkpt>
      <trkpt lat="42.947653038427234" lon="-8.793135015293956">
        <ele>271.23000000000002</ele>
        <time>2025-05-01T12:16:43Z</time>
      </trkpt>
      <trkpt lat="42.947490010410547" lon="-8.792977016419172">
        <ele>270.26999999999998</ele>
        <time>2025-05-01T12:16:44Z</time>
      </trkpt>
      <trkpt lat="42.945414986461401" lon="-8.791092010214925">
        <ele>254.41</ele>
        <time>2025-05-01T12:16:56Z</time>
      </trkpt>
      <trkpt lat="42.943567028269172" lon="-8.789411019533873">
        <ele>244.78999999999999</ele>
        <time>2025-05-01T12:17:06Z</time>
      </trkpt>
      <trkpt lat="42.943294029682875" lon="-8.788972981274128">
        <ele>244.31</ele>
        <time>2025-05-01T12:17:08Z</time>
      </trkpt>
      <trkpt lat="42.943181963637471" lon="-8.78873803652823">
        <ele>244.31</ele>
        <time>2025-05-01T12:17:09Z</time>
      </trkpt>
      <trkpt lat="42.94307098723948" lon="-8.788498984649777">
        <ele>244.78999999999999</ele>
        <time>2025-05-01T12:17:10Z</time>
      </trkpt>
      <trkpt lat="42.942979959771037" lon="-8.788244007155299">
        <ele>244.78999999999999</ele>
        <time>2025-05-01T12:17:11Z</time>
      </trkpt>
      <trkpt lat="42.942905025556684" lon="-8.787986012175679">
        <ele>244.78999999999999</ele>
        <time>2025-05-01T12:17:12Z</time>
      </trkpt>
      <trkpt lat="42.942225001752377" lon="-8.786154985427856">
        <ele>240.94999999999999</ele>
        <time>2025-05-01T12:17:20Z</time>
      </trkpt>
      <trkpt lat="42.941489992663264" lon="-8.785393992438912">
        <ele>233.25999999999999</ele>
        <time>2025-05-01T12:17:27Z</time>
      </trkpt>
      <trkpt lat="42.940795971080661" lon="-8.784809019416571">
        <ele>233.74000000000001</ele>
        <time>2025-05-01T12:17:34Z</time>
      </trkpt>
      <trkpt lat="42.94068600051105" lon="-8.784707011654973">
        <ele>233.74000000000001</ele>
        <time>2025-05-01T12:17:35Z</time>
      </trkpt>
      <trkpt lat="42.940623974427581" lon="-8.784582037478685">
        <ele>233.25999999999999</ele>
        <time>2025-05-01T12:17:36Z</time>
      </trkpt>
      <trkpt lat="42.940551973879337" lon="-8.784445999190211">
        <ele>232.78</ele>
        <time>2025-05-01T12:17:37Z</time>
      </trkpt>
      <trkpt lat="42.940480979159474" lon="-8.784309960901737">
        <ele>232.30000000000001</ele>
        <time>2025-05-01T12:17:38Z</time>
      </trkpt>
      <trkpt lat="42.939944034442306" lon="-8.782843966037035">
        <ele>225.09</ele>
        <time>2025-05-01T12:17:47Z</time>
      </trkpt>
      <trkpt lat="42.939515970647335" lon="-8.78203796222806">
        <ele>219.80000000000001</ele>
        <time>2025-05-01T12:17:51Z</time>
      </trkpt>
      <trkpt lat="42.939381022006273" lon="-8.781846016645432">
        <ele>218.84</ele>
        <time>2025-05-01T12:17:52Z</time>
      </trkpt>
      <trkpt lat="42.939230985939503" lon="-8.781667985022068">
        <ele>217.40000000000001</ele>
        <time>2025-05-01T12:17:53Z</time>
      </trkpt>
      <trkpt lat="42.937821988016367" lon="-8.779958998784423">
        <ele>209.22</ele>
        <time>2025-05-01T12:18:02Z</time>
      </trkpt>
      <trkpt lat="42.936917999759316" lon="-8.777943989261985">
        <ele>201.05000000000001</ele>
        <time>2025-05-01T12:18:10Z</time>
      </trkpt>
      <trkpt lat="42.93617301620543" lon="-8.775284998118877">
        <ele>195.77000000000001</ele>
        <time>2025-05-01T12:18:20Z</time>
      </trkpt>
      <trkpt lat="42.935718968510628" lon="-8.774309009313583">
        <ele>193.84</ele>
        <time>2025-05-01T12:18:24Z</time>
      </trkpt>
      <trkpt lat="42.934527983888984" lon="-8.772752992808819">
        <ele>191.91999999999999</ele>
        <time>2025-05-01T12:18:32Z</time>
      </trkpt>
      <trkpt lat="42.93335703201592" lon="-8.771340977400541">
        <ele>191.44</ele>
        <time>2025-05-01T12:18:40Z</time>
      </trkpt>
      <trkpt lat="42.932433011010289" lon="-8.769658980891109">
        <ele>193.84</ele>
        <time>2025-05-01T12:18:48Z</time>
      </trkpt>
      <trkpt lat="42.931249989196658" lon="-8.76716997474432">
        <ele>197.69</ele>
        <time>2025-05-01T12:18:58Z</time>
      </trkpt>
      <trkpt lat="42.929617026820779" lon="-8.763828026130796">
        <ele>204.41999999999999</ele>
        <time>2025-05-01T12:19:12Z</time>
      </trkpt>
      <trkpt lat="42.929263981059194" lon="-8.763170968741179">
        <ele>206.34</ele>
        <time>2025-05-01T12:19:15Z</time>
      </trkpt>
      <trkpt lat="42.928083976730704" lon="-8.761659041047096">
        <ele>206.34</ele>
        <time>2025-05-01T12:19:23Z</time>
      </trkpt>
      <trkpt lat="42.927939975634217" lon="-8.761425018310547">
        <ele>205.86000000000001</ele>
        <time>2025-05-01T12:19:24Z</time>
      </trkpt>
      <trkpt lat="42.927855988964438" lon="-8.761197030544281">
        <ele>205.38</ele>
        <time>2025-05-01T12:19:25Z</time>
      </trkpt>
      <trkpt lat="42.927211001515388" lon="-8.759358962997794">
        <ele>201.53</ele>
        <time>2025-05-01T12:19:33Z</time>
      </trkpt>
      <trkpt lat="42.926369039341807" lon="-8.756871968507767">
        <ele>200.56999999999999</ele>
        <time>2025-05-01T12:19:45Z</time>
      </trkpt>
      <trkpt lat="42.926253033801913" lon="-8.756554964929819">
        <ele>200.09</ele>
        <time>2025-05-01T12:19:47Z</time>
      </trkpt>
      <trkpt lat="42.926036026328802" lon="-8.756372993811965">
        <ele>200.09</ele>
        <time>2025-05-01T12:19:49Z</time>
      </trkpt>
      <trkpt lat="42.926015993580222" lon="-8.756228992715478">
        <ele>200.09</ele>
        <time>2025-05-01T12:19:50Z</time>
      </trkpt>
      <trkpt lat="42.926025968044996" lon="-8.756091026589274">
        <ele>200.09</ele>
        <time>2025-05-01T12:19:51Z</time>
      </trkpt>
      <trkpt lat="42.926086988300085" lon="-8.755949037149549">
        <ele>200.56999999999999</ele>
        <time>2025-05-01T12:19:52Z</time>
      </trkpt>
      <trkpt lat="42.926172986626625" lon="-8.755883993580937">
        <ele>201.05000000000001</ele>
        <time>2025-05-01T12:19:53Z</time>
      </trkpt>
      <trkpt lat="42.92622403241694" lon="-8.75584602355957">
        <ele>201.05000000000001</ele>
        <time>2025-05-01T12:19:54Z</time>
      </trkpt>
      <trkpt lat="42.92635302990675" lon="-8.755632033571601">
        <ele>201.05000000000001</ele>
        <time>2025-05-01T12:19:55Z</time>
      </trkpt>
      <trkpt lat="42.926378007978201" lon="-8.755491971969605">
        <ele>202.00999999999999</ele>
        <time>2025-05-01T12:19:56Z</time>
      </trkpt>
      <trkpt lat="42.926414972171187" lon="-8.755297008901835">
        <ele>202.49000000000001</ele>
        <time>2025-05-01T12:19:57Z</time>
      </trkpt>
      <trkpt lat="42.926455037668347" lon="-8.755080001428723">
        <ele>202.97999999999999</ele>
        <time>2025-05-01T12:19:58Z</time>
      </trkpt>
      <trkpt lat="42.926817974075675" lon="-8.752717981114984">
        <ele>205.86000000000001</ele>
        <time>2025-05-01T12:20:07Z</time>
      </trkpt>
      <trkpt lat="42.927259029820561" lon="-8.749460019171238">
        <ele>208.25999999999999</ele>
        <time>2025-05-01T12:20:18Z</time>
      </trkpt>
      <trkpt lat="42.927190968766809" lon="-8.747355993837118">
        <ele>212.59</ele>
        <time>2025-05-01T12:20:25Z</time>
      </trkpt>
      <trkpt lat="42.926685037091374" lon="-8.745365962386131">
        <ele>219.31999999999999</ele>
        <time>2025-05-01T12:20:32Z</time>
      </trkpt>
      <trkpt lat="42.925745006650686" lon="-8.743567038327456">
        <ele>222.19999999999999</ele>
        <time>2025-05-01T12:20:39Z</time>
      </trkpt>
      <trkpt lat="42.924495013430715" lon="-8.741750009357929">
        <ele>218.84</ele>
        <time>2025-05-01T12:20:47Z</time>
      </trkpt>
      <trkpt lat="42.923670988529921" lon="-8.740408988669515">
        <ele>215.47</ele>
        <time>2025-05-01T12:20:53Z</time>
      </trkpt>
      <trkpt lat="42.921810960397124" lon="-8.737171981483698">
        <ele>206.81999999999999</ele>
        <time>2025-05-01T12:21:07Z</time>
      </trkpt>
      <trkpt lat="42.920485027134418" lon="-8.734649028629065">
        <ele>205.86000000000001</ele>
        <time>2025-05-01T12:21:17Z</time>
      </trkpt>
      <trkpt lat="42.919613979756832" lon="-8.732712976634502">
        <ele>207.30000000000001</ele>
        <time>2025-05-01T12:21:24Z</time>
      </trkpt>
      <trkpt lat="42.918334985151887" lon="-8.729732036590576">
        <ele>207.30000000000001</ele>
        <time>2025-05-01T12:21:35Z</time>
      </trkpt>
      <trkpt lat="42.916974015533924" lon="-8.727369010448456">
        <ele>208.74000000000001</ele>
        <time>2025-05-01T12:21:45Z</time>
      </trkpt>
      <trkpt lat="42.915512965992093" lon="-8.725503031164408">
        <ele>215.94999999999999</ele>
        <time>2025-05-01T12:21:54Z</time>
      </trkpt>
      <trkpt lat="42.914664968848228" lon="-8.724638018757105">
        <ele>220.75999999999999</ele>
        <time>2025-05-01T12:21:59Z</time>
      </trkpt>
      <trkpt lat="42.913195034489036" lon="-8.723448039963841">
        <ele>226.05000000000001</ele>
        <time>2025-05-01T12:22:07Z</time>
      </trkpt>
      <trkpt lat="42.911480013281107" lon="-8.722126968204975">
        <ele>225.09</ele>
        <time>2025-05-01T12:22:16Z</time>
      </trkpt>
      <trkpt lat="42.910275030881166" lon="-8.720529964193702">
        <ele>219.80000000000001</ele>
        <time>2025-05-01T12:22:24Z</time>
      </trkpt>
      <trkpt lat="42.908840971067548" lon="-8.717753039672971">
        <ele>202.49000000000001</ele>
        <time>2025-05-01T12:22:35Z</time>
      </trkpt>
      <trkpt lat="42.907433984801173" lon="-8.714962033554912">
        <ele>193.84</ele>
        <time>2025-05-01T12:22:46Z</time>
      </trkpt>
      <trkpt lat="42.906274013221264" lon="-8.712690034881234">
        <ele>192.88</ele>
        <time>2025-05-01T12:22:55Z</time>
      </trkpt>
      <trkpt lat="42.904859986156225" lon="-8.709925012663007">
        <ele>188.08000000000001</ele>
        <time>2025-05-01T12:23:06Z</time>
      </trkpt>
      <trkpt lat="42.904269983991981" lon="-8.708923039957881">
        <ele>184.22999999999999</ele>
        <time>2025-05-01T12:23:11Z</time>
      </trkpt>
      <trkpt lat="42.903184024617076" lon="-8.707914026454091">
        <ele>176.06</ele>
        <time>2025-05-01T12:23:19Z</time>
      </trkpt>
      <trkpt lat="42.902899039909244" lon="-8.707867003977299">
        <ele>173.66</ele>
        <time>2025-05-01T12:23:21Z</time>
      </trkpt>
      <trkpt lat="42.902812035754323" lon="-8.707852000370622">
        <ele>172.21000000000001</ele>
        <time>2025-05-01T12:23:22Z</time>
      </trkpt>
      <trkpt lat="42.902702987194061" lon="-8.707744963467121">
        <ele>171.72999999999999</ele>
        <time>2025-05-01T12:23:23Z</time>
      </trkpt>
      <trkpt lat="42.902684966102242" lon="-8.707716967910528">
        <ele>170.77000000000001</ele>
        <time>2025-05-01T12:23:24Z</time>
      </trkpt>
      <trkpt lat="42.902638027444482" lon="-8.707445980980992">
        <ele>170.28999999999999</ele>
        <time>2025-05-01T12:23:25Z</time>
      </trkpt>
      <trkpt lat="42.901824982836843" lon="-8.7063870113343">
        <ele>166.44999999999999</ele>
        <time>2025-05-01T12:23:33Z</time>
      </trkpt>
      <trkpt lat="42.900350019335747" lon="-8.704623961821199">
        <ele>163.08000000000001</ele>
        <time>2025-05-01T12:23:44Z</time>
      </trkpt>
      <trkpt lat="42.898971028625965" lon="-8.703109016641974">
        <ele>163.08000000000001</ele>
        <time>2025-05-01T12:23:54Z</time>
      </trkpt>
      <trkpt lat="42.898260997608304" lon="-8.701947033405304">
        <ele>163.56</ele>
        <time>2025-05-01T12:24:02Z</time>
      </trkpt>
      <trkpt lat="42.898221015930176" lon="-8.701846031472087">
        <ele>163.56</ele>
        <time>2025-05-01T12:24:03Z</time>
      </trkpt>
      <trkpt lat="42.898070979863405" lon="-8.701816024258733">
        <ele>163.08000000000001</ele>
        <time>2025-05-01T12:24:04Z</time>
      </trkpt>
      <trkpt lat="42.898030998185277" lon="-8.701748969033361">
        <ele>163.08000000000001</ele>
        <time>2025-05-01T12:24:05Z</time>
      </trkpt>
      <trkpt lat="42.898007025942206" lon="-8.70161603204906">
        <ele>162.59999999999999</ele>
        <time>2025-05-01T12:24:06Z</time>
      </trkpt>
      <trkpt lat="42.898007025942206" lon="-8.701579989865422">
        <ele>162.59999999999999</ele>
        <time>2025-05-01T12:24:07Z</time>
      </trkpt>
      <trkpt lat="42.898042984306812" lon="-8.701363988220692">
        <ele>162.12</ele>
        <time>2025-05-01T12:24:08Z</time>
      </trkpt>
      <trkpt lat="42.898008031770587" lon="-8.701235996559262">
        <ele>162.12</ele>
        <time>2025-05-01T12:24:09Z</time>
      </trkpt>
      <trkpt lat="42.897894959896803" lon="-8.69983303360641">
        <ele>164.52000000000001</ele>
        <time>2025-05-01T12:24:17Z</time>
      </trkpt>
      <trkpt lat="42.89808196015656" lon="-8.698937008157373">
        <ele>166.44999999999999</ele>
        <time>2025-05-01T12:24:21Z</time>
      </trkpt>
      <trkpt lat="42.898162007331848" lon="-8.698713965713978">
        <ele>166.93000000000001</ele>
        <time>2025-05-01T12:24:22Z</time>
      </trkpt>
      <trkpt lat="42.898245994001627" lon="-8.698484972119331">
        <ele>167.41</ele>
        <time>2025-05-01T12:24:23Z</time>
      </trkpt>
      <trkpt lat="42.898364011198282" lon="-8.698281962424517">
        <ele>167.88999999999999</ele>
        <time>2025-05-01T12:24:24Z</time>
      </trkpt>
      <trkpt lat="42.898482028394938" lon="-8.698080964386463">
        <ele>168.37</ele>
        <time>2025-05-01T12:24:25Z</time>
      </trkpt>
      <trkpt lat="42.899261964485049" lon="-8.696859972551465">
        <ele>172.21000000000001</ele>
        <time>2025-05-01T12:24:32Z</time>
      </trkpt>
      <trkpt lat="42.899337988346815" lon="-8.696668026968837">
        <ele>173.16999999999999</ele>
        <time>2025-05-01T12:24:33Z</time>
      </trkpt>
      <trkpt lat="42.899403031915426" lon="-8.696467028930783">
        <ele>173.66</ele>
        <time>2025-05-01T12:24:34Z</time>
      </trkpt>
      <trkpt lat="42.899458017200232" lon="-8.69624700397253">
        <ele>174.13999999999999</ele>
        <time>2025-05-01T12:24:35Z</time>
      </trkpt>
      <trkpt lat="42.899516019970179" lon="-8.696018010377884">
        <ele>174.62</ele>
        <time>2025-05-01T12:24:36Z</time>
      </trkpt>
      <trkpt lat="42.899535968899727" lon="-8.695770995691419">
        <ele>175.09999999999999</ele>
        <time>2025-05-01T12:24:37Z</time>
      </trkpt>
      <trkpt lat="42.899544015526772" lon="-8.695514006540179">
        <ele>175.58000000000001</ele>
        <time>2025-05-01T12:24:38Z</time>
      </trkpt>
      <trkpt lat="42.899551978334785" lon="-8.695249976590276">
        <ele>175.58000000000001</ele>
        <time>2025-05-01T12:24:39Z</time>
      </trkpt>
      <trkpt lat="42.899536974728107" lon="-8.694988964125514">
        <ele>175.58000000000001</ele>
        <time>2025-05-01T12:24:40Z</time>
      </trkpt>
      <trkpt lat="42.899500010535121" lon="-8.694725017994642">
        <ele>175.58000000000001</ele>
        <time>2025-05-01T12:24:41Z</time>
      </trkpt>
      <trkpt lat="42.899445025250316" lon="-8.694468028843403">
        <ele>175.58000000000001</ele>
        <time>2025-05-01T12:24:42Z</time>
      </trkpt>
      <trkpt lat="42.899364978075027" lon="-8.694213973358274">
        <ele>175.58000000000001</ele>
        <time>2025-05-01T12:24:43Z</time>
      </trkpt>
      <trkpt lat="42.899274034425616" lon="-8.693966958671808">
        <ele>175.58000000000001</ele>
        <time>2025-05-01T12:24:44Z</time>
      </trkpt>
      <trkpt lat="42.899169009178877" lon="-8.69373201392591">
        <ele>175.58000000000001</ele>
        <time>2025-05-01T12:24:45Z</time>
      </trkpt>
      <trkpt lat="42.899035988375545" lon="-8.693532021716237">
        <ele>175.58000000000001</ele>
        <time>2025-05-01T12:24:46Z</time>
      </trkpt>
      <trkpt lat="42.898900033906102" lon="-8.693328006193042">
        <ele>176.06</ele>
        <time>2025-05-01T12:24:47Z</time>
      </trkpt>
      <trkpt lat="42.898762989789248" lon="-8.693122984841466">
        <ele>176.06</ele>
        <time>2025-05-01T12:24:48Z</time>
      </trkpt>
      <trkpt lat="42.897028019651771" lon="-8.690911000594497">
        <ele>182.78999999999999</ele>
        <time>2025-05-01T12:24:59Z</time>
      </trkpt>
      <trkpt lat="42.896828027442098" lon="-8.690772028639913">
        <ele>183.27000000000001</ele>
        <time>2025-05-01T12:25:00Z</time>
      </trkpt>
      <trkpt lat="42.895288020372391" lon="-8.689858987927437">
        <ele>191.44</ele>
        <time>2025-05-01T12:25:07Z</time>
      </trkpt>
      <trkpt lat="42.895100014284253" lon="-8.68965296074748">
        <ele>192.88</ele>
        <time>2025-05-01T12:25:08Z</time>
      </trkpt>
      <trkpt lat="42.894923994317651" lon="-8.689433019608259">
        <ele>193.84</ele>
        <time>2025-05-01T12:25:09Z</time>
      </trkpt>
      <trkpt lat="42.894767001271248" lon="-8.689191034063697">
        <ele>195.28</ele>
        <time>2025-05-01T12:25:10Z</time>
      </trkpt>
      <trkpt lat="42.894626017659903" lon="-8.688931027427316">
        <ele>196.72999999999999</ele>
        <time>2025-05-01T12:25:11Z</time>
      </trkpt>
      <trkpt lat="42.894497020170093" lon="-8.688657023012638">
        <ele>197.69</ele>
        <time>2025-05-01T12:25:12Z</time>
      </trkpt>
      <trkpt lat="42.893678024411201" lon="-8.687088014557958">
        <ele>204.41999999999999</ele>
        <time>2025-05-01T12:25:18Z</time>
      </trkpt>
      <trkpt lat="42.893511978909373" lon="-8.686858015134931">
        <ele>205.86000000000001</ele>
        <time>2025-05-01T12:25:19Z</time>
      </trkpt>
      <trkpt lat="42.893330007791519" lon="-8.686652993783355">
        <ele>206.81999999999999</ele>
        <time>2025-05-01T12:25:20Z</time>
      </trkpt>
      <trkpt lat="42.892743023112416" lon="-8.686177991330624">
        <ele>210.66999999999999</ele>
        <time>2025-05-01T12:25:23Z</time>
      </trkpt>
      <trkpt lat="42.891457993537188" lon="-8.685648003593087">
        <ele>214.99000000000001</ele>
        <time>2025-05-01T12:25:30Z</time>
      </trkpt>
      <trkpt lat="42.889497969299555" lon="-8.68513897061348">
        <ele>217.40000000000001</ele>
        <time>2025-05-01T12:25:41Z</time>
      </trkpt>
      <trkpt lat="42.888236995786428" lon="-8.684812998399139">
        <ele>222.19999999999999</ele>
        <time>2025-05-01T12:25:49Z</time>
      </trkpt>
      <trkpt lat="42.887042993679643" lon="-8.684459030628204">
        <ele>224.61000000000001</ele>
        <time>2025-05-01T12:25:57Z</time>
      </trkpt>
      <trkpt lat="42.885772967711091" lon="-8.683817982673645">
        <ele>227.49000000000001</ele>
        <time>2025-05-01T12:26:05Z</time>
      </trkpt>
      <trkpt lat="42.884187027812004" lon="-8.682597996667028">
        <ele>227.49000000000001</ele>
        <time>2025-05-01T12:26:16Z</time>
      </trkpt>
      <trkpt lat="42.882129019126296" lon="-8.680698992684484">
        <ele>230.84999999999999</ele>
        <time>2025-05-01T12:26:31Z</time>
      </trkpt>
      <trkpt lat="42.880898974835873" lon="-8.679211037233472">
        <ele>235.18000000000001</ele>
        <time>2025-05-01T12:26:40Z</time>
      </trkpt>
      <trkpt lat="42.879486037418246" lon="-8.677426027134061">
        <ele>239.02000000000001</ele>
        <time>2025-05-01T12:26:52Z</time>
      </trkpt>
      <trkpt lat="42.878391025587916" lon="-8.676075031980872">
        <ele>233.25999999999999</ele>
        <time>2025-05-01T12:27:01Z</time>
      </trkpt>
      <trkpt lat="42.876896029338241" lon="-8.674081983044744">
        <ele>222.68000000000001</ele>
        <time>2025-05-01T12:27:12Z</time>
      </trkpt>
      <trkpt lat="42.876412980258465" lon="-8.673155028373003">
        <ele>217.40000000000001</ele>
        <time>2025-05-01T12:27:17Z</time>
      </trkpt>
      <trkpt lat="42.876327987760305" lon="-8.672982025891542">
        <ele>216.43000000000001</ele>
        <time>2025-05-01T12:27:18Z</time>
      </trkpt>
      <trkpt lat="42.876174012199044" lon="-8.672595033422113">
        <ele>214.50999999999999</ele>
        <time>2025-05-01T12:27:20Z</time>
      </trkpt>
      <trkpt lat="42.876112991943955" lon="-8.672389006242156">
        <ele>213.55000000000001</ele>
        <time>2025-05-01T12:27:21Z</time>
      </trkpt>
      <trkpt lat="42.876055995002389" lon="-8.6721829790622">
        <ele>212.59</ele>
        <time>2025-05-01T12:27:22Z</time>
      </trkpt>
      <trkpt lat="42.876029005274177" lon="-8.671944011002779">
        <ele>211.15000000000001</ele>
        <time>2025-05-01T12:27:23Z</time>
      </trkpt>
      <trkpt lat="42.876003021374345" lon="-8.671704037114978">
        <ele>210.19</ele>
        <time>2025-05-01T12:27:24Z</time>
      </trkpt>
      <trkpt lat="42.876005033031106" lon="-8.671466996893287">
        <ele>209.22</ele>
        <time>2025-05-01T12:27:25Z</time>
      </trkpt>
      <trkpt lat="42.876029005274177" lon="-8.671227023005486">
        <ele>208.25999999999999</ele>
        <time>2025-05-01T12:27:26Z</time>
      </trkpt>
      <trkpt lat="42.876075021922588" lon="-8.67100297473371">
        <ele>207.30000000000001</ele>
        <time>2025-05-01T12:27:27Z</time>
      </trkpt>
      <trkpt lat="42.876130007207394" lon="-8.670771969482303">
        <ele>205.86000000000001</ele>
        <time>2025-05-01T12:27:28Z</time>
      </trkpt>
      <trkpt lat="42.876204019412398" lon="-8.670554039999843">
        <ele>204.41999999999999</ele>
        <time>2025-05-01T12:27:29Z</time>
      </trkpt>
      <trkpt lat="42.876282976940274" lon="-8.670338960364461">
        <ele>202.97999999999999</ele>
        <time>2025-05-01T12:27:30Z</time>
      </trkpt>
      <trkpt lat="42.876397976651788" lon="-8.67016302421689">
        <ele>201.05000000000001</ele>
        <time>2025-05-01T12:27:31Z</time>
      </trkpt>
      <trkpt lat="42.876520017161965" lon="-8.670001002028585">
        <ele>199.13</ele>
        <time>2025-05-01T12:27:32Z</time>
      </trkpt>
      <trkpt lat="42.876665024086833" lon="-8.669849038124085">
        <ele>197.69</ele>
        <time>2025-05-01T12:27:33Z</time>
      </trkpt>
      <trkpt lat="42.87680902518332" lon="-8.669697996228933">
        <ele>196.72999999999999</ele>
        <time>2025-05-01T12:27:34Z</time>
      </trkpt>
      <trkpt lat="42.876953026279807" lon="-8.669547038152814">
        <ele>195.28</ele>
        <time>2025-05-01T12:27:35Z</time>
      </trkpt>
      <trkpt lat="42.878628987818956" lon="-8.667866969481111">
        <ele>180.87</ele>
        <time>2025-05-01T12:27:46Z</time>
      </trkpt>
      <trkpt lat="42.879354022443295" lon="-8.667057026177645">
        <ele>172.69</ele>
        <time>2025-05-01T12:27:51Z</time>
      </trkpt>
      <trkpt lat="42.879481008276343" lon="-8.666857033967972">
        <ele>170.77000000000001</ele>
        <time>2025-05-01T12:27:52Z</time>
      </trkpt>
      <trkpt lat="42.879684017971158" lon="-8.666392005980015">
        <ele>167.88999999999999</ele>
        <time>2025-05-01T12:27:54Z</time>
      </trkpt>
      <trkpt lat="42.879768004640937" lon="-8.666147002950311">
        <ele>165.96000000000001</ele>
        <time>2025-05-01T12:27:55Z</time>
      </trkpt>
      <trkpt lat="42.879836987704039" lon="-8.665899988263845">
        <ele>164.52000000000001</ele>
        <time>2025-05-01T12:27:56Z</time>
      </trkpt>
      <trkpt lat="42.87986003793776" lon="-8.665638975799084">
        <ele>163.08000000000001</ele>
        <time>2025-05-01T12:27:57Z</time>
      </trkpt>
      <trkpt lat="42.879872024059296" lon="-8.665389027446508">
        <ele>161.63999999999999</ele>
        <time>2025-05-01T12:27:58Z</time>
      </trkpt>
      <trkpt lat="42.87986003793776" lon="-8.665129020810127">
        <ele>160.19999999999999</ele>
        <time>2025-05-01T12:27:59Z</time>
      </trkpt>
      <trkpt lat="42.879835981875658" lon="-8.664867002516985">
        <ele>158.27000000000001</ele>
        <time>2025-05-01T12:28:00Z</time>
      </trkpt>
      <trkpt lat="42.879788959398866" lon="-8.664543963968754">
        <ele>156.83000000000001</ele>
        <time>2025-05-01T12:28:01Z</time>
      </trkpt>
      <trkpt lat="42.879720982164145" lon="-8.664338020607829">
        <ele>155.87</ele>
        <time>2025-05-01T12:28:02Z</time>
      </trkpt>
      <trkpt lat="42.879610005766153" lon="-8.664094023406506">
        <ele>154.91</ele>
        <time>2025-05-01T12:28:03Z</time>
      </trkpt>
      <trkpt lat="42.879477990791202" lon="-8.663860000669956">
        <ele>153.47</ele>
        <time>2025-05-01T12:28:04Z</time>
      </trkpt>
      <trkpt lat="42.879331978037953" lon="-8.663643999025226">
        <ele>152.50999999999999</ele>
        <time>2025-05-01T12:28:05Z</time>
      </trkpt>
      <trkpt lat="42.879165010526776" lon="-8.663443000987172">
        <ele>151.53999999999999</ele>
        <time>2025-05-01T12:28:06Z</time>
      </trkpt>
      <trkpt lat="42.878986978903413" lon="-8.663278967142105">
        <ele>150.09999999999999</ele>
        <time>2025-05-01T12:28:07Z</time>
      </trkpt>
      <trkpt lat="42.878788998350501" lon="-8.663147035986185">
        <ele>149.13999999999999</ele>
        <time>2025-05-01T12:28:08Z</time>
      </trkpt>
      <trkpt lat="42.878589006140828" lon="-8.663020972162485">
        <ele>148.18000000000001</ele>
        <time>2025-05-01T12:28:09Z</time>
      </trkpt>
      <trkpt lat="42.878383984789252" lon="-8.662917958572507">
        <ele>147.22</ele>
        <time>2025-05-01T12:28:10Z</time>
      </trkpt>
      <trkpt lat="42.876945985481143" lon="-8.662196025252342">
        <ele>142.88999999999999</ele>
        <time>2025-05-01T12:28:18Z</time>
      </trkpt>
      <trkpt lat="42.876772982999682" lon="-8.662078008055687">
        <ele>142.41</ele>
        <time>2025-05-01T12:28:19Z</time>
      </trkpt>
      <trkpt lat="42.876604003831744" lon="-8.661959990859032">
        <ele>142.41</ele>
        <time>2025-05-01T12:28:20Z</time>
      </trkpt>
      <trkpt lat="42.876453967764974" lon="-8.661820013076067">
        <ele>141.93000000000001</ele>
        <time>2025-05-01T12:28:21Z</time>
      </trkpt>
      <trkpt lat="42.875554002821445" lon="-8.660510005429387">
        <ele>141.44999999999999</ele>
        <time>2025-05-01T12:28:28Z</time>
      </trkpt>
      <trkpt lat="42.875329032540321" lon="-8.660113960504532">
        <ele>140.49000000000001</ele>
        <time>2025-05-01T12:28:30Z</time>
      </trkpt>
      <trkpt lat="42.875081012025476" lon="-8.659749012440443">
        <ele>139.53</ele>
        <time>2025-05-01T12:28:32Z</time>
      </trkpt>
      <trkpt lat="42.87494002841413" lon="-8.659609034657478">
        <ele>138.56999999999999</ele>
        <time>2025-05-01T12:28:33Z</time>
      </trkpt>
      <trkpt lat="42.874787980690598" lon="-8.659456986933947">
        <ele>138.09</ele>
        <time>2025-05-01T12:28:34Z</time>
      </trkpt>
      <trkpt lat="42.874625036492944" lon="-8.659309968352318">
        <ele>137.61000000000001</ele>
        <time>2025-05-01T12:28:35Z</time>
      </trkpt>
      <trkpt lat="42.874448010697961" lon="-8.659216007217765">
        <ele>137.13</ele>
        <time>2025-05-01T12:28:36Z</time>
      </trkpt>
      <trkpt lat="42.874267967417836" lon="-8.659134032204747">
        <ele>136.16</ele>
        <time>2025-05-01T12:28:37Z</time>
      </trkpt>
      <trkpt lat="42.874087002128363" lon="-8.659074017778039">
        <ele>135.68000000000001</ele>
        <time>2025-05-01T12:28:38Z</time>
      </trkpt>
      <trkpt lat="42.873902013525367" lon="-8.659021966159344">
        <ele>134.72</ele>
        <time>2025-05-01T12:28:39Z</time>
      </trkpt>
      <trkpt lat="42.872460996732116" lon="-8.658878970891237">
        <ele>127.03</ele>
        <time>2025-05-01T12:28:47Z</time>
      </trkpt>
      <trkpt lat="42.870858041569591" lon="-8.658585017547011">
        <ele>116.45999999999999</ele>
        <time>2025-05-01T12:28:58Z</time>
      </trkpt>
      <trkpt lat="42.870111968368292" lon="-8.658406985923648">
        <ele>112.13</ele>
        <time>2025-05-01T12:29:05Z</time>
      </trkpt>
      <trkpt lat="42.870012978091836" lon="-8.65843003615737">
        <ele>111.65000000000001</ele>
        <time>2025-05-01T12:29:06Z</time>
      </trkpt>
      <trkpt lat="42.869917005300522" lon="-8.65845300257206">
        <ele>111.17</ele>
        <time>2025-05-01T12:29:07Z</time>
      </trkpt>
      <trkpt lat="42.869819020852447" lon="-8.65847596898675">
        <ele>110.69</ele>
        <time>2025-05-01T12:29:08Z</time>
      </trkpt>
      <trkpt lat="42.869721036404371" lon="-8.658536989241839">
        <ele>110.20999999999999</ele>
        <time>2025-05-01T12:29:09Z</time>
      </trkpt>
      <trkpt lat="42.869658004492521" lon="-8.658641008660197">
        <ele>109.73</ele>
        <time>2025-05-01T12:29:10Z</time>
      </trkpt>
      <trkpt lat="42.869576029479504" lon="-8.658728012815118">
        <ele>109.73</ele>
        <time>2025-05-01T12:29:11Z</time>
      </trkpt>
      <trkpt lat="42.869477961212397" lon="-8.65877696312964">
        <ele>109.25</ele>
        <time>2025-05-01T12:29:12Z</time>
      </trkpt>
      <trkpt lat="42.869361033663154" lon="-8.658835971727967">
        <ele>108.77</ele>
        <time>2025-05-01T12:29:13Z</time>
      </trkpt>
      <trkpt lat="42.869263971224427" lon="-8.658835971727967">
        <ele>107.81</ele>
        <time>2025-05-01T12:29:14Z</time>
      </trkpt>
      <trkpt lat="42.86915902979672" lon="-8.658791966736317">
        <ele>106.84</ele>
        <time>2025-05-01T12:29:15Z</time>
      </trkpt>
      <trkpt lat="42.869056016206741" lon="-8.65873103030026">
        <ele>106.36</ele>
        <time>2025-05-01T12:29:16Z</time>
      </trkpt>
      <trkpt lat="42.868977980688214" lon="-8.658634973689914">
        <ele>105.40000000000001</ele>
        <time>2025-05-01T12:29:17Z</time>
      </trkpt>
      <trkpt lat="42.868910003453493" lon="-8.658514022827148">
        <ele>104.92</ele>
        <time>2025-05-01T12:29:18Z</time>
      </trkpt>
      <trkpt lat="42.868869015946984" lon="-8.658374967053533">
        <ele>104.44</ele>
        <time>2025-05-01T12:29:19Z</time>
      </trkpt>
      <trkpt lat="42.868801038712263" lon="-8.65821897983551">
        <ele>103.95999999999999</ele>
        <time>2025-05-01T12:29:20Z</time>
      </trkpt>
      <trkpt lat="42.868723003193736" lon="-8.658083025366068">
        <ele>103.48</ele>
        <time>2025-05-01T12:29:21Z</time>
      </trkpt>
      <trkpt lat="42.868638010695577" lon="-8.657956039533019">
        <ele>103</ele>
        <time>2025-05-01T12:29:22Z</time>
      </trkpt>
      <trkpt lat="42.86853700876236" lon="-8.657825030386448">
        <ele>103</ele>
        <time>2025-05-01T12:29:23Z</time>
      </trkpt>
      <trkpt lat="42.86789302714169" lon="-8.657265035435557">
        <ele>99.150000000000006</ele>
        <time>2025-05-01T12:29:31Z</time>
      </trkpt>
      <trkpt lat="42.866866998374462" lon="-8.656508987769485">
        <ele>91.459999999999994</ele>
        <time>2025-05-01T12:29:44Z</time>
      </trkpt>
      <trkpt lat="42.866064012050629" lon="-8.655824018642306">
        <ele>85.689999999999998</ele>
        <time>2025-05-01T12:29:56Z</time>
      </trkpt>
      <trkpt lat="42.865568976849318" lon="-8.655049027875066">
        <ele>80.890000000000001</ele>
        <time>2025-05-01T12:30:04Z</time>
      </trkpt>
      <trkpt lat="42.865482978522778" lon="-8.654945008456707">
        <ele>79.930000000000007</ele>
        <time>2025-05-01T12:30:05Z</time>
      </trkpt>
      <trkpt lat="42.865384994074702" lon="-8.654855992645025">
        <ele>78.969999999999999</ele>
        <time>2025-05-01T12:30:06Z</time>
      </trkpt>
      <trkpt lat="42.865275023505092" lon="-8.654784997925162">
        <ele>78.480000000000004</ele>
        <time>2025-05-01T12:30:07Z</time>
      </trkpt>
      <trkpt lat="42.86516597494483" lon="-8.654714003205299">
        <ele>77.519999999999996</ele>
        <time>2025-05-01T12:30:08Z</time>
      </trkpt>
      <trkpt lat="42.864276990294456" lon="-8.654222991317511">
        <ele>70.790000000000006</ele>
        <time>2025-05-01T12:30:17Z</time>
      </trkpt>
      <trkpt lat="42.864185962826014" lon="-8.654172029346228">
        <ele>69.829999999999998</ele>
        <time>2025-05-01T12:30:18Z</time>
      </trkpt>
      <trkpt lat="42.863550027832389" lon="-8.653800962492824">
        <ele>66.950000000000003</ele>
        <time>2025-05-01T12:30:25Z</time>
      </trkpt>
      <trkpt lat="42.863405020907521" lon="-8.653670037165284">
        <ele>66.469999999999999</ele>
        <time>2025-05-01T12:30:27Z</time>
      </trkpt>
      <trkpt lat="42.862612009048462" lon="-8.652823967859149">
        <ele>62.140000000000001</ele>
        <time>2025-05-01T12:30:38Z</time>
      </trkpt>
      <trkpt lat="42.862560041248798" lon="-8.652766970917583">
        <ele>61.18</ele>
        <time>2025-05-01T12:30:39Z</time>
      </trkpt>
      <trkpt lat="42.862434983253479" lon="-8.652617018669844">
        <ele>58.780000000000001</ele>
        <time>2025-05-01T12:30:42Z</time>
      </trkpt>
      <trkpt lat="42.862401036545634" lon="-8.652580976486206">
        <ele>58.299999999999997</ele>
        <time>2025-05-01T12:30:43Z</time>
      </trkpt>
      <trkpt lat="42.862366000190377" lon="-8.6525450181216">
        <ele>57.82</ele>
        <time>2025-05-01T12:30:44Z</time>
      </trkpt>
      <trkpt lat="42.862224010750651" lon="-8.652393976226449">
        <ele>53.969999999999999</ele>
        <time>2025-05-01T12:30:50Z</time>
      </trkpt>
      <trkpt lat="42.862212024629116" lon="-8.652380984276533">
        <ele>53.490000000000002</ele>
        <time>2025-05-01T12:30:51Z</time>
      </trkpt>
      <trkpt lat="42.862054025754333" lon="-8.652210999280214">
        <ele>49.159999999999997</ele>
        <time>2025-05-01T12:31:02Z</time>
      </trkpt>
      <trkpt lat="42.86157600581646" lon="-8.65166399627924">
        <ele>42.920000000000002</ele>
        <time>2025-05-01T12:31:17Z</time>
      </trkpt>
      <trkpt lat="42.861363021656871" lon="-8.651413964107633">
        <ele>42.439999999999998</ele>
        <time>2025-05-01T12:31:27Z</time>
      </trkpt>
      <trkpt lat="42.861337037757039" lon="-8.65138404071331">
        <ele>41.950000000000003</ele>
        <time>2025-05-01T12:31:29Z</time>
      </trkpt>
      <trkpt lat="42.861314993351698" lon="-8.651356967166066">
        <ele>41.950000000000003</ele>
        <time>2025-05-01T12:31:30Z</time>
      </trkpt>
      <trkpt lat="42.861288003623486" lon="-8.651324026286602">
        <ele>41.950000000000003</ele>
        <time>2025-05-01T12:31:31Z</time>
      </trkpt>
      <trkpt lat="42.860815012827516" lon="-8.650853969156742">
        <ele>40.030000000000001</ele>
        <time>2025-05-01T12:31:45Z</time>
      </trkpt>
      <trkpt lat="42.8605049662292" lon="-8.650537971407175">
        <ele>39.07</ele>
        <time>2025-05-01T12:31:54Z</time>
      </trkpt>
      <trkpt lat="42.860474037006497" lon="-8.65050301887095">
        <ele>39.07</ele>
        <time>2025-05-01T12:31:55Z</time>
      </trkpt>
      <trkpt lat="42.86031000316143" lon="-8.65033496171236">
        <ele>39.07</ele>
        <time>2025-05-01T12:32:00Z</time>
      </trkpt>
      <trkpt lat="42.860241020098329" lon="-8.650360023602843">
        <ele>40.030000000000001</ele>
        <time>2025-05-01T12:32:01Z</time>
      </trkpt>
      <trkpt lat="42.860241020098329" lon="-8.650360023602843">
        <ele>40.509999999999998</ele>
        <time>2025-05-01T12:32:02Z</time>
      </trkpt>
      <trkpt lat="42.860115962103009" lon="-8.650376033037901">
        <ele>40.509999999999998</ele>
        <time>2025-05-01T12:32:03Z</time>
      </trkpt>
      <trkpt lat="42.860089978203177" lon="-8.650426995009184">
        <ele>40.030000000000001</ele>
        <time>2025-05-01T12:32:04Z</time>
      </trkpt>
      <trkpt lat="42.860018983483315" lon="-8.650597985833883">
        <ele>40.030000000000001</ele>
        <time>2025-05-01T12:32:07Z</time>
      </trkpt>
      <trkpt lat="42.860000040382147" lon="-8.65065498277545">
        <ele>40.030000000000001</ele>
        <time>2025-05-01T12:32:08Z</time>
      </trkpt>
      <trkpt lat="42.859958969056606" lon="-8.650779034942389">
        <ele>40.509999999999998</ele>
        <time>2025-05-01T12:32:10Z</time>
      </trkpt>
      <trkpt lat="42.859939020127058" lon="-8.650838965550065">
        <ele>40.509999999999998</ele>
        <time>2025-05-01T12:32:11Z</time>
      </trkpt>
      <trkpt lat="42.859897026792169" lon="-8.650964023545384">
        <ele>40.990000000000002</ele>
        <time>2025-05-01T12:32:13Z</time>
      </trkpt>
      <trkpt lat="42.85985997878015" lon="-8.65108204074204">
        <ele>40.509999999999998</ele>
        <time>2025-05-01T12:32:15Z</time>
      </trkpt>
      <trkpt lat="42.859808010980487" lon="-8.65125697106123">
        <ele>40.030000000000001</ele>
        <time>2025-05-01T12:32:19Z</time>
      </trkpt>
      <trkpt lat="42.859712960198522" lon="-8.651334000751376">
        <ele>40.030000000000001</ele>
        <time>2025-05-01T12:32:20Z</time>
      </trkpt>
      <trkpt lat="42.859679013490677" lon="-8.6512999702245">
        <ele>40.509999999999998</ele>
        <time>2025-05-01T12:32:21Z</time>
      </trkpt>
      <trkpt lat="42.859640037640929" lon="-8.651264011859894">
        <ele>40.509999999999998</ele>
        <time>2025-05-01T12:32:22Z</time>
      </trkpt>
      <trkpt lat="42.859597960487008" lon="-8.651226041838527">
        <ele>40.030000000000001</ele>
        <time>2025-05-01T12:32:23Z</time>
      </trkpt>
      <trkpt lat="42.859554039314389" lon="-8.651185976341367">
        <ele>40.030000000000001</ele>
        <time>2025-05-01T12:32:24Z</time>
      </trkpt>
      <trkpt lat="42.859509028494358" lon="-8.651144988834858">
        <ele>40.030000000000001</ele>
        <time>2025-05-01T12:32:25Z</time>
      </trkpt>
      <trkpt lat="42.859466029331088" lon="-8.65110500715673">
        <ele>39.549999999999997</ele>
        <time>2025-05-01T12:32:26Z</time>
      </trkpt>
      <trkpt lat="42.859423030167818" lon="-8.651065025478602">
        <ele>39.549999999999997</ele>
        <time>2025-05-01T12:32:27Z</time>
      </trkpt>
      <trkpt lat="42.859295038506389" lon="-8.650937033817172">
        <ele>38.590000000000003</ele>
        <time>2025-05-01T12:32:30Z</time>
      </trkpt>
      <trkpt lat="42.859008964151144" lon="-8.650673003867269">
        <ele>38.109999999999999</ele>
        <time>2025-05-01T12:32:37Z</time>
      </trkpt>
      <trkpt lat="42.858964959159493" lon="-8.650628998875618">
        <ele>38.109999999999999</ele>
        <time>2025-05-01T12:32:38Z</time>
      </trkpt>
      <trkpt lat="42.858918020501733" lon="-8.650580970570445">
        <ele>38.109999999999999</ele>
        <time>2025-05-01T12:32:39Z</time>
      </trkpt>
      <trkpt lat="42.858733031898737" lon="-8.65039698779583">
        <ele>37.149999999999999</ele>
        <time>2025-05-01T12:32:43Z</time>
      </trkpt>
      <trkpt lat="42.858639992773533" lon="-8.650304032489657">
        <ele>36.670000000000002</ele>
        <time>2025-05-01T12:32:45Z</time>
      </trkpt>
      <trkpt lat="42.858593976125121" lon="-8.650258015841246">
        <ele>36.189999999999998</ele>
        <time>2025-05-01T12:32:46Z</time>
      </trkpt>
      <trkpt lat="42.85854603163898" lon="-8.650214010849595">
        <ele>36.189999999999998</ele>
        <time>2025-05-01T12:32:47Z</time>
      </trkpt>
      <trkpt lat="42.858498003333807" lon="-8.650176040828228">
        <ele>36.189999999999998</ele>
        <time>2025-05-01T12:32:48Z</time>
      </trkpt>
      <trkpt lat="42.858449975028634" lon="-8.650136981159449">
        <ele>36.670000000000002</ele>
        <time>2025-05-01T12:32:49Z</time>
      </trkpt>
      <trkpt lat="42.858274960890412" lon="-8.649972025305033">
        <ele>36.189999999999998</ele>
        <time>2025-05-01T12:32:53Z</time>
      </trkpt>
      <trkpt lat="42.858232967555523" lon="-8.649940006434917">
        <ele>36.189999999999998</ele>
        <time>2025-05-01T12:32:54Z</time>
      </trkpt>
      <trkpt lat="42.857613964006305" lon="-8.649367019534111">
        <ele>38.109999999999999</ele>
        <time>2025-05-01T12:33:05Z</time>
      </trkpt>
      <trkpt lat="42.857130998745561" lon="-8.648909032344818">
        <ele>40.509999999999998</ele>
        <time>2025-05-01T12:33:12Z</time>
      </trkpt>
      <trkpt lat="42.857053969055414" lon="-8.648844994604588">
        <ele>40.990000000000002</ele>
        <time>2025-05-01T12:33:13Z</time>
      </trkpt>
      <trkpt lat="42.856567986309528" lon="-8.648392036557198">
        <ele>40.990000000000002</ele>
        <time>2025-05-01T12:33:19Z</time>
      </trkpt>
      <trkpt lat="42.855971027165651" lon="-8.647806979715824">
        <ele>40.509999999999998</ele>
        <time>2025-05-01T12:33:25Z</time>
      </trkpt>
      <trkpt lat="42.855893997475505" lon="-8.647643029689789">
        <ele>40.990000000000002</ele>
        <time>2025-05-01T12:33:26Z</time>
      </trkpt>
      <trkpt lat="42.855812022462487" lon="-8.647469021379948">
        <ele>41.469999999999999</ele>
        <time>2025-05-01T12:33:27Z</time>
      </trkpt>
      <trkpt lat="42.855734992772341" lon="-8.647286966443062">
        <ele>41.950000000000003</ele>
        <time>2025-05-01T12:33:28Z</time>
      </trkpt>
      <trkpt lat="42.855665003880858" lon="-8.647100972011685">
        <ele>42.439999999999998</ele>
        <time>2025-05-01T12:33:29Z</time>
      </trkpt>
      <trkpt lat="42.855386976152658" lon="-8.646302009001374">
        <ele>43.399999999999999</ele>
        <time>2025-05-01T12:33:33Z</time>
      </trkpt>
      <trkpt lat="42.855291003361344" lon="-8.64612297154963">
        <ele>43.399999999999999</ele>
        <time>2025-05-01T12:33:34Z</time>
      </trkpt>
      <trkpt lat="42.855182038620114" lon="-8.645975030958653">
        <ele>42.920000000000002</ele>
        <time>2025-05-01T12:33:35Z</time>
      </trkpt>
      <trkpt lat="42.855070978403091" lon="-8.645845027640462">
        <ele>42.920000000000002</ele>
        <time>2025-05-01T12:33:36Z</time>
      </trkpt>
      <trkpt lat="42.854961007833481" lon="-8.645729022100568">
        <ele>41.950000000000003</ele>
        <time>2025-05-01T12:33:37Z</time>
      </trkpt>
      <trkpt lat="42.854841984808445" lon="-8.645635982975364">
        <ele>40.990000000000002</ele>
        <time>2025-05-01T12:33:38Z</time>
      </trkpt>
      <trkpt lat="42.85472396761179" lon="-8.645547972992063">
        <ele>40.030000000000001</ele>
        <time>2025-05-01T12:33:39Z</time>
      </trkpt>
      <trkpt lat="42.854612991213799" lon="-8.645467003807426">
        <ele>39.549999999999997</ele>
        <time>2025-05-01T12:33:40Z</time>
      </trkpt>
      <trkpt lat="42.854503020644188" lon="-8.645406989380717">
        <ele>39.07</ele>
        <time>2025-05-01T12:33:41Z</time>
      </trkpt>
      <trkpt lat="42.854382991790771" lon="-8.645363990217447">
        <ele>38.590000000000003</ele>
        <time>2025-05-01T12:33:42Z</time>
      </trkpt>
      <trkpt lat="42.854262040928006" lon="-8.645321996882558">
        <ele>38.590000000000003</ele>
        <time>2025-05-01T12:33:43Z</time>
      </trkpt>
      <trkpt lat="42.854138994589448" lon="-8.645288972184062">
        <ele>38.109999999999999</ele>
        <time>2025-05-01T12:33:44Z</time>
      </trkpt>
      <trkpt lat="42.854005973786116" lon="-8.645271034911275">
        <ele>38.590000000000003</ele>
        <time>2025-05-01T12:33:45Z</time>
      </trkpt>
      <trkpt lat="42.852584989741445" lon="-8.645172966644168">
        <ele>40.030000000000001</ele>
        <time>2025-05-01T12:33:55Z</time>
      </trkpt>
      <trkpt lat="42.850542990490794" lon="-8.64506701938808">
        <ele>40.509999999999998</ele>
        <time>2025-05-01T12:34:06Z</time>
      </trkpt>
      <trkpt lat="42.848960990086198" lon="-8.644650019705296">
        <ele>39.549999999999997</ele>
        <time>2025-05-01T12:34:14Z</time>
      </trkpt>
      <trkpt lat="42.847533971071243" lon="-8.644260009750724">
        <ele>38.109999999999999</ele>
        <time>2025-05-01T12:34:22Z</time>
      </trkpt>
      <trkpt lat="42.846346003934741" lon="-8.644305020570755">
        <ele>37.630000000000003</ele>
        <time>2025-05-01T12:34:30Z</time>
      </trkpt>
      <trkpt lat="42.846092032268643" lon="-8.644265960901976">
        <ele>37.630000000000003</ele>
        <time>2025-05-01T12:34:32Z</time>
      </trkpt>
      <trkpt lat="42.845970997586846" lon="-8.64423000253737">
        <ele>37.149999999999999</ele>
        <time>2025-05-01T12:34:33Z</time>
      </trkpt>
      <trkpt lat="42.845868989825249" lon="-8.644150961190462">
        <ele>37.149999999999999</ele>
        <time>2025-05-01T12:34:34Z</time>
      </trkpt>
      <trkpt lat="42.845758013427258" lon="-8.644051970914006">
        <ele>36.670000000000002</ele>
        <time>2025-05-01T12:34:35Z</time>
      </trkpt>
      <trkpt lat="42.845689030364156" lon="-8.64394904114306">
        <ele>36.670000000000002</ele>
        <time>2025-05-01T12:34:36Z</time>
      </trkpt>
      <trkpt lat="42.845607977360487" lon="-8.643828006461263">
        <ele>37.149999999999999</ele>
        <time>2025-05-01T12:34:37Z</time>
      </trkpt>
      <trkpt lat="42.845543017610908" lon="-8.643691968172789">
        <ele>37.630000000000003</ele>
        <time>2025-05-01T12:34:38Z</time>
      </trkpt>
      <trkpt lat="42.845480991527438" lon="-8.64354302175343">
        <ele>37.630000000000003</ele>
        <time>2025-05-01T12:34:39Z</time>
      </trkpt>
      <trkpt lat="42.844791999086738" lon="-8.641798999160528">
        <ele>40.030000000000001</ele>
        <time>2025-05-01T12:34:51Z</time>
      </trkpt>
      <trkpt lat="42.844748999923468" lon="-8.641670001670718">
        <ele>40.030000000000001</ele>
        <time>2025-05-01T12:34:52Z</time>
      </trkpt>
      <trkpt lat="42.844601981341839" lon="-8.641537986695766">
        <ele>40.030000000000001</ele>
        <time>2025-05-01T12:34:54Z</time>
      </trkpt>
      <trkpt lat="42.844620002433658" lon="-8.641347968950868">
        <ele>40.030000000000001</ele>
        <time>2025-05-01T12:34:55Z</time>
      </trkpt>
      <trkpt lat="42.844467032700777" lon="-8.640998024493456">
        <ele>39.549999999999997</ele>
        <time>2025-05-01T12:34:58Z</time>
      </trkpt>
      <trkpt lat="42.844229992479086" lon="-8.640602985396981">
        <ele>38.109999999999999</ele>
        <time>2025-05-01T12:35:01Z</time>
      </trkpt>
      <trkpt lat="42.844020025804639" lon="-8.640357982367277">
        <ele>37.630000000000003</ele>
        <time>2025-05-01T12:35:03Z</time>
      </trkpt>
      <trkpt lat="42.843889016658068" lon="-8.640253962948918">
        <ele>37.149999999999999</ele>
        <time>2025-05-01T12:35:04Z</time>
      </trkpt>
      <trkpt lat="42.843749038875103" lon="-8.640142986550927">
        <ele>36.670000000000002</ele>
        <time>2025-05-01T12:35:05Z</time>
      </trkpt>
      <trkpt lat="42.842772966250777" lon="-8.639364978298545">
        <ele>35.710000000000001</ele>
        <time>2025-05-01T12:35:11Z</time>
      </trkpt>
      <trkpt lat="42.842641035094857" lon="-8.639165991917253">
        <ele>35.710000000000001</ele>
        <time>2025-05-01T12:35:12Z</time>
      </trkpt>
      <trkpt lat="42.842541038990021" lon="-8.638958036899567">
        <ele>35.229999999999997</ele>
        <time>2025-05-01T12:35:13Z</time>
      </trkpt>
      <trkpt lat="42.842446994036436" lon="-8.638740023598075">
        <ele>35.229999999999997</ele>
        <time>2025-05-01T12:35:14Z</time>
      </trkpt>
      <trkpt lat="42.842400977388024" lon="-8.638500971719623">
        <ele>35.229999999999997</ele>
        <time>2025-05-01T12:35:15Z</time>
      </trkpt>
      <trkpt lat="42.842365019023418" lon="-8.638249011710286">
        <ele>35.229999999999997</ele>
        <time>2025-05-01T12:35:16Z</time>
      </trkpt>
      <trkpt lat="42.842354960739613" lon="-8.637993028387427">
        <ele>35.710000000000001</ele>
        <time>2025-05-01T12:35:17Z</time>
      </trkpt>
      <trkpt lat="42.84232696518302" lon="-8.637208985164762">
        <ele>38.109999999999999</ele>
        <time>2025-05-01T12:35:20Z</time>
      </trkpt>
      <trkpt lat="42.842311961576343" lon="-8.636946966871619">
        <ele>39.07</ele>
        <time>2025-05-01T12:35:21Z</time>
      </trkpt>
      <trkpt lat="42.842249013483524" lon="-8.636124031618238">
        <ele>42.920000000000002</ele>
        <time>2025-05-01T12:35:24Z</time>
      </trkpt>
      <trkpt lat="42.841933015733957" lon="-8.633671989664435">
        <ele>51.090000000000003</ele>
        <time>2025-05-01T12:35:32Z</time>
      </trkpt>
      <trkpt lat="42.841780968010426" lon="-8.63142597489059">
        <ele>58.299999999999997</ele>
        <time>2025-05-01T12:35:39Z</time>
      </trkpt>
      <trkpt lat="42.841699998825788" lon="-8.631136966869235">
        <ele>59.259999999999998</ele>
        <time>2025-05-01T12:35:40Z</time>
      </trkpt>
      <trkpt lat="42.84159597940743" lon="-8.630857011303306">
        <ele>60.700000000000003</ele>
        <time>2025-05-01T12:35:41Z</time>
      </trkpt>
      <trkpt lat="42.841467987746" lon="-8.630591975525022">
        <ele>61.659999999999997</ele>
        <time>2025-05-01T12:35:42Z</time>
      </trkpt>
      <trkpt lat="42.841339996084571" lon="-8.630327023565769">
        <ele>63.100000000000001</ele>
        <time>2025-05-01T12:35:43Z</time>
      </trkpt>
      <trkpt lat="42.841181997209787" lon="-8.630079003050923">
        <ele>64.549999999999997</ele>
        <time>2025-05-01T12:35:44Z</time>
      </trkpt>
      <trkpt lat="42.84101502969861" lon="-8.629855960607529">
        <ele>65.989999999999995</ele>
        <time>2025-05-01T12:35:45Z</time>
      </trkpt>
      <trkpt lat="42.840327965095639" lon="-8.628922970965505">
        <ele>72.719999999999999</ele>
        <time>2025-05-01T12:35:50Z</time>
      </trkpt>
      <trkpt lat="42.840250013396144" lon="-8.628721972927451">
        <ele>74.640000000000001</ele>
        <time>2025-05-01T12:35:51Z</time>
      </trkpt>
      <trkpt lat="42.840173989534378" lon="-8.62852499820292">
        <ele>76.560000000000002</ele>
        <time>2025-05-01T12:35:52Z</time>
      </trkpt>
      <trkpt lat="42.840102994814515" lon="-8.628341015428305">
        <ele>78.480000000000004</ele>
        <time>2025-05-01T12:35:53Z</time>
      </trkpt>
      <trkpt lat="42.840054966509342" lon="-8.628159966319799">
        <ele>80.890000000000001</ele>
        <time>2025-05-01T12:35:54Z</time>
      </trkpt>
      <trkpt lat="42.839959999546409" lon="-8.627545991912484">
        <ele>89.060000000000002</ele>
        <time>2025-05-01T12:35:58Z</time>
      </trkpt>
      <trkpt lat="42.839936027303338" lon="-8.627413976937532">
        <ele>90.5</ele>
        <time>2025-05-01T12:35:59Z</time>
      </trkpt>
      <trkpt lat="42.8397480212152" lon="-8.627247009426355">
        <ele>92.420000000000002</ele>
        <time>2025-05-01T12:36:01Z</time>
      </trkpt>
      <trkpt lat="42.839712984859943" lon="-8.627113988623023">
        <ele>92.900000000000006</ele>
        <time>2025-05-01T12:36:02Z</time>
      </trkpt>
      <trkpt lat="42.839735029265285" lon="-8.626980967819691">
        <ele>93.870000000000005</ele>
        <time>2025-05-01T12:36:03Z</time>
      </trkpt>
      <trkpt lat="42.839797977358103" lon="-8.626882983371615">
        <ele>94.829999999999998</ele>
        <time>2025-05-01T12:36:04Z</time>
      </trkpt>
      <trkpt lat="42.839866038411856" lon="-8.626849036663771">
        <ele>95.310000000000002</ele>
        <time>2025-05-01T12:36:05Z</time>
      </trkpt>
      <trkpt lat="42.839969974011183" lon="-8.626904021948576">
        <ele>95.790000000000006</ele>
        <time>2025-05-01T12:36:06Z</time>
      </trkpt>
      <trkpt lat="42.840007022023201" lon="-8.626927994191647">
        <ele>96.269999999999996</ele>
        <time>2025-05-01T12:36:07Z</time>
      </trkpt>
      <trkpt lat="42.840164015069604" lon="-8.627055985853076">
        <ele>96.75</ele>
        <time>2025-05-01T12:36:08Z</time>
      </trkpt>
      <trkpt lat="42.840282032266259" lon="-8.627026984468103">
        <ele>96.75</ele>
        <time>2025-05-01T12:36:09Z</time>
      </trkpt>
      <trkpt lat="42.840425027534366" lon="-8.626994965597987">
        <ele>97.230000000000004</ele>
        <time>2025-05-01T12:36:10Z</time>
      </trkpt>
      <trkpt lat="42.840583026409149" lon="-8.626960013061762">
        <ele>97.709999999999994</ele>
        <time>2025-05-01T12:36:11Z</time>
      </trkpt>
      <trkpt lat="42.840717975050211" lon="-8.626898992806673">
        <ele>97.709999999999994</ele>
        <time>2025-05-01T12:36:12Z</time>
      </trkpt>
      <trkpt lat="42.840873962268233" lon="-8.626809976994991">
        <ele>98.189999999999998</ele>
        <time>2025-05-01T12:36:13Z</time>
      </trkpt>
      <trkpt lat="42.841031039133668" lon="-8.626720039173961">
        <ele>98.189999999999998</ele>
        <time>2025-05-01T12:36:14Z</time>
      </trkpt>
      <trkpt lat="42.841134974732995" lon="-8.626625994220376">
        <ele>98.670000000000002</ele>
        <time>2025-05-01T12:36:15Z</time>
      </trkpt>
      <trkpt lat="42.841242011636496" lon="-8.626498002558947">
        <ele>99.629999999999995</ele>
        <time>2025-05-01T12:36:16Z</time>
      </trkpt>
      <trkpt lat="42.841339996084571" lon="-8.626380991190672">
        <ele>100.59999999999999</ele>
        <time>2025-05-01T12:36:17Z</time>
      </trkpt>
      <trkpt lat="42.841435968875885" lon="-8.62626800313592">
        <ele>101.08</ele>
        <time>2025-05-01T12:36:18Z</time>
      </trkpt>
      <trkpt lat="42.841563960537314" lon="-8.626145040616393">
        <ele>102.04000000000001</ele>
        <time>2025-05-01T12:36:19Z</time>
      </trkpt>
      <trkpt lat="42.841679966077209" lon="-8.626105980947614">
        <ele>103</ele>
        <time>2025-05-01T12:36:20Z</time>
      </trkpt>
      <trkpt lat="42.841817010194063" lon="-8.626091983169317">
        <ele>103.95999999999999</ele>
        <time>2025-05-01T12:36:21Z</time>
      </trkpt>
      <trkpt lat="42.841937961056828" lon="-8.626091983169317">
        <ele>104.92</ele>
        <time>2025-05-01T12:36:22Z</time>
      </trkpt>
      <trkpt lat="42.842065030708909" lon="-8.626103969290853">
        <ele>105.88</ele>
        <time>2025-05-01T12:36:23Z</time>
      </trkpt>
      <trkpt lat="42.842181036248803" lon="-8.62613900564611">
        <ele>106.84</ele>
        <time>2025-05-01T12:36:24Z</time>
      </trkpt>
      <trkpt lat="42.842768020927906" lon="-8.626127019524574">
        <ele>110.69</ele>
        <time>2025-05-01T12:36:29Z</time>
      </trkpt>
      <trkpt lat="42.842874974012375" lon="-8.626073962077498">
        <ele>111.17</ele>
        <time>2025-05-01T12:36:30Z</time>
      </trkpt>
      <trkpt lat="42.842979999259114" lon="-8.626020988449454">
        <ele>111.65000000000001</ele>
        <time>2025-05-01T12:36:31Z</time>
      </trkpt>
      <trkpt lat="42.84307798370719" lon="-8.625953011214733">
        <ele>112.61</ele>
        <time>2025-05-01T12:36:32Z</time>
      </trkpt>
      <trkpt lat="42.843166999518871" lon="-8.625883022323251">
        <ele>113.09</ele>
        <time>2025-05-01T12:36:33Z</time>
      </trkpt>
      <trkpt lat="42.843311000615358" lon="-8.625770034268498">
        <ele>114.53</ele>
        <time>2025-05-01T12:36:35Z</time>
      </trkpt>
      <trkpt lat="42.843389958143234" lon="-8.625678000971675">
        <ele>117.90000000000001</ele>
        <time>2025-05-01T12:36:41Z</time>
      </trkpt>
      <trkpt lat="42.84361501224339" lon="-8.625357979908586">
        <ele>122.70999999999999</ele>
        <time>2025-05-01T12:36:46Z</time>
      </trkpt>
      <trkpt lat="42.843821039423347" lon="-8.625060003250837">
        <ele>124.63</ele>
        <time>2025-05-01T12:36:49Z</time>
      </trkpt>
      <trkpt lat="42.84389303997159" lon="-8.624955983832479">
        <ele>125.11</ele>
        <time>2025-05-01T12:36:50Z</time>
      </trkpt>
      <trkpt lat="42.843965040519834" lon="-8.624850958585739">
        <ele>125.59</ele>
        <time>2025-05-01T12:36:51Z</time>
      </trkpt>
      <trkpt lat="42.844249019399285" lon="-8.624563040211797">
        <ele>127.51000000000001</ele>
        <time>2025-05-01T12:36:54Z</time>
      </trkpt>
      <trkpt lat="42.844343986362219" lon="-8.62444200553">
        <ele>128.47</ele>
        <time>2025-05-01T12:36:55Z</time>
      </trkpt>
      <trkpt lat="42.844420010223985" lon="-8.624316025525332">
        <ele>129.43000000000001</ele>
        <time>2025-05-01T12:36:56Z</time>
      </trkpt>
      <trkpt lat="42.844486981630325" lon="-8.624169006943703">
        <ele>129.91999999999999</ele>
        <time>2025-05-01T12:36:57Z</time>
      </trkpt>
      <trkpt lat="42.844541966915131" lon="-8.624026011675596">
        <ele>130.88</ele>
        <time>2025-05-01T12:36:58Z</time>
      </trkpt>
      <trkpt lat="42.844579014927149" lon="-8.623871030285955">
        <ele>131.36000000000001</ele>
        <time>2025-05-01T12:36:59Z</time>
      </trkpt>
      <trkpt lat="42.844606004655361" lon="-8.623740021139383">
        <ele>131.84</ele>
        <time>2025-05-01T12:37:00Z</time>
      </trkpt>
      <trkpt lat="42.844741037115455" lon="-8.622814994305372">
        <ele>137.13</ele>
        <time>2025-05-01T12:37:09Z</time>
      </trkpt>
      <trkpt lat="42.844765009358525" lon="-8.622620031237602">
        <ele>138.09</ele>
        <time>2025-05-01T12:37:11Z</time>
      </trkpt>
      <trkpt lat="42.844789987429976" lon="-8.622533027082682">
        <ele>138.56999999999999</ele>
        <time>2025-05-01T12:37:12Z</time>
      </trkpt>
      <trkpt lat="42.844850001856685" lon="-8.622464966028929">
        <ele>139.05000000000001</ele>
        <time>2025-05-01T12:37:13Z</time>
      </trkpt>
      <trkpt lat="42.844920996576548" lon="-8.622420961037278">
        <ele>139.53</ele>
        <time>2025-05-01T12:37:14Z</time>
      </trkpt>
      <trkpt lat="42.844994002953172" lon="-8.622375028207898">
        <ele>139.05000000000001</ele>
        <time>2025-05-01T12:37:15Z</time>
      </trkpt>
      <trkpt lat="42.845069020986557" lon="-8.622329011559486">
        <ele>139.05000000000001</ele>
        <time>2025-05-01T12:37:16Z</time>
      </trkpt>
      <trkpt lat="42.845143033191562" lon="-8.622274026274681">
        <ele>138.56999999999999</ele>
        <time>2025-05-01T12:37:17Z</time>
      </trkpt>
      <trkpt lat="42.845211010426283" lon="-8.622219962999225">
        <ele>138.09</ele>
        <time>2025-05-01T12:37:18Z</time>
      </trkpt>
      <trkpt lat="42.8460200317204" lon="-8.621602971106768">
        <ele>133.28</ele>
        <time>2025-05-01T12:37:28Z</time>
      </trkpt>
      <trkpt lat="42.84657902084291" lon="-8.621243974193931">
        <ele>130.40000000000001</ele>
        <time>2025-05-01T12:37:34Z</time>
      </trkpt>
      <trkpt lat="42.846674993634224" lon="-8.621230982244015">
        <ele>129.43000000000001</ele>
        <time>2025-05-01T12:37:35Z</time>
      </trkpt>
      <trkpt lat="42.846799967810512" lon="-8.621254032477737">
        <ele>128.47</ele>
        <time>2025-05-01T12:37:36Z</time>
      </trkpt>
      <trkpt lat="42.846936006098986" lon="-8.621298959478736">
        <ele>127.51000000000001</ele>
        <time>2025-05-01T12:37:37Z</time>
      </trkpt>
      <trkpt lat="42.847067015245557" lon="-8.621355034410954">
        <ele>126.55</ele>
        <time>2025-05-01T12:37:38Z</time>
      </trkpt>
      <trkpt lat="42.847195006906986" lon="-8.621409013867378">
        <ele>126.06999999999999</ele>
        <time>2025-05-01T12:37:39Z</time>
      </trkpt>
      <trkpt lat="42.847319981083274" lon="-8.621461987495422">
        <ele>125.11</ele>
        <time>2025-05-01T12:37:40Z</time>
      </trkpt>
      <trkpt lat="42.84778400324285" lon="-8.621555026620626">
        <ele>121.73999999999999</ele>
        <time>2025-05-01T12:37:44Z</time>
      </trkpt>
      <trkpt lat="42.848555976524949" lon="-8.621495012193918">
        <ele>121.73999999999999</ele>
        <time>2025-05-01T12:37:51Z</time>
      </trkpt>
      <trkpt lat="42.849635984748602" lon="-8.621375989168882">
        <ele>127.51000000000001</ele>
        <time>2025-05-01T12:38:00Z</time>
      </trkpt>
      <trkpt lat="42.849750984460115" lon="-8.621323015540838">
        <ele>127.98999999999999</ele>
        <time>2025-05-01T12:38:01Z</time>
      </trkpt>
      <trkpt lat="42.849857015535235" lon="-8.621237017214298">
        <ele>127.51000000000001</ele>
        <time>2025-05-01T12:38:02Z</time>
      </trkpt>
      <trkpt lat="42.849956005811691" lon="-8.621121011674404">
        <ele>127.03</ele>
        <time>2025-05-01T12:38:03Z</time>
      </trkpt>
      <trkpt lat="42.850049966946244" lon="-8.621009029448032">
        <ele>127.03</ele>
        <time>2025-05-01T12:38:04Z</time>
      </trkpt>
      <trkpt lat="42.850387003272772" lon="-8.620624970644712">
        <ele>125.59</ele>
        <time>2025-05-01T12:38:08Z</time>
      </trkpt>
      <trkpt lat="42.850456992164254" lon="-8.620555987581611">
        <ele>126.06999999999999</ele>
        <time>2025-05-01T12:38:09Z</time>
      </trkpt>
      <trkpt lat="42.850497979670763" lon="-8.620515000075102">
        <ele>126.06999999999999</ele>
        <time>2025-05-01T12:38:10Z</time>
      </trkpt>
      <trkpt lat="42.850599987432361" lon="-8.620412992313504">
        <ele>126.06999999999999</ele>
        <time>2025-05-01T12:38:12Z</time>
      </trkpt>
      <trkpt lat="42.850661007687449" lon="-8.620350966230035">
        <ele>125.59</ele>
        <time>2025-05-01T12:38:13Z</time>
      </trkpt>
      <trkpt lat="42.850804002955556" lon="-8.620197996497154">
        <ele>125.59</ele>
        <time>2025-05-01T12:38:15Z</time>
      </trkpt>
      <trkpt lat="42.850870974361897" lon="-8.62010101787746">
        <ele>125.11</ele>
        <time>2025-05-01T12:38:16Z</time>
      </trkpt>
      <trkpt lat="42.850938029587269" lon="-8.620004039257765">
        <ele>125.11</ele>
        <time>2025-05-01T12:38:17Z</time>
      </trkpt>
      <trkpt lat="42.851533982902765" lon="-8.618996031582356">
        <ele>121.26000000000001</ele>
        <time>2025-05-01T12:38:28Z</time>
      </trkpt>
      <trkpt lat="42.851604977622628" lon="-8.618926964700222">
        <ele>121.26000000000001</ele>
        <time>2025-05-01T12:38:29Z</time>
      </trkpt>
      <trkpt lat="42.852475019171834" lon="-8.618287006393075">
        <ele>112.13</ele>
        <time>2025-05-01T12:38:40Z</time>
      </trkpt>
      <trkpt lat="42.853516973555088" lon="-8.617510003969073">
        <ele>99.629999999999995</ele>
        <time>2025-05-01T12:38:53Z</time>
      </trkpt>
      <trkpt lat="42.85450603812933" lon="-8.6167729832232">
        <ele>90.980000000000004</ele>
        <time>2025-05-01T12:39:06Z</time>
      </trkpt>
      <trkpt lat="42.855398962274194" lon="-8.616113997995853">
        <ele>93.390000000000001</ele>
        <time>2025-05-01T12:39:18Z</time>
      </trkpt>
      <trkpt lat="42.855708003044128" lon="-8.615904031321406">
        <ele>94.349999999999994</ele>
        <time>2025-05-01T12:39:22Z</time>
      </trkpt>
      <trkpt lat="42.856064988300204" lon="-8.615577975288034">
        <ele>95.310000000000002</ele>
        <time>2025-05-01T12:39:27Z</time>
      </trkpt>
      <trkpt lat="42.856126008555293" lon="-8.615493988618255">
        <ele>95.790000000000006</ele>
        <time>2025-05-01T12:39:28Z</time>
      </trkpt>
      <trkpt lat="42.85616397857666" lon="-8.615390975028276">
        <ele>95.790000000000006</ele>
        <time>2025-05-01T12:39:29Z</time>
      </trkpt>
      <trkpt lat="42.856192979961634" lon="-8.615278992801905">
        <ele>95.790000000000006</ele>
        <time>2025-05-01T12:39:30Z</time>
      </trkpt>
      <trkpt lat="42.856222987174988" lon="-8.615163993090391">
        <ele>96.269999999999996</ele>
        <time>2025-05-01T12:39:31Z</time>
      </trkpt>
      <trkpt lat="42.856559017673135" lon="-8.613878963515163">
        <ele>99.150000000000006</ele>
        <time>2025-05-01T12:39:43Z</time>
      </trkpt>
      <trkpt lat="42.856862023472786" lon="-8.612695019692183">
        <ele>106.84</ele>
        <time>2025-05-01T12:39:53Z</time>
      </trkpt>
      <trkpt lat="42.857197970151901" lon="-8.611275041475892">
        <ele>118.38</ele>
        <time>2025-05-01T12:40:02Z</time>
      </trkpt>
      <trkpt lat="42.857730975374579" lon="-8.60908099450171">
        <ele>129.43000000000001</ele>
        <time>2025-05-01T12:40:16Z</time>
      </trkpt>
      <trkpt lat="42.857730975374579" lon="-8.608921989798546">
        <ele>130.40000000000001</ele>
        <time>2025-05-01T12:40:17Z</time>
      </trkpt>
      <trkpt lat="42.857730975374579" lon="-8.608269961550832">
        <ele>135.19999999999999</ele>
        <time>2025-05-01T12:40:21Z</time>
      </trkpt>
      <trkpt lat="42.857730975374579" lon="-8.608088996261358">
        <ele>136.16</ele>
        <time>2025-05-01T12:40:22Z</time>
      </trkpt>
      <trkpt lat="42.857785960659385" lon="-8.607953963801265">
        <ele>137.13</ele>
        <time>2025-05-01T12:40:23Z</time>
      </trkpt>
      <trkpt lat="42.857843963429332" lon="-8.60781298018992">
        <ele>138.09</ele>
        <time>2025-05-01T12:40:24Z</time>
      </trkpt>
      <trkpt lat="42.857914958149195" lon="-8.607676019892097">
        <ele>139.05000000000001</ele>
        <time>2025-05-01T12:40:25Z</time>
      </trkpt>
      <trkpt lat="42.857998022809625" lon="-8.607559008523822">
        <ele>139.53</ele>
        <time>2025-05-01T12:40:26Z</time>
      </trkpt>
      <trkpt lat="42.858081003651023" lon="-8.607439985498786">
        <ele>140.00999999999999</ele>
        <time>2025-05-01T12:40:27Z</time>
      </trkpt>
      <trkpt lat="42.858327012509108" lon="-8.607076965272427">
        <ele>142.41</ele>
        <time>2025-05-01T12:40:30Z</time>
      </trkpt>
      <trkpt lat="42.859354969114065" lon="-8.60564399510622">
        <ele>153.94999999999999</ele>
        <time>2025-05-01T12:40:42Z</time>
      </trkpt>
      <trkpt lat="42.860167007893324" lon="-8.604427026584745">
        <ele>153.94999999999999</ele>
        <time>2025-05-01T12:40:52Z</time>
      </trkpt>
      <trkpt lat="42.860227022320032" lon="-8.604288976639509">
        <ele>153.47</ele>
        <time>2025-05-01T12:40:53Z</time>
      </trkpt>
      <trkpt lat="42.860254012048244" lon="-8.604131983593106">
        <ele>152.99000000000001</ele>
        <time>2025-05-01T12:40:54Z</time>
      </trkpt>
      <trkpt lat="42.860279995948076" lon="-8.603974990546703">
        <ele>152.03</ele>
        <time>2025-05-01T12:40:55Z</time>
      </trkpt>
      <trkpt lat="42.860304974019527" lon="-8.603809028863907">
        <ele>151.53999999999999</ele>
        <time>2025-05-01T12:40:56Z</time>
      </trkpt>
      <trkpt lat="42.86028703674674" lon="-8.60364499501884">
        <ele>151.06</ele>
        <time>2025-05-01T12:40:57Z</time>
      </trkpt>
      <trkpt lat="42.860269015654922" lon="-8.603482972830534">
        <ele>150.09999999999999</ele>
        <time>2025-05-01T12:40:58Z</time>
      </trkpt>
      <trkpt lat="42.860252000391483" lon="-8.603320028632879">
        <ele>149.62</ele>
        <time>2025-05-01T12:40:59Z</time>
      </trkpt>
      <trkpt lat="42.860163990408182" lon="-8.602830022573471">
        <ele>147.69999999999999</ele>
        <time>2025-05-01T12:41:02Z</time>
      </trkpt>
      <trkpt lat="42.860144963487983" lon="-8.602665988728404">
        <ele>147.22</ele>
        <time>2025-05-01T12:41:03Z</time>
      </trkpt>
      <trkpt lat="42.860149992629886" lon="-8.602511007338762">
        <ele>146.25999999999999</ele>
        <time>2025-05-01T12:41:04Z</time>
      </trkpt>
      <trkpt lat="42.860188968479633" lon="-8.602356025949121">
        <ele>145.78</ele>
        <time>2025-05-01T12:41:05Z</time>
      </trkpt>
      <trkpt lat="42.860248982906342" lon="-8.602215964347124">
        <ele>145.30000000000001</ele>
        <time>2025-05-01T12:41:06Z</time>
      </trkpt>
      <trkpt lat="42.860317965969443" lon="-8.602077998220921">
        <ele>144.34</ele>
        <time>2025-05-01T12:41:07Z</time>
      </trkpt>
      <trkpt lat="42.860391978174448" lon="-8.601929973810911">
        <ele>143.84999999999999</ele>
        <time>2025-05-01T12:41:08Z</time>
      </trkpt>
      <trkpt lat="42.860460039228201" lon="-8.601811034604907">
        <ele>143.37</ele>
        <time>2025-05-01T12:41:09Z</time>
      </trkpt>
      <trkpt lat="42.86052499897778" lon="-8.601697040721774">
        <ele>142.41</ele>
        <time>2025-05-01T12:41:10Z</time>
      </trkpt>
      <trkpt lat="42.86054402589798" lon="-8.601543987169862">
        <ele>141.93000000000001</ele>
        <time>2025-05-01T12:41:11Z</time>
      </trkpt>
      <trkpt lat="42.860498009249568" lon="-8.60141197219491">
        <ele>141.44999999999999</ele>
        <time>2025-05-01T12:41:12Z</time>
      </trkpt>
      <trkpt lat="42.860419973731041" lon="-8.601326979696751">
        <ele>140.97</ele>
        <time>2025-05-01T12:41:13Z</time>
      </trkpt>
      <trkpt lat="42.860333975404501" lon="-8.601234024390578">
        <ele>140.97</ele>
        <time>2025-05-01T12:41:14Z</time>
      </trkpt>
      <trkpt lat="42.860199026763439" lon="-8.601093040779233">
        <ele>140.97</ele>
        <time>2025-05-01T12:41:15Z</time>
      </trkpt>
      <trkpt lat="42.860105987638235" lon="-8.601077031344175">
        <ele>140.49000000000001</ele>
        <time>2025-05-01T12:41:16Z</time>
      </trkpt>
      <trkpt lat="42.85880696028471" lon="-8.600776959210634">
        <ele>139.05000000000001</ele>
        <time>2025-05-01T12:41:25Z</time>
      </trkpt>
      <trkpt lat="42.857480021193624" lon="-8.600600017234683">
        <ele>140.97</ele>
        <time>2025-05-01T12:41:32Z</time>
      </trkpt>
      <trkpt lat="42.855371972545981" lon="-8.600768996402621">
        <ele>147.22</ele>
        <time>2025-05-01T12:41:41Z</time>
      </trkpt>
      <trkpt lat="42.85350096412003" lon="-8.600691966712475">
        <ele>154.91</ele>
        <time>2025-05-01T12:41:49Z</time>
      </trkpt>
      <trkpt lat="42.851831959560513" lon="-8.600071035325527">
        <ele>164.52000000000001</ele>
        <time>2025-05-01T12:41:57Z</time>
      </trkpt>
      <trkpt lat="42.850177036598325" lon="-8.598717022687197">
        <ele>174.13999999999999</ele>
        <time>2025-05-01T12:42:06Z</time>
      </trkpt>
      <trkpt lat="42.849011030048132" lon="-8.597036032006145">
        <ele>180.87</ele>
        <time>2025-05-01T12:42:14Z</time>
      </trkpt>
      <trkpt lat="42.848168984055519" lon="-8.595617981627584">
        <ele>188.08000000000001</ele>
        <time>2025-05-01T12:42:21Z</time>
      </trkpt>
      <trkpt lat="42.847180003300309" lon="-8.594402018934488">
        <ele>194.31999999999999</ele>
        <time>2025-05-01T12:42:29Z</time>
      </trkpt>
      <trkpt lat="42.846857970580459" lon="-8.594241002574563">
        <ele>196.25</ele>
        <time>2025-05-01T12:42:31Z</time>
      </trkpt>
      <trkpt lat="42.846703995019197" lon="-8.594163972884417">
        <ele>196.72999999999999</ele>
        <time>2025-05-01T12:42:32Z</time>
      </trkpt>
      <trkpt lat="42.84602103754878" lon="-8.593994993716478">
        <ele>197.21000000000001</ele>
        <time>2025-05-01T12:42:37Z</time>
      </trkpt>
      <trkpt lat="42.845926992595196" lon="-8.59397697262466">
        <ele>197.21000000000001</ele>
        <time>2025-05-01T12:42:38Z</time>
      </trkpt>
      <trkpt lat="42.845833031460643" lon="-8.594075040891767">
        <ele>197.69</ele>
        <time>2025-05-01T12:42:39Z</time>
      </trkpt>
      <trkpt lat="42.845800006762147" lon="-8.594141006469727">
        <ele>198.16999999999999</ele>
        <time>2025-05-01T12:42:40Z</time>
      </trkpt>
      <trkpt lat="42.84580897539854" lon="-8.594258017838001">
        <ele>198.16999999999999</ele>
        <time>2025-05-01T12:42:41Z</time>
      </trkpt>
      <trkpt lat="42.845818027853966" lon="-8.59436497092247">
        <ele>198.16999999999999</ele>
        <time>2025-05-01T12:42:42Z</time>
      </trkpt>
      <trkpt lat="42.845858009532094" lon="-8.59447100199759">
        <ele>198.16999999999999</ele>
        <time>2025-05-01T12:42:43Z</time>
      </trkpt>
      <trkpt lat="42.845926992595196" lon="-8.594568986445665">
        <ele>198.65000000000001</ele>
        <time>2025-05-01T12:42:44Z</time>
      </trkpt>
      <trkpt lat="42.845998993143439" lon="-8.594672000035644">
        <ele>198.65000000000001</ele>
        <time>2025-05-01T12:42:45Z</time>
      </trkpt>
      <trkpt lat="42.846320020034909" lon="-8.595128981396556">
        <ele>199.13</ele>
        <time>2025-05-01T12:42:50Z</time>
      </trkpt>
      <trkpt lat="42.846342986449599" lon="-8.595162006095052">
        <ele>199.13</ele>
        <time>2025-05-01T12:42:51Z</time>
      </trkpt>
      <trkpt lat="42.846416998654604" lon="-8.595182960852981">
        <ele>199.13</ele>
        <time>2025-05-01T12:42:52Z</time>
      </trkpt>
      <trkpt lat="42.846452035009861" lon="-8.595153959468007">
        <ele>198.65000000000001</ele>
        <time>2025-05-01T12:42:53Z</time>
      </trkpt>
      <trkpt lat="42.846502996981144" lon="-8.595111966133118">
        <ele>198.65000000000001</ele>
        <time>2025-05-01T12:42:54Z</time>
      </trkpt>
      <trkpt lat="42.846562005579472" lon="-8.595062009990215">
        <ele>198.16999999999999</ele>
        <time>2025-05-01T12:42:55Z</time>
      </trkpt>
      <trkpt lat="42.847039019688964" lon="-8.594662025570869">
        <ele>195.28</ele>
        <time>2025-05-01T12:43:00Z</time>
      </trkpt>
      <trkpt lat="42.847259966656566" lon="-8.594442000612617">
        <ele>192.88</ele>
        <time>2025-05-01T12:43:02Z</time>
      </trkpt>
      <trkpt lat="42.847560038790107" lon="-8.593824002891779">
        <ele>188.56</ele>
        <time>2025-05-01T12:43:06Z</time>
      </trkpt>
      <trkpt lat="42.847608989104629" lon="-8.593644965440035">
        <ele>187.59</ele>
        <time>2025-05-01T12:43:07Z</time>
      </trkpt>
      <trkpt lat="42.847666991874576" lon="-8.593369033187628">
        <ele>187.11000000000001</ele>
        <time>2025-05-01T12:43:08Z</time>
      </trkpt>
      <trkpt lat="42.847578981891274" lon="-8.592318026348949">
        <ele>188.08000000000001</ele>
        <time>2025-05-01T12:43:15Z</time>
      </trkpt>
      <trkpt lat="42.847570013254881" lon="-8.592181988060474">
        <ele>189.52000000000001</ele>
        <time>2025-05-01T12:43:16Z</time>
      </trkpt>
      <trkpt lat="42.847471022978425" lon="-8.590823030099273">
        <ele>199.13</ele>
        <time>2025-05-01T12:43:26Z</time>
      </trkpt>
      <trkpt lat="42.84735300578177" lon="-8.58918403275311">
        <ele>207.30000000000001</ele>
        <time>2025-05-01T12:43:38Z</time>
      </trkpt>
      <trkpt lat="42.847307994961739" lon="-8.588515995070338">
        <ele>208.74000000000001</ele>
        <time>2025-05-01T12:43:46Z</time>
      </trkpt>
      <trkpt lat="42.847305983304977" lon="-8.588487999513745">
        <ele>209.22</ele>
        <time>2025-05-01T12:43:47Z</time>
      </trkpt>
      <trkpt lat="42.847304977476597" lon="-8.588434020057321">
        <ele>209.22</ele>
        <time>2025-05-01T12:43:48Z</time>
      </trkpt>
      <trkpt lat="42.847351999953389" lon="-8.588437959551811">
        <ele>209.22</ele>
        <time>2025-05-01T12:43:49Z</time>
      </trkpt>
      <trkpt lat="42.84741603769362" lon="-8.588443994522095">
        <ele>208.74000000000001</ele>
        <time>2025-05-01T12:43:50Z</time>
      </trkpt>
      <trkpt lat="42.847488038241863" lon="-8.588450029492378">
        <ele>208.74000000000001</ele>
        <time>2025-05-01T12:43:51Z</time>
      </trkpt>
      <trkpt lat="42.848223969340324" lon="-8.588520018383861">
        <ele>209.22</ele>
        <time>2025-05-01T12:43:58Z</time>
      </trkpt>
      <trkpt lat="42.848899969831109" lon="-8.588580032810569">
        <ele>209.22</ele>
        <time>2025-05-01T12:44:06Z</time>
      </trkpt>
      <trkpt lat="42.849793983623385" lon="-8.588656978681684">
        <ele>204.90000000000001</ele>
        <time>2025-05-01T12:44:17Z</time>
      </trkpt>
      <trkpt lat="42.850974993780255" lon="-8.588793016970158">
        <ele>201.05000000000001</ele>
        <time>2025-05-01T12:44:31Z</time>
      </trkpt>
      <trkpt lat="42.851215973496437" lon="-8.588853031396866">
        <ele>200.56999999999999</ele>
        <time>2025-05-01T12:44:34Z</time>
      </trkpt>
      <trkpt lat="42.851826008409262" lon="-8.589018993079662">
        <ele>200.09</ele>
        <time>2025-05-01T12:44:41Z</time>
      </trkpt>
      <trkpt lat="42.852095989510417" lon="-8.589059980586171">
        <ele>200.56999999999999</ele>
        <time>2025-05-01T12:44:44Z</time>
      </trkpt>
      <trkpt lat="42.852864023298025" lon="-8.589067021384835">
        <ele>200.56999999999999</ele>
        <time>2025-05-01T12:44:52Z</time>
      </trkpt>
      <trkpt lat="42.854103958234191" lon="-8.589024022221565">
        <ele>196.25</ele>
        <time>2025-05-01T12:45:05Z</time>
      </trkpt>
      <trkpt lat="42.854596981778741" lon="-8.588998038321734">
        <ele>194.80000000000001</ele>
        <time>2025-05-01T12:45:09Z</time>
      </trkpt>
      <trkpt lat="42.855037031695247" lon="-8.588879015296698">
        <ele>193.36000000000001</ele>
        <time>2025-05-01T12:45:13Z</time>
      </trkpt>
      <trkpt lat="42.855759970843792" lon="-8.588630994781852">
        <ele>188.56</ele>
        <time>2025-05-01T12:45:20Z</time>
      </trkpt>
      <trkpt lat="42.855855021625757" lon="-8.588596964254975">
        <ele>187.59</ele>
        <time>2025-05-01T12:45:21Z</time>
      </trkpt>
      <trkpt lat="42.856174036860466" lon="-8.588363025337458">
        <ele>186.63</ele>
        <time>2025-05-01T12:45:25Z</time>
      </trkpt>
      <trkpt lat="42.856215024366975" lon="-8.588256994262338">
        <ele>187.11000000000001</ele>
        <time>2025-05-01T12:45:26Z</time>
      </trkpt>
      <trkpt lat="42.856254000216722" lon="-8.588133025914431">
        <ele>187.59</ele>
        <time>2025-05-01T12:45:27Z</time>
      </trkpt>
      <trkpt lat="42.856431026011705" lon="-8.587363986298442">
        <ele>190.47999999999999</ele>
        <time>2025-05-01T12:45:33Z</time>
      </trkpt>
      <trkpt lat="42.856515012681484" lon="-8.587129041552544">
        <ele>190.47999999999999</ele>
        <time>2025-05-01T12:45:35Z</time>
      </trkpt>
      <trkpt lat="42.856546025723219" lon="-8.586996020749211">
        <ele>190.47999999999999</ele>
        <time>2025-05-01T12:45:36Z</time>
      </trkpt>
      <trkpt lat="42.856600005179644" lon="-8.586892001330853">
        <ele>190.47999999999999</ele>
        <time>2025-05-01T12:45:37Z</time>
      </trkpt>
      <trkpt lat="42.856648033484817" lon="-8.586812037974596">
        <ele>190</ele>
        <time>2025-05-01T12:45:38Z</time>
      </trkpt>
      <trkpt lat="42.856697989627719" lon="-8.586753029376268">
        <ele>190</ele>
        <time>2025-05-01T12:45:39Z</time>
      </trkpt>
      <trkpt lat="42.856778036803007" lon="-8.586725033819675">
        <ele>189.52000000000001</ele>
        <time>2025-05-01T12:45:40Z</time>
      </trkpt>
      <trkpt lat="42.856884989887476" lon="-8.586686979979277">
        <ele>189.52000000000001</ele>
        <time>2025-05-01T12:45:41Z</time>
      </trkpt>
      <trkpt lat="42.85704399459064" lon="-8.586630988866091">
        <ele>189.52000000000001</ele>
        <time>2025-05-01T12:45:42Z</time>
      </trkpt>
      <trkpt lat="42.857128987088799" lon="-8.586531998589635">
        <ele>189.52000000000001</ele>
        <time>2025-05-01T12:45:43Z</time>
      </trkpt>
      <trkpt lat="42.857225965708494" lon="-8.586419010534883">
        <ele>189.52000000000001</ele>
        <time>2025-05-01T12:45:44Z</time>
      </trkpt>
      <trkpt lat="42.857316993176937" lon="-8.586312979459763">
        <ele>190</ele>
        <time>2025-05-01T12:45:45Z</time>
      </trkpt>
      <trkpt lat="42.857403997331858" lon="-8.586211977526546">
        <ele>190</ele>
        <time>2025-05-01T12:45:46Z</time>
      </trkpt>
      <trkpt lat="42.857496030628681" lon="-8.58613695949316">
        <ele>190</ele>
        <time>2025-05-01T12:45:47Z</time>
      </trkpt>
      <trkpt lat="42.857598038390279" lon="-8.586068982258439">
        <ele>190</ele>
        <time>2025-05-01T12:45:48Z</time>
      </trkpt>
      <trkpt lat="42.857697028666735" lon="-8.586006034165621">
        <ele>190</ele>
        <time>2025-05-01T12:45:49Z</time>
      </trkpt>
      <trkpt lat="42.857809010893106" lon="-8.585978038609028">
        <ele>190</ele>
        <time>2025-05-01T12:45:50Z</time>
      </trkpt>
      <trkpt lat="42.857919987291098" lon="-8.585976026952267">
        <ele>190.47999999999999</ele>
        <time>2025-05-01T12:45:51Z</time>
      </trkpt>
      <trkpt lat="42.858018977567554" lon="-8.585992036387324">
        <ele>190.96000000000001</ele>
        <time>2025-05-01T12:45:52Z</time>
      </trkpt>
      <trkpt lat="42.85884995944798" lon="-8.586237039417028">
        <ele>191.44</ele>
        <time>2025-05-01T12:46:01Z</time>
      </trkpt>
      <trkpt lat="42.858936963602901" lon="-8.586265034973621">
        <ele>191.44</ele>
        <time>2025-05-01T12:46:02Z</time>
      </trkpt>
      <trkpt lat="42.85957901738584" lon="-8.586475001648068">
        <ele>190.47999999999999</ele>
        <time>2025-05-01T12:46:10Z</time>
      </trkpt>
      <trkpt lat="42.85957901738584" lon="-8.586475001648068">
        <ele>189.52000000000001</ele>
        <time>2025-05-01T12:46:19Z</time>
      </trkpt>
      <trkpt lat="42.85977297462523" lon="-8.586634006351233">
        <ele>189.03999999999999</ele>
        <time>2025-05-01T12:46:35Z</time>
      </trkpt>
      <trkpt lat="42.859829971566796" lon="-8.58669200912118">
        <ele>188.56</ele>
        <time>2025-05-01T12:46:36Z</time>
      </trkpt>
      <trkpt lat="42.859984030947089" lon="-8.586781024932861">
        <ele>187.59</ele>
        <time>2025-05-01T12:46:38Z</time>
      </trkpt>
      <trkpt lat="42.860057037323713" lon="-8.586812959983945">
        <ele>187.11000000000001</ele>
        <time>2025-05-01T12:46:39Z</time>
      </trkpt>
      <trkpt lat="42.860125014558434" lon="-8.586841961368918">
        <ele>186.63</ele>
        <time>2025-05-01T12:46:40Z</time>
      </trkpt>
      <trkpt lat="42.860284019261599" lon="-8.586910022422671">
        <ele>185.19</ele>
        <time>2025-05-01T12:46:42Z</time>
      </trkpt>
      <trkpt lat="42.860369011759758" lon="-8.586945980787277">
        <ele>184.71000000000001</ele>
        <time>2025-05-01T12:46:43Z</time>
      </trkpt>
      <trkpt lat="42.860946021974087" lon="-8.58707900159061">
        <ele>180.87</ele>
        <time>2025-05-01T12:46:49Z</time>
      </trkpt>
      <trkpt lat="42.861609030514956" lon="-8.587322998791933">
        <ele>179.41999999999999</ele>
        <time>2025-05-01T12:46:57Z</time>
      </trkpt>
      <trkpt lat="42.861787984147668" lon="-8.587361974641681">
        <ele>178.94</ele>
        <time>2025-05-01T12:46:59Z</time>
      </trkpt>
      <trkpt lat="42.861870964989066" lon="-8.587335990741849">
        <ele>179.41999999999999</ele>
        <time>2025-05-01T12:47:00Z</time>
      </trkpt>
      <trkpt lat="42.861958974972367" lon="-8.587309001013637">
        <ele>179.90000000000001</ele>
        <time>2025-05-01T12:47:01Z</time>
      </trkpt>
      <trkpt lat="42.862258041277528" lon="-8.587124012410641">
        <ele>180.87</ele>
        <time>2025-05-01T12:47:05Z</time>
      </trkpt>
      <trkpt lat="42.862303974106908" lon="-8.587069027125835">
        <ele>181.34999999999999</ele>
        <time>2025-05-01T12:47:06Z</time>
      </trkpt>
      <trkpt lat="42.862347979098558" lon="-8.58701697550714">
        <ele>181.34999999999999</ele>
        <time>2025-05-01T12:47:07Z</time>
      </trkpt>
      <trkpt lat="42.862384021282196" lon="-8.58697397634387">
        <ele>181.34999999999999</ele>
        <time>2025-05-01T12:47:08Z</time>
      </trkpt>
      <trkpt lat="42.86241302266717" lon="-8.586939023807645">
        <ele>181.83000000000001</ele>
        <time>2025-05-01T12:47:09Z</time>
      </trkpt>
      <trkpt lat="42.86247898824513" lon="-8.586875991895795">
        <ele>181.83000000000001</ele>
        <time>2025-05-01T12:47:10Z</time>
      </trkpt>
      <trkpt lat="42.862513018772006" lon="-8.58692703768611">
        <ele>181.83000000000001</ele>
        <time>2025-05-01T12:47:11Z</time>
      </trkpt>
      <trkpt lat="42.862554006278515" lon="-8.586988979950547">
        <ele>181.83000000000001</ele>
        <time>2025-05-01T12:47:12Z</time>
      </trkpt>
      <trkpt lat="42.862593987956643" lon="-8.587066009640694">
        <ele>182.31</ele>
        <time>2025-05-01T12:47:13Z</time>
      </trkpt>
      <trkpt lat="42.862621983513236" lon="-8.58712200075388">
        <ele>182.78999999999999</ele>
        <time>2025-05-01T12:47:18Z</time>
      </trkpt>
      <trkpt lat="42.862695995718241" lon="-8.587210010737181">
        <ele>182.78999999999999</ele>
        <time>2025-05-01T12:47:24Z</time>
      </trkpt>
      <trkpt lat="42.862747963517904" lon="-8.587210010737181">
        <ele>182.78999999999999</ele>
        <time>2025-05-01T12:47:25Z</time>
      </trkpt>
      <trkpt lat="42.862810995429754" lon="-8.587210010737181">
        <ele>182.31</ele>
        <time>2025-05-01T12:47:26Z</time>
      </trkpt>
      <trkpt lat="42.862881990149617" lon="-8.587201964110136">
        <ele>182.31</ele>
        <time>2025-05-01T12:47:27Z</time>
      </trkpt>
      <trkpt lat="42.862963965162635" lon="-8.587172962725163">
        <ele>182.31</ele>
        <time>2025-05-01T12:47:28Z</time>
      </trkpt>
      <trkpt lat="42.863048035651445" lon="-8.58714303933084">
        <ele>182.31</ele>
        <time>2025-05-01T12:47:29Z</time>
      </trkpt>
      <trkpt lat="42.863127999007702" lon="-8.587114037945867">
        <ele>182.31</ele>
        <time>2025-05-01T12:47:30Z</time>
      </trkpt>
      <trkpt lat="42.863191030919552" lon="-8.587047988548875">
        <ele>181.83000000000001</ele>
        <time>2025-05-01T12:47:31Z</time>
      </trkpt>
      <trkpt lat="42.863237969577312" lon="-8.586965007707477">
        <ele>181.34999999999999</ele>
        <time>2025-05-01T12:47:32Z</time>
      </trkpt>
      <trkpt lat="42.863282980397344" lon="-8.58688697218895">
        <ele>180.87</ele>
        <time>2025-05-01T12:47:33Z</time>
      </trkpt>
      <trkpt lat="42.863331008702517" lon="-8.586802985519171">
        <ele>180.38</ele>
        <time>2025-05-01T12:47:34Z</time>
      </trkpt>
      <trkpt lat="42.863349029794335" lon="-8.586744982749224">
        <ele>177.97999999999999</ele>
        <time>2025-05-01T12:47:40Z</time>
      </trkpt>
      <trkpt lat="42.863349029794335" lon="-8.586744982749224">
        <ele>177.5</ele>
        <time>2025-05-01T12:47:54Z</time>
      </trkpt>
      <trkpt lat="42.863375013694167" lon="-8.586666025221348">
        <ele>176.53999999999999</ele>
        <time>2025-05-01T12:48:02Z</time>
      </trkpt>
      <trkpt lat="42.863290021196008" lon="-8.586874986067414">
        <ele>174.62</ele>
        <time>2025-05-01T12:48:06Z</time>
      </trkpt>
      <trkpt lat="42.863236963748932" lon="-8.586967019364238">
        <ele>174.62</ele>
        <time>2025-05-01T12:48:07Z</time>
      </trkpt>
      <trkpt lat="42.863180972635746" lon="-8.587066009640694">
        <ele>174.62</ele>
        <time>2025-05-01T12:48:08Z</time>
      </trkpt>
      <trkpt lat="42.863110983744264" lon="-8.587119989097118">
        <ele>175.09999999999999</ele>
        <time>2025-05-01T12:48:09Z</time>
      </trkpt>
      <trkpt lat="42.863029008731246" lon="-8.587149996310473">
        <ele>175.09999999999999</ele>
        <time>2025-05-01T12:48:10Z</time>
      </trkpt>
      <trkpt lat="42.862957008183002" lon="-8.587174974381924">
        <ele>175.09999999999999</ele>
        <time>2025-05-01T12:48:11Z</time>
      </trkpt>
      <trkpt lat="42.862901017069817" lon="-8.587195007130504">
        <ele>175.58000000000001</ele>
        <time>2025-05-01T12:48:12Z</time>
      </trkpt>
      <trkpt lat="42.862859023734927" lon="-8.587210010737181">
        <ele>175.58000000000001</ele>
        <time>2025-05-01T12:48:13Z</time>
      </trkpt>
      <trkpt lat="42.862824993208051" lon="-8.587210010737181">
        <ele>176.06</ele>
        <time>2025-05-01T12:48:14Z</time>
      </trkpt>
      <trkpt lat="42.862778976559639" lon="-8.587210010737181">
        <ele>176.06</ele>
        <time>2025-05-01T12:48:15Z</time>
      </trkpt>
      <trkpt lat="42.862731032073498" lon="-8.587210010737181">
        <ele>176.53999999999999</ele>
        <time>2025-05-01T12:48:16Z</time>
      </trkpt>
      <trkpt lat="42.862687027081847" lon="-8.587210010737181">
        <ele>176.53999999999999</ele>
        <time>2025-05-01T12:48:17Z</time>
      </trkpt>
      <trkpt lat="42.862630030140281" lon="-8.587138010188937">
        <ele>177.02000000000001</ele>
        <time>2025-05-01T12:48:18Z</time>
      </trkpt>
      <trkpt lat="42.862601028755307" lon="-8.58707900159061">
        <ele>177.02000000000001</ele>
        <time>2025-05-01T12:48:19Z</time>
      </trkpt>
      <trkpt lat="42.862559035420418" lon="-8.586996020749211">
        <ele>177.02000000000001</ele>
        <time>2025-05-01T12:48:20Z</time>
      </trkpt>
      <trkpt lat="42.862530034035444" lon="-8.586952015757561">
        <ele>177.5</ele>
        <time>2025-05-01T12:48:21Z</time>
      </trkpt>
      <trkpt lat="42.86249902099371" lon="-8.586905999109149">
        <ele>177.97999999999999</ele>
        <time>2025-05-01T12:48:22Z</time>
      </trkpt>
      <trkpt lat="42.86247898824513" lon="-8.586876997724176">
        <ele>178.46000000000001</ele>
        <time>2025-05-01T12:48:23Z</time>
      </trkpt>
      <trkpt lat="42.862476976588368" lon="-8.586861994117498">
        <ele>178.46000000000001</ele>
        <time>2025-05-01T12:48:24Z</time>
      </trkpt>
      <trkpt lat="42.862508995458484" lon="-8.586824024096131">
        <ele>178.94</ele>
        <time>2025-05-01T12:48:25Z</time>
      </trkpt>
      <trkpt lat="42.862548977136612" lon="-8.586773984134197">
        <ele>178.94</ele>
        <time>2025-05-01T12:48:26Z</time>
      </trkpt>
      <trkpt lat="42.862599017098546" lon="-8.586712963879108">
        <ele>179.41999999999999</ele>
        <time>2025-05-01T12:48:27Z</time>
      </trkpt>
      <trkpt lat="42.862662971019745" lon="-8.586635012179613">
        <ele>179.41999999999999</ele>
        <time>2025-05-01T12:48:28Z</time>
      </trkpt>
      <trkpt lat="42.862732037901878" lon="-8.586551025509834">
        <ele>179.41999999999999</ele>
        <time>2025-05-01T12:48:29Z</time>
      </trkpt>
      <trkpt lat="42.86290998570621" lon="-8.586217006668448">
        <ele>179.41999999999999</ele>
        <time>2025-05-01T12:48:32Z</time>
      </trkpt>
      <trkpt lat="42.862948961555958" lon="-8.586080968379974">
        <ele>179.41999999999999</ele>
        <time>2025-05-01T12:48:33Z</time>
      </trkpt>
      <trkpt lat="42.863154988735914" lon="-8.585363980382681">
        <ele>178.94</ele>
        <time>2025-05-01T12:48:38Z</time>
      </trkpt>
      <trkpt lat="42.863192958757281" lon="-8.585235988721252">
        <ele>178.94</ele>
        <time>2025-05-01T12:48:39Z</time>
      </trkpt>
      <trkpt lat="42.863223971799016" lon="-8.585129035636783">
        <ele>178.46000000000001</ele>
        <time>2025-05-01T12:48:40Z</time>
      </trkpt>
      <trkpt lat="42.863223971799016" lon="-8.585129035636783">
        <ele>178.46000000000001</ele>
        <time>2025-05-01T12:48:41Z</time>
      </trkpt>
      <trkpt lat="42.863293960690498" lon="-8.584880009293556">
        <ele>178.46000000000001</ele>
        <time>2025-05-01T12:48:42Z</time>
      </trkpt>
      <trkpt lat="42.863282980397344" lon="-8.584750005975366">
        <ele>178.46000000000001</ele>
        <time>2025-05-01T12:48:43Z</time>
      </trkpt>
      <trkpt lat="42.863272000104189" lon="-8.584617991000414">
        <ele>178.94</ele>
        <time>2025-05-01T12:48:44Z</time>
      </trkpt>
      <trkpt lat="42.863261019811034" lon="-8.584488993510604">
        <ele>179.90000000000001</ele>
        <time>2025-05-01T12:48:45Z</time>
      </trkpt>
      <trkpt lat="42.863250039517879" lon="-8.584367036819458">
        <ele>180.38</ele>
        <time>2025-05-01T12:48:46Z</time>
      </trkpt>
      <trkpt lat="42.863224977627397" lon="-8.584248013794422">
        <ele>181.34999999999999</ele>
        <time>2025-05-01T12:48:47Z</time>
      </trkpt>
      <trkpt lat="42.863191030919552" lon="-8.58413603156805">
        <ele>182.31</ele>
        <time>2025-05-01T12:48:48Z</time>
      </trkpt>
      <trkpt lat="42.863160017877817" lon="-8.584035029634833">
        <ele>183.27000000000001</ele>
        <time>2025-05-01T12:48:49Z</time>
      </trkpt>
      <trkpt lat="42.863168986514211" lon="-8.583922041580081">
        <ele>184.71000000000001</ele>
        <time>2025-05-01T12:48:50Z</time>
      </trkpt>
      <trkpt lat="42.863178960978985" lon="-8.583805030211806">
        <ele>186.15000000000001</ele>
        <time>2025-05-01T12:48:51Z</time>
      </trkpt>
      <trkpt lat="42.863229000940919" lon="-8.583715008571744">
        <ele>188.08000000000001</ele>
        <time>2025-05-01T12:48:52Z</time>
      </trkpt>
      <trkpt lat="42.863298989832401" lon="-8.583623981103301">
        <ele>189.52000000000001</ele>
        <time>2025-05-01T12:48:53Z</time>
      </trkpt>
      <trkpt lat="42.863364033401012" lon="-8.583539994433522">
        <ele>190.96000000000001</ele>
        <time>2025-05-01T12:48:54Z</time>
      </trkpt>
      <trkpt lat="42.863432010635734" lon="-8.583479980006814">
        <ele>191.91999999999999</ele>
        <time>2025-05-01T12:48:55Z</time>
      </trkpt>
      <trkpt lat="42.863506022840738" lon="-8.583441004157066">
        <ele>192.88</ele>
        <time>2025-05-01T12:48:56Z</time>
      </trkpt>
      <trkpt lat="42.863579029217362" lon="-8.583403034135699">
        <ele>193.84</ele>
        <time>2025-05-01T12:48:57Z</time>
      </trkpt>
      <trkpt lat="42.863649018108845" lon="-8.583366991952062">
        <ele>194.31999999999999</ele>
        <time>2025-05-01T12:48:58Z</time>
      </trkpt>
      <trkpt lat="42.863713977858424" lon="-8.583332961425185">
        <ele>194.80000000000001</ele>
        <time>2025-05-01T12:48:59Z</time>
      </trkpt>
      <trkpt lat="42.863883962854743" lon="-8.583245035260916">
        <ele>196.25</ele>
        <time>2025-05-01T12:49:02Z</time>
      </trkpt>
      <trkpt lat="42.863937020301819" lon="-8.583217961713672">
        <ele>196.72999999999999</ele>
        <time>2025-05-01T12:49:03Z</time>
      </trkpt>
      <trkpt lat="42.863990999758244" lon="-8.583153001964092">
        <ele>197.21000000000001</ele>
        <time>2025-05-01T12:49:04Z</time>
      </trkpt>
      <trkpt lat="42.864022012799978" lon="-8.583065997809172">
        <ele>197.69</ele>
        <time>2025-05-01T12:49:05Z</time>
      </trkpt>
      <trkpt lat="42.864053025841713" lon="-8.582979999482632">
        <ele>198.16999999999999</ele>
        <time>2025-05-01T12:49:06Z</time>
      </trkpt>
      <trkpt lat="42.864078003913164" lon="-8.582910010591149">
        <ele>199.13</ele>
        <time>2025-05-01T12:49:07Z</time>
      </trkpt>
      <trkpt lat="42.864098036661744" lon="-8.582853013649583">
        <ele>199.61000000000001</ele>
        <time>2025-05-01T12:49:08Z</time>
      </trkpt>
      <trkpt lat="42.864118991419673" lon="-8.582794005051255">
        <ele>200.56999999999999</ele>
        <time>2025-05-01T12:49:09Z</time>
      </trkpt>
      <trkpt lat="42.864142963662744" lon="-8.582728039473295">
        <ele>201.05000000000001</ele>
        <time>2025-05-01T12:49:10Z</time>
      </trkpt>
      <trkpt lat="42.864194009453058" lon="-8.582515977323055">
        <ele>202.49000000000001</ele>
        <time>2025-05-01T12:49:13Z</time>
      </trkpt>
      <trkpt lat="42.864198032766581" lon="-8.582448000088334">
        <ele>203.46000000000001</ele>
        <time>2025-05-01T12:49:14Z</time>
      </trkpt>
      <trkpt lat="42.864201972261071" lon="-8.582382034510374">
        <ele>203.94</ele>
        <time>2025-05-01T12:49:15Z</time>
      </trkpt>
      <trkpt lat="42.864209013059735" lon="-8.582271980121732">
        <ele>206.81999999999999</ele>
        <time>2025-05-01T12:49:22Z</time>
      </trkpt>
      <trkpt lat="42.864209013059735" lon="-8.582271980121732">
        <ele>210.19</ele>
        <time>2025-05-01T12:49:34Z</time>
      </trkpt>
      <trkpt lat="42.864209013059735" lon="-8.582271980121732">
        <ele>210.66999999999999</ele>
        <time>2025-05-01T12:49:35Z</time>
      </trkpt>
      <trkpt lat="42.864209013059735" lon="-8.582271980121732">
        <ele>211.15000000000001</ele>
        <time>2025-05-01T12:49:36Z</time>
      </trkpt>
      <trkpt lat="42.864215970039368" lon="-8.582167038694024">
        <ele>211.15000000000001</ele>
        <time>2025-05-01T12:49:37Z</time>
      </trkpt>
      <trkpt lat="42.864243965595961" lon="-8.58215999789536">
        <ele>211.63</ele>
        <time>2025-05-01T12:49:38Z</time>
      </trkpt>
      <trkpt lat="42.864287970587611" lon="-8.582149017602205">
        <ele>211.63</ele>
        <time>2025-05-01T12:49:39Z</time>
      </trkpt>
      <trkpt lat="42.864514030516148" lon="-8.582092020660639">
        <ele>211.15000000000001</ele>
        <time>2025-05-01T12:49:44Z</time>
      </trkpt>
      <trkpt lat="42.864602962508798" lon="-8.582069976255298">
        <ele>210.66999999999999</ele>
        <time>2025-05-01T12:49:46Z</time>
      </trkpt>
      <trkpt lat="42.864699019119143" lon="-8.582046004012227">
        <ele>210.19</ele>
        <time>2025-05-01T12:49:48Z</time>
      </trkpt>
      <trkpt lat="42.864831034094095" lon="-8.582012979313731">
        <ele>210.19</ele>
        <time>2025-05-01T12:49:51Z</time>
      </trkpt>
      <trkpt lat="42.864955002442002" lon="-8.582009961828589">
        <ele>209.69999999999999</ele>
        <time>2025-05-01T12:49:54Z</time>
      </trkpt>
      <trkpt lat="42.865006970241666" lon="-8.582023037597537">
        <ele>209.22</ele>
        <time>2025-05-01T12:49:55Z</time>
      </trkpt>
      <trkpt lat="42.865059021860361" lon="-8.582036029547453">
        <ele>209.22</ele>
        <time>2025-05-01T12:49:56Z</time>
      </trkpt>
      <trkpt lat="42.865240992978215" lon="-8.582081962376833">
        <ele>207.78</ele>
        <time>2025-05-01T12:49:59Z</time>
      </trkpt>
      <trkpt lat="42.865261025726795" lon="-8.582093026489019">
        <ele>207.30000000000001</ele>
        <time>2025-05-01T12:50:00Z</time>
      </trkpt>
      <trkpt lat="42.865421958267689" lon="-8.582181958481669">
        <ele>205.86000000000001</ele>
        <time>2025-05-01T12:50:03Z</time>
      </trkpt>
      <trkpt lat="42.865459006279707" lon="-8.582179024815559">
        <ele>205.38</ele>
        <time>2025-05-01T12:50:04Z</time>
      </trkpt>
      <trkpt lat="42.865502005442977" lon="-8.582162009552121">
        <ele>204.90000000000001</ele>
        <time>2025-05-01T12:50:05Z</time>
      </trkpt>
      <trkpt lat="42.865535030141473" lon="-8.582149017602205">
        <ele>204.41999999999999</ele>
        <time>2025-05-01T12:50:06Z</time>
      </trkpt>
      <trkpt lat="42.865556990727782" lon="-8.58213996514678">
        <ele>203.46000000000001</ele>
        <time>2025-05-01T12:50:07Z</time>
      </trkpt>
      <trkpt lat="42.8655940387398" lon="-8.582125967368484">
        <ele>202.49000000000001</ele>
        <time>2025-05-01T12:50:16Z</time>
      </trkpt>
      <trkpt lat="42.865649024024606" lon="-8.582103000953794">
        <ele>202.00999999999999</ele>
        <time>2025-05-01T12:50:17Z</time>
      </trkpt>
      <trkpt lat="42.865668972954154" lon="-8.58205103315413">
        <ele>201.53</ele>
        <time>2025-05-01T12:50:18Z</time>
      </trkpt>
      <trkpt lat="42.865695962682366" lon="-8.581980038434267">
        <ele>201.05000000000001</ele>
        <time>2025-05-01T12:50:19Z</time>
      </trkpt>
      <trkpt lat="42.86572203040123" lon="-8.581909965723753">
        <ele>200.56999999999999</ele>
        <time>2025-05-01T12:50:20Z</time>
      </trkpt>
      <trkpt lat="42.865749020129442" lon="-8.58183897100389">
        <ele>200.56999999999999</ele>
        <time>2025-05-01T12:50:21Z</time>
      </trkpt>
      <trkpt lat="42.865778021514416" lon="-8.581764036789537">
        <ele>200.09</ele>
        <time>2025-05-01T12:50:22Z</time>
      </trkpt>
      <trkpt lat="42.866056971251965" lon="-8.580729039385915">
        <ele>195.28</ele>
        <time>2025-05-01T12:50:32Z</time>
      </trkpt>
      <trkpt lat="42.866210024803877" lon="-8.580145994201303">
        <ele>193.36000000000001</ele>
        <time>2025-05-01T12:50:37Z</time>
      </trkpt>
      <trkpt lat="42.866227962076664" lon="-8.579942984506488">
        <ele>192.88</ele>
        <time>2025-05-01T12:50:39Z</time>
      </trkpt>
      <trkpt lat="42.866227962076664" lon="-8.579699993133545">
        <ele>191.44</ele>
        <time>2025-05-01T12:50:42Z</time>
      </trkpt>
      <trkpt lat="42.866237014532089" lon="-8.579677026718855">
        <ele>191.44</ele>
        <time>2025-05-01T12:50:43Z</time>
      </trkpt>
      <trkpt lat="42.866280013695359" lon="-8.57966898009181">
        <ele>190.96000000000001</ele>
        <time>2025-05-01T12:50:44Z</time>
      </trkpt>
      <trkpt lat="42.866463996469975" lon="-8.579636039212346">
        <ele>189.52000000000001</ele>
        <time>2025-05-01T12:50:48Z</time>
      </trkpt>
      <trkpt lat="42.866533985361457" lon="-8.579487008973956">
        <ele>189.03999999999999</ele>
        <time>2025-05-01T12:50:49Z</time>
      </trkpt>
      <trkpt lat="42.866573967039585" lon="-8.579402016475797">
        <ele>188.56</ele>
        <time>2025-05-01T12:50:50Z</time>
      </trkpt>
      <trkpt lat="42.866615038365126" lon="-8.579316018149257">
        <ele>187.59</ele>
        <time>2025-05-01T12:50:51Z</time>
      </trkpt>
      <trkpt lat="42.866643033921719" lon="-8.579217027872801">
        <ele>186.15000000000001</ele>
        <time>2025-05-01T12:50:52Z</time>
      </trkpt>
      <trkpt lat="42.866658037528396" lon="-8.579112002626061">
        <ele>184.71000000000001</ele>
        <time>2025-05-01T12:50:53Z</time>
      </trkpt>
      <trkpt lat="42.866687960922718" lon="-8.578885020688176">
        <ele>182.31</ele>
        <time>2025-05-01T12:50:55Z</time>
      </trkpt>
      <trkpt lat="42.866679998114705" lon="-8.578731967136264">
        <ele>181.83000000000001</ele>
        <time>2025-05-01T12:50:56Z</time>
      </trkpt>
      <trkpt lat="42.866635993123055" lon="-8.578584026545286">
        <ele>180.87</ele>
        <time>2025-05-01T12:50:57Z</time>
      </trkpt>
      <trkpt lat="42.866576984524727" lon="-8.578489981591702">
        <ele>180.38</ele>
        <time>2025-05-01T12:50:58Z</time>
      </trkpt>
      <trkpt lat="42.866505989804864" lon="-8.578387973830104">
        <ele>179.90000000000001</ele>
        <time>2025-05-01T12:50:59Z</time>
      </trkpt>
      <trkpt lat="42.866436000913382" lon="-8.578311027958989">
        <ele>178.94</ele>
        <time>2025-05-01T12:51:00Z</time>
      </trkpt>
      <trkpt lat="42.866366012021899" lon="-8.578233998268843">
        <ele>177.5</ele>
        <time>2025-05-01T12:51:01Z</time>
      </trkpt>
      <trkpt lat="42.866308009251952" lon="-8.57816300354898">
        <ele>176.06</ele>
        <time>2025-05-01T12:51:02Z</time>
      </trkpt>
      <trkpt lat="42.866270039230585" lon="-8.578069964423776">
        <ele>174.62</ele>
        <time>2025-05-01T12:51:03Z</time>
      </trkpt>
      <trkpt lat="42.866229973733425" lon="-8.577976003289223">
        <ele>173.66</ele>
        <time>2025-05-01T12:51:04Z</time>
      </trkpt>
      <trkpt lat="42.86619896069169" lon="-8.577881036326289">
        <ele>172.21000000000001</ele>
        <time>2025-05-01T12:51:05Z</time>
      </trkpt>
      <trkpt lat="42.866123020648956" lon="-8.577456995844841">
        <ele>166.93000000000001</ele>
        <time>2025-05-01T12:51:09Z</time>
      </trkpt>
      <trkpt lat="42.866139030084014" lon="-8.577365968376398">
        <ele>165.96000000000001</ele>
        <time>2025-05-01T12:51:10Z</time>
      </trkpt>
      <trkpt lat="42.866154033690691" lon="-8.577280975878239">
        <ele>164.52000000000001</ele>
        <time>2025-05-01T12:51:11Z</time>
      </trkpt>
      <trkpt lat="42.866184962913394" lon="-8.577104033902288">
        <ele>163.56</ele>
        <time>2025-05-01T12:51:12Z</time>
      </trkpt>
      <trkpt lat="42.866223016753793" lon="-8.577085006982088">
        <ele>162.59999999999999</ele>
        <time>2025-05-01T12:51:13Z</time>
      </trkpt>
      <trkpt lat="42.866290993988514" lon="-8.577050976455212">
        <ele>161.16</ele>
        <time>2025-05-01T12:51:14Z</time>
      </trkpt>
      <trkpt lat="42.866365006193519" lon="-8.577014012262225">
        <ele>160.19999999999999</ele>
        <time>2025-05-01T12:51:15Z</time>
      </trkpt>
      <trkpt lat="42.866443963721395" lon="-8.576974030584097">
        <ele>159.24000000000001</ele>
        <time>2025-05-01T12:51:16Z</time>
      </trkpt>
      <trkpt lat="42.866524010896683" lon="-8.576933965086937">
        <ele>158.27000000000001</ele>
        <time>2025-05-01T12:51:17Z</time>
      </trkpt>
      <trkpt lat="42.866601040586829" lon="-8.57689599506557">
        <ele>157.31</ele>
        <time>2025-05-01T12:51:18Z</time>
      </trkpt>
      <trkpt lat="42.866630963981152" lon="-8.576780995354056">
        <ele>156.34999999999999</ele>
        <time>2025-05-01T12:51:19Z</time>
      </trkpt>
      <trkpt lat="42.866646973416209" lon="-8.576676975935698">
        <ele>155.38999999999999</ele>
        <time>2025-05-01T12:51:20Z</time>
      </trkpt>
      <trkpt lat="42.866653008386493" lon="-8.57657203450799">
        <ele>154.91</ele>
        <time>2025-05-01T12:51:21Z</time>
      </trkpt>
      <trkpt lat="42.866640016436577" lon="-8.576471032574773">
        <ele>153.94999999999999</ele>
        <time>2025-05-01T12:51:22Z</time>
      </trkpt>
      <trkpt lat="42.866620989516377" lon="-8.576358966529369">
        <ele>153.47</ele>
        <time>2025-05-01T12:51:23Z</time>
      </trkpt>
      <trkpt lat="42.866600034758449" lon="-8.576250001788139">
        <ele>152.99000000000001</ele>
        <time>2025-05-01T12:51:24Z</time>
      </trkpt>
      <trkpt lat="42.866580002009869" lon="-8.576150005683303">
        <ele>152.99000000000001</ele>
        <time>2025-05-01T12:51:25Z</time>
      </trkpt>
      <trkpt lat="42.86656298674643" lon="-8.57605897821486">
        <ele>152.50999999999999</ele>
        <time>2025-05-01T12:51:26Z</time>
      </trkpt>
      <trkpt lat="42.866546977311373" lon="-8.575975997373462">
        <ele>152.03</ele>
        <time>2025-05-01T12:51:27Z</time>
      </trkpt>
      <trkpt lat="42.866534991189837" lon="-8.575872983783484">
        <ele>152.03</ele>
        <time>2025-05-01T12:51:28Z</time>
      </trkpt>
      <trkpt lat="42.866569021716714" lon="-8.575833002105355">
        <ele>151.53999999999999</ele>
        <time>2025-05-01T12:51:29Z</time>
      </trkpt>
      <trkpt lat="42.866601040586829" lon="-8.575796037912369">
        <ele>151.06</ele>
        <time>2025-05-01T12:51:30Z</time>
      </trkpt>
      <trkpt lat="42.866657031700015" lon="-8.575729988515377">
        <ele>151.06</ele>
        <time>2025-05-01T12:51:31Z</time>
      </trkpt>
      <trkpt lat="42.866703970357776" lon="-8.575708027929068">
        <ele>150.58000000000001</ele>
        <time>2025-05-01T12:51:32Z</time>
      </trkpt>
      <trkpt lat="42.866761973127723" lon="-8.575680032372475">
        <ele>150.58000000000001</ele>
        <time>2025-05-01T12:51:33Z</time>
      </trkpt>
      <trkpt lat="42.866828022524714" lon="-8.575648013502359">
        <ele>150.58000000000001</ele>
        <time>2025-05-01T12:51:34Z</time>
      </trkpt>
      <trkpt lat="42.867513997480273" lon="-8.575371997430921">
        <ele>152.03</ele>
        <time>2025-05-01T12:51:45Z</time>
      </trkpt>
      <trkpt lat="42.867558002471924" lon="-8.575375014916062">
        <ele>152.50999999999999</ele>
        <time>2025-05-01T12:51:46Z</time>
      </trkpt>
      <trkpt lat="42.867607036605477" lon="-8.575396975502372">
        <ele>152.99000000000001</ele>
        <time>2025-05-01T12:51:47Z</time>
      </trkpt>
      <trkpt lat="42.867662021890283" lon="-8.575422037392855">
        <ele>153.47</ele>
        <time>2025-05-01T12:51:48Z</time>
      </trkpt>
      <trkpt lat="42.867717007175088" lon="-8.575447015464306">
        <ele>153.94999999999999</ele>
        <time>2025-05-01T12:51:49Z</time>
      </trkpt>
      <trkpt lat="42.867822032421827" lon="-8.575508035719395">
        <ele>154.91</ele>
        <time>2025-05-01T12:51:51Z</time>
      </trkpt>
      <trkpt lat="42.868084972724319" lon="-8.575690006837249">
        <ele>157.31</ele>
        <time>2025-05-01T12:51:55Z</time>
      </trkpt>
      <trkpt lat="42.868177006021142" lon="-8.575697969645262">
        <ele>157.78999999999999</ele>
        <time>2025-05-01T12:51:56Z</time>
      </trkpt>
      <trkpt lat="42.868265016004443" lon="-8.575681960210204">
        <ele>158.27000000000001</ele>
        <time>2025-05-01T12:51:57Z</time>
      </trkpt>
      <trkpt lat="42.868352020159364" lon="-8.575666034594178">
        <ele>158.75</ele>
        <time>2025-05-01T12:51:58Z</time>
      </trkpt>
      <trkpt lat="42.868432989344001" lon="-8.575710039585829">
        <ele>159.24000000000001</ele>
        <time>2025-05-01T12:51:59Z</time>
      </trkpt>
      <trkpt lat="42.868519993498921" lon="-8.57575798407197">
        <ele>160.19999999999999</ele>
        <time>2025-05-01T12:52:00Z</time>
      </trkpt>
      <trkpt lat="42.868597023189068" lon="-8.575815986841917">
        <ele>161.16</ele>
        <time>2025-05-01T12:52:01Z</time>
      </trkpt>
      <trkpt lat="42.868642034009099" lon="-8.575921012088656">
        <ele>162.12</ele>
        <time>2025-05-01T12:52:02Z</time>
      </trkpt>
      <trkpt lat="42.868686961010098" lon="-8.576026959344745">
        <ele>163.08000000000001</ele>
        <time>2025-05-01T12:52:03Z</time>
      </trkpt>
      <trkpt lat="42.868878990411758" lon="-8.576385034248233">
        <ele>166.93000000000001</ele>
        <time>2025-05-01T12:52:07Z</time>
      </trkpt>
      <trkpt lat="42.868931964039803" lon="-8.576416969299316">
        <ele>167.88999999999999</ele>
        <time>2025-05-01T12:52:08Z</time>
      </trkpt>
      <trkpt lat="42.868993990123272" lon="-8.576396014541388">
        <ele>169.33000000000001</ele>
        <time>2025-05-01T12:52:09Z</time>
      </trkpt>
      <trkpt lat="42.869060961529613" lon="-8.576373970136046">
        <ele>170.77000000000001</ele>
        <time>2025-05-01T12:52:10Z</time>
      </trkpt>
      <trkpt lat="42.869143020361662" lon="-8.576282020658255">
        <ele>172.21000000000001</ele>
        <time>2025-05-01T12:52:11Z</time>
      </trkpt>
      <trkpt lat="42.869132040068507" lon="-8.576191999018192">
        <ele>172.69</ele>
        <time>2025-05-01T12:52:12Z</time>
      </trkpt>
      <trkpt lat="42.869082000106573" lon="-8.576052021235228">
        <ele>173.16999999999999</ele>
        <time>2025-05-01T12:52:13Z</time>
      </trkpt>
      <trkpt lat="42.869046963751316" lon="-8.575954036787152">
        <ele>173.66</ele>
        <time>2025-05-01T12:52:14Z</time>
      </trkpt>
      <trkpt lat="42.869002036750317" lon="-8.575827972963452">
        <ele>173.66</ele>
        <time>2025-05-01T12:52:15Z</time>
      </trkpt>
      <trkpt lat="42.868955014273524" lon="-8.575699981302023">
        <ele>174.13999999999999</ele>
        <time>2025-05-01T12:52:16Z</time>
      </trkpt>
      <trkpt lat="42.868310026824474" lon="-8.574077999219298">
        <ele>173.66</ele>
        <time>2025-05-01T12:52:27Z</time>
      </trkpt>
      <trkpt lat="42.867477033287287" lon="-8.572188969701529">
        <ele>176.06</ele>
        <time>2025-05-01T12:52:37Z</time>
      </trkpt>
      <trkpt lat="42.866419991478324" lon="-8.570983987301588">
        <ele>179.90000000000001</ele>
        <time>2025-05-01T12:52:45Z</time>
      </trkpt>
      <trkpt lat="42.864966988563538" lon="-8.569730976596475">
        <ele>188.08000000000001</ele>
        <time>2025-05-01T12:52:55Z</time>
      </trkpt>
      <trkpt lat="42.864063000306487" lon="-8.568518031388521">
        <ele>197.69</ele>
        <time>2025-05-01T12:53:05Z</time>
      </trkpt>
      <trkpt lat="42.863675002008677" lon="-8.568005980923772">
        <ele>202.97999999999999</ele>
        <time>2025-05-01T12:53:12Z</time>
      </trkpt>
      <trkpt lat="42.863538963720202" lon="-8.56782702729106">
        <ele>204.41999999999999</ele>
        <time>2025-05-01T12:53:15Z</time>
      </trkpt>
      <trkpt lat="42.863503005355597" lon="-8.567712027579546">
        <ele>204.90000000000001</ele>
        <time>2025-05-01T12:53:16Z</time>
      </trkpt>
      <trkpt lat="42.863481966778636" lon="-8.567603984847665">
        <ele>205.38</ele>
        <time>2025-05-01T12:53:17Z</time>
      </trkpt>
      <trkpt lat="42.863481966778636" lon="-8.567471969872713">
        <ele>205.86000000000001</ele>
        <time>2025-05-01T12:53:18Z</time>
      </trkpt>
      <trkpt lat="42.863527983427048" lon="-8.567387983202934">
        <ele>205.86000000000001</ele>
        <time>2025-05-01T12:53:19Z</time>
      </trkpt>
      <trkpt lat="42.86357500590384" lon="-8.567231995984912">
        <ele>206.34</ele>
        <time>2025-05-01T12:53:20Z</time>
      </trkpt>
      <trkpt lat="42.863585986196995" lon="-8.567100986838341">
        <ele>206.34</ele>
        <time>2025-05-01T12:53:21Z</time>
      </trkpt>
      <trkpt lat="42.86359797231853" lon="-8.566960003226996">
        <ele>206.81999999999999</ele>
        <time>2025-05-01T12:53:22Z</time>
      </trkpt>
      <trkpt lat="42.863610964268446" lon="-8.566808961331844">
        <ele>206.81999999999999</ele>
        <time>2025-05-01T12:53:23Z</time>
      </trkpt>
      <trkpt lat="42.863638959825039" lon="-8.565141968429089">
        <ele>205.86000000000001</ele>
        <time>2025-05-01T12:53:32Z</time>
      </trkpt>
      <trkpt lat="42.863928973674774" lon="-8.563459971919656">
        <ele>206.81999999999999</ele>
        <time>2025-05-01T12:53:40Z</time>
      </trkpt>
      <trkpt lat="42.864146986976266" lon="-8.561471030116081">
        <ele>205.38</ele>
        <time>2025-05-01T12:53:49Z</time>
      </trkpt>
      <trkpt lat="42.863913970068097" lon="-8.559976033866406">
        <ele>206.81999999999999</ele>
        <time>2025-05-01T12:53:57Z</time>
      </trkpt>
      <trkpt lat="42.863523960113525" lon="-8.558109970763326">
        <ele>212.11000000000001</ele>
        <time>2025-05-01T12:54:10Z</time>
      </trkpt>
      <trkpt lat="42.863668967038393" lon="-8.556492011994124">
        <ele>214.03</ele>
        <time>2025-05-01T12:54:20Z</time>
      </trkpt>
      <trkpt lat="42.86374700255692" lon="-8.556111976504326">
        <ele>213.55000000000001</ele>
        <time>2025-05-01T12:54:22Z</time>
      </trkpt>
      <trkpt lat="42.863825038075447" lon="-8.555838977918029">
        <ele>213.55000000000001</ele>
        <time>2025-05-01T12:54:23Z</time>
      </trkpt>
      <trkpt lat="42.863873988389969" lon="-8.555723978206515">
        <ele>213.06999999999999</ele>
        <time>2025-05-01T12:54:24Z</time>
      </trkpt>
      <trkpt lat="42.863937020301819" lon="-8.555575031787157">
        <ele>213.06999999999999</ele>
        <time>2025-05-01T12:54:25Z</time>
      </trkpt>
      <trkpt lat="42.863994017243385" lon="-8.555437987670302">
        <ele>212.59</ele>
        <time>2025-05-01T12:54:26Z</time>
      </trkpt>
      <trkpt lat="42.864058976992965" lon="-8.555285017937422">
        <ele>212.59</ele>
        <time>2025-05-01T12:54:27Z</time>
      </trkpt>
      <trkpt lat="42.864136006683111" lon="-8.555145040154457">
        <ele>212.11000000000001</ele>
        <time>2025-05-01T12:54:28Z</time>
      </trkpt>
      <trkpt lat="42.864201972261071" lon="-8.555025011301041">
        <ele>212.11000000000001</ele>
        <time>2025-05-01T12:54:29Z</time>
      </trkpt>
      <trkpt lat="42.864268021658063" lon="-8.554905988276005">
        <ele>212.59</ele>
        <time>2025-05-01T12:54:30Z</time>
      </trkpt>
      <trkpt lat="42.864561975002289" lon="-8.554509021341801">
        <ele>215.47</ele>
        <time>2025-05-01T12:54:34Z</time>
      </trkpt>
      <trkpt lat="42.864982997998595" lon="-8.554101996123791">
        <ele>218.84</ele>
        <time>2025-05-01T12:54:39Z</time>
      </trkpt>
      <trkpt lat="42.865074025467038" lon="-8.554023960605264">
        <ele>219.80000000000001</ele>
        <time>2025-05-01T12:54:40Z</time>
      </trkpt>
      <trkpt lat="42.865167986601591" lon="-8.553941985592246">
        <ele>220.75999999999999</ele>
        <time>2025-05-01T12:54:41Z</time>
      </trkpt>
      <trkpt lat="42.865879023447633" lon="-8.55338903144002">
        <ele>224.12</ele>
        <time>2025-05-01T12:54:48Z</time>
      </trkpt>
      <trkpt lat="42.867104960605502" lon="-8.552728034555912">
        <ele>224.12</ele>
        <time>2025-05-01T12:54:58Z</time>
      </trkpt>
      <trkpt lat="42.868313966318965" lon="-8.552053039893508">
        <ele>221.24000000000001</ele>
        <time>2025-05-01T12:55:08Z</time>
      </trkpt>
      <trkpt lat="42.868698025122285" lon="-8.551702005788684">
        <ele>220.28</ele>
        <time>2025-05-01T12:55:12Z</time>
      </trkpt>
      <trkpt lat="42.868789974600077" lon="-8.551590023562312">
        <ele>219.80000000000001</ele>
        <time>2025-05-01T12:55:13Z</time>
      </trkpt>
      <trkpt lat="42.869435967877507" lon="-8.550411025062203">
        <ele>219.80000000000001</ele>
        <time>2025-05-01T12:55:22Z</time>
      </trkpt>
      <trkpt lat="42.869500005617738" lon="-8.550154035910964">
        <ele>220.28</ele>
        <time>2025-05-01T12:55:24Z</time>
      </trkpt>
      <trkpt lat="42.869516015052795" lon="-8.550031995400786">
        <ele>220.75999999999999</ele>
        <time>2025-05-01T12:55:25Z</time>
      </trkpt>
      <trkpt lat="42.869533030316234" lon="-8.549764025956392">
        <ele>221.72</ele>
        <time>2025-05-01T12:55:27Z</time>
      </trkpt>
      <trkpt lat="42.869548033922911" lon="-8.549514999613166">
        <ele>222.19999999999999</ele>
        <time>2025-05-01T12:55:29Z</time>
      </trkpt>
      <trkpt lat="42.869553985074162" lon="-8.549411986023188">
        <ele>222.68000000000001</ele>
        <time>2025-05-01T12:55:30Z</time>
      </trkpt>
      <trkpt lat="42.869649035856128" lon="-8.549310984089971">
        <ele>223.16</ele>
        <time>2025-05-01T12:55:31Z</time>
      </trkpt>
      <trkpt lat="42.869673008099198" lon="-8.548960033804178">
        <ele>224.61000000000001</ele>
        <time>2025-05-01T12:55:37Z</time>
      </trkpt>
      <trkpt lat="42.869682982563972" lon="-8.548779990524054">
        <ele>225.56999999999999</ele>
        <time>2025-05-01T12:55:40Z</time>
      </trkpt>
      <trkpt lat="42.869682982563972" lon="-8.548779990524054">
        <ele>226.05000000000001</ele>
        <time>2025-05-01T12:55:49Z</time>
      </trkpt>
      <trkpt lat="42.869682982563972" lon="-8.548745959997177">
        <ele>226.05000000000001</ele>
        <time>2025-05-01T12:56:18Z</time>
      </trkpt>
      <trkpt lat="42.869682982563972" lon="-8.548607993870974">
        <ele>227.49000000000001</ele>
        <time>2025-05-01T12:56:20Z</time>
      </trkpt>
      <trkpt lat="42.869715001434088" lon="-8.548334995284677">
        <ele>227.97</ele>
        <time>2025-05-01T12:56:23Z</time>
      </trkpt>
      <trkpt lat="42.869726987555623" lon="-8.548231981694698">
        <ele>228.44999999999999</ele>
        <time>2025-05-01T12:56:24Z</time>
      </trkpt>
      <trkpt lat="42.869787001982331" lon="-8.547914978116751">
        <ele>228.93000000000001</ele>
        <time>2025-05-01T12:56:27Z</time>
      </trkpt>
      <trkpt lat="42.86984802223742" lon="-8.547709034755826">
        <ele>229.41</ele>
        <time>2025-05-01T12:56:29Z</time>
      </trkpt>
      <trkpt lat="42.870210036635399" lon="-8.54677596129477">
        <ele>234.69999999999999</ele>
        <time>2025-05-01T12:56:39Z</time>
      </trkpt>
      <trkpt lat="42.870697025209665" lon="-8.545910026878119">
        <ele>238.53999999999999</ele>
        <time>2025-05-01T12:56:50Z</time>
      </trkpt>
      <trkpt lat="42.871375037357211" lon="-8.54511902667582">
        <ele>239.99000000000001</ele>
        <time>2025-05-01T12:57:02Z</time>
      </trkpt>
      <trkpt lat="42.871478972956538" lon="-8.544974019750953">
        <ele>240.47</ele>
        <time>2025-05-01T12:57:04Z</time>
      </trkpt>
      <trkpt lat="42.871549967676401" lon="-8.544874023646116">
        <ele>241.43000000000001</ele>
        <time>2025-05-01T12:57:06Z</time>
      </trkpt>
      <trkpt lat="42.871549967676401" lon="-8.544874023646116">
        <ele>241.43000000000001</ele>
        <time>2025-05-01T12:57:07Z</time>
      </trkpt>
      <trkpt lat="42.871634960174561" lon="-8.544723987579346">
        <ele>241.91</ele>
        <time>2025-05-01T12:57:08Z</time>
      </trkpt>
      <trkpt lat="42.871720958501101" lon="-8.544746031984687">
        <ele>241.91</ele>
        <time>2025-05-01T12:57:09Z</time>
      </trkpt>
      <trkpt lat="42.871720958501101" lon="-8.544746031984687">
        <ele>242.38999999999999</ele>
        <time>2025-05-01T12:57:10Z</time>
      </trkpt>
      <trkpt lat="42.871860014274716" lon="-8.544832030311227">
        <ele>242.38999999999999</ele>
        <time>2025-05-01T12:57:11Z</time>
      </trkpt>
      <trkpt lat="42.871956992894411" lon="-8.544809985905886">
        <ele>242.38999999999999</ele>
        <time>2025-05-01T12:57:12Z</time>
      </trkpt>
      <trkpt lat="42.872065035626292" lon="-8.544766986742616">
        <ele>242.87</ele>
        <time>2025-05-01T12:57:13Z</time>
      </trkpt>
      <trkpt lat="42.87240601144731" lon="-8.544746031984687">
        <ele>244.78999999999999</ele>
        <time>2025-05-01T12:57:19Z</time>
      </trkpt>
      <trkpt lat="42.872481029480696" lon="-8.544746031984687">
        <ele>244.78999999999999</ele>
        <time>2025-05-01T12:57:20Z</time>
      </trkpt>
      <trkpt lat="42.872889982536435" lon="-8.544746031984687">
        <ele>247.68000000000001</ele>
        <time>2025-05-01T12:57:26Z</time>
      </trkpt>
      <trkpt lat="42.873031971976161" lon="-8.544747959822416">
        <ele>249.12</ele>
        <time>2025-05-01T12:57:28Z</time>
      </trkpt>
      <trkpt lat="42.873288039118052" lon="-8.544757012277842">
        <ele>251.52000000000001</ele>
        <time>2025-05-01T12:57:33Z</time>
      </trkpt>
      <trkpt lat="42.873561959713697" lon="-8.544766986742616">
        <ele>252.47999999999999</ele>
        <time>2025-05-01T12:57:37Z</time>
      </trkpt>
      <trkpt lat="42.873631026595831" lon="-8.544766986742616">
        <ele>252.96000000000001</ele>
        <time>2025-05-01T12:57:38Z</time>
      </trkpt>
      <trkpt lat="42.873965967446566" lon="-8.544767992570996">
        <ele>253.93000000000001</ele>
        <time>2025-05-01T12:57:42Z</time>
      </trkpt>
      <trkpt lat="42.874011984094977" lon="-8.5447539947927">
        <ele>253.93000000000001</ele>
        <time>2025-05-01T12:57:43Z</time>
      </trkpt>
      <trkpt lat="42.87406001240015" lon="-8.544736979529262">
        <ele>254.41</ele>
        <time>2025-05-01T12:57:44Z</time>
      </trkpt>
      <trkpt lat="42.874204013496637" lon="-8.544687023386359">
        <ele>255.84999999999999</ele>
        <time>2025-05-01T12:57:53Z</time>
      </trkpt>
      <trkpt lat="42.874271990731359" lon="-8.544663973152638">
        <ele>256.32999999999998</ele>
        <time>2025-05-01T12:58:08Z</time>
      </trkpt>
      <trkpt lat="42.874349020421505" lon="-8.544636983424425">
        <ele>257.76999999999998</ele>
        <time>2025-05-01T12:58:11Z</time>
      </trkpt>
      <trkpt lat="42.874406017363071" lon="-8.544617034494877">
        <ele>258.73000000000002</ele>
        <time>2025-05-01T12:58:22Z</time>
      </trkpt>
      <trkpt lat="42.874438958242536" lon="-8.54460597038269">
        <ele>258.25</ele>
        <time>2025-05-01T12:58:23Z</time>
      </trkpt>
      <trkpt lat="42.874477012082934" lon="-8.544591972604394">
        <ele>258.25</ele>
        <time>2025-05-01T12:58:24Z</time>
      </trkpt>
      <trkpt lat="42.874803990125656" lon="-8.544445959851146">
        <ele>254.88999999999999</ele>
        <time>2025-05-01T12:58:30Z</time>
      </trkpt>
      <trkpt lat="42.8748569637537" lon="-8.544422993436456">
        <ele>254.41</ele>
        <time>2025-05-01T12:58:31Z</time>
      </trkpt>
      <trkpt lat="42.874904992058873" lon="-8.544401032850146">
        <ele>253.93000000000001</ele>
        <time>2025-05-01T12:58:32Z</time>
      </trkpt>
      <trkpt lat="42.875017980113626" lon="-8.544350992888212">
        <ele>252.47999999999999</ele>
        <time>2025-05-01T12:58:34Z</time>
      </trkpt>
      <trkpt lat="42.875087969005108" lon="-8.544319979846478">
        <ele>252</ele>
        <time>2025-05-01T12:58:35Z</time>
      </trkpt>
      <trkpt lat="42.875162987038493" lon="-8.544287038967013">
        <ele>251.52000000000001</ele>
        <time>2025-05-01T12:58:36Z</time>
      </trkpt>
      <trkpt lat="42.875264994800091" lon="-8.544241022318602">
        <ele>251.52000000000001</ele>
        <time>2025-05-01T12:58:37Z</time>
      </trkpt>
      <trkpt lat="42.875344036146998" lon="-8.544205985963345">
        <ele>251.03999999999999</ele>
        <time>2025-05-01T12:58:38Z</time>
      </trkpt>
      <trkpt lat="42.875497005879879" lon="-8.544137002900243">
        <ele>251.03999999999999</ele>
        <time>2025-05-01T12:58:40Z</time>
      </trkpt>
      <trkpt lat="42.875583004206419" lon="-8.544097021222115">
        <ele>250.56</ele>
        <time>2025-05-01T12:58:41Z</time>
      </trkpt>
      <trkpt lat="42.875755000859499" lon="-8.544015968218446">
        <ele>250.08000000000001</ele>
        <time>2025-05-01T12:58:42Z</time>
      </trkpt>
      <trkpt lat="42.875926997512579" lon="-8.543952014297247">
        <ele>250.08000000000001</ele>
        <time>2025-05-01T12:58:43Z</time>
      </trkpt>
      <trkpt lat="42.875926997512579" lon="-8.543952014297247">
        <ele>250.08000000000001</ele>
        <time>2025-05-01T12:58:44Z</time>
      </trkpt>
      <trkpt lat="42.875953987240791" lon="-8.543955031782389">
        <ele>250.08000000000001</ele>
        <time>2025-05-01T12:58:45Z</time>
      </trkpt>
      <trkpt lat="42.876576008275151" lon="-8.54408897459507">
        <ele>252.96000000000001</ele>
        <time>2025-05-01T12:58:54Z</time>
      </trkpt>
      <trkpt lat="42.87685202434659" lon="-8.544162986800075">
        <ele>254.41</ele>
        <time>2025-05-01T12:59:01Z</time>
      </trkpt>
      <trkpt lat="42.876913966611028" lon="-8.544080005958676">
        <ele>254.41</ele>
        <time>2025-05-01T12:59:02Z</time>
      </trkpt>
      <trkpt lat="42.876913966611028" lon="-8.544080005958676">
        <ele>253.93000000000001</ele>
        <time>2025-05-01T12:59:03Z</time>
      </trkpt>
      <trkpt lat="42.87696098908782" lon="-8.54395997710526">
        <ele>253.93000000000001</ele>
        <time>2025-05-01T12:59:04Z</time>
      </trkpt>
      <trkpt lat="42.876987978816032" lon="-8.543888982385397">
        <ele>253.44</ele>
        <time>2025-05-01T12:59:05Z</time>
      </trkpt>
      <trkpt lat="42.877017986029387" lon="-8.543812036514282">
        <ele>253.44</ele>
        <time>2025-05-01T12:59:06Z</time>
      </trkpt>
      <trkpt lat="42.87704698741436" lon="-8.543739030137658">
        <ele>253.44</ele>
        <time>2025-05-01T12:59:07Z</time>
      </trkpt>
      <trkpt lat="42.877064002677798" lon="-8.543694019317627">
        <ele>253.44</ele>
        <time>2025-05-01T12:59:08Z</time>
      </trkpt>
      <trkpt lat="42.877342030405998" lon="-8.543052971363068">
        <ele>252</ele>
        <time>2025-05-01T12:59:16Z</time>
      </trkpt>
      <trkpt lat="42.877415958791971" lon="-8.542874017730355">
        <ele>252</ele>
        <time>2025-05-01T12:59:18Z</time>
      </trkpt>
      <trkpt lat="42.877804040908813" lon="-8.542021997272968">
        <ele>257.29000000000002</ele>
        <time>2025-05-01T12:59:28Z</time>
      </trkpt>
      <trkpt lat="42.878034040331841" lon="-8.54163802228868">
        <ele>261.62</ele>
        <time>2025-05-01T12:59:33Z</time>
      </trkpt>
      <trkpt lat="42.878091037273407" lon="-8.541586976498365">
        <ele>262.10000000000002</ele>
        <time>2025-05-01T12:59:34Z</time>
      </trkpt>
      <trkpt lat="42.878150967881083" lon="-8.541532997041941">
        <ele>262.57999999999998</ele>
        <time>2025-05-01T12:59:35Z</time>
      </trkpt>
      <trkpt lat="42.878217017278075" lon="-8.54148798622191">
        <ele>263.06</ele>
        <time>2025-05-01T12:59:36Z</time>
      </trkpt>
      <trkpt lat="42.878281977027655" lon="-8.541443981230259">
        <ele>263.06</ele>
        <time>2025-05-01T12:59:37Z</time>
      </trkpt>
      <trkpt lat="42.878469983115792" lon="-8.541324958205223">
        <ele>263.54000000000002</ele>
        <time>2025-05-01T12:59:40Z</time>
      </trkpt>
      <trkpt lat="42.878664024174213" lon="-8.54122999124229">
        <ele>263.54000000000002</ele>
        <time>2025-05-01T12:59:43Z</time>
      </trkpt>
      <trkpt lat="42.878729989752173" lon="-8.541206018999219">
        <ele>264.01999999999998</ele>
        <time>2025-05-01T12:59:44Z</time>
      </trkpt>
      <trkpt lat="42.879160987213254" lon="-8.541041985154152">
        <ele>266.89999999999998</ele>
        <time>2025-05-01T12:59:50Z</time>
      </trkpt>
      <trkpt lat="42.879799017682672" lon="-8.540809974074364">
        <ele>271.23000000000002</ele>
        <time>2025-05-01T12:59:59Z</time>
      </trkpt>
      <trkpt lat="42.880321964621544" lon="-8.540574023500085">
        <ele>274.11000000000001</ele>
        <time>2025-05-01T13:00:07Z</time>
      </trkpt>
      <trkpt lat="42.880953960120678" lon="-8.540272023528814">
        <ele>277.48000000000002</ele>
        <time>2025-05-01T13:00:17Z</time>
      </trkpt>
      <trkpt lat="42.881015986204147" lon="-8.540245033800602">
        <ele>277.48000000000002</ele>
        <time>2025-05-01T13:00:18Z</time>
      </trkpt>
      <trkpt lat="42.881077006459236" lon="-8.540217960253358">
        <ele>277.95999999999998</ele>
        <time>2025-05-01T13:00:19Z</time>
      </trkpt>
      <trkpt lat="42.881744960322976" lon="-8.540174961090088">
        <ele>280.36000000000001</ele>
        <time>2025-05-01T13:00:28Z</time>
      </trkpt>
      <trkpt lat="42.88190103136003" lon="-8.54017898440361">
        <ele>281.31999999999999</ele>
        <time>2025-05-01T13:00:30Z</time>
      </trkpt>
      <trkpt lat="42.881969008594751" lon="-8.540188958868384">
        <ele>281.80000000000001</ele>
        <time>2025-05-01T13:00:31Z</time>
      </trkpt>
      <trkpt lat="42.882020976394415" lon="-8.540197005495429">
        <ele>282.76999999999998</ele>
        <time>2025-05-01T13:00:32Z</time>
      </trkpt>
      <trkpt lat="42.882069004699588" lon="-8.540216032415628">
        <ele>283.25</ele>
        <time>2025-05-01T13:00:33Z</time>
      </trkpt>
      <trkpt lat="42.882128013297915" lon="-8.540238998830319">
        <ele>283.73000000000002</ele>
        <time>2025-05-01T13:00:34Z</time>
      </trkpt>
      <trkpt lat="42.882166989147663" lon="-8.540281997993588">
        <ele>284.69</ele>
        <time>2025-05-01T13:00:35Z</time>
      </trkpt>
      <trkpt lat="42.88222398608923" lon="-8.540344024077058">
        <ele>285.17000000000002</ele>
        <time>2025-05-01T13:00:36Z</time>
      </trkpt>
      <trkpt lat="42.882281988859177" lon="-8.540407977998257">
        <ele>286.13</ele>
        <time>2025-05-01T13:00:37Z</time>
      </trkpt>
      <trkpt lat="42.882791021838784" lon="-8.541236026212573">
        <ele>292.86000000000001</ele>
        <time>2025-05-01T13:00:48Z</time>
      </trkpt>
      <trkpt lat="42.882958995178342" lon="-8.541628969833255">
        <ele>295.25999999999999</ele>
        <time>2025-05-01T13:00:53Z</time>
      </trkpt>
      <trkpt lat="42.883061002939939" lon="-8.54198201559484">
        <ele>296.22000000000003</ele>
        <time>2025-05-01T13:01:00Z</time>
      </trkpt>
      <trkpt lat="42.883077012374997" lon="-8.542038006708026">
        <ele>296.69999999999999</ele>
        <time>2025-05-01T13:01:01Z</time>
      </trkpt>
      <trkpt lat="42.883091010153294" lon="-8.542086035013199">
        <ele>296.69999999999999</ele>
        <time>2025-05-01T13:01:02Z</time>
      </trkpt>
      <trkpt lat="42.883102996274829" lon="-8.542129034176469">
        <ele>297.18000000000001</ele>
        <time>2025-05-01T13:01:03Z</time>
      </trkpt>
      <trkpt lat="42.883102996274829" lon="-8.542129034176469">
        <ele>297.67000000000002</ele>
        <time>2025-05-01T13:01:04Z</time>
      </trkpt>
      <trkpt lat="42.883114982396364" lon="-8.542171027511358">
        <ele>298.14999999999998</ele>
        <time>2025-05-01T13:01:05Z</time>
      </trkpt>
      <trkpt lat="42.883158987388015" lon="-8.542148983106017">
        <ele>298.63</ele>
        <time>2025-05-01T13:01:06Z</time>
      </trkpt>
      <trkpt lat="42.883404996246099" lon="-8.542026020586491">
        <ele>298.63</ele>
        <time>2025-05-01T13:01:11Z</time>
      </trkpt>
      <trkpt lat="42.883970020338893" lon="-8.541740030050278">
        <ele>295.74000000000001</ele>
        <time>2025-05-01T13:01:22Z</time>
      </trkpt>
      <trkpt lat="42.884138999506831" lon="-8.54163802228868">
        <ele>295.74000000000001</ele>
        <time>2025-05-01T13:01:29Z</time>
      </trkpt>
      <trkpt lat="42.884149979799986" lon="-8.541631987318397">
        <ele>295.25999999999999</ele>
        <time>2025-05-01T13:01:30Z</time>
      </trkpt>
      <trkpt lat="42.884149979799986" lon="-8.541631987318397">
        <ele>294.77999999999997</ele>
        <time>2025-05-01T13:01:43Z</time>
      </trkpt>
      <trkpt lat="42.884149979799986" lon="-8.541631987318397">
        <ele>294.77999999999997</ele>
        <time>2025-05-01T13:02:26Z</time>
      </trkpt>
      <trkpt lat="42.884149979799986" lon="-8.541631987318397">
        <ele>294.77999999999997</ele>
        <time>2025-05-01T13:03:10Z</time>
      </trkpt>
      <trkpt lat="42.884149979799986" lon="-8.541631987318397">
        <ele>294.77999999999997</ele>
        <time>2025-05-01T13:03:52Z</time>
      </trkpt>
      <trkpt lat="42.884149979799986" lon="-8.541631987318397">
        <ele>294.77999999999997</ele>
        <time>2025-05-01T13:04:26Z</time>
      </trkpt>
      <trkpt lat="42.884259028360248" lon="-8.541582031175494">
        <ele>295.25999999999999</ele>
        <time>2025-05-01T13:04:52Z</time>
      </trkpt>
      <trkpt lat="42.884312001988292" lon="-8.541556969285011">
        <ele>295.25999999999999</ele>
        <time>2025-05-01T13:04:53Z</time>
      </trkpt>
      <trkpt lat="42.884374028071761" lon="-8.541527967900038">
        <ele>295.25999999999999</ele>
        <time>2025-05-01T13:04:54Z</time>
      </trkpt>
      <trkpt lat="42.88467301055789" lon="-8.541381033137441">
        <ele>295.25999999999999</ele>
        <time>2025-05-01T13:04:58Z</time>
      </trkpt>
      <trkpt lat="42.884820029139519" lon="-8.541308026760817">
        <ele>295.25999999999999</ele>
        <time>2025-05-01T13:05:00Z</time>
      </trkpt>
      <trkpt lat="42.885453030467033" lon="-8.541005020961165">
        <ele>296.69999999999999</ele>
        <time>2025-05-01T13:05:11Z</time>
      </trkpt>
      <trkpt lat="42.885471973568201" lon="-8.540994040668011">
        <ele>296.69999999999999</ele>
        <time>2025-05-01T13:05:12Z</time>
      </trkpt>
      <trkpt lat="42.885459987446666" lon="-8.541114991530776">
        <ele>297.18000000000001</ele>
        <time>2025-05-01T13:05:17Z</time>
      </trkpt>
      <trkpt lat="42.885452024638653" lon="-8.541136030107737">
        <ele>297.18000000000001</ele>
        <time>2025-05-01T13:05:18Z</time>
      </trkpt>
      <trkpt lat="42.885374994948506" lon="-8.541233008727431">
        <ele>297.18000000000001</ele>
        <time>2025-05-01T13:05:29Z</time>
      </trkpt>
      <trkpt lat="42.885226970538497" lon="-8.541344990953803">
        <ele>295.74000000000001</ele>
        <time>2025-05-01T13:05:32Z</time>
      </trkpt>
      <trkpt lat="42.885173996910453" lon="-8.541377009823918">
        <ele>295.74000000000001</ele>
        <time>2025-05-01T13:05:33Z</time>
      </trkpt>
      <trkpt lat="42.885008035227656" lon="-8.541473988443613">
        <ele>294.30000000000001</ele>
        <time>2025-05-01T13:05:36Z</time>
      </trkpt>
      <trkpt lat="42.884948020800948" lon="-8.541510030627251">
        <ele>293.81999999999999</ele>
        <time>2025-05-01T13:05:37Z</time>
      </trkpt>
      <trkpt lat="42.884885994717479" lon="-8.541544983163476">
        <ele>293.33999999999997</ele>
        <time>2025-05-01T13:05:38Z</time>
      </trkpt>
      <trkpt lat="42.88478197529912" lon="-8.541606003418565">
        <ele>291.89999999999998</ele>
        <time>2025-05-01T13:05:40Z</time>
      </trkpt>
      <trkpt lat="42.884733024984598" lon="-8.541633998975158">
        <ele>291.42000000000002</ele>
        <time>2025-05-01T13:05:41Z</time>
      </trkpt>
      <trkpt lat="42.884614001959562" lon="-8.541739024221897">
        <ele>289.97000000000003</ele>
        <time>2025-05-01T13:05:44Z</time>
      </trkpt>
      <trkpt lat="42.884595980867743" lon="-8.541762996464968">
        <ele>289.49000000000001</ele>
        <time>2025-05-01T13:05:45Z</time>
      </trkpt>
      <trkpt lat="42.884574020281434" lon="-8.541828040033579">
        <ele>289.00999999999999</ele>
        <time>2025-05-01T13:05:46Z</time>
      </trkpt>
      <trkpt lat="42.884443011134863" lon="-8.542034989222884">
        <ele>286.61000000000001</ele>
        <time>2025-05-01T13:05:50Z</time>
      </trkpt>
      <trkpt lat="42.884373022243381" lon="-8.542125010862947">
        <ele>285.17000000000002</ele>
        <time>2025-05-01T13:05:52Z</time>
      </trkpt>
      <trkpt lat="42.884307978674769" lon="-8.542208997532725">
        <ele>283.73000000000002</ele>
        <time>2025-05-01T13:05:54Z</time>
      </trkpt>
      <trkpt lat="42.884241007268429" lon="-8.542297007516027">
        <ele>282.76999999999998</ele>
        <time>2025-05-01T13:05:56Z</time>
      </trkpt>
      <trkpt lat="42.884168000891805" lon="-8.54239096865058">
        <ele>281.31999999999999</ele>
        <time>2025-05-01T13:05:58Z</time>
      </trkpt>
      <trkpt lat="42.884126007556915" lon="-8.542446037754417">
        <ele>280.83999999999997</ele>
        <time>2025-05-01T13:05:59Z</time>
      </trkpt>
      <trkpt lat="42.884087031707168" lon="-8.542495993897319">
        <ele>279.88</ele>
        <time>2025-05-01T13:06:00Z</time>
      </trkpt>
      <trkpt lat="42.884053001180291" lon="-8.542539998888969">
        <ele>279.39999999999998</ele>
        <time>2025-05-01T13:06:01Z</time>
      </trkpt>
      <trkpt lat="42.883973959833384" lon="-8.542643012478948">
        <ele>278.44</ele>
        <time>2025-05-01T13:06:02Z</time>
      </trkpt>
      <trkpt lat="42.883815038949251" lon="-8.542781984433532">
        <ele>275.56</ele>
        <time>2025-05-01T13:06:07Z</time>
      </trkpt>
      <trkpt lat="42.883485965430737" lon="-8.543071998283267">
        <ele>272.67000000000002</ele>
        <time>2025-05-01T13:06:17Z</time>
      </trkpt>
      <trkpt lat="42.883468028157949" lon="-8.543088007718325">
        <ele>272.67000000000002</ele>
        <time>2025-05-01T13:06:18Z</time>
      </trkpt>
      <trkpt lat="42.883454030379653" lon="-8.54309999383986">
        <ele>272.19</ele>
        <time>2025-05-01T13:06:19Z</time>
      </trkpt>
      <trkpt lat="42.883437015116215" lon="-8.543114997446537">
        <ele>271.70999999999998</ele>
        <time>2025-05-01T13:06:20Z</time>
      </trkpt>
      <trkpt lat="42.883424023166299" lon="-8.543124971911311">
        <ele>271.23000000000002</ele>
        <time>2025-05-01T13:06:21Z</time>
      </trkpt>
      <trkpt lat="42.883339030668139" lon="-8.543121032416821">
        <ele>271.23000000000002</ele>
        <time>2025-05-01T13:06:22Z</time>
      </trkpt>
      <trkpt lat="42.883332995697856" lon="-8.543092031031847">
        <ele>271.23000000000002</ele>
        <time>2025-05-01T13:06:23Z</time>
      </trkpt>
      <trkpt lat="42.883325032889843" lon="-8.54305699467659">
        <ele>271.23000000000002</ele>
        <time>2025-05-01T13:06:24Z</time>
      </trkpt>
      <trkpt lat="42.883316986262798" lon="-8.543017012998462">
        <ele>271.23000000000002</ele>
        <time>2025-05-01T13:06:25Z</time>
      </trkpt>
      <trkpt lat="42.883309023454785" lon="-8.542978959158063">
        <ele>271.70999999999998</ele>
        <time>2025-05-01T13:06:26Z</time>
      </trkpt>
      <trkpt lat="42.883300976827741" lon="-8.542940989136696">
        <ele>271.70999999999998</ele>
        <time>2025-05-01T13:06:27Z</time>
      </trkpt>
      <trkpt lat="42.883292008191347" lon="-8.542897989973426">
        <ele>272.19</ele>
        <time>2025-05-01T13:06:28Z</time>
      </trkpt>
      <trkpt lat="42.883282033726573" lon="-8.542849961668253">
        <ele>272.67000000000002</ele>
        <time>2025-05-01T13:06:29Z</time>
      </trkpt>
      <trkpt lat="42.883208021521568" lon="-8.542504962533712">
        <ele>275.56</ele>
        <time>2025-05-01T13:06:40Z</time>
      </trkpt>
      <trkpt lat="42.883208021521568" lon="-8.542504962533712">
        <ele>275.56</ele>
        <time>2025-05-01T13:07:08Z</time>
      </trkpt>
      <trkpt lat="42.883208021521568" lon="-8.542504962533712">
        <ele>279.88</ele>
        <time>2025-05-01T13:07:25Z</time>
      </trkpt>
      <trkpt lat="42.883208021521568" lon="-8.542504962533712">
        <ele>279.88</ele>
        <time>2025-05-01T13:07:44Z</time>
      </trkpt>
      <trkpt lat="42.883208021521568" lon="-8.542504962533712">
        <ele>280.36000000000001</ele>
        <time>2025-05-01T13:08:04Z</time>
      </trkpt>
    </trkseg>
  </trk>

</gpx>